<?xml version="1.0" encoding="UTF-8" standalone="no" ?>
<gpx xmlns="http://www.topografix.com/GPX/1/1" xmlns:xsi="http://www.w3.org/2001/XMLSchema-instance" xsi:schemaLocation="http://www.topografix.com/GPX/1/1 http://www.topografix.com/GPX/1/1/gpx.xsd" version="1.1" creator="VisuGPX - https://www.visugpx.com">
  <metadata>
    <name>Mont Puget</name>
    <desc><![CDATA[Circuit facile,quelques passages délicats!
Arrêtez vous et admirer les paysages.]]></desc>
  </metadata>
  <trk>
    <name><![CDATA[Mont Puget_1]]></name>
    <trkseg>
      <trkpt lat="43.23057" lon="5.43632">
        <ele>131.7</ele>
        <time>2013-10-09T06:37:17Z</time>
      </trkpt>
      <trkpt lat="43.23057" lon="5.43632">
        <ele>131.8</ele>
        <time>2013-10-09T06:37:18Z</time>
      </trkpt>
      <trkpt lat="43.23052" lon="5.4364">
        <ele>134.1</ele>
        <time>2013-10-09T06:37:34Z</time>
      </trkpt>
      <trkpt lat="43.2305" lon="5.43645">
        <ele>137.1</ele>
        <time>2013-10-09T06:37:40Z</time>
      </trkpt>
      <trkpt lat="43.23048" lon="5.4365">
        <ele>140.8</ele>
        <time>2013-10-09T06:37:45Z</time>
      </trkpt>
      <trkpt lat="43.23046" lon="5.43654">
        <ele>140.1</ele>
        <time>2013-10-09T06:37:50Z</time>
      </trkpt>
      <trkpt lat="43.23045" lon="5.4366">
        <ele>140.6</ele>
        <time>2013-10-09T06:37:57Z</time>
      </trkpt>
      <trkpt lat="43.23045" lon="5.43666">
        <ele>141.3</ele>
        <time>2013-10-09T06:38:04Z</time>
      </trkpt>
      <trkpt lat="43.23044" lon="5.43671">
        <ele>141.1</ele>
        <time>2013-10-09T06:38:09Z</time>
      </trkpt>
      <trkpt lat="43.23042" lon="5.43676">
        <ele>141.1</ele>
        <time>2013-10-09T06:38:15Z</time>
      </trkpt>
      <trkpt lat="43.23038" lon="5.43677">
        <ele>139.6</ele>
        <time>2013-10-09T06:38:29Z</time>
      </trkpt>
      <trkpt lat="43.23037" lon="5.43677">
        <ele>139.1</ele>
        <time>2013-10-09T06:38:30Z</time>
      </trkpt>
      <trkpt lat="43.23031" lon="5.43681">
        <ele>134.6</ele>
        <time>2013-10-09T06:38:39Z</time>
      </trkpt>
      <trkpt lat="43.23027" lon="5.43684">
        <ele>133.3</ele>
        <time>2013-10-09T06:38:44Z</time>
      </trkpt>
      <trkpt lat="43.23024" lon="5.43685">
        <ele>134.1</ele>
        <time>2013-10-09T06:38:49Z</time>
      </trkpt>
      <trkpt lat="43.2302" lon="5.43686">
        <ele>134.8</ele>
        <time>2013-10-09T06:38:52Z</time>
      </trkpt>
      <trkpt lat="43.23016" lon="5.43688">
        <ele>136.3</ele>
        <time>2013-10-09T06:38:56Z</time>
      </trkpt>
      <trkpt lat="43.23013" lon="5.4369">
        <ele>138.3</ele>
        <time>2013-10-09T06:39:00Z</time>
      </trkpt>
      <trkpt lat="43.23008" lon="5.43691">
        <ele>139.3</ele>
        <time>2013-10-09T06:39:04Z</time>
      </trkpt>
      <trkpt lat="43.23004" lon="5.43691">
        <ele>138.6</ele>
        <time>2013-10-09T06:39:10Z</time>
      </trkpt>
      <trkpt lat="43.23" lon="5.4369">
        <ele>141.6</ele>
        <time>2013-10-09T06:39:19Z</time>
      </trkpt>
      <trkpt lat="43.22997" lon="5.43691">
        <ele>142.1</ele>
        <time>2013-10-09T06:39:22Z</time>
      </trkpt>
      <trkpt lat="43.22993" lon="5.43692">
        <ele>142.3</ele>
        <time>2013-10-09T06:39:25Z</time>
      </trkpt>
      <trkpt lat="43.22989" lon="5.43694">
        <ele>142.6</ele>
        <time>2013-10-09T06:39:29Z</time>
      </trkpt>
      <trkpt lat="43.22985" lon="5.43696">
        <ele>142.6</ele>
        <time>2013-10-09T06:39:33Z</time>
      </trkpt>
      <trkpt lat="43.22985" lon="5.43696">
        <ele>142.6</ele>
        <time>2013-10-09T06:39:34Z</time>
      </trkpt>
      <trkpt lat="43.22978" lon="5.43699">
        <ele>140.8</ele>
        <time>2013-10-09T06:39:42Z</time>
      </trkpt>
      <trkpt lat="43.22974" lon="5.437">
        <ele>140</ele>
        <time>2013-10-09T06:39:46Z</time>
      </trkpt>
      <trkpt lat="43.22971" lon="5.43701">
        <ele>141</ele>
        <time>2013-10-09T06:39:49Z</time>
      </trkpt>
      <trkpt lat="43.22966" lon="5.43701">
        <ele>141.3</ele>
        <time>2013-10-09T06:39:55Z</time>
      </trkpt>
      <trkpt lat="43.22964" lon="5.43703">
        <ele>143.3</ele>
        <time>2013-10-09T06:40:00Z</time>
      </trkpt>
      <trkpt lat="43.22961" lon="5.43707">
        <ele>145.3</ele>
        <time>2013-10-09T06:40:03Z</time>
      </trkpt>
      <trkpt lat="43.22957" lon="5.43707">
        <ele>144.1</ele>
        <time>2013-10-09T06:40:08Z</time>
      </trkpt>
      <trkpt lat="43.22953" lon="5.43706">
        <ele>144.1</ele>
        <time>2013-10-09T06:40:12Z</time>
      </trkpt>
      <trkpt lat="43.22948" lon="5.43706">
        <ele>142.6</ele>
        <time>2013-10-09T06:40:17Z</time>
      </trkpt>
      <trkpt lat="43.22945" lon="5.43706">
        <ele>141.6</ele>
        <time>2013-10-09T06:40:20Z</time>
      </trkpt>
      <trkpt lat="43.22941" lon="5.43706">
        <ele>139.3</ele>
        <time>2013-10-09T06:40:23Z</time>
      </trkpt>
      <trkpt lat="43.22937" lon="5.43705">
        <ele>138.6</ele>
        <time>2013-10-09T06:40:27Z</time>
      </trkpt>
      <trkpt lat="43.22933" lon="5.43706">
        <ele>137.5</ele>
        <time>2013-10-09T06:40:32Z</time>
      </trkpt>
      <trkpt lat="43.22928" lon="5.43707">
        <ele>138.1</ele>
        <time>2013-10-09T06:40:35Z</time>
      </trkpt>
      <trkpt lat="43.22927" lon="5.43707">
        <ele>138.3</ele>
        <time>2013-10-09T06:40:36Z</time>
      </trkpt>
      <trkpt lat="43.22921" lon="5.43707">
        <ele>139.6</ele>
        <time>2013-10-09T06:40:42Z</time>
      </trkpt>
      <trkpt lat="43.22917" lon="5.43707">
        <ele>138.6</ele>
        <time>2013-10-09T06:40:45Z</time>
      </trkpt>
      <trkpt lat="43.22914" lon="5.43708">
        <ele>137.5</ele>
        <time>2013-10-09T06:40:48Z</time>
      </trkpt>
      <trkpt lat="43.2291" lon="5.43707">
        <ele>136.5</ele>
        <time>2013-10-09T06:40:52Z</time>
      </trkpt>
      <trkpt lat="43.22906" lon="5.43707">
        <ele>136.6</ele>
        <time>2013-10-09T06:40:56Z</time>
      </trkpt>
      <trkpt lat="43.22903" lon="5.43708">
        <ele>137.6</ele>
        <time>2013-10-09T06:40:59Z</time>
      </trkpt>
      <trkpt lat="43.22899" lon="5.43709">
        <ele>138.8</ele>
        <time>2013-10-09T06:41:02Z</time>
      </trkpt>
      <trkpt lat="43.22895" lon="5.4371">
        <ele>139</ele>
        <time>2013-10-09T06:41:06Z</time>
      </trkpt>
      <trkpt lat="43.22889" lon="5.4371">
        <ele>139.6</ele>
        <time>2013-10-09T06:41:08Z</time>
      </trkpt>
      <trkpt lat="43.22885" lon="5.43711">
        <ele>140.6</ele>
        <time>2013-10-09T06:41:11Z</time>
      </trkpt>
      <trkpt lat="43.22882" lon="5.43712">
        <ele>141.5</ele>
        <time>2013-10-09T06:41:14Z</time>
      </trkpt>
      <trkpt lat="43.22878" lon="5.43713">
        <ele>141.8</ele>
        <time>2013-10-09T06:41:17Z</time>
      </trkpt>
      <trkpt lat="43.22875" lon="5.43714">
        <ele>141.8</ele>
        <time>2013-10-09T06:41:20Z</time>
      </trkpt>
      <trkpt lat="43.22872" lon="5.43715">
        <ele>142.5</ele>
        <time>2013-10-09T06:41:23Z</time>
      </trkpt>
      <trkpt lat="43.22869" lon="5.43715">
        <ele>146.3</ele>
        <time>2013-10-09T06:41:25Z</time>
      </trkpt>
      <trkpt lat="43.22865" lon="5.43717">
        <ele>151.1</ele>
        <time>2013-10-09T06:41:27Z</time>
      </trkpt>
      <trkpt lat="43.22862" lon="5.43717">
        <ele>152.6</ele>
        <time>2013-10-09T06:41:30Z</time>
      </trkpt>
      <trkpt lat="43.22858" lon="5.43717">
        <ele>152.1</ele>
        <time>2013-10-09T06:41:33Z</time>
      </trkpt>
      <trkpt lat="43.22854" lon="5.43717">
        <ele>150.8</ele>
        <time>2013-10-09T06:41:37Z</time>
      </trkpt>
      <trkpt lat="43.22853" lon="5.43717">
        <ele>150.5</ele>
        <time>2013-10-09T06:41:38Z</time>
      </trkpt>
      <trkpt lat="43.22847" lon="5.43718">
        <ele>151.8</ele>
        <time>2013-10-09T06:41:43Z</time>
      </trkpt>
      <trkpt lat="43.22843" lon="5.43719">
        <ele>152.8</ele>
        <time>2013-10-09T06:41:46Z</time>
      </trkpt>
      <trkpt lat="43.22839" lon="5.43719">
        <ele>154.1</ele>
        <time>2013-10-09T06:41:49Z</time>
      </trkpt>
      <trkpt lat="43.22836" lon="5.4372">
        <ele>154.8</ele>
        <time>2013-10-09T06:41:52Z</time>
      </trkpt>
      <trkpt lat="43.22832" lon="5.43721">
        <ele>156.3</ele>
        <time>2013-10-09T06:41:55Z</time>
      </trkpt>
      <trkpt lat="43.22829" lon="5.43722">
        <ele>158.8</ele>
        <time>2013-10-09T06:41:57Z</time>
      </trkpt>
      <trkpt lat="43.22825" lon="5.43723">
        <ele>157.8</ele>
        <time>2013-10-09T06:42:00Z</time>
      </trkpt>
      <trkpt lat="43.22821" lon="5.43723">
        <ele>158</ele>
        <time>2013-10-09T06:42:03Z</time>
      </trkpt>
      <trkpt lat="43.22817" lon="5.43723">
        <ele>158.1</ele>
        <time>2013-10-09T06:42:06Z</time>
      </trkpt>
      <trkpt lat="43.22814" lon="5.43723">
        <ele>157.3</ele>
        <time>2013-10-09T06:42:09Z</time>
      </trkpt>
      <trkpt lat="43.2281" lon="5.43724">
        <ele>156.5</ele>
        <time>2013-10-09T06:42:12Z</time>
      </trkpt>
      <trkpt lat="43.22807" lon="5.43725">
        <ele>155.8</ele>
        <time>2013-10-09T06:42:15Z</time>
      </trkpt>
      <trkpt lat="43.22803" lon="5.43725">
        <ele>155.8</ele>
        <time>2013-10-09T06:42:18Z</time>
      </trkpt>
      <trkpt lat="43.22799" lon="5.43725">
        <ele>153.6</ele>
        <time>2013-10-09T06:42:22Z</time>
      </trkpt>
      <trkpt lat="43.22795" lon="5.43725">
        <ele>153.8</ele>
        <time>2013-10-09T06:42:25Z</time>
      </trkpt>
      <trkpt lat="43.22792" lon="5.43725">
        <ele>153.8</ele>
        <time>2013-10-09T06:42:28Z</time>
      </trkpt>
      <trkpt lat="43.22788" lon="5.43724">
        <ele>153.5</ele>
        <time>2013-10-09T06:42:31Z</time>
      </trkpt>
      <trkpt lat="43.22785" lon="5.43722">
        <ele>153.5</ele>
        <time>2013-10-09T06:42:34Z</time>
      </trkpt>
      <trkpt lat="43.2278" lon="5.43721">
        <ele>153.6</ele>
        <time>2013-10-09T06:42:38Z</time>
      </trkpt>
      <trkpt lat="43.22779" lon="5.43721">
        <ele>153.6</ele>
        <time>2013-10-09T06:42:39Z</time>
      </trkpt>
      <trkpt lat="43.22772" lon="5.4372">
        <ele>154.8</ele>
        <time>2013-10-09T06:42:46Z</time>
      </trkpt>
      <trkpt lat="43.22768" lon="5.43719">
        <ele>155.1</ele>
        <time>2013-10-09T06:42:50Z</time>
      </trkpt>
      <trkpt lat="43.22764" lon="5.43719">
        <ele>154.8</ele>
        <time>2013-10-09T06:42:54Z</time>
      </trkpt>
      <trkpt lat="43.2276" lon="5.43719">
        <ele>154.8</ele>
        <time>2013-10-09T06:42:58Z</time>
      </trkpt>
      <trkpt lat="43.22756" lon="5.4372">
        <ele>153</ele>
        <time>2013-10-09T06:43:02Z</time>
      </trkpt>
      <trkpt lat="43.22751" lon="5.43721">
        <ele>152.5</ele>
        <time>2013-10-09T06:43:06Z</time>
      </trkpt>
      <trkpt lat="43.22747" lon="5.43723">
        <ele>152.1</ele>
        <time>2013-10-09T06:43:10Z</time>
      </trkpt>
      <trkpt lat="43.22743" lon="5.43724">
        <ele>152.1</ele>
        <time>2013-10-09T06:43:14Z</time>
      </trkpt>
      <trkpt lat="43.22739" lon="5.43725">
        <ele>152.5</ele>
        <time>2013-10-09T06:43:18Z</time>
      </trkpt>
      <trkpt lat="43.22735" lon="5.43725">
        <ele>151.5</ele>
        <time>2013-10-09T06:43:21Z</time>
      </trkpt>
      <trkpt lat="43.22732" lon="5.43727">
        <ele>152.3</ele>
        <time>2013-10-09T06:43:24Z</time>
      </trkpt>
      <trkpt lat="43.22728" lon="5.43728">
        <ele>153.5</ele>
        <time>2013-10-09T06:43:27Z</time>
      </trkpt>
      <trkpt lat="43.22725" lon="5.4373">
        <ele>154.3</ele>
        <time>2013-10-09T06:43:30Z</time>
      </trkpt>
      <trkpt lat="43.22721" lon="5.43733">
        <ele>155.8</ele>
        <time>2013-10-09T06:43:33Z</time>
      </trkpt>
      <trkpt lat="43.22716" lon="5.43735">
        <ele>155.6</ele>
        <time>2013-10-09T06:43:37Z</time>
      </trkpt>
      <trkpt lat="43.22713" lon="5.43736">
        <ele>155.3</ele>
        <time>2013-10-09T06:43:40Z</time>
      </trkpt>
      <trkpt lat="43.22712" lon="5.43737">
        <ele>155.3</ele>
        <time>2013-10-09T06:43:41Z</time>
      </trkpt>
      <trkpt lat="43.22707" lon="5.4374">
        <ele>155.5</ele>
        <time>2013-10-09T06:43:46Z</time>
      </trkpt>
      <trkpt lat="43.22703" lon="5.43742">
        <ele>155.1</ele>
        <time>2013-10-09T06:43:49Z</time>
      </trkpt>
      <trkpt lat="43.227" lon="5.43744">
        <ele>155.1</ele>
        <time>2013-10-09T06:43:52Z</time>
      </trkpt>
      <trkpt lat="43.22696" lon="5.43746">
        <ele>155.3</ele>
        <time>2013-10-09T06:43:56Z</time>
      </trkpt>
      <trkpt lat="43.22692" lon="5.43749">
        <ele>155.1</ele>
        <time>2013-10-09T06:44:00Z</time>
      </trkpt>
      <trkpt lat="43.22689" lon="5.43751">
        <ele>154.6</ele>
        <time>2013-10-09T06:44:03Z</time>
      </trkpt>
      <trkpt lat="43.22686" lon="5.43753">
        <ele>154.3</ele>
        <time>2013-10-09T06:44:06Z</time>
      </trkpt>
      <trkpt lat="43.22683" lon="5.43756">
        <ele>154</ele>
        <time>2013-10-09T06:44:10Z</time>
      </trkpt>
      <trkpt lat="43.22679" lon="5.43759">
        <ele>153.5</ele>
        <time>2013-10-09T06:44:14Z</time>
      </trkpt>
      <trkpt lat="43.22676" lon="5.43762">
        <ele>153.6</ele>
        <time>2013-10-09T06:44:17Z</time>
      </trkpt>
      <trkpt lat="43.22672" lon="5.43765">
        <ele>153.3</ele>
        <time>2013-10-09T06:44:21Z</time>
      </trkpt>
      <trkpt lat="43.22668" lon="5.43768">
        <ele>153.3</ele>
        <time>2013-10-09T06:44:25Z</time>
      </trkpt>
      <trkpt lat="43.22666" lon="5.4377">
        <ele>153.8</ele>
        <time>2013-10-09T06:44:28Z</time>
      </trkpt>
      <trkpt lat="43.22663" lon="5.43773">
        <ele>154.5</ele>
        <time>2013-10-09T06:44:31Z</time>
      </trkpt>
      <trkpt lat="43.2266" lon="5.43776">
        <ele>155</ele>
        <time>2013-10-09T06:44:34Z</time>
      </trkpt>
      <trkpt lat="43.22656" lon="5.43779">
        <ele>155.3</ele>
        <time>2013-10-09T06:44:38Z</time>
      </trkpt>
      <trkpt lat="43.22652" lon="5.43782">
        <ele>155.3</ele>
        <time>2013-10-09T06:44:42Z</time>
      </trkpt>
      <trkpt lat="43.22651" lon="5.43783">
        <ele>155.5</ele>
        <time>2013-10-09T06:44:43Z</time>
      </trkpt>
      <trkpt lat="43.22646" lon="5.43787">
        <ele>156.1</ele>
        <time>2013-10-09T06:44:48Z</time>
      </trkpt>
      <trkpt lat="43.22643" lon="5.43788">
        <ele>156.5</ele>
        <time>2013-10-09T06:44:51Z</time>
      </trkpt>
      <trkpt lat="43.22639" lon="5.4379">
        <ele>156.6</ele>
        <time>2013-10-09T06:44:54Z</time>
      </trkpt>
      <trkpt lat="43.22636" lon="5.43792">
        <ele>157.1</ele>
        <time>2013-10-09T06:44:57Z</time>
      </trkpt>
      <trkpt lat="43.22633" lon="5.43793">
        <ele>156.5</ele>
        <time>2013-10-09T06:45:00Z</time>
      </trkpt>
      <trkpt lat="43.22629" lon="5.43794">
        <ele>155.8</ele>
        <time>2013-10-09T06:45:03Z</time>
      </trkpt>
      <trkpt lat="43.22626" lon="5.43797">
        <ele>157.1</ele>
        <time>2013-10-09T06:45:06Z</time>
      </trkpt>
      <trkpt lat="43.22622" lon="5.43798">
        <ele>157.6</ele>
        <time>2013-10-09T06:45:09Z</time>
      </trkpt>
      <trkpt lat="43.22618" lon="5.438">
        <ele>158.5</ele>
        <time>2013-10-09T06:45:13Z</time>
      </trkpt>
      <trkpt lat="43.22614" lon="5.43801">
        <ele>158.3</ele>
        <time>2013-10-09T06:45:17Z</time>
      </trkpt>
      <trkpt lat="43.22611" lon="5.43802">
        <ele>158.1</ele>
        <time>2013-10-09T06:45:20Z</time>
      </trkpt>
      <trkpt lat="43.22607" lon="5.43803">
        <ele>158.1</ele>
        <time>2013-10-09T06:45:23Z</time>
      </trkpt>
      <trkpt lat="43.22603" lon="5.43803">
        <ele>157.3</ele>
        <time>2013-10-09T06:45:27Z</time>
      </trkpt>
      <trkpt lat="43.22598" lon="5.43803">
        <ele>155.6</ele>
        <time>2013-10-09T06:45:32Z</time>
      </trkpt>
      <trkpt lat="43.22594" lon="5.43803">
        <ele>154.8</ele>
        <time>2013-10-09T06:45:37Z</time>
      </trkpt>
      <trkpt lat="43.2259" lon="5.43803">
        <ele>154.3</ele>
        <time>2013-10-09T06:45:41Z</time>
      </trkpt>
      <trkpt lat="43.22586" lon="5.43804">
        <ele>153.1</ele>
        <time>2013-10-09T06:45:44Z</time>
      </trkpt>
      <trkpt lat="43.22585" lon="5.43804">
        <ele>152.6</ele>
        <time>2013-10-09T06:45:45Z</time>
      </trkpt>
      <trkpt lat="43.22578" lon="5.43805">
        <ele>151.3</ele>
        <time>2013-10-09T06:45:50Z</time>
      </trkpt>
      <trkpt lat="43.22574" lon="5.43806">
        <ele>151.6</ele>
        <time>2013-10-09T06:45:53Z</time>
      </trkpt>
      <trkpt lat="43.2257" lon="5.43805">
        <ele>150.5</ele>
        <time>2013-10-09T06:45:56Z</time>
      </trkpt>
      <trkpt lat="43.22567" lon="5.43806">
        <ele>150.3</ele>
        <time>2013-10-09T06:45:59Z</time>
      </trkpt>
      <trkpt lat="43.22563" lon="5.43807">
        <ele>150.3</ele>
        <time>2013-10-09T06:46:02Z</time>
      </trkpt>
      <trkpt lat="43.2256" lon="5.43806">
        <ele>150.8</ele>
        <time>2013-10-09T06:46:05Z</time>
      </trkpt>
      <trkpt lat="43.22556" lon="5.43807">
        <ele>150.1</ele>
        <time>2013-10-09T06:46:08Z</time>
      </trkpt>
      <trkpt lat="43.22553" lon="5.43808">
        <ele>151.3</ele>
        <time>2013-10-09T06:46:11Z</time>
      </trkpt>
      <trkpt lat="43.2255" lon="5.43808">
        <ele>151.8</ele>
        <time>2013-10-09T06:46:14Z</time>
      </trkpt>
      <trkpt lat="43.22546" lon="5.43809">
        <ele>151.3</ele>
        <time>2013-10-09T06:46:17Z</time>
      </trkpt>
      <trkpt lat="43.22542" lon="5.43808">
        <ele>150.5</ele>
        <time>2013-10-09T06:46:20Z</time>
      </trkpt>
      <trkpt lat="43.22538" lon="5.43808">
        <ele>149.6</ele>
        <time>2013-10-09T06:46:23Z</time>
      </trkpt>
      <trkpt lat="43.22534" lon="5.43809">
        <ele>149.8</ele>
        <time>2013-10-09T06:46:26Z</time>
      </trkpt>
      <trkpt lat="43.2253" lon="5.43809">
        <ele>149.1</ele>
        <time>2013-10-09T06:46:29Z</time>
      </trkpt>
      <trkpt lat="43.22526" lon="5.43809">
        <ele>149.1</ele>
        <time>2013-10-09T06:46:32Z</time>
      </trkpt>
      <trkpt lat="43.22522" lon="5.43809">
        <ele>149.3</ele>
        <time>2013-10-09T06:46:35Z</time>
      </trkpt>
      <trkpt lat="43.22518" lon="5.43809">
        <ele>149.8</ele>
        <time>2013-10-09T06:46:38Z</time>
      </trkpt>
      <trkpt lat="43.22514" lon="5.43809">
        <ele>150.3</ele>
        <time>2013-10-09T06:46:41Z</time>
      </trkpt>
      <trkpt lat="43.22511" lon="5.43809">
        <ele>151.5</ele>
        <time>2013-10-09T06:46:44Z</time>
      </trkpt>
      <trkpt lat="43.22507" lon="5.43809">
        <ele>151.8</ele>
        <time>2013-10-09T06:46:47Z</time>
      </trkpt>
      <trkpt lat="43.22506" lon="5.43809">
        <ele>152</ele>
        <time>2013-10-09T06:46:48Z</time>
      </trkpt>
      <trkpt lat="43.225" lon="5.43809">
        <ele>152</ele>
        <time>2013-10-09T06:46:53Z</time>
      </trkpt>
      <trkpt lat="43.22496" lon="5.43809">
        <ele>151.6</ele>
        <time>2013-10-09T06:46:57Z</time>
      </trkpt>
      <trkpt lat="43.22492" lon="5.43808">
        <ele>150.6</ele>
        <time>2013-10-09T06:47:00Z</time>
      </trkpt>
      <trkpt lat="43.22488" lon="5.43808">
        <ele>151.1</ele>
        <time>2013-10-09T06:47:04Z</time>
      </trkpt>
      <trkpt lat="43.22484" lon="5.43808">
        <ele>149.1</ele>
        <time>2013-10-09T06:47:08Z</time>
      </trkpt>
      <trkpt lat="43.22479" lon="5.43808">
        <ele>147.3</ele>
        <time>2013-10-09T06:47:13Z</time>
      </trkpt>
      <trkpt lat="43.22475" lon="5.43807">
        <ele>148.1</ele>
        <time>2013-10-09T06:47:17Z</time>
      </trkpt>
      <trkpt lat="43.22472" lon="5.43807">
        <ele>149.1</ele>
        <time>2013-10-09T06:47:20Z</time>
      </trkpt>
      <trkpt lat="43.22468" lon="5.43808">
        <ele>150</ele>
        <time>2013-10-09T06:47:23Z</time>
      </trkpt>
      <trkpt lat="43.22465" lon="5.43809">
        <ele>150.3</ele>
        <time>2013-10-09T06:47:26Z</time>
      </trkpt>
      <trkpt lat="43.22461" lon="5.4381">
        <ele>151</ele>
        <time>2013-10-09T06:47:29Z</time>
      </trkpt>
      <trkpt lat="43.22457" lon="5.43812">
        <ele>149.8</ele>
        <time>2013-10-09T06:47:32Z</time>
      </trkpt>
      <trkpt lat="43.22453" lon="5.43815">
        <ele>149.6</ele>
        <time>2013-10-09T06:47:35Z</time>
      </trkpt>
      <trkpt lat="43.22451" lon="5.43817">
        <ele>149.1</ele>
        <time>2013-10-09T06:47:37Z</time>
      </trkpt>
      <trkpt lat="43.22448" lon="5.4382">
        <ele>150.1</ele>
        <time>2013-10-09T06:47:39Z</time>
      </trkpt>
      <trkpt lat="43.22445" lon="5.43823">
        <ele>151.5</ele>
        <time>2013-10-09T06:47:42Z</time>
      </trkpt>
      <trkpt lat="43.22441" lon="5.43827">
        <ele>153.1</ele>
        <time>2013-10-09T06:47:45Z</time>
      </trkpt>
      <trkpt lat="43.22438" lon="5.4383">
        <ele>153.1</ele>
        <time>2013-10-09T06:47:48Z</time>
      </trkpt>
      <trkpt lat="43.22437" lon="5.43831">
        <ele>153.3</ele>
        <time>2013-10-09T06:47:49Z</time>
      </trkpt>
      <trkpt lat="43.22433" lon="5.43835">
        <ele>156</ele>
        <time>2013-10-09T06:47:52Z</time>
      </trkpt>
      <trkpt lat="43.22429" lon="5.43838">
        <ele>155.6</ele>
        <time>2013-10-09T06:47:55Z</time>
      </trkpt>
      <trkpt lat="43.22425" lon="5.4384">
        <ele>154.8</ele>
        <time>2013-10-09T06:48:00Z</time>
      </trkpt>
      <trkpt lat="43.22421" lon="5.43843">
        <ele>155.3</ele>
        <time>2013-10-09T06:48:03Z</time>
      </trkpt>
      <trkpt lat="43.22417" lon="5.43845">
        <ele>156.1</ele>
        <time>2013-10-09T06:48:06Z</time>
      </trkpt>
      <trkpt lat="43.22413" lon="5.43847">
        <ele>154.8</ele>
        <time>2013-10-09T06:48:10Z</time>
      </trkpt>
      <trkpt lat="43.22409" lon="5.43848">
        <ele>153.8</ele>
        <time>2013-10-09T06:48:14Z</time>
      </trkpt>
      <trkpt lat="43.22406" lon="5.4385">
        <ele>154.1</ele>
        <time>2013-10-09T06:48:17Z</time>
      </trkpt>
      <trkpt lat="43.22402" lon="5.43852">
        <ele>152.8</ele>
        <time>2013-10-09T06:48:21Z</time>
      </trkpt>
      <trkpt lat="43.22398" lon="5.43855">
        <ele>152.8</ele>
        <time>2013-10-09T06:48:25Z</time>
      </trkpt>
      <trkpt lat="43.22394" lon="5.43857">
        <ele>152.5</ele>
        <time>2013-10-09T06:48:29Z</time>
      </trkpt>
      <trkpt lat="43.2239" lon="5.4386">
        <ele>154</ele>
        <time>2013-10-09T06:48:33Z</time>
      </trkpt>
      <trkpt lat="43.22387" lon="5.43862">
        <ele>156.3</ele>
        <time>2013-10-09T06:48:37Z</time>
      </trkpt>
      <trkpt lat="43.22384" lon="5.43865">
        <ele>157.6</ele>
        <time>2013-10-09T06:48:39Z</time>
      </trkpt>
      <trkpt lat="43.22381" lon="5.43867">
        <ele>158.6</ele>
        <time>2013-10-09T06:48:41Z</time>
      </trkpt>
      <trkpt lat="43.22378" lon="5.43869">
        <ele>159.6</ele>
        <time>2013-10-09T06:48:43Z</time>
      </trkpt>
      <trkpt lat="43.22375" lon="5.43871">
        <ele>160.5</ele>
        <time>2013-10-09T06:48:45Z</time>
      </trkpt>
      <trkpt lat="43.22372" lon="5.43873">
        <ele>161.8</ele>
        <time>2013-10-09T06:48:47Z</time>
      </trkpt>
      <trkpt lat="43.22369" lon="5.43876">
        <ele>162.1</ele>
        <time>2013-10-09T06:48:50Z</time>
      </trkpt>
      <trkpt lat="43.22368" lon="5.43876">
        <ele>162.6</ele>
        <time>2013-10-09T06:48:51Z</time>
      </trkpt>
      <trkpt lat="43.22362" lon="5.43883">
        <ele>161.5</ele>
        <time>2013-10-09T06:48:58Z</time>
      </trkpt>
      <trkpt lat="43.22359" lon="5.43886">
        <ele>161.3</ele>
        <time>2013-10-09T06:49:02Z</time>
      </trkpt>
      <trkpt lat="43.22355" lon="5.43889">
        <ele>160.5</ele>
        <time>2013-10-09T06:49:05Z</time>
      </trkpt>
      <trkpt lat="43.22352" lon="5.43892">
        <ele>161.3</ele>
        <time>2013-10-09T06:49:08Z</time>
      </trkpt>
      <trkpt lat="43.22349" lon="5.43895">
        <ele>161.1</ele>
        <time>2013-10-09T06:49:11Z</time>
      </trkpt>
      <trkpt lat="43.22346" lon="5.43899">
        <ele>160.8</ele>
        <time>2013-10-09T06:49:14Z</time>
      </trkpt>
      <trkpt lat="43.22344" lon="5.43902">
        <ele>161.6</ele>
        <time>2013-10-09T06:49:16Z</time>
      </trkpt>
      <trkpt lat="43.22341" lon="5.43905">
        <ele>162.8</ele>
        <time>2013-10-09T06:49:19Z</time>
      </trkpt>
      <trkpt lat="43.22338" lon="5.43909">
        <ele>163.8</ele>
        <time>2013-10-09T06:49:22Z</time>
      </trkpt>
      <trkpt lat="43.22335" lon="5.43913">
        <ele>162.3</ele>
        <time>2013-10-09T06:49:25Z</time>
      </trkpt>
      <trkpt lat="43.22332" lon="5.43916">
        <ele>161.8</ele>
        <time>2013-10-09T06:49:29Z</time>
      </trkpt>
      <trkpt lat="43.22329" lon="5.4392">
        <ele>161.3</ele>
        <time>2013-10-09T06:49:32Z</time>
      </trkpt>
      <trkpt lat="43.22327" lon="5.43923">
        <ele>162.8</ele>
        <time>2013-10-09T06:49:34Z</time>
      </trkpt>
      <trkpt lat="43.22324" lon="5.43927">
        <ele>163.3</ele>
        <time>2013-10-09T06:49:37Z</time>
      </trkpt>
      <trkpt lat="43.22322" lon="5.43931">
        <ele>163.8</ele>
        <time>2013-10-09T06:49:40Z</time>
      </trkpt>
      <trkpt lat="43.22319" lon="5.43935">
        <ele>163.5</ele>
        <time>2013-10-09T06:49:44Z</time>
      </trkpt>
      <trkpt lat="43.22316" lon="5.43938">
        <ele>162.8</ele>
        <time>2013-10-09T06:49:48Z</time>
      </trkpt>
      <trkpt lat="43.22313" lon="5.43942">
        <ele>163.3</ele>
        <time>2013-10-09T06:49:52Z</time>
      </trkpt>
      <trkpt lat="43.22312" lon="5.43943">
        <ele>163.6</ele>
        <time>2013-10-09T06:49:53Z</time>
      </trkpt>
      <trkpt lat="43.22307" lon="5.43949">
        <ele>167.6</ele>
        <time>2013-10-09T06:50:00Z</time>
      </trkpt>
      <trkpt lat="43.22304" lon="5.43953">
        <ele>166.1</ele>
        <time>2013-10-09T06:50:04Z</time>
      </trkpt>
      <trkpt lat="43.22301" lon="5.43956">
        <ele>165.3</ele>
        <time>2013-10-09T06:50:10Z</time>
      </trkpt>
      <trkpt lat="43.22298" lon="5.43959">
        <ele>165.6</ele>
        <time>2013-10-09T06:50:15Z</time>
      </trkpt>
      <trkpt lat="43.22295" lon="5.43961">
        <ele>166.8</ele>
        <time>2013-10-09T06:50:17Z</time>
      </trkpt>
      <trkpt lat="43.22291" lon="5.43964">
        <ele>165.5</ele>
        <time>2013-10-09T06:50:19Z</time>
      </trkpt>
      <trkpt lat="43.22287" lon="5.43966">
        <ele>162.5</ele>
        <time>2013-10-09T06:50:22Z</time>
      </trkpt>
      <trkpt lat="43.22285" lon="5.43968">
        <ele>161.6</ele>
        <time>2013-10-09T06:50:24Z</time>
      </trkpt>
      <trkpt lat="43.22282" lon="5.4397">
        <ele>162.3</ele>
        <time>2013-10-09T06:50:26Z</time>
      </trkpt>
      <trkpt lat="43.22279" lon="5.43972">
        <ele>162.5</ele>
        <time>2013-10-09T06:50:28Z</time>
      </trkpt>
      <trkpt lat="43.22276" lon="5.43975">
        <ele>163.1</ele>
        <time>2013-10-09T06:50:30Z</time>
      </trkpt>
      <trkpt lat="43.22273" lon="5.43978">
        <ele>163.3</ele>
        <time>2013-10-09T06:50:33Z</time>
      </trkpt>
      <trkpt lat="43.2227" lon="5.4398">
        <ele>163.6</ele>
        <time>2013-10-09T06:50:35Z</time>
      </trkpt>
      <trkpt lat="43.22268" lon="5.43982">
        <ele>163.8</ele>
        <time>2013-10-09T06:50:37Z</time>
      </trkpt>
      <trkpt lat="43.22264" lon="5.43985">
        <ele>165.5</ele>
        <time>2013-10-09T06:50:40Z</time>
      </trkpt>
      <trkpt lat="43.2226" lon="5.43986">
        <ele>163.8</ele>
        <time>2013-10-09T06:50:45Z</time>
      </trkpt>
      <trkpt lat="43.22257" lon="5.43987">
        <ele>163.8</ele>
        <time>2013-10-09T06:50:48Z</time>
      </trkpt>
      <trkpt lat="43.22253" lon="5.43988">
        <ele>165.1</ele>
        <time>2013-10-09T06:50:51Z</time>
      </trkpt>
      <trkpt lat="43.22249" lon="5.43989">
        <ele>164.8</ele>
        <time>2013-10-09T06:50:54Z</time>
      </trkpt>
      <trkpt lat="43.22248" lon="5.4399">
        <ele>165.3</ele>
        <time>2013-10-09T06:50:55Z</time>
      </trkpt>
      <trkpt lat="43.22241" lon="5.43992">
        <ele>165.6</ele>
        <time>2013-10-09T06:51:02Z</time>
      </trkpt>
      <trkpt lat="43.22237" lon="5.43995">
        <ele>165.3</ele>
        <time>2013-10-09T06:51:05Z</time>
      </trkpt>
      <trkpt lat="43.22233" lon="5.43997">
        <ele>164.6</ele>
        <time>2013-10-09T06:51:09Z</time>
      </trkpt>
      <trkpt lat="43.22229" lon="5.43997">
        <ele>166.1</ele>
        <time>2013-10-09T06:51:14Z</time>
      </trkpt>
      <trkpt lat="43.22225" lon="5.43997">
        <ele>165.3</ele>
        <time>2013-10-09T06:51:18Z</time>
      </trkpt>
      <trkpt lat="43.22221" lon="5.43999">
        <ele>163.6</ele>
        <time>2013-10-09T06:51:21Z</time>
      </trkpt>
      <trkpt lat="43.22219" lon="5.43999">
        <ele>164.1</ele>
        <time>2013-10-09T06:51:23Z</time>
      </trkpt>
      <trkpt lat="43.22215" lon="5.44001">
        <ele>164.3</ele>
        <time>2013-10-09T06:51:26Z</time>
      </trkpt>
      <trkpt lat="43.22211" lon="5.44003">
        <ele>163.3</ele>
        <time>2013-10-09T06:51:29Z</time>
      </trkpt>
      <trkpt lat="43.22208" lon="5.44004">
        <ele>162.6</ele>
        <time>2013-10-09T06:51:32Z</time>
      </trkpt>
      <trkpt lat="43.22204" lon="5.44007">
        <ele>162.3</ele>
        <time>2013-10-09T06:51:36Z</time>
      </trkpt>
      <trkpt lat="43.22201" lon="5.44008">
        <ele>162.6</ele>
        <time>2013-10-09T06:51:39Z</time>
      </trkpt>
      <trkpt lat="43.22198" lon="5.44009">
        <ele>163.8</ele>
        <time>2013-10-09T06:51:41Z</time>
      </trkpt>
      <trkpt lat="43.22194" lon="5.4401">
        <ele>166.1</ele>
        <time>2013-10-09T06:51:43Z</time>
      </trkpt>
      <trkpt lat="43.22189" lon="5.4401">
        <ele>168.3</ele>
        <time>2013-10-09T06:51:46Z</time>
      </trkpt>
      <trkpt lat="43.22186" lon="5.44012">
        <ele>167.1</ele>
        <time>2013-10-09T06:51:50Z</time>
      </trkpt>
      <trkpt lat="43.22182" lon="5.44013">
        <ele>165.6</ele>
        <time>2013-10-09T06:51:53Z</time>
      </trkpt>
      <trkpt lat="43.22178" lon="5.44014">
        <ele>164.3</ele>
        <time>2013-10-09T06:51:57Z</time>
      </trkpt>
      <trkpt lat="43.22178" lon="5.44015">
        <ele>164.1</ele>
        <time>2013-10-09T06:51:58Z</time>
      </trkpt>
      <trkpt lat="43.22171" lon="5.44019">
        <ele>164.8</ele>
        <time>2013-10-09T06:52:03Z</time>
      </trkpt>
      <trkpt lat="43.22169" lon="5.44021">
        <ele>166.1</ele>
        <time>2013-10-09T06:52:05Z</time>
      </trkpt>
      <trkpt lat="43.22165" lon="5.44024">
        <ele>168.1</ele>
        <time>2013-10-09T06:52:07Z</time>
      </trkpt>
      <trkpt lat="43.22161" lon="5.44027">
        <ele>169.1</ele>
        <time>2013-10-09T06:52:10Z</time>
      </trkpt>
      <trkpt lat="43.22158" lon="5.4403">
        <ele>171.3</ele>
        <time>2013-10-09T06:52:12Z</time>
      </trkpt>
      <trkpt lat="43.22156" lon="5.44032">
        <ele>171.8</ele>
        <time>2013-10-09T06:52:14Z</time>
      </trkpt>
      <trkpt lat="43.22152" lon="5.44036">
        <ele>175.1</ele>
        <time>2013-10-09T06:52:16Z</time>
      </trkpt>
      <trkpt lat="43.22151" lon="5.44038">
        <ele>177.3</ele>
        <time>2013-10-09T06:52:17Z</time>
      </trkpt>
      <trkpt lat="43.22148" lon="5.4404">
        <ele>179.6</ele>
        <time>2013-10-09T06:52:19Z</time>
      </trkpt>
      <trkpt lat="43.22145" lon="5.44044">
        <ele>178.8</ele>
        <time>2013-10-09T06:52:23Z</time>
      </trkpt>
      <trkpt lat="43.22142" lon="5.44045">
        <ele>178.6</ele>
        <time>2013-10-09T06:52:26Z</time>
      </trkpt>
      <trkpt lat="43.2214" lon="5.44048">
        <ele>180.1</ele>
        <time>2013-10-09T06:52:28Z</time>
      </trkpt>
      <trkpt lat="43.22136" lon="5.44052">
        <ele>183</ele>
        <time>2013-10-09T06:52:31Z</time>
      </trkpt>
      <trkpt lat="43.22133" lon="5.44055">
        <ele>182.6</ele>
        <time>2013-10-09T06:52:35Z</time>
      </trkpt>
      <trkpt lat="43.22129" lon="5.44058">
        <ele>181.8</ele>
        <time>2013-10-09T06:52:39Z</time>
      </trkpt>
      <trkpt lat="43.22126" lon="5.44061">
        <ele>181.1</ele>
        <time>2013-10-09T06:52:43Z</time>
      </trkpt>
      <trkpt lat="43.22123" lon="5.44064">
        <ele>182.1</ele>
        <time>2013-10-09T06:52:46Z</time>
      </trkpt>
      <trkpt lat="43.22119" lon="5.44066">
        <ele>179.5</ele>
        <time>2013-10-09T06:52:50Z</time>
      </trkpt>
      <trkpt lat="43.22116" lon="5.44069">
        <ele>181.1</ele>
        <time>2013-10-09T06:52:53Z</time>
      </trkpt>
      <trkpt lat="43.22113" lon="5.44072">
        <ele>178.1</ele>
        <time>2013-10-09T06:52:58Z</time>
      </trkpt>
      <trkpt lat="43.22112" lon="5.44072">
        <ele>177.6</ele>
        <time>2013-10-09T06:52:59Z</time>
      </trkpt>
      <trkpt lat="43.22106" lon="5.44077">
        <ele>176.8</ele>
        <time>2013-10-09T06:53:05Z</time>
      </trkpt>
      <trkpt lat="43.22103" lon="5.4408">
        <ele>176.1</ele>
        <time>2013-10-09T06:53:09Z</time>
      </trkpt>
      <trkpt lat="43.221" lon="5.44083">
        <ele>175.8</ele>
        <time>2013-10-09T06:53:12Z</time>
      </trkpt>
      <trkpt lat="43.22096" lon="5.44086">
        <ele>175.6</ele>
        <time>2013-10-09T06:53:16Z</time>
      </trkpt>
      <trkpt lat="43.22094" lon="5.44088">
        <ele>176.6</ele>
        <time>2013-10-09T06:53:18Z</time>
      </trkpt>
      <trkpt lat="43.22091" lon="5.44091">
        <ele>178.5</ele>
        <time>2013-10-09T06:53:20Z</time>
      </trkpt>
      <trkpt lat="43.22088" lon="5.44094">
        <ele>179.3</ele>
        <time>2013-10-09T06:53:23Z</time>
      </trkpt>
      <trkpt lat="43.22085" lon="5.44099">
        <ele>181.1</ele>
        <time>2013-10-09T06:53:26Z</time>
      </trkpt>
      <trkpt lat="43.22082" lon="5.44103">
        <ele>182.1</ele>
        <time>2013-10-09T06:53:29Z</time>
      </trkpt>
      <trkpt lat="43.22079" lon="5.44107">
        <ele>183.3</ele>
        <time>2013-10-09T06:53:32Z</time>
      </trkpt>
      <trkpt lat="43.22076" lon="5.4411">
        <ele>180.6</ele>
        <time>2013-10-09T06:53:36Z</time>
      </trkpt>
      <trkpt lat="43.22074" lon="5.44114">
        <ele>179.3</ele>
        <time>2013-10-09T06:53:39Z</time>
      </trkpt>
      <trkpt lat="43.22071" lon="5.44117">
        <ele>178.6</ele>
        <time>2013-10-09T06:53:42Z</time>
      </trkpt>
      <trkpt lat="43.22069" lon="5.44122">
        <ele>178.8</ele>
        <time>2013-10-09T06:53:46Z</time>
      </trkpt>
      <trkpt lat="43.22066" lon="5.44127">
        <ele>178.6</ele>
        <time>2013-10-09T06:53:50Z</time>
      </trkpt>
      <trkpt lat="43.22065" lon="5.44132">
        <ele>178.8</ele>
        <time>2013-10-09T06:53:53Z</time>
      </trkpt>
      <trkpt lat="43.22063" lon="5.44136">
        <ele>179.3</ele>
        <time>2013-10-09T06:53:56Z</time>
      </trkpt>
      <trkpt lat="43.22061" lon="5.44141">
        <ele>180.3</ele>
        <time>2013-10-09T06:53:59Z</time>
      </trkpt>
      <trkpt lat="43.2206" lon="5.44143">
        <ele>180.8</ele>
        <time>2013-10-09T06:54:00Z</time>
      </trkpt>
      <trkpt lat="43.22058" lon="5.4415">
        <ele>184.1</ele>
        <time>2013-10-09T06:54:05Z</time>
      </trkpt>
      <trkpt lat="43.22057" lon="5.44155">
        <ele>186.3</ele>
        <time>2013-10-09T06:54:08Z</time>
      </trkpt>
      <trkpt lat="43.22056" lon="5.44161">
        <ele>188.1</ele>
        <time>2013-10-09T06:54:11Z</time>
      </trkpt>
      <trkpt lat="43.22055" lon="5.44165">
        <ele>189.3</ele>
        <time>2013-10-09T06:54:13Z</time>
      </trkpt>
      <trkpt lat="43.22055" lon="5.4417">
        <ele>188.5</ele>
        <time>2013-10-09T06:54:16Z</time>
      </trkpt>
      <trkpt lat="43.22053" lon="5.44175">
        <ele>186.3</ele>
        <time>2013-10-09T06:54:21Z</time>
      </trkpt>
      <trkpt lat="43.22052" lon="5.4418">
        <ele>186.3</ele>
        <time>2013-10-09T06:54:25Z</time>
      </trkpt>
      <trkpt lat="43.22051" lon="5.44184">
        <ele>187.3</ele>
        <time>2013-10-09T06:54:28Z</time>
      </trkpt>
      <trkpt lat="43.22051" lon="5.44189">
        <ele>186.8</ele>
        <time>2013-10-09T06:54:31Z</time>
      </trkpt>
      <trkpt lat="43.2205" lon="5.44195">
        <ele>186.3</ele>
        <time>2013-10-09T06:54:35Z</time>
      </trkpt>
      <trkpt lat="43.22048" lon="5.442">
        <ele>183.6</ele>
        <time>2013-10-09T06:54:39Z</time>
      </trkpt>
      <trkpt lat="43.22047" lon="5.44204">
        <ele>183.1</ele>
        <time>2013-10-09T06:54:42Z</time>
      </trkpt>
      <trkpt lat="43.22045" lon="5.44208">
        <ele>184</ele>
        <time>2013-10-09T06:54:44Z</time>
      </trkpt>
      <trkpt lat="43.22043" lon="5.44213">
        <ele>183.3</ele>
        <time>2013-10-09T06:54:47Z</time>
      </trkpt>
      <trkpt lat="43.22041" lon="5.44217">
        <ele>183.5</ele>
        <time>2013-10-09T06:54:50Z</time>
      </trkpt>
      <trkpt lat="43.2204" lon="5.44221">
        <ele>180.1</ele>
        <time>2013-10-09T06:54:54Z</time>
      </trkpt>
      <trkpt lat="43.22039" lon="5.44226">
        <ele>179.6</ele>
        <time>2013-10-09T06:54:57Z</time>
      </trkpt>
      <trkpt lat="43.22038" lon="5.44231">
        <ele>180.1</ele>
        <time>2013-10-09T06:55:00Z</time>
      </trkpt>
      <trkpt lat="43.22037" lon="5.44233">
        <ele>179.6</ele>
        <time>2013-10-09T06:55:01Z</time>
      </trkpt>
      <trkpt lat="43.22036" lon="5.44241">
        <ele>181.1</ele>
        <time>2013-10-09T06:55:06Z</time>
      </trkpt>
      <trkpt lat="43.22035" lon="5.44247">
        <ele>180.3</ele>
        <time>2013-10-09T06:55:09Z</time>
      </trkpt>
      <trkpt lat="43.22033" lon="5.44251">
        <ele>183.6</ele>
        <time>2013-10-09T06:55:11Z</time>
      </trkpt>
      <trkpt lat="43.22032" lon="5.44256">
        <ele>185.3</ele>
        <time>2013-10-09T06:55:14Z</time>
      </trkpt>
      <trkpt lat="43.2203" lon="5.44261">
        <ele>186.6</ele>
        <time>2013-10-09T06:55:17Z</time>
      </trkpt>
      <trkpt lat="43.22027" lon="5.44265">
        <ele>188</ele>
        <time>2013-10-09T06:55:20Z</time>
      </trkpt>
      <trkpt lat="43.22025" lon="5.44268">
        <ele>189.1</ele>
        <time>2013-10-09T06:55:22Z</time>
      </trkpt>
      <trkpt lat="43.22022" lon="5.44273">
        <ele>190.3</ele>
        <time>2013-10-09T06:55:25Z</time>
      </trkpt>
      <trkpt lat="43.2202" lon="5.44278">
        <ele>190.3</ele>
        <time>2013-10-09T06:55:29Z</time>
      </trkpt>
      <trkpt lat="43.22018" lon="5.44283">
        <ele>191.8</ele>
        <time>2013-10-09T06:55:33Z</time>
      </trkpt>
      <trkpt lat="43.22016" lon="5.44287">
        <ele>191.6</ele>
        <time>2013-10-09T06:55:37Z</time>
      </trkpt>
      <trkpt lat="43.22014" lon="5.44292">
        <ele>191.3</ele>
        <time>2013-10-09T06:55:41Z</time>
      </trkpt>
      <trkpt lat="43.22011" lon="5.44295">
        <ele>190.6</ele>
        <time>2013-10-09T06:55:44Z</time>
      </trkpt>
      <trkpt lat="43.22007" lon="5.44299">
        <ele>191.1</ele>
        <time>2013-10-09T06:55:47Z</time>
      </trkpt>
      <trkpt lat="43.22005" lon="5.44303">
        <ele>189.6</ele>
        <time>2013-10-09T06:55:51Z</time>
      </trkpt>
      <trkpt lat="43.22003" lon="5.44308">
        <ele>189.8</ele>
        <time>2013-10-09T06:55:54Z</time>
      </trkpt>
      <trkpt lat="43.22001" lon="5.44311">
        <ele>191</ele>
        <time>2013-10-09T06:55:56Z</time>
      </trkpt>
      <trkpt lat="43.21998" lon="5.44315">
        <ele>192.6</ele>
        <time>2013-10-09T06:55:59Z</time>
      </trkpt>
      <trkpt lat="43.21996" lon="5.44318">
        <ele>193.5</ele>
        <time>2013-10-09T06:56:02Z</time>
      </trkpt>
      <trkpt lat="43.21995" lon="5.4432">
        <ele>194.8</ele>
        <time>2013-10-09T06:56:03Z</time>
      </trkpt>
      <trkpt lat="43.21991" lon="5.44328">
        <ele>196.1</ele>
        <time>2013-10-09T06:56:09Z</time>
      </trkpt>
      <trkpt lat="43.2199" lon="5.44333">
        <ele>195.3</ele>
        <time>2013-10-09T06:56:13Z</time>
      </trkpt>
      <trkpt lat="43.21988" lon="5.44338">
        <ele>193.5</ele>
        <time>2013-10-09T06:56:17Z</time>
      </trkpt>
      <trkpt lat="43.21986" lon="5.44342">
        <ele>192.6</ele>
        <time>2013-10-09T06:56:21Z</time>
      </trkpt>
      <trkpt lat="43.21984" lon="5.44347">
        <ele>192.1</ele>
        <time>2013-10-09T06:56:25Z</time>
      </trkpt>
      <trkpt lat="43.21982" lon="5.44351">
        <ele>193.3</ele>
        <time>2013-10-09T06:56:28Z</time>
      </trkpt>
      <trkpt lat="43.2198" lon="5.44357">
        <ele>192.8</ele>
        <time>2013-10-09T06:56:32Z</time>
      </trkpt>
      <trkpt lat="43.21978" lon="5.44361">
        <ele>192.3</ele>
        <time>2013-10-09T06:56:36Z</time>
      </trkpt>
      <trkpt lat="43.21975" lon="5.44365">
        <ele>190.1</ele>
        <time>2013-10-09T06:56:40Z</time>
      </trkpt>
      <trkpt lat="43.21973" lon="5.44369">
        <ele>191.3</ele>
        <time>2013-10-09T06:56:43Z</time>
      </trkpt>
      <trkpt lat="43.21971" lon="5.44374">
        <ele>191.3</ele>
        <time>2013-10-09T06:56:47Z</time>
      </trkpt>
      <trkpt lat="43.21969" lon="5.44378">
        <ele>192.1</ele>
        <time>2013-10-09T06:56:49Z</time>
      </trkpt>
      <trkpt lat="43.21967" lon="5.44382">
        <ele>195.1</ele>
        <time>2013-10-09T06:56:51Z</time>
      </trkpt>
      <trkpt lat="43.21965" lon="5.44386">
        <ele>197</ele>
        <time>2013-10-09T06:56:54Z</time>
      </trkpt>
      <trkpt lat="43.21963" lon="5.44389">
        <ele>196.1</ele>
        <time>2013-10-09T06:56:58Z</time>
      </trkpt>
      <trkpt lat="43.2196" lon="5.44392">
        <ele>196.6</ele>
        <time>2013-10-09T06:57:01Z</time>
      </trkpt>
      <trkpt lat="43.21958" lon="5.44396">
        <ele>196.3</ele>
        <time>2013-10-09T06:57:04Z</time>
      </trkpt>
      <trkpt lat="43.21956" lon="5.44398">
        <ele>198.1</ele>
        <time>2013-10-09T06:57:05Z</time>
      </trkpt>
      <trkpt lat="43.21953" lon="5.44401">
        <ele>199.5</ele>
        <time>2013-10-09T06:57:07Z</time>
      </trkpt>
      <trkpt lat="43.2195" lon="5.44403">
        <ele>200.1</ele>
        <time>2013-10-09T06:57:10Z</time>
      </trkpt>
      <trkpt lat="43.21947" lon="5.44406">
        <ele>201.5</ele>
        <time>2013-10-09T06:57:13Z</time>
      </trkpt>
      <trkpt lat="43.21944" lon="5.4441">
        <ele>204.5</ele>
        <time>2013-10-09T06:57:16Z</time>
      </trkpt>
      <trkpt lat="43.21942" lon="5.44415">
        <ele>203</ele>
        <time>2013-10-09T06:57:21Z</time>
      </trkpt>
      <trkpt lat="43.2194" lon="5.44419">
        <ele>200.1</ele>
        <time>2013-10-09T06:57:26Z</time>
      </trkpt>
      <trkpt lat="43.21937" lon="5.44424">
        <ele>199.3</ele>
        <time>2013-10-09T06:57:30Z</time>
      </trkpt>
      <trkpt lat="43.21935" lon="5.44428">
        <ele>197.1</ele>
        <time>2013-10-09T06:57:34Z</time>
      </trkpt>
      <trkpt lat="43.21934" lon="5.44433">
        <ele>197.8</ele>
        <time>2013-10-09T06:57:37Z</time>
      </trkpt>
      <trkpt lat="43.21933" lon="5.44438">
        <ele>198.6</ele>
        <time>2013-10-09T06:57:40Z</time>
      </trkpt>
      <trkpt lat="43.21931" lon="5.44442">
        <ele>199.8</ele>
        <time>2013-10-09T06:57:43Z</time>
      </trkpt>
      <trkpt lat="43.21931" lon="5.44447">
        <ele>201</ele>
        <time>2013-10-09T06:57:46Z</time>
      </trkpt>
      <trkpt lat="43.21929" lon="5.44453">
        <ele>202.8</ele>
        <time>2013-10-09T06:57:49Z</time>
      </trkpt>
      <trkpt lat="43.21928" lon="5.44459">
        <ele>201</ele>
        <time>2013-10-09T06:57:53Z</time>
      </trkpt>
      <trkpt lat="43.21927" lon="5.44463">
        <ele>201.6</ele>
        <time>2013-10-09T06:57:56Z</time>
      </trkpt>
      <trkpt lat="43.21925" lon="5.44467">
        <ele>201.3</ele>
        <time>2013-10-09T06:57:59Z</time>
      </trkpt>
      <trkpt lat="43.21924" lon="5.44472">
        <ele>201.8</ele>
        <time>2013-10-09T06:58:02Z</time>
      </trkpt>
      <trkpt lat="43.21923" lon="5.44477">
        <ele>202.1</ele>
        <time>2013-10-09T06:58:05Z</time>
      </trkpt>
      <trkpt lat="43.21922" lon="5.44479">
        <ele>202.8</ele>
        <time>2013-10-09T06:58:06Z</time>
      </trkpt>
      <trkpt lat="43.21921" lon="5.44488">
        <ele>203.5</ele>
        <time>2013-10-09T06:58:12Z</time>
      </trkpt>
      <trkpt lat="43.21919" lon="5.44493">
        <ele>206.1</ele>
        <time>2013-10-09T06:58:16Z</time>
      </trkpt>
      <trkpt lat="43.2192" lon="5.44498">
        <ele>206.1</ele>
        <time>2013-10-09T06:58:20Z</time>
      </trkpt>
      <trkpt lat="43.2192" lon="5.44503">
        <ele>205.5</ele>
        <time>2013-10-09T06:58:23Z</time>
      </trkpt>
      <trkpt lat="43.2192" lon="5.44508">
        <ele>206.6</ele>
        <time>2013-10-09T06:58:26Z</time>
      </trkpt>
      <trkpt lat="43.21922" lon="5.44513">
        <ele>203.8</ele>
        <time>2013-10-09T06:58:29Z</time>
      </trkpt>
      <trkpt lat="43.21923" lon="5.44518">
        <ele>202.8</ele>
        <time>2013-10-09T06:58:32Z</time>
      </trkpt>
      <trkpt lat="43.21924" lon="5.44522">
        <ele>202.5</ele>
        <time>2013-10-09T06:58:35Z</time>
      </trkpt>
      <trkpt lat="43.21925" lon="5.44527">
        <ele>203.6</ele>
        <time>2013-10-09T06:58:39Z</time>
      </trkpt>
      <trkpt lat="43.21926" lon="5.44533">
        <ele>203</ele>
        <time>2013-10-09T06:58:43Z</time>
      </trkpt>
      <trkpt lat="43.21927" lon="5.44538">
        <ele>202.8</ele>
        <time>2013-10-09T06:58:46Z</time>
      </trkpt>
      <trkpt lat="43.21928" lon="5.44544">
        <ele>203.6</ele>
        <time>2013-10-09T06:58:50Z</time>
      </trkpt>
      <trkpt lat="43.21929" lon="5.44549">
        <ele>204.8</ele>
        <time>2013-10-09T06:58:53Z</time>
      </trkpt>
      <trkpt lat="43.21929" lon="5.44555">
        <ele>205.8</ele>
        <time>2013-10-09T06:58:57Z</time>
      </trkpt>
      <trkpt lat="43.21927" lon="5.44559">
        <ele>208.3</ele>
        <time>2013-10-09T06:59:00Z</time>
      </trkpt>
      <trkpt lat="43.21925" lon="5.44563">
        <ele>209.5</ele>
        <time>2013-10-09T06:59:03Z</time>
      </trkpt>
      <trkpt lat="43.21922" lon="5.44568">
        <ele>209.8</ele>
        <time>2013-10-09T06:59:07Z</time>
      </trkpt>
      <trkpt lat="43.21921" lon="5.4457">
        <ele>210</ele>
        <time>2013-10-09T06:59:08Z</time>
      </trkpt>
      <trkpt lat="43.21918" lon="5.44576">
        <ele>208.6</ele>
        <time>2013-10-09T06:59:13Z</time>
      </trkpt>
      <trkpt lat="43.21916" lon="5.44582">
        <ele>206.1</ele>
        <time>2013-10-09T06:59:18Z</time>
      </trkpt>
      <trkpt lat="43.21914" lon="5.44586">
        <ele>206.5</ele>
        <time>2013-10-09T06:59:21Z</time>
      </trkpt>
      <trkpt lat="43.21912" lon="5.44591">
        <ele>204.8</ele>
        <time>2013-10-09T06:59:25Z</time>
      </trkpt>
      <trkpt lat="43.2191" lon="5.44597">
        <ele>204.8</ele>
        <time>2013-10-09T06:59:29Z</time>
      </trkpt>
      <trkpt lat="43.21908" lon="5.44601">
        <ele>204.1</ele>
        <time>2013-10-09T06:59:33Z</time>
      </trkpt>
      <trkpt lat="43.21906" lon="5.44604">
        <ele>203.6</ele>
        <time>2013-10-09T06:59:36Z</time>
      </trkpt>
      <trkpt lat="43.21903" lon="5.44608">
        <ele>204.8</ele>
        <time>2013-10-09T06:59:39Z</time>
      </trkpt>
      <trkpt lat="43.21901" lon="5.44612">
        <ele>205.5</ele>
        <time>2013-10-09T06:59:41Z</time>
      </trkpt>
      <trkpt lat="43.21898" lon="5.44615">
        <ele>205.8</ele>
        <time>2013-10-09T06:59:43Z</time>
      </trkpt>
      <trkpt lat="43.21896" lon="5.44619">
        <ele>207.3</ele>
        <time>2013-10-09T06:59:46Z</time>
      </trkpt>
      <trkpt lat="43.21893" lon="5.44623">
        <ele>208</ele>
        <time>2013-10-09T06:59:49Z</time>
      </trkpt>
      <trkpt lat="43.21892" lon="5.44628">
        <ele>208.1</ele>
        <time>2013-10-09T06:59:53Z</time>
      </trkpt>
      <trkpt lat="43.2189" lon="5.44632">
        <ele>207.6</ele>
        <time>2013-10-09T06:59:56Z</time>
      </trkpt>
      <trkpt lat="43.21889" lon="5.44636">
        <ele>207.8</ele>
        <time>2013-10-09T06:59:59Z</time>
      </trkpt>
      <trkpt lat="43.21887" lon="5.44641">
        <ele>208.8</ele>
        <time>2013-10-09T07:00:02Z</time>
      </trkpt>
      <trkpt lat="43.21886" lon="5.44646">
        <ele>210</ele>
        <time>2013-10-09T07:00:05Z</time>
      </trkpt>
      <trkpt lat="43.21885" lon="5.44651">
        <ele>210.8</ele>
        <time>2013-10-09T07:00:08Z</time>
      </trkpt>
      <trkpt lat="43.21884" lon="5.44653">
        <ele>211</ele>
        <time>2013-10-09T07:00:09Z</time>
      </trkpt>
      <trkpt lat="43.21882" lon="5.44661">
        <ele>213.3</ele>
        <time>2013-10-09T07:00:15Z</time>
      </trkpt>
      <trkpt lat="43.2188" lon="5.44666">
        <ele>213.3</ele>
        <time>2013-10-09T07:00:19Z</time>
      </trkpt>
      <trkpt lat="43.21878" lon="5.44672">
        <ele>212.6</ele>
        <time>2013-10-09T07:00:24Z</time>
      </trkpt>
      <trkpt lat="43.21877" lon="5.44676">
        <ele>212.3</ele>
        <time>2013-10-09T07:00:27Z</time>
      </trkpt>
      <trkpt lat="43.21877" lon="5.44682">
        <ele>212.8</ele>
        <time>2013-10-09T07:00:30Z</time>
      </trkpt>
      <trkpt lat="43.21876" lon="5.44687">
        <ele>212.6</ele>
        <time>2013-10-09T07:00:33Z</time>
      </trkpt>
      <trkpt lat="43.21876" lon="5.44693">
        <ele>212.8</ele>
        <time>2013-10-09T07:00:36Z</time>
      </trkpt>
      <trkpt lat="43.21875" lon="5.44698">
        <ele>213</ele>
        <time>2013-10-09T07:00:39Z</time>
      </trkpt>
      <trkpt lat="43.21874" lon="5.44703">
        <ele>213.3</ele>
        <time>2013-10-09T07:00:42Z</time>
      </trkpt>
      <trkpt lat="43.21874" lon="5.44707">
        <ele>213.6</ele>
        <time>2013-10-09T07:00:45Z</time>
      </trkpt>
      <trkpt lat="43.21873" lon="5.44712">
        <ele>212.6</ele>
        <time>2013-10-09T07:00:49Z</time>
      </trkpt>
      <trkpt lat="43.21872" lon="5.44718">
        <ele>212.1</ele>
        <time>2013-10-09T07:00:54Z</time>
      </trkpt>
      <trkpt lat="43.21876" lon="5.44717">
        <ele>221.1</ele>
        <time>2013-10-09T07:02:03Z</time>
      </trkpt>
      <trkpt lat="43.21876" lon="5.44716">
        <ele>221.5</ele>
        <time>2013-10-09T07:02:04Z</time>
      </trkpt>
      <trkpt lat="43.2188" lon="5.4472">
        <ele>214.1</ele>
        <time>2013-10-09T07:08:05Z</time>
      </trkpt>
      <trkpt lat="43.21886" lon="5.44723">
        <ele>216</ele>
        <time>2013-10-09T07:08:10Z</time>
      </trkpt>
      <trkpt lat="43.2189" lon="5.44724">
        <ele>217.3</ele>
        <time>2013-10-09T07:08:13Z</time>
      </trkpt>
      <trkpt lat="43.21894" lon="5.44725">
        <ele>217.8</ele>
        <time>2013-10-09T07:08:17Z</time>
      </trkpt>
      <trkpt lat="43.21897" lon="5.44726">
        <ele>217.8</ele>
        <time>2013-10-09T07:08:21Z</time>
      </trkpt>
      <trkpt lat="43.21901" lon="5.44726">
        <ele>217.1</ele>
        <time>2013-10-09T07:08:24Z</time>
      </trkpt>
      <trkpt lat="43.21904" lon="5.44727">
        <ele>217.3</ele>
        <time>2013-10-09T07:08:27Z</time>
      </trkpt>
      <trkpt lat="43.21908" lon="5.44729">
        <ele>217.6</ele>
        <time>2013-10-09T07:08:31Z</time>
      </trkpt>
      <trkpt lat="43.21912" lon="5.44731">
        <ele>218.1</ele>
        <time>2013-10-09T07:08:35Z</time>
      </trkpt>
      <trkpt lat="43.21916" lon="5.44731">
        <ele>218.1</ele>
        <time>2013-10-09T07:08:39Z</time>
      </trkpt>
      <trkpt lat="43.2192" lon="5.44733">
        <ele>218.5</ele>
        <time>2013-10-09T07:08:43Z</time>
      </trkpt>
      <trkpt lat="43.21924" lon="5.44734">
        <ele>218.6</ele>
        <time>2013-10-09T07:08:47Z</time>
      </trkpt>
      <trkpt lat="43.21927" lon="5.44736">
        <ele>218.3</ele>
        <time>2013-10-09T07:08:51Z</time>
      </trkpt>
      <trkpt lat="43.21931" lon="5.44737">
        <ele>218.1</ele>
        <time>2013-10-09T07:08:55Z</time>
      </trkpt>
      <trkpt lat="43.21935" lon="5.44738">
        <ele>218.3</ele>
        <time>2013-10-09T07:08:59Z</time>
      </trkpt>
      <trkpt lat="43.21938" lon="5.4474">
        <ele>218.3</ele>
        <time>2013-10-09T07:09:03Z</time>
      </trkpt>
      <trkpt lat="43.21942" lon="5.44741">
        <ele>217.8</ele>
        <time>2013-10-09T07:09:07Z</time>
      </trkpt>
      <trkpt lat="43.21943" lon="5.44741">
        <ele>217.8</ele>
        <time>2013-10-09T07:09:08Z</time>
      </trkpt>
      <trkpt lat="43.21949" lon="5.44744">
        <ele>216.3</ele>
        <time>2013-10-09T07:09:15Z</time>
      </trkpt>
      <trkpt lat="43.21953" lon="5.44746">
        <ele>216.6</ele>
        <time>2013-10-09T07:09:19Z</time>
      </trkpt>
      <trkpt lat="43.21957" lon="5.44748">
        <ele>217</ele>
        <time>2013-10-09T07:09:23Z</time>
      </trkpt>
      <trkpt lat="43.2196" lon="5.4475">
        <ele>217.3</ele>
        <time>2013-10-09T07:09:26Z</time>
      </trkpt>
      <trkpt lat="43.21963" lon="5.44753">
        <ele>217.8</ele>
        <time>2013-10-09T07:09:30Z</time>
      </trkpt>
      <trkpt lat="43.21967" lon="5.44757">
        <ele>219.1</ele>
        <time>2013-10-09T07:09:34Z</time>
      </trkpt>
      <trkpt lat="43.2197" lon="5.44761">
        <ele>220.8</ele>
        <time>2013-10-09T07:09:38Z</time>
      </trkpt>
      <trkpt lat="43.21973" lon="5.44764">
        <ele>221.5</ele>
        <time>2013-10-09T07:09:42Z</time>
      </trkpt>
      <trkpt lat="43.21977" lon="5.44767">
        <ele>222</ele>
        <time>2013-10-09T07:09:46Z</time>
      </trkpt>
      <trkpt lat="43.2198" lon="5.4477">
        <ele>222.6</ele>
        <time>2013-10-09T07:09:50Z</time>
      </trkpt>
      <trkpt lat="43.21984" lon="5.44773">
        <ele>223</ele>
        <time>2013-10-09T07:09:54Z</time>
      </trkpt>
      <trkpt lat="43.21988" lon="5.44775">
        <ele>223</ele>
        <time>2013-10-09T07:09:58Z</time>
      </trkpt>
      <trkpt lat="43.21991" lon="5.44778">
        <ele>223.1</ele>
        <time>2013-10-09T07:10:02Z</time>
      </trkpt>
      <trkpt lat="43.21994" lon="5.4478">
        <ele>223.5</ele>
        <time>2013-10-09T07:10:06Z</time>
      </trkpt>
      <trkpt lat="43.21998" lon="5.44782">
        <ele>224</ele>
        <time>2013-10-09T07:10:10Z</time>
      </trkpt>
      <trkpt lat="43.21999" lon="5.44783">
        <ele>224.1</ele>
        <time>2013-10-09T07:10:11Z</time>
      </trkpt>
      <trkpt lat="43.22006" lon="5.44786">
        <ele>225</ele>
        <time>2013-10-09T07:10:17Z</time>
      </trkpt>
      <trkpt lat="43.22009" lon="5.44788">
        <ele>225.8</ele>
        <time>2013-10-09T07:10:21Z</time>
      </trkpt>
      <trkpt lat="43.22013" lon="5.4479">
        <ele>226.3</ele>
        <time>2013-10-09T07:10:24Z</time>
      </trkpt>
      <trkpt lat="43.22016" lon="5.44792">
        <ele>227.3</ele>
        <time>2013-10-09T07:10:26Z</time>
      </trkpt>
      <trkpt lat="43.22018" lon="5.44794">
        <ele>228.3</ele>
        <time>2013-10-09T07:10:28Z</time>
      </trkpt>
      <trkpt lat="43.22022" lon="5.44796">
        <ele>228.8</ele>
        <time>2013-10-09T07:10:31Z</time>
      </trkpt>
      <trkpt lat="43.22025" lon="5.44799">
        <ele>229.3</ele>
        <time>2013-10-09T07:10:34Z</time>
      </trkpt>
      <trkpt lat="43.22028" lon="5.44801">
        <ele>230.1</ele>
        <time>2013-10-09T07:10:37Z</time>
      </trkpt>
      <trkpt lat="43.22032" lon="5.44804">
        <ele>230.1</ele>
        <time>2013-10-09T07:10:41Z</time>
      </trkpt>
      <trkpt lat="43.22036" lon="5.44808">
        <ele>230.3</ele>
        <time>2013-10-09T07:10:45Z</time>
      </trkpt>
      <trkpt lat="43.22039" lon="5.44809">
        <ele>230.6</ele>
        <time>2013-10-09T07:10:48Z</time>
      </trkpt>
      <trkpt lat="43.22043" lon="5.44809">
        <ele>231</ele>
        <time>2013-10-09T07:10:52Z</time>
      </trkpt>
      <trkpt lat="43.22047" lon="5.44806">
        <ele>231.5</ele>
        <time>2013-10-09T07:10:56Z</time>
      </trkpt>
      <trkpt lat="43.2205" lon="5.44804">
        <ele>231.6</ele>
        <time>2013-10-09T07:10:59Z</time>
      </trkpt>
      <trkpt lat="43.22054" lon="5.44801">
        <ele>231.8</ele>
        <time>2013-10-09T07:11:02Z</time>
      </trkpt>
      <trkpt lat="43.22057" lon="5.44799">
        <ele>232.1</ele>
        <time>2013-10-09T07:11:05Z</time>
      </trkpt>
      <trkpt lat="43.2206" lon="5.44796">
        <ele>232.3</ele>
        <time>2013-10-09T07:11:08Z</time>
      </trkpt>
      <trkpt lat="43.22063" lon="5.44793">
        <ele>232.5</ele>
        <time>2013-10-09T07:11:12Z</time>
      </trkpt>
      <trkpt lat="43.22064" lon="5.44792">
        <ele>232.6</ele>
        <time>2013-10-09T07:11:13Z</time>
      </trkpt>
      <trkpt lat="43.2207" lon="5.44789">
        <ele>232.8</ele>
        <time>2013-10-09T07:11:18Z</time>
      </trkpt>
      <trkpt lat="43.22073" lon="5.44787">
        <ele>233.1</ele>
        <time>2013-10-09T07:11:21Z</time>
      </trkpt>
      <trkpt lat="43.22077" lon="5.44785">
        <ele>233.1</ele>
        <time>2013-10-09T07:11:24Z</time>
      </trkpt>
      <trkpt lat="43.2208" lon="5.44784">
        <ele>233.5</ele>
        <time>2013-10-09T07:11:27Z</time>
      </trkpt>
      <trkpt lat="43.22084" lon="5.44783">
        <ele>233.8</ele>
        <time>2013-10-09T07:11:30Z</time>
      </trkpt>
      <trkpt lat="43.22087" lon="5.44781">
        <ele>233.8</ele>
        <time>2013-10-09T07:11:33Z</time>
      </trkpt>
      <trkpt lat="43.22092" lon="5.4478">
        <ele>234.1</ele>
        <time>2013-10-09T07:11:37Z</time>
      </trkpt>
      <trkpt lat="43.22095" lon="5.4478">
        <ele>234.1</ele>
        <time>2013-10-09T07:11:40Z</time>
      </trkpt>
      <trkpt lat="43.221" lon="5.44779">
        <ele>234.5</ele>
        <time>2013-10-09T07:11:44Z</time>
      </trkpt>
      <trkpt lat="43.22103" lon="5.44779">
        <ele>234.8</ele>
        <time>2013-10-09T07:11:47Z</time>
      </trkpt>
      <trkpt lat="43.22107" lon="5.44778">
        <ele>235.1</ele>
        <time>2013-10-09T07:11:50Z</time>
      </trkpt>
      <trkpt lat="43.22111" lon="5.44777">
        <ele>235</ele>
        <time>2013-10-09T07:11:53Z</time>
      </trkpt>
      <trkpt lat="43.22114" lon="5.44777">
        <ele>235.5</ele>
        <time>2013-10-09T07:11:56Z</time>
      </trkpt>
      <trkpt lat="43.22118" lon="5.44777">
        <ele>235.6</ele>
        <time>2013-10-09T07:11:59Z</time>
      </trkpt>
      <trkpt lat="43.22121" lon="5.44776">
        <ele>236.1</ele>
        <time>2013-10-09T07:12:02Z</time>
      </trkpt>
      <trkpt lat="43.22125" lon="5.44774">
        <ele>236.5</ele>
        <time>2013-10-09T07:12:05Z</time>
      </trkpt>
      <trkpt lat="43.22127" lon="5.44771">
        <ele>236.8</ele>
        <time>2013-10-09T07:12:08Z</time>
      </trkpt>
      <trkpt lat="43.2213" lon="5.44767">
        <ele>236.8</ele>
        <time>2013-10-09T07:12:11Z</time>
      </trkpt>
      <trkpt lat="43.22132" lon="5.44764">
        <ele>237</ele>
        <time>2013-10-09T07:12:14Z</time>
      </trkpt>
      <trkpt lat="43.22132" lon="5.44762">
        <ele>237</ele>
        <time>2013-10-09T07:12:15Z</time>
      </trkpt>
      <trkpt lat="43.22136" lon="5.44756">
        <ele>237.6</ele>
        <time>2013-10-09T07:12:20Z</time>
      </trkpt>
      <trkpt lat="43.22139" lon="5.44753">
        <ele>237.8</ele>
        <time>2013-10-09T07:12:23Z</time>
      </trkpt>
      <trkpt lat="43.22143" lon="5.4475">
        <ele>237.8</ele>
        <time>2013-10-09T07:12:26Z</time>
      </trkpt>
      <trkpt lat="43.22146" lon="5.44748">
        <ele>237.8</ele>
        <time>2013-10-09T07:12:29Z</time>
      </trkpt>
      <trkpt lat="43.22148" lon="5.44745">
        <ele>238.3</ele>
        <time>2013-10-09T07:12:32Z</time>
      </trkpt>
      <trkpt lat="43.22151" lon="5.44742">
        <ele>238.5</ele>
        <time>2013-10-09T07:12:35Z</time>
      </trkpt>
      <trkpt lat="43.22154" lon="5.44739">
        <ele>238.6</ele>
        <time>2013-10-09T07:12:38Z</time>
      </trkpt>
      <trkpt lat="43.22157" lon="5.44736">
        <ele>238.8</ele>
        <time>2013-10-09T07:12:41Z</time>
      </trkpt>
      <trkpt lat="43.2216" lon="5.44734">
        <ele>239.1</ele>
        <time>2013-10-09T07:12:44Z</time>
      </trkpt>
      <trkpt lat="43.22163" lon="5.44732">
        <ele>239.3</ele>
        <time>2013-10-09T07:12:47Z</time>
      </trkpt>
      <trkpt lat="43.22167" lon="5.44732">
        <ele>239.8</ele>
        <time>2013-10-09T07:12:50Z</time>
      </trkpt>
      <trkpt lat="43.22171" lon="5.44733">
        <ele>240</ele>
        <time>2013-10-09T07:12:53Z</time>
      </trkpt>
      <trkpt lat="43.22175" lon="5.44734">
        <ele>240.1</ele>
        <time>2013-10-09T07:12:57Z</time>
      </trkpt>
      <trkpt lat="43.22179" lon="5.44737">
        <ele>240.3</ele>
        <time>2013-10-09T07:13:01Z</time>
      </trkpt>
      <trkpt lat="43.22183" lon="5.44739">
        <ele>240.5</ele>
        <time>2013-10-09T07:13:05Z</time>
      </trkpt>
      <trkpt lat="43.22186" lon="5.44743">
        <ele>239.8</ele>
        <time>2013-10-09T07:13:10Z</time>
      </trkpt>
      <trkpt lat="43.22187" lon="5.44749">
        <ele>239.3</ele>
        <time>2013-10-09T07:13:15Z</time>
      </trkpt>
      <trkpt lat="43.22187" lon="5.4475">
        <ele>239.5</ele>
        <time>2013-10-09T07:13:16Z</time>
      </trkpt>
      <trkpt lat="43.22189" lon="5.44759">
        <ele>240.1</ele>
        <time>2013-10-09T07:13:23Z</time>
      </trkpt>
      <trkpt lat="43.2219" lon="5.44765">
        <ele>240.5</ele>
        <time>2013-10-09T07:13:28Z</time>
      </trkpt>
      <trkpt lat="43.22191" lon="5.4477">
        <ele>240.8</ele>
        <time>2013-10-09T07:13:33Z</time>
      </trkpt>
      <trkpt lat="43.22192" lon="5.44775">
        <ele>241.3</ele>
        <time>2013-10-09T07:13:39Z</time>
      </trkpt>
      <trkpt lat="43.22193" lon="5.44781">
        <ele>241.6</ele>
        <time>2013-10-09T07:13:45Z</time>
      </trkpt>
      <trkpt lat="43.22192" lon="5.44786">
        <ele>242.6</ele>
        <time>2013-10-09T07:13:50Z</time>
      </trkpt>
      <trkpt lat="43.22192" lon="5.44792">
        <ele>244.3</ele>
        <time>2013-10-09T07:13:56Z</time>
      </trkpt>
      <trkpt lat="43.22191" lon="5.44798">
        <ele>244.8</ele>
        <time>2013-10-09T07:14:01Z</time>
      </trkpt>
      <trkpt lat="43.22191" lon="5.44804">
        <ele>245.5</ele>
        <time>2013-10-09T07:14:07Z</time>
      </trkpt>
      <trkpt lat="43.22191" lon="5.44809">
        <ele>246.3</ele>
        <time>2013-10-09T07:14:12Z</time>
      </trkpt>
      <trkpt lat="43.22191" lon="5.44814">
        <ele>246.8</ele>
        <time>2013-10-09T07:14:17Z</time>
      </trkpt>
      <trkpt lat="43.22191" lon="5.44815">
        <ele>246.8</ele>
        <time>2013-10-09T07:14:18Z</time>
      </trkpt>
      <trkpt lat="43.22187" lon="5.44824">
        <ele>247.1</ele>
        <time>2013-10-09T07:14:26Z</time>
      </trkpt>
      <trkpt lat="43.22185" lon="5.44829">
        <ele>249.8</ele>
        <time>2013-10-09T07:14:30Z</time>
      </trkpt>
      <trkpt lat="43.22183" lon="5.44834">
        <ele>251</ele>
        <time>2013-10-09T07:14:34Z</time>
      </trkpt>
      <trkpt lat="43.22181" lon="5.44839">
        <ele>251.6</ele>
        <time>2013-10-09T07:14:38Z</time>
      </trkpt>
      <trkpt lat="43.22178" lon="5.44843">
        <ele>250.8</ele>
        <time>2013-10-09T07:14:42Z</time>
      </trkpt>
      <trkpt lat="43.22177" lon="5.44848">
        <ele>251.3</ele>
        <time>2013-10-09T07:14:47Z</time>
      </trkpt>
      <trkpt lat="43.22177" lon="5.44853">
        <ele>253</ele>
        <time>2013-10-09T07:14:51Z</time>
      </trkpt>
      <trkpt lat="43.22175" lon="5.44858">
        <ele>254.8</ele>
        <time>2013-10-09T07:14:55Z</time>
      </trkpt>
      <trkpt lat="43.22174" lon="5.44864">
        <ele>256.2</ele>
        <time>2013-10-09T07:14:59Z</time>
      </trkpt>
      <trkpt lat="43.22174" lon="5.4487">
        <ele>255.1</ele>
        <time>2013-10-09T07:15:05Z</time>
      </trkpt>
      <trkpt lat="43.22172" lon="5.44875">
        <ele>254.1</ele>
        <time>2013-10-09T07:15:09Z</time>
      </trkpt>
      <trkpt lat="43.22172" lon="5.4488">
        <ele>254.3</ele>
        <time>2013-10-09T07:15:13Z</time>
      </trkpt>
      <trkpt lat="43.22169" lon="5.44884">
        <ele>254.3</ele>
        <time>2013-10-09T07:15:17Z</time>
      </trkpt>
      <trkpt lat="43.22166" lon="5.44887">
        <ele>255.3</ele>
        <time>2013-10-09T07:15:20Z</time>
      </trkpt>
      <trkpt lat="43.22164" lon="5.44888">
        <ele>256</ele>
        <time>2013-10-09T07:15:21Z</time>
      </trkpt>
      <trkpt lat="43.22158" lon="5.44887">
        <ele>258</ele>
        <time>2013-10-09T07:15:33Z</time>
      </trkpt>
      <trkpt lat="43.22155" lon="5.44884">
        <ele>258</ele>
        <time>2013-10-09T07:15:39Z</time>
      </trkpt>
      <trkpt lat="43.22151" lon="5.44881">
        <ele>258.5</ele>
        <time>2013-10-09T07:15:44Z</time>
      </trkpt>
      <trkpt lat="43.22147" lon="5.44879">
        <ele>259.2</ele>
        <time>2013-10-09T07:15:48Z</time>
      </trkpt>
      <trkpt lat="43.22144" lon="5.44877">
        <ele>260.1</ele>
        <time>2013-10-09T07:15:52Z</time>
      </trkpt>
      <trkpt lat="43.2214" lon="5.44877">
        <ele>261</ele>
        <time>2013-10-09T07:15:55Z</time>
      </trkpt>
      <trkpt lat="43.22136" lon="5.44875">
        <ele>262.6</ele>
        <time>2013-10-09T07:15:59Z</time>
      </trkpt>
      <trkpt lat="43.22132" lon="5.44875">
        <ele>263.5</ele>
        <time>2013-10-09T07:16:03Z</time>
      </trkpt>
      <trkpt lat="43.22127" lon="5.44875">
        <ele>264</ele>
        <time>2013-10-09T07:16:07Z</time>
      </trkpt>
      <trkpt lat="43.22123" lon="5.44875">
        <ele>264.5</ele>
        <time>2013-10-09T07:16:11Z</time>
      </trkpt>
      <trkpt lat="43.22119" lon="5.44875">
        <ele>264.7</ele>
        <time>2013-10-09T07:16:15Z</time>
      </trkpt>
      <trkpt lat="43.22116" lon="5.44876">
        <ele>264.8</ele>
        <time>2013-10-09T07:16:19Z</time>
      </trkpt>
      <trkpt lat="43.22111" lon="5.44878">
        <ele>264.1</ele>
        <time>2013-10-09T07:16:23Z</time>
      </trkpt>
      <trkpt lat="43.22111" lon="5.44879">
        <ele>263.7</ele>
        <time>2013-10-09T07:16:24Z</time>
      </trkpt>
      <trkpt lat="43.22104" lon="5.44884">
        <ele>263.8</ele>
        <time>2013-10-09T07:16:33Z</time>
      </trkpt>
      <trkpt lat="43.221" lon="5.44887">
        <ele>263.3</ele>
        <time>2013-10-09T07:16:38Z</time>
      </trkpt>
      <trkpt lat="43.22098" lon="5.44889">
        <ele>263.2</ele>
        <time>2013-10-09T07:16:41Z</time>
      </trkpt>
      <trkpt lat="43.22094" lon="5.44892">
        <ele>263.1</ele>
        <time>2013-10-09T07:16:45Z</time>
      </trkpt>
      <trkpt lat="43.22091" lon="5.44895">
        <ele>264.5</ele>
        <time>2013-10-09T07:16:49Z</time>
      </trkpt>
      <trkpt lat="43.22088" lon="5.44898">
        <ele>265</ele>
        <time>2013-10-09T07:16:53Z</time>
      </trkpt>
      <trkpt lat="43.22084" lon="5.44901">
        <ele>266</ele>
        <time>2013-10-09T07:16:57Z</time>
      </trkpt>
      <trkpt lat="43.2208" lon="5.44903">
        <ele>267.7</ele>
        <time>2013-10-09T07:17:02Z</time>
      </trkpt>
      <trkpt lat="43.22077" lon="5.44907">
        <ele>269.2</ele>
        <time>2013-10-09T07:17:06Z</time>
      </trkpt>
      <trkpt lat="43.22073" lon="5.44911">
        <ele>269.7</ele>
        <time>2013-10-09T07:17:10Z</time>
      </trkpt>
      <trkpt lat="43.22069" lon="5.44911">
        <ele>271</ele>
        <time>2013-10-09T07:17:19Z</time>
      </trkpt>
      <trkpt lat="43.22066" lon="5.44913">
        <ele>272.3</ele>
        <time>2013-10-09T07:17:23Z</time>
      </trkpt>
      <trkpt lat="43.22062" lon="5.44915">
        <ele>273.7</ele>
        <time>2013-10-09T07:17:27Z</time>
      </trkpt>
      <trkpt lat="43.22061" lon="5.44916">
        <ele>273.5</ele>
        <time>2013-10-09T07:17:28Z</time>
      </trkpt>
      <trkpt lat="43.22055" lon="5.44922">
        <ele>271.2</ele>
        <time>2013-10-09T07:17:33Z</time>
      </trkpt>
      <trkpt lat="43.22052" lon="5.44924">
        <ele>271.1</ele>
        <time>2013-10-09T07:17:36Z</time>
      </trkpt>
      <trkpt lat="43.22048" lon="5.44924">
        <ele>272.1</ele>
        <time>2013-10-09T07:17:40Z</time>
      </trkpt>
      <trkpt lat="43.22043" lon="5.44923">
        <ele>273.2</ele>
        <time>2013-10-09T07:17:44Z</time>
      </trkpt>
      <trkpt lat="43.2204" lon="5.44921">
        <ele>273.7</ele>
        <time>2013-10-09T07:17:48Z</time>
      </trkpt>
      <trkpt lat="43.22036" lon="5.44919">
        <ele>273.8</ele>
        <time>2013-10-09T07:17:52Z</time>
      </trkpt>
      <trkpt lat="43.22031" lon="5.44917">
        <ele>275.1</ele>
        <time>2013-10-09T07:17:57Z</time>
      </trkpt>
      <trkpt lat="43.22028" lon="5.44916">
        <ele>276.3</ele>
        <time>2013-10-09T07:18:01Z</time>
      </trkpt>
      <trkpt lat="43.22024" lon="5.44915">
        <ele>277.2</ele>
        <time>2013-10-09T07:18:05Z</time>
      </trkpt>
      <trkpt lat="43.2202" lon="5.44914">
        <ele>277.6</ele>
        <time>2013-10-09T07:18:09Z</time>
      </trkpt>
      <trkpt lat="43.22016" lon="5.44914">
        <ele>277.6</ele>
        <time>2013-10-09T07:18:13Z</time>
      </trkpt>
      <trkpt lat="43.22012" lon="5.44913">
        <ele>278.2</ele>
        <time>2013-10-09T07:18:17Z</time>
      </trkpt>
      <trkpt lat="43.22007" lon="5.44913">
        <ele>278.8</ele>
        <time>2013-10-09T07:18:21Z</time>
      </trkpt>
      <trkpt lat="43.22003" lon="5.44913">
        <ele>279.2</ele>
        <time>2013-10-09T07:18:25Z</time>
      </trkpt>
      <trkpt lat="43.21999" lon="5.44913">
        <ele>279.8</ele>
        <time>2013-10-09T07:18:29Z</time>
      </trkpt>
      <trkpt lat="43.21998" lon="5.44913">
        <ele>280.1</ele>
        <time>2013-10-09T07:18:30Z</time>
      </trkpt>
      <trkpt lat="43.21992" lon="5.44918">
        <ele>280</ele>
        <time>2013-10-09T07:18:37Z</time>
      </trkpt>
      <trkpt lat="43.2199" lon="5.44924">
        <ele>278.7</ele>
        <time>2013-10-09T07:19:06Z</time>
      </trkpt>
      <trkpt lat="43.21988" lon="5.44929">
        <ele>278.7</ele>
        <time>2013-10-09T07:19:17Z</time>
      </trkpt>
      <trkpt lat="43.21988" lon="5.44934">
        <ele>278.8</ele>
        <time>2013-10-09T07:19:21Z</time>
      </trkpt>
      <trkpt lat="43.21987" lon="5.4494">
        <ele>278.8</ele>
        <time>2013-10-09T07:19:25Z</time>
      </trkpt>
      <trkpt lat="43.21986" lon="5.44946">
        <ele>278.1</ele>
        <time>2013-10-09T07:19:29Z</time>
      </trkpt>
      <trkpt lat="43.21985" lon="5.4495">
        <ele>278.6</ele>
        <time>2013-10-09T07:19:32Z</time>
      </trkpt>
      <trkpt lat="43.21985" lon="5.44952">
        <ele>278.8</ele>
        <time>2013-10-09T07:19:33Z</time>
      </trkpt>
      <trkpt lat="43.21984" lon="5.4496">
        <ele>281.5</ele>
        <time>2013-10-09T07:19:38Z</time>
      </trkpt>
      <trkpt lat="43.21982" lon="5.44965">
        <ele>282.7</ele>
        <time>2013-10-09T07:19:41Z</time>
      </trkpt>
      <trkpt lat="43.2198" lon="5.4497">
        <ele>282</ele>
        <time>2013-10-09T07:19:46Z</time>
      </trkpt>
      <trkpt lat="43.21976" lon="5.44973">
        <ele>283</ele>
        <time>2013-10-09T07:19:50Z</time>
      </trkpt>
      <trkpt lat="43.21972" lon="5.44974">
        <ele>283.2</ele>
        <time>2013-10-09T07:19:55Z</time>
      </trkpt>
      <trkpt lat="43.21968" lon="5.44974">
        <ele>283.8</ele>
        <time>2013-10-09T07:20:00Z</time>
      </trkpt>
      <trkpt lat="43.21964" lon="5.44972">
        <ele>284.8</ele>
        <time>2013-10-09T07:20:04Z</time>
      </trkpt>
      <trkpt lat="43.2196" lon="5.44972">
        <ele>285</ele>
        <time>2013-10-09T07:20:08Z</time>
      </trkpt>
      <trkpt lat="43.21956" lon="5.44971">
        <ele>285.3</ele>
        <time>2013-10-09T07:20:12Z</time>
      </trkpt>
      <trkpt lat="43.21952" lon="5.44972">
        <ele>285.2</ele>
        <time>2013-10-09T07:20:16Z</time>
      </trkpt>
      <trkpt lat="43.21949" lon="5.44975">
        <ele>285.2</ele>
        <time>2013-10-09T07:20:20Z</time>
      </trkpt>
      <trkpt lat="43.21945" lon="5.44979">
        <ele>286</ele>
        <time>2013-10-09T07:20:25Z</time>
      </trkpt>
      <trkpt lat="43.21943" lon="5.44983">
        <ele>285.7</ele>
        <time>2013-10-09T07:20:29Z</time>
      </trkpt>
      <trkpt lat="43.21942" lon="5.44988">
        <ele>285.7</ele>
        <time>2013-10-09T07:20:33Z</time>
      </trkpt>
      <trkpt lat="43.21942" lon="5.44989">
        <ele>285.8</ele>
        <time>2013-10-09T07:20:34Z</time>
      </trkpt>
      <trkpt lat="43.21942" lon="5.44999">
        <ele>286.2</ele>
        <time>2013-10-09T07:20:41Z</time>
      </trkpt>
      <trkpt lat="43.21942" lon="5.45004">
        <ele>287</ele>
        <time>2013-10-09T07:20:45Z</time>
      </trkpt>
      <trkpt lat="43.21943" lon="5.45009">
        <ele>286.2</ele>
        <time>2013-10-09T07:20:49Z</time>
      </trkpt>
      <trkpt lat="43.21944" lon="5.45014">
        <ele>286.7</ele>
        <time>2013-10-09T07:20:53Z</time>
      </trkpt>
      <trkpt lat="43.21945" lon="5.4502">
        <ele>287.7</ele>
        <time>2013-10-09T07:20:57Z</time>
      </trkpt>
      <trkpt lat="43.21946" lon="5.45026">
        <ele>288.3</ele>
        <time>2013-10-09T07:21:01Z</time>
      </trkpt>
      <trkpt lat="43.21947" lon="5.45031">
        <ele>289.2</ele>
        <time>2013-10-09T07:21:06Z</time>
      </trkpt>
      <trkpt lat="43.21948" lon="5.45036">
        <ele>289.7</ele>
        <time>2013-10-09T07:21:10Z</time>
      </trkpt>
      <trkpt lat="43.21948" lon="5.45041">
        <ele>290.7</ele>
        <time>2013-10-09T07:21:14Z</time>
      </trkpt>
      <trkpt lat="43.21947" lon="5.45046">
        <ele>291</ele>
        <time>2013-10-09T07:21:17Z</time>
      </trkpt>
      <trkpt lat="43.21946" lon="5.45052">
        <ele>291.3</ele>
        <time>2013-10-09T07:21:21Z</time>
      </trkpt>
      <trkpt lat="43.21945" lon="5.45057">
        <ele>292.5</ele>
        <time>2013-10-09T07:21:24Z</time>
      </trkpt>
      <trkpt lat="43.21944" lon="5.45062">
        <ele>292.5</ele>
        <time>2013-10-09T07:21:28Z</time>
      </trkpt>
      <trkpt lat="43.21943" lon="5.45067">
        <ele>292.1</ele>
        <time>2013-10-09T07:21:32Z</time>
      </trkpt>
      <trkpt lat="43.21942" lon="5.45071">
        <ele>291.7</ele>
        <time>2013-10-09T07:21:35Z</time>
      </trkpt>
      <trkpt lat="43.21941" lon="5.45073">
        <ele>292.5</ele>
        <time>2013-10-09T07:21:36Z</time>
      </trkpt>
      <trkpt lat="43.21937" lon="5.4508">
        <ele>292.5</ele>
        <time>2013-10-09T07:21:42Z</time>
      </trkpt>
      <trkpt lat="43.21934" lon="5.45083">
        <ele>293.7</ele>
        <time>2013-10-09T07:21:46Z</time>
      </trkpt>
      <trkpt lat="43.2193" lon="5.45086">
        <ele>293.2</ele>
        <time>2013-10-09T07:21:51Z</time>
      </trkpt>
      <trkpt lat="43.21927" lon="5.4509">
        <ele>293.6</ele>
        <time>2013-10-09T07:21:55Z</time>
      </trkpt>
      <trkpt lat="43.21924" lon="5.45093">
        <ele>295.1</ele>
        <time>2013-10-09T07:22:00Z</time>
      </trkpt>
      <trkpt lat="43.2192" lon="5.45095">
        <ele>295.7</ele>
        <time>2013-10-09T07:22:04Z</time>
      </trkpt>
      <trkpt lat="43.21917" lon="5.45097">
        <ele>297.5</ele>
        <time>2013-10-09T07:22:07Z</time>
      </trkpt>
      <trkpt lat="43.21914" lon="5.45101">
        <ele>298.6</ele>
        <time>2013-10-09T07:22:11Z</time>
      </trkpt>
      <trkpt lat="43.21911" lon="5.45103">
        <ele>299</ele>
        <time>2013-10-09T07:22:16Z</time>
      </trkpt>
      <trkpt lat="43.21907" lon="5.45105">
        <ele>299.2</ele>
        <time>2013-10-09T07:22:21Z</time>
      </trkpt>
      <trkpt lat="43.21904" lon="5.45108">
        <ele>299.6</ele>
        <time>2013-10-09T07:22:26Z</time>
      </trkpt>
      <trkpt lat="43.219" lon="5.45111">
        <ele>300</ele>
        <time>2013-10-09T07:22:31Z</time>
      </trkpt>
      <trkpt lat="43.21897" lon="5.45115">
        <ele>299.7</ele>
        <time>2013-10-09T07:22:36Z</time>
      </trkpt>
      <trkpt lat="43.21896" lon="5.45116">
        <ele>299.7</ele>
        <time>2013-10-09T07:22:37Z</time>
      </trkpt>
      <trkpt lat="43.2189" lon="5.45121">
        <ele>299.5</ele>
        <time>2013-10-09T07:22:45Z</time>
      </trkpt>
      <trkpt lat="43.21887" lon="5.45125">
        <ele>299.8</ele>
        <time>2013-10-09T07:22:49Z</time>
      </trkpt>
      <trkpt lat="43.21885" lon="5.4513">
        <ele>300.6</ele>
        <time>2013-10-09T07:22:53Z</time>
      </trkpt>
      <trkpt lat="43.21883" lon="5.45134">
        <ele>301.1</ele>
        <time>2013-10-09T07:22:57Z</time>
      </trkpt>
      <trkpt lat="43.21882" lon="5.4514">
        <ele>302</ele>
        <time>2013-10-09T07:23:01Z</time>
      </trkpt>
      <trkpt lat="43.2188" lon="5.45145">
        <ele>303</ele>
        <time>2013-10-09T07:23:05Z</time>
      </trkpt>
      <trkpt lat="43.21879" lon="5.4515">
        <ele>303.8</ele>
        <time>2013-10-09T07:23:09Z</time>
      </trkpt>
      <trkpt lat="43.21878" lon="5.45156">
        <ele>304.5</ele>
        <time>2013-10-09T07:23:13Z</time>
      </trkpt>
      <trkpt lat="43.21876" lon="5.45161">
        <ele>305.1</ele>
        <time>2013-10-09T07:23:17Z</time>
      </trkpt>
      <trkpt lat="43.21874" lon="5.45166">
        <ele>306</ele>
        <time>2013-10-09T07:23:21Z</time>
      </trkpt>
      <trkpt lat="43.21874" lon="5.45171">
        <ele>305.1</ele>
        <time>2013-10-09T07:23:25Z</time>
      </trkpt>
      <trkpt lat="43.21873" lon="5.45177">
        <ele>306.1</ele>
        <time>2013-10-09T07:23:29Z</time>
      </trkpt>
      <trkpt lat="43.21871" lon="5.45182">
        <ele>306.6</ele>
        <time>2013-10-09T07:23:33Z</time>
      </trkpt>
      <trkpt lat="43.21871" lon="5.45188">
        <ele>306.5</ele>
        <time>2013-10-09T07:23:37Z</time>
      </trkpt>
      <trkpt lat="43.21871" lon="5.45189">
        <ele>306.6</ele>
        <time>2013-10-09T07:23:38Z</time>
      </trkpt>
      <trkpt lat="43.21871" lon="5.45199">
        <ele>306.7</ele>
        <time>2013-10-09T07:23:46Z</time>
      </trkpt>
      <trkpt lat="43.21873" lon="5.45204">
        <ele>306.7</ele>
        <time>2013-10-09T07:23:51Z</time>
      </trkpt>
      <trkpt lat="43.21875" lon="5.45209">
        <ele>307.8</ele>
        <time>2013-10-09T07:23:58Z</time>
      </trkpt>
      <trkpt lat="43.21878" lon="5.45214">
        <ele>308.2</ele>
        <time>2013-10-09T07:24:07Z</time>
      </trkpt>
      <trkpt lat="43.21879" lon="5.4522">
        <ele>314.2</ele>
        <time>2013-10-09T07:24:53Z</time>
      </trkpt>
      <trkpt lat="43.21879" lon="5.4522">
        <ele>314.2</ele>
        <time>2013-10-09T07:24:54Z</time>
      </trkpt>
      <trkpt lat="43.21884" lon="5.45217">
        <ele>312.5</ele>
        <time>2013-10-09T07:30:53Z</time>
      </trkpt>
      <trkpt lat="43.2189" lon="5.45213">
        <ele>312.6</ele>
        <time>2013-10-09T07:31:01Z</time>
      </trkpt>
      <trkpt lat="43.21894" lon="5.45211">
        <ele>312.7</ele>
        <time>2013-10-09T07:31:05Z</time>
      </trkpt>
      <trkpt lat="43.21897" lon="5.45208">
        <ele>313.2</ele>
        <time>2013-10-09T07:31:09Z</time>
      </trkpt>
      <trkpt lat="43.21901" lon="5.45206">
        <ele>313.7</ele>
        <time>2013-10-09T07:31:13Z</time>
      </trkpt>
      <trkpt lat="43.21905" lon="5.45203">
        <ele>313.7</ele>
        <time>2013-10-09T07:31:17Z</time>
      </trkpt>
      <trkpt lat="43.21908" lon="5.452">
        <ele>314</ele>
        <time>2013-10-09T07:31:21Z</time>
      </trkpt>
      <trkpt lat="43.21912" lon="5.45198">
        <ele>314</ele>
        <time>2013-10-09T07:31:25Z</time>
      </trkpt>
      <trkpt lat="43.21916" lon="5.45195">
        <ele>314.2</ele>
        <time>2013-10-09T07:31:29Z</time>
      </trkpt>
      <trkpt lat="43.2192" lon="5.45193">
        <ele>314.5</ele>
        <time>2013-10-09T07:31:33Z</time>
      </trkpt>
      <trkpt lat="43.21924" lon="5.45191">
        <ele>315.2</ele>
        <time>2013-10-09T07:31:37Z</time>
      </trkpt>
      <trkpt lat="43.21927" lon="5.4519">
        <ele>315.7</ele>
        <time>2013-10-09T07:31:40Z</time>
      </trkpt>
      <trkpt lat="43.21932" lon="5.45189">
        <ele>316.2</ele>
        <time>2013-10-09T07:31:44Z</time>
      </trkpt>
      <trkpt lat="43.21935" lon="5.45187">
        <ele>316.6</ele>
        <time>2013-10-09T07:31:48Z</time>
      </trkpt>
      <trkpt lat="43.21939" lon="5.45186">
        <ele>316.6</ele>
        <time>2013-10-09T07:31:52Z</time>
      </trkpt>
      <trkpt lat="43.21942" lon="5.45185">
        <ele>316.7</ele>
        <time>2013-10-09T07:31:55Z</time>
      </trkpt>
      <trkpt lat="43.21943" lon="5.45184">
        <ele>316.7</ele>
        <time>2013-10-09T07:31:56Z</time>
      </trkpt>
      <trkpt lat="43.2195" lon="5.45181">
        <ele>317.8</ele>
        <time>2013-10-09T07:32:04Z</time>
      </trkpt>
      <trkpt lat="43.21954" lon="5.45178">
        <ele>318.2</ele>
        <time>2013-10-09T07:32:08Z</time>
      </trkpt>
      <trkpt lat="43.21958" lon="5.45176">
        <ele>318.1</ele>
        <time>2013-10-09T07:32:12Z</time>
      </trkpt>
      <trkpt lat="43.21961" lon="5.45173">
        <ele>318.1</ele>
        <time>2013-10-09T07:32:16Z</time>
      </trkpt>
      <trkpt lat="43.21965" lon="5.4517">
        <ele>318.6</ele>
        <time>2013-10-09T07:32:21Z</time>
      </trkpt>
      <trkpt lat="43.21968" lon="5.45167">
        <ele>318.2</ele>
        <time>2013-10-09T07:32:25Z</time>
      </trkpt>
      <trkpt lat="43.21971" lon="5.45164">
        <ele>317.3</ele>
        <time>2013-10-09T07:32:29Z</time>
      </trkpt>
      <trkpt lat="43.21975" lon="5.45162">
        <ele>317.3</ele>
        <time>2013-10-09T07:32:33Z</time>
      </trkpt>
      <trkpt lat="43.21979" lon="5.4516">
        <ele>317.7</ele>
        <time>2013-10-09T07:32:37Z</time>
      </trkpt>
      <trkpt lat="43.21983" lon="5.45159">
        <ele>317.6</ele>
        <time>2013-10-09T07:32:42Z</time>
      </trkpt>
      <trkpt lat="43.21987" lon="5.45158">
        <ele>318.1</ele>
        <time>2013-10-09T07:32:47Z</time>
      </trkpt>
      <trkpt lat="43.21991" lon="5.45156">
        <ele>318.7</ele>
        <time>2013-10-09T07:32:54Z</time>
      </trkpt>
      <trkpt lat="43.21994" lon="5.45154">
        <ele>320.6</ele>
        <time>2013-10-09T07:33:00Z</time>
      </trkpt>
      <trkpt lat="43.21995" lon="5.45154">
        <ele>320.7</ele>
        <time>2013-10-09T07:33:01Z</time>
      </trkpt>
      <trkpt lat="43.22002" lon="5.45151">
        <ele>321.8</ele>
        <time>2013-10-09T07:33:10Z</time>
      </trkpt>
      <trkpt lat="43.22005" lon="5.45147">
        <ele>325.8</ele>
        <time>2013-10-09T07:33:32Z</time>
      </trkpt>
      <trkpt lat="43.22009" lon="5.45146">
        <ele>325.2</ele>
        <time>2013-10-09T07:33:36Z</time>
      </trkpt>
      <trkpt lat="43.22013" lon="5.45145">
        <ele>324.3</ele>
        <time>2013-10-09T07:33:40Z</time>
      </trkpt>
      <trkpt lat="43.22017" lon="5.45144">
        <ele>323.2</ele>
        <time>2013-10-09T07:33:44Z</time>
      </trkpt>
      <trkpt lat="43.22021" lon="5.45141">
        <ele>322.8</ele>
        <time>2013-10-09T07:33:49Z</time>
      </trkpt>
      <trkpt lat="43.22025" lon="5.4514">
        <ele>323.3</ele>
        <time>2013-10-09T07:33:54Z</time>
      </trkpt>
      <trkpt lat="43.22029" lon="5.45139">
        <ele>324</ele>
        <time>2013-10-09T07:33:58Z</time>
      </trkpt>
      <trkpt lat="43.22033" lon="5.45137">
        <ele>324.6</ele>
        <time>2013-10-09T07:34:02Z</time>
      </trkpt>
      <trkpt lat="43.22034" lon="5.45137">
        <ele>324.7</ele>
        <time>2013-10-09T07:34:03Z</time>
      </trkpt>
      <trkpt lat="43.22041" lon="5.45134">
        <ele>325.5</ele>
        <time>2013-10-09T07:34:10Z</time>
      </trkpt>
      <trkpt lat="43.22045" lon="5.45133">
        <ele>326.2</ele>
        <time>2013-10-09T07:34:14Z</time>
      </trkpt>
      <trkpt lat="43.22048" lon="5.45132">
        <ele>327.8</ele>
        <time>2013-10-09T07:34:18Z</time>
      </trkpt>
      <trkpt lat="43.22053" lon="5.45131">
        <ele>329</ele>
        <time>2013-10-09T07:34:23Z</time>
      </trkpt>
      <trkpt lat="43.22057" lon="5.45129">
        <ele>329.2</ele>
        <time>2013-10-09T07:34:27Z</time>
      </trkpt>
      <trkpt lat="43.22061" lon="5.45127">
        <ele>329.7</ele>
        <time>2013-10-09T07:34:31Z</time>
      </trkpt>
      <trkpt lat="43.22065" lon="5.45126">
        <ele>330.2</ele>
        <time>2013-10-09T07:34:35Z</time>
      </trkpt>
      <trkpt lat="43.22069" lon="5.45125">
        <ele>330</ele>
        <time>2013-10-09T07:34:38Z</time>
      </trkpt>
      <trkpt lat="43.22073" lon="5.45124">
        <ele>329.5</ele>
        <time>2013-10-09T07:34:41Z</time>
      </trkpt>
      <trkpt lat="43.22077" lon="5.45122">
        <ele>330.1</ele>
        <time>2013-10-09T07:34:45Z</time>
      </trkpt>
      <trkpt lat="43.22081" lon="5.4512">
        <ele>330.2</ele>
        <time>2013-10-09T07:34:49Z</time>
      </trkpt>
      <trkpt lat="43.22085" lon="5.45118">
        <ele>330.7</ele>
        <time>2013-10-09T07:34:53Z</time>
      </trkpt>
      <trkpt lat="43.22088" lon="5.45116">
        <ele>331.2</ele>
        <time>2013-10-09T07:34:56Z</time>
      </trkpt>
      <trkpt lat="43.22091" lon="5.45113">
        <ele>332.5</ele>
        <time>2013-10-09T07:35:00Z</time>
      </trkpt>
      <trkpt lat="43.22095" lon="5.4511">
        <ele>333.5</ele>
        <time>2013-10-09T07:35:04Z</time>
      </trkpt>
      <trkpt lat="43.22095" lon="5.45109">
        <ele>333.8</ele>
        <time>2013-10-09T07:35:05Z</time>
      </trkpt>
      <trkpt lat="43.22101" lon="5.45106">
        <ele>335.2</ele>
        <time>2013-10-09T07:35:11Z</time>
      </trkpt>
      <trkpt lat="43.22104" lon="5.45104">
        <ele>335.5</ele>
        <time>2013-10-09T07:35:14Z</time>
      </trkpt>
      <trkpt lat="43.22108" lon="5.45102">
        <ele>335.7</ele>
        <time>2013-10-09T07:35:18Z</time>
      </trkpt>
      <trkpt lat="43.22112" lon="5.45101">
        <ele>335.7</ele>
        <time>2013-10-09T07:35:20Z</time>
      </trkpt>
      <trkpt lat="43.22115" lon="5.451">
        <ele>335.1</ele>
        <time>2013-10-09T07:35:23Z</time>
      </trkpt>
      <trkpt lat="43.22119" lon="5.45098">
        <ele>335.5</ele>
        <time>2013-10-09T07:35:27Z</time>
      </trkpt>
      <trkpt lat="43.22122" lon="5.45096">
        <ele>336.5</ele>
        <time>2013-10-09T07:35:31Z</time>
      </trkpt>
      <trkpt lat="43.22126" lon="5.45094">
        <ele>339.3</ele>
        <time>2013-10-09T07:35:35Z</time>
      </trkpt>
      <trkpt lat="43.22129" lon="5.45092">
        <ele>340.6</ele>
        <time>2013-10-09T07:35:39Z</time>
      </trkpt>
      <trkpt lat="43.22134" lon="5.45092">
        <ele>340.8</ele>
        <time>2013-10-09T07:35:43Z</time>
      </trkpt>
      <trkpt lat="43.22138" lon="5.45093">
        <ele>339</ele>
        <time>2013-10-09T07:35:46Z</time>
      </trkpt>
      <trkpt lat="43.22142" lon="5.45092">
        <ele>340.7</ele>
        <time>2013-10-09T07:35:50Z</time>
      </trkpt>
      <trkpt lat="43.22146" lon="5.45091">
        <ele>340</ele>
        <time>2013-10-09T07:35:54Z</time>
      </trkpt>
      <trkpt lat="43.2215" lon="5.4509">
        <ele>342.2</ele>
        <time>2013-10-09T07:35:58Z</time>
      </trkpt>
      <trkpt lat="43.22154" lon="5.4509">
        <ele>344.2</ele>
        <time>2013-10-09T07:36:02Z</time>
      </trkpt>
      <trkpt lat="43.22158" lon="5.4509">
        <ele>345.2</ele>
        <time>2013-10-09T07:36:06Z</time>
      </trkpt>
      <trkpt lat="43.22159" lon="5.4509">
        <ele>345.1</ele>
        <time>2013-10-09T07:36:07Z</time>
      </trkpt>
      <trkpt lat="43.22165" lon="5.45092">
        <ele>342.2</ele>
        <time>2013-10-09T07:36:12Z</time>
      </trkpt>
      <trkpt lat="43.22169" lon="5.45093">
        <ele>340.5</ele>
        <time>2013-10-09T07:36:15Z</time>
      </trkpt>
      <trkpt lat="43.22173" lon="5.45093">
        <ele>340.7</ele>
        <time>2013-10-09T07:36:19Z</time>
      </trkpt>
      <trkpt lat="43.22177" lon="5.45094">
        <ele>340.8</ele>
        <time>2013-10-09T07:36:22Z</time>
      </trkpt>
      <trkpt lat="43.2218" lon="5.45095">
        <ele>340.2</ele>
        <time>2013-10-09T07:36:25Z</time>
      </trkpt>
      <trkpt lat="43.22184" lon="5.45093">
        <ele>343.6</ele>
        <time>2013-10-09T07:36:30Z</time>
      </trkpt>
      <trkpt lat="43.22188" lon="5.45094">
        <ele>343</ele>
        <time>2013-10-09T07:36:34Z</time>
      </trkpt>
      <trkpt lat="43.22192" lon="5.45097">
        <ele>340.8</ele>
        <time>2013-10-09T07:36:37Z</time>
      </trkpt>
      <trkpt lat="43.22196" lon="5.45097">
        <ele>343.1</ele>
        <time>2013-10-09T07:36:42Z</time>
      </trkpt>
      <trkpt lat="43.22199" lon="5.45095">
        <ele>347.8</ele>
        <time>2013-10-09T07:36:47Z</time>
      </trkpt>
      <trkpt lat="43.22203" lon="5.45094">
        <ele>351.5</ele>
        <time>2013-10-09T07:36:51Z</time>
      </trkpt>
      <trkpt lat="43.22207" lon="5.45095">
        <ele>351.8</ele>
        <time>2013-10-09T07:36:54Z</time>
      </trkpt>
      <trkpt lat="43.2221" lon="5.45095">
        <ele>351.2</ele>
        <time>2013-10-09T07:36:57Z</time>
      </trkpt>
      <trkpt lat="43.22214" lon="5.45096">
        <ele>350.6</ele>
        <time>2013-10-09T07:37:00Z</time>
      </trkpt>
      <trkpt lat="43.22218" lon="5.45097">
        <ele>350.3</ele>
        <time>2013-10-09T07:37:03Z</time>
      </trkpt>
      <trkpt lat="43.22222" lon="5.45098">
        <ele>349.8</ele>
        <time>2013-10-09T07:37:06Z</time>
      </trkpt>
      <trkpt lat="43.22225" lon="5.45099">
        <ele>349.3</ele>
        <time>2013-10-09T07:37:09Z</time>
      </trkpt>
      <trkpt lat="43.22227" lon="5.45099">
        <ele>349.8</ele>
        <time>2013-10-09T07:37:10Z</time>
      </trkpt>
      <trkpt lat="43.22232" lon="5.451">
        <ele>349.3</ele>
        <time>2013-10-09T07:37:15Z</time>
      </trkpt>
      <trkpt lat="43.22236" lon="5.451">
        <ele>349.7</ele>
        <time>2013-10-09T07:37:18Z</time>
      </trkpt>
      <trkpt lat="43.2224" lon="5.45102">
        <ele>347.8</ele>
        <time>2013-10-09T07:37:21Z</time>
      </trkpt>
      <trkpt lat="43.22243" lon="5.45102">
        <ele>346.2</ele>
        <time>2013-10-09T07:37:23Z</time>
      </trkpt>
      <trkpt lat="43.22247" lon="5.45102">
        <ele>345.2</ele>
        <time>2013-10-09T07:37:26Z</time>
      </trkpt>
      <trkpt lat="43.22251" lon="5.451">
        <ele>347.2</ele>
        <time>2013-10-09T07:37:31Z</time>
      </trkpt>
      <trkpt lat="43.22255" lon="5.45098">
        <ele>348.7</ele>
        <time>2013-10-09T07:37:35Z</time>
      </trkpt>
      <trkpt lat="43.22258" lon="5.45097">
        <ele>349.2</ele>
        <time>2013-10-09T07:37:39Z</time>
      </trkpt>
      <trkpt lat="43.22262" lon="5.45094">
        <ele>351.3</ele>
        <time>2013-10-09T07:37:43Z</time>
      </trkpt>
      <trkpt lat="43.22265" lon="5.45093">
        <ele>350.5</ele>
        <time>2013-10-09T07:37:46Z</time>
      </trkpt>
      <trkpt lat="43.22269" lon="5.45092">
        <ele>350.6</ele>
        <time>2013-10-09T07:37:49Z</time>
      </trkpt>
      <trkpt lat="43.22272" lon="5.45091">
        <ele>351.3</ele>
        <time>2013-10-09T07:37:52Z</time>
      </trkpt>
      <trkpt lat="43.22277" lon="5.4509">
        <ele>351.7</ele>
        <time>2013-10-09T07:37:56Z</time>
      </trkpt>
      <trkpt lat="43.2228" lon="5.4509">
        <ele>352.2</ele>
        <time>2013-10-09T07:38:00Z</time>
      </trkpt>
      <trkpt lat="43.22284" lon="5.45089">
        <ele>352.7</ele>
        <time>2013-10-09T07:38:04Z</time>
      </trkpt>
      <trkpt lat="43.22288" lon="5.45089">
        <ele>352.7</ele>
        <time>2013-10-09T07:38:08Z</time>
      </trkpt>
      <trkpt lat="43.22291" lon="5.45089">
        <ele>353.1</ele>
        <time>2013-10-09T07:38:11Z</time>
      </trkpt>
      <trkpt lat="43.22292" lon="5.45089">
        <ele>353.1</ele>
        <time>2013-10-09T07:38:12Z</time>
      </trkpt>
      <trkpt lat="43.22299" lon="5.45089">
        <ele>353.1</ele>
        <time>2013-10-09T07:38:19Z</time>
      </trkpt>
      <trkpt lat="43.22303" lon="5.4509">
        <ele>353.7</ele>
        <time>2013-10-09T07:38:22Z</time>
      </trkpt>
      <trkpt lat="43.22307" lon="5.45089">
        <ele>354</ele>
        <time>2013-10-09T07:38:26Z</time>
      </trkpt>
      <trkpt lat="43.22311" lon="5.45089">
        <ele>353.8</ele>
        <time>2013-10-09T07:38:30Z</time>
      </trkpt>
      <trkpt lat="43.22315" lon="5.45089">
        <ele>354.5</ele>
        <time>2013-10-09T07:38:34Z</time>
      </trkpt>
      <trkpt lat="43.2232" lon="5.45089">
        <ele>355</ele>
        <time>2013-10-09T07:38:38Z</time>
      </trkpt>
      <trkpt lat="43.22323" lon="5.45088">
        <ele>355.2</ele>
        <time>2013-10-09T07:38:42Z</time>
      </trkpt>
      <trkpt lat="43.22327" lon="5.45087">
        <ele>355.5</ele>
        <time>2013-10-09T07:38:46Z</time>
      </trkpt>
      <trkpt lat="43.22331" lon="5.45086">
        <ele>356.2</ele>
        <time>2013-10-09T07:38:50Z</time>
      </trkpt>
      <trkpt lat="43.22336" lon="5.45086">
        <ele>357.2</ele>
        <time>2013-10-09T07:38:54Z</time>
      </trkpt>
      <trkpt lat="43.2234" lon="5.45084">
        <ele>357.8</ele>
        <time>2013-10-09T07:38:58Z</time>
      </trkpt>
      <trkpt lat="43.22344" lon="5.45084">
        <ele>358.3</ele>
        <time>2013-10-09T07:39:02Z</time>
      </trkpt>
      <trkpt lat="43.22348" lon="5.45082">
        <ele>358.8</ele>
        <time>2013-10-09T07:39:07Z</time>
      </trkpt>
      <trkpt lat="43.22352" lon="5.45081">
        <ele>358.7</ele>
        <time>2013-10-09T07:39:11Z</time>
      </trkpt>
      <trkpt lat="43.22356" lon="5.4508">
        <ele>358.7</ele>
        <time>2013-10-09T07:39:15Z</time>
      </trkpt>
      <trkpt lat="43.22357" lon="5.4508">
        <ele>359.2</ele>
        <time>2013-10-09T07:39:16Z</time>
      </trkpt>
      <trkpt lat="43.22364" lon="5.45079">
        <ele>360.2</ele>
        <time>2013-10-09T07:39:23Z</time>
      </trkpt>
      <trkpt lat="43.22368" lon="5.45079">
        <ele>360.3</ele>
        <time>2013-10-09T07:39:27Z</time>
      </trkpt>
      <trkpt lat="43.22373" lon="5.45079">
        <ele>361</ele>
        <time>2013-10-09T07:39:31Z</time>
      </trkpt>
      <trkpt lat="43.22377" lon="5.45079">
        <ele>361.7</ele>
        <time>2013-10-09T07:39:35Z</time>
      </trkpt>
      <trkpt lat="43.2238" lon="5.4508">
        <ele>361.7</ele>
        <time>2013-10-09T07:39:39Z</time>
      </trkpt>
      <trkpt lat="43.22384" lon="5.45081">
        <ele>362.2</ele>
        <time>2013-10-09T07:39:43Z</time>
      </trkpt>
      <trkpt lat="43.22388" lon="5.45084">
        <ele>362.6</ele>
        <time>2013-10-09T07:39:48Z</time>
      </trkpt>
      <trkpt lat="43.22392" lon="5.45086">
        <ele>363.2</ele>
        <time>2013-10-09T07:39:53Z</time>
      </trkpt>
      <trkpt lat="43.22394" lon="5.4509">
        <ele>364</ele>
        <time>2013-10-09T07:39:57Z</time>
      </trkpt>
      <trkpt lat="43.22398" lon="5.45093">
        <ele>364.7</ele>
        <time>2013-10-09T07:40:01Z</time>
      </trkpt>
      <trkpt lat="43.22401" lon="5.45097">
        <ele>365.6</ele>
        <time>2013-10-09T07:40:05Z</time>
      </trkpt>
      <trkpt lat="43.22403" lon="5.45101">
        <ele>365.7</ele>
        <time>2013-10-09T07:40:09Z</time>
      </trkpt>
      <trkpt lat="43.22406" lon="5.45106">
        <ele>366.2</ele>
        <time>2013-10-09T07:40:13Z</time>
      </trkpt>
      <trkpt lat="43.22408" lon="5.4511">
        <ele>366.6</ele>
        <time>2013-10-09T07:40:16Z</time>
      </trkpt>
      <trkpt lat="43.22409" lon="5.45111">
        <ele>366.7</ele>
        <time>2013-10-09T07:40:17Z</time>
      </trkpt>
      <trkpt lat="43.22414" lon="5.45118">
        <ele>367.2</ele>
        <time>2013-10-09T07:40:24Z</time>
      </trkpt>
      <trkpt lat="43.22417" lon="5.45122">
        <ele>367.3</ele>
        <time>2013-10-09T07:40:28Z</time>
      </trkpt>
      <trkpt lat="43.2242" lon="5.45125">
        <ele>367.3</ele>
        <time>2013-10-09T07:40:32Z</time>
      </trkpt>
      <trkpt lat="43.22423" lon="5.45129">
        <ele>367.3</ele>
        <time>2013-10-09T07:40:36Z</time>
      </trkpt>
      <trkpt lat="43.22426" lon="5.45132">
        <ele>367.7</ele>
        <time>2013-10-09T07:40:40Z</time>
      </trkpt>
      <trkpt lat="43.22428" lon="5.45136">
        <ele>368.2</ele>
        <time>2013-10-09T07:40:44Z</time>
      </trkpt>
      <trkpt lat="43.22432" lon="5.45139">
        <ele>369</ele>
        <time>2013-10-09T07:40:48Z</time>
      </trkpt>
      <trkpt lat="43.22434" lon="5.45143">
        <ele>369.7</ele>
        <time>2013-10-09T07:40:52Z</time>
      </trkpt>
      <trkpt lat="43.22437" lon="5.45147">
        <ele>370.7</ele>
        <time>2013-10-09T07:40:56Z</time>
      </trkpt>
      <trkpt lat="43.2244" lon="5.45151">
        <ele>371.3</ele>
        <time>2013-10-09T07:41:00Z</time>
      </trkpt>
      <trkpt lat="43.22443" lon="5.45155">
        <ele>371.2</ele>
        <time>2013-10-09T07:41:04Z</time>
      </trkpt>
      <trkpt lat="43.22447" lon="5.45158">
        <ele>371.7</ele>
        <time>2013-10-09T07:41:08Z</time>
      </trkpt>
      <trkpt lat="43.22451" lon="5.45159">
        <ele>371.3</ele>
        <time>2013-10-09T07:41:12Z</time>
      </trkpt>
      <trkpt lat="43.22455" lon="5.4516">
        <ele>371.2</ele>
        <time>2013-10-09T07:41:16Z</time>
      </trkpt>
      <trkpt lat="43.22458" lon="5.45159">
        <ele>371.2</ele>
        <time>2013-10-09T07:41:20Z</time>
      </trkpt>
      <trkpt lat="43.22459" lon="5.45159">
        <ele>371.1</ele>
        <time>2013-10-09T07:41:21Z</time>
      </trkpt>
      <trkpt lat="43.22466" lon="5.45156">
        <ele>371.6</ele>
        <time>2013-10-09T07:41:29Z</time>
      </trkpt>
      <trkpt lat="43.2247" lon="5.45155">
        <ele>372.1</ele>
        <time>2013-10-09T07:41:33Z</time>
      </trkpt>
      <trkpt lat="43.22474" lon="5.45154">
        <ele>372.2</ele>
        <time>2013-10-09T07:41:38Z</time>
      </trkpt>
      <trkpt lat="43.22478" lon="5.45152">
        <ele>373.2</ele>
        <time>2013-10-09T07:41:44Z</time>
      </trkpt>
      <trkpt lat="43.22482" lon="5.4515">
        <ele>375.3</ele>
        <time>2013-10-09T07:41:59Z</time>
      </trkpt>
      <trkpt lat="43.22486" lon="5.45152">
        <ele>376.3</ele>
        <time>2013-10-09T07:42:04Z</time>
      </trkpt>
      <trkpt lat="43.22491" lon="5.45153">
        <ele>377</ele>
        <time>2013-10-09T07:42:08Z</time>
      </trkpt>
      <trkpt lat="43.22494" lon="5.45154">
        <ele>377.3</ele>
        <time>2013-10-09T07:42:11Z</time>
      </trkpt>
      <trkpt lat="43.22497" lon="5.45155">
        <ele>377.7</ele>
        <time>2013-10-09T07:42:14Z</time>
      </trkpt>
      <trkpt lat="43.22501" lon="5.45157">
        <ele>378.2</ele>
        <time>2013-10-09T07:42:17Z</time>
      </trkpt>
      <trkpt lat="43.22504" lon="5.45158">
        <ele>378.2</ele>
        <time>2013-10-09T07:42:21Z</time>
      </trkpt>
      <trkpt lat="43.22505" lon="5.45159">
        <ele>378.2</ele>
        <time>2013-10-09T07:42:22Z</time>
      </trkpt>
      <trkpt lat="43.22512" lon="5.4516">
        <ele>378.3</ele>
        <time>2013-10-09T07:42:29Z</time>
      </trkpt>
      <trkpt lat="43.22516" lon="5.45161">
        <ele>378.8</ele>
        <time>2013-10-09T07:42:32Z</time>
      </trkpt>
      <trkpt lat="43.2252" lon="5.45162">
        <ele>379</ele>
        <time>2013-10-09T07:42:36Z</time>
      </trkpt>
      <trkpt lat="43.22523" lon="5.45163">
        <ele>379</ele>
        <time>2013-10-09T07:42:40Z</time>
      </trkpt>
      <trkpt lat="43.22527" lon="5.45164">
        <ele>379.2</ele>
        <time>2013-10-09T07:42:44Z</time>
      </trkpt>
      <trkpt lat="43.22531" lon="5.45166">
        <ele>380.1</ele>
        <time>2013-10-09T07:42:48Z</time>
      </trkpt>
      <trkpt lat="43.22535" lon="5.45169">
        <ele>380.7</ele>
        <time>2013-10-09T07:42:51Z</time>
      </trkpt>
      <trkpt lat="43.22538" lon="5.45172">
        <ele>381</ele>
        <time>2013-10-09T07:42:55Z</time>
      </trkpt>
      <trkpt lat="43.22541" lon="5.45175">
        <ele>380.7</ele>
        <time>2013-10-09T07:42:59Z</time>
      </trkpt>
      <trkpt lat="43.22543" lon="5.45178">
        <ele>381.1</ele>
        <time>2013-10-09T07:43:02Z</time>
      </trkpt>
      <trkpt lat="43.22547" lon="5.45182">
        <ele>381.2</ele>
        <time>2013-10-09T07:43:06Z</time>
      </trkpt>
      <trkpt lat="43.2255" lon="5.45186">
        <ele>380.5</ele>
        <time>2013-10-09T07:43:11Z</time>
      </trkpt>
      <trkpt lat="43.22553" lon="5.45189">
        <ele>380.2</ele>
        <time>2013-10-09T07:43:15Z</time>
      </trkpt>
      <trkpt lat="43.22556" lon="5.45193">
        <ele>379.8</ele>
        <time>2013-10-09T07:43:19Z</time>
      </trkpt>
      <trkpt lat="43.22559" lon="5.45197">
        <ele>379.3</ele>
        <time>2013-10-09T07:43:23Z</time>
      </trkpt>
      <trkpt lat="43.2256" lon="5.45198">
        <ele>379.2</ele>
        <time>2013-10-09T07:43:24Z</time>
      </trkpt>
      <trkpt lat="43.22564" lon="5.45206">
        <ele>378.7</ele>
        <time>2013-10-09T07:43:31Z</time>
      </trkpt>
      <trkpt lat="43.22566" lon="5.4521">
        <ele>378.7</ele>
        <time>2013-10-09T07:43:34Z</time>
      </trkpt>
      <trkpt lat="43.22568" lon="5.45216">
        <ele>378.2</ele>
        <time>2013-10-09T07:43:38Z</time>
      </trkpt>
      <trkpt lat="43.2257" lon="5.45221">
        <ele>377.8</ele>
        <time>2013-10-09T07:43:42Z</time>
      </trkpt>
      <trkpt lat="43.22572" lon="5.45226">
        <ele>377.5</ele>
        <time>2013-10-09T07:43:46Z</time>
      </trkpt>
      <trkpt lat="43.22573" lon="5.45232">
        <ele>377.1</ele>
        <time>2013-10-09T07:43:50Z</time>
      </trkpt>
      <trkpt lat="43.22573" lon="5.45237">
        <ele>376.7</ele>
        <time>2013-10-09T07:43:53Z</time>
      </trkpt>
      <trkpt lat="43.22573" lon="5.45242">
        <ele>377.2</ele>
        <time>2013-10-09T07:43:56Z</time>
      </trkpt>
      <trkpt lat="43.22572" lon="5.45247">
        <ele>377.7</ele>
        <time>2013-10-09T07:43:58Z</time>
      </trkpt>
      <trkpt lat="43.22571" lon="5.45253">
        <ele>378.3</ele>
        <time>2013-10-09T07:44:01Z</time>
      </trkpt>
      <trkpt lat="43.2257" lon="5.45258">
        <ele>379.2</ele>
        <time>2013-10-09T07:44:04Z</time>
      </trkpt>
      <trkpt lat="43.22569" lon="5.45263">
        <ele>380.7</ele>
        <time>2013-10-09T07:44:07Z</time>
      </trkpt>
      <trkpt lat="43.22567" lon="5.45267">
        <ele>380.2</ele>
        <time>2013-10-09T07:44:10Z</time>
      </trkpt>
      <trkpt lat="43.22564" lon="5.45272">
        <ele>379.6</ele>
        <time>2013-10-09T07:44:13Z</time>
      </trkpt>
      <trkpt lat="43.22562" lon="5.45277">
        <ele>379.5</ele>
        <time>2013-10-09T07:44:16Z</time>
      </trkpt>
      <trkpt lat="43.22561" lon="5.45281">
        <ele>379.8</ele>
        <time>2013-10-09T07:44:19Z</time>
      </trkpt>
      <trkpt lat="43.22561" lon="5.45286">
        <ele>381.8</ele>
        <time>2013-10-09T07:44:22Z</time>
      </trkpt>
      <trkpt lat="43.2256" lon="5.45292">
        <ele>384.2</ele>
        <time>2013-10-09T07:44:25Z</time>
      </trkpt>
      <trkpt lat="43.22561" lon="5.45294">
        <ele>385.2</ele>
        <time>2013-10-09T07:44:26Z</time>
      </trkpt>
      <trkpt lat="43.22561" lon="5.45303">
        <ele>386.3</ele>
        <time>2013-10-09T07:44:34Z</time>
      </trkpt>
      <trkpt lat="43.22559" lon="5.45307">
        <ele>383.6</ele>
        <time>2013-10-09T07:44:38Z</time>
      </trkpt>
      <trkpt lat="43.22559" lon="5.45313">
        <ele>384.5</ele>
        <time>2013-10-09T07:44:43Z</time>
      </trkpt>
      <trkpt lat="43.22561" lon="5.45317">
        <ele>385.2</ele>
        <time>2013-10-09T07:44:49Z</time>
      </trkpt>
      <trkpt lat="43.22564" lon="5.4532">
        <ele>386.8</ele>
        <time>2013-10-09T07:44:52Z</time>
      </trkpt>
      <trkpt lat="43.22567" lon="5.45324">
        <ele>388.8</ele>
        <time>2013-10-09T07:44:55Z</time>
      </trkpt>
      <trkpt lat="43.22567" lon="5.4533">
        <ele>388.3</ele>
        <time>2013-10-09T07:44:59Z</time>
      </trkpt>
      <trkpt lat="43.22567" lon="5.45335">
        <ele>385.8</ele>
        <time>2013-10-09T07:45:04Z</time>
      </trkpt>
      <trkpt lat="43.22567" lon="5.4534">
        <ele>385.1</ele>
        <time>2013-10-09T07:45:07Z</time>
      </trkpt>
      <trkpt lat="43.22566" lon="5.45345">
        <ele>384.2</ele>
        <time>2013-10-09T07:45:09Z</time>
      </trkpt>
      <trkpt lat="43.22566" lon="5.45351">
        <ele>381</ele>
        <time>2013-10-09T07:45:14Z</time>
      </trkpt>
      <trkpt lat="43.22569" lon="5.45355">
        <ele>380.5</ele>
        <time>2013-10-09T07:45:18Z</time>
      </trkpt>
      <trkpt lat="43.22571" lon="5.45359">
        <ele>380.2</ele>
        <time>2013-10-09T07:45:22Z</time>
      </trkpt>
      <trkpt lat="43.22575" lon="5.45363">
        <ele>380.2</ele>
        <time>2013-10-09T07:45:27Z</time>
      </trkpt>
      <trkpt lat="43.22574" lon="5.45365">
        <ele>379.7</ele>
        <time>2013-10-09T07:45:28Z</time>
      </trkpt>
      <trkpt lat="43.22575" lon="5.45373">
        <ele>379.7</ele>
        <time>2013-10-09T07:45:33Z</time>
      </trkpt>
      <trkpt lat="43.22575" lon="5.45376">
        <ele>380.3</ele>
        <time>2013-10-09T07:45:35Z</time>
      </trkpt>
      <trkpt lat="43.22577" lon="5.45382">
        <ele>381.3</ele>
        <time>2013-10-09T07:45:40Z</time>
      </trkpt>
      <trkpt lat="43.22577" lon="5.45387">
        <ele>380.8</ele>
        <time>2013-10-09T07:45:43Z</time>
      </trkpt>
      <trkpt lat="43.22576" lon="5.4539">
        <ele>380.5</ele>
        <time>2013-10-09T07:45:44Z</time>
      </trkpt>
      <trkpt lat="43.22574" lon="5.45392">
        <ele>379.8</ele>
        <time>2013-10-09T07:45:45Z</time>
      </trkpt>
      <trkpt lat="43.22573" lon="5.45395">
        <ele>379.2</ele>
        <time>2013-10-09T07:45:46Z</time>
      </trkpt>
      <trkpt lat="43.22571" lon="5.45398">
        <ele>378.7</ele>
        <time>2013-10-09T07:45:47Z</time>
      </trkpt>
      <trkpt lat="43.22569" lon="5.45403">
        <ele>377.6</ele>
        <time>2013-10-09T07:45:49Z</time>
      </trkpt>
      <trkpt lat="43.22568" lon="5.45408">
        <ele>376.7</ele>
        <time>2013-10-09T07:45:52Z</time>
      </trkpt>
      <trkpt lat="43.22572" lon="5.4541">
        <ele>376.3</ele>
        <time>2013-10-09T07:45:56Z</time>
      </trkpt>
      <trkpt lat="43.22575" lon="5.45409">
        <ele>376.7</ele>
        <time>2013-10-09T07:45:58Z</time>
      </trkpt>
      <trkpt lat="43.22579" lon="5.45409">
        <ele>377.5</ele>
        <time>2013-10-09T07:46:00Z</time>
      </trkpt>
      <trkpt lat="43.22582" lon="5.45409">
        <ele>378.2</ele>
        <time>2013-10-09T07:46:02Z</time>
      </trkpt>
      <trkpt lat="43.22587" lon="5.45408">
        <ele>379.1</ele>
        <time>2013-10-09T07:46:04Z</time>
      </trkpt>
      <trkpt lat="43.2259" lon="5.45408">
        <ele>379.3</ele>
        <time>2013-10-09T07:46:06Z</time>
      </trkpt>
      <trkpt lat="43.22593" lon="5.45409">
        <ele>379.7</ele>
        <time>2013-10-09T07:46:08Z</time>
      </trkpt>
      <trkpt lat="43.22597" lon="5.4541">
        <ele>379.8</ele>
        <time>2013-10-09T07:46:11Z</time>
      </trkpt>
      <trkpt lat="43.22601" lon="5.45411">
        <ele>380.2</ele>
        <time>2013-10-09T07:46:14Z</time>
      </trkpt>
      <trkpt lat="43.22605" lon="5.45414">
        <ele>378.7</ele>
        <time>2013-10-09T07:46:19Z</time>
      </trkpt>
      <trkpt lat="43.22609" lon="5.45414">
        <ele>378.1</ele>
        <time>2013-10-09T07:46:23Z</time>
      </trkpt>
      <trkpt lat="43.22612" lon="5.45414">
        <ele>377.7</ele>
        <time>2013-10-09T07:46:26Z</time>
      </trkpt>
      <trkpt lat="43.22616" lon="5.45417">
        <ele>378.3</ele>
        <time>2013-10-09T07:46:30Z</time>
      </trkpt>
      <trkpt lat="43.22617" lon="5.45417">
        <ele>378.1</ele>
        <time>2013-10-09T07:46:31Z</time>
      </trkpt>
      <trkpt lat="43.22623" lon="5.45417">
        <ele>378.2</ele>
        <time>2013-10-09T07:46:36Z</time>
      </trkpt>
      <trkpt lat="43.22626" lon="5.4542">
        <ele>377.7</ele>
        <time>2013-10-09T07:46:40Z</time>
      </trkpt>
      <trkpt lat="43.22629" lon="5.45422">
        <ele>378.1</ele>
        <time>2013-10-09T07:46:43Z</time>
      </trkpt>
      <trkpt lat="43.22633" lon="5.45425">
        <ele>379.2</ele>
        <time>2013-10-09T07:46:46Z</time>
      </trkpt>
      <trkpt lat="43.22634" lon="5.45429">
        <ele>379.6</ele>
        <time>2013-10-09T07:46:49Z</time>
      </trkpt>
      <trkpt lat="43.22639" lon="5.45431">
        <ele>380.6</ele>
        <time>2013-10-09T07:46:52Z</time>
      </trkpt>
      <trkpt lat="43.22638" lon="5.45436">
        <ele>380.2</ele>
        <time>2013-10-09T07:46:54Z</time>
      </trkpt>
      <trkpt lat="43.22639" lon="5.45439">
        <ele>381.6</ele>
        <time>2013-10-09T07:46:56Z</time>
      </trkpt>
      <trkpt lat="43.22642" lon="5.45439">
        <ele>383.2</ele>
        <time>2013-10-09T07:46:57Z</time>
      </trkpt>
      <trkpt lat="43.22646" lon="5.4544">
        <ele>384.7</ele>
        <time>2013-10-09T07:46:59Z</time>
      </trkpt>
      <trkpt lat="43.22649" lon="5.45441">
        <ele>386.2</ele>
        <time>2013-10-09T07:47:01Z</time>
      </trkpt>
      <trkpt lat="43.22653" lon="5.45442">
        <ele>388</ele>
        <time>2013-10-09T07:47:03Z</time>
      </trkpt>
      <trkpt lat="43.22656" lon="5.45446">
        <ele>384.8</ele>
        <time>2013-10-09T07:47:09Z</time>
      </trkpt>
      <trkpt lat="43.2266" lon="5.45447">
        <ele>382.7</ele>
        <time>2013-10-09T07:47:15Z</time>
      </trkpt>
      <trkpt lat="43.22664" lon="5.45447">
        <ele>380.5</ele>
        <time>2013-10-09T07:47:20Z</time>
      </trkpt>
      <trkpt lat="43.22668" lon="5.45446">
        <ele>378.6</ele>
        <time>2013-10-09T07:47:25Z</time>
      </trkpt>
      <trkpt lat="43.22672" lon="5.45445">
        <ele>379</ele>
        <time>2013-10-09T07:47:28Z</time>
      </trkpt>
      <trkpt lat="43.22676" lon="5.45444">
        <ele>378.5</ele>
        <time>2013-10-09T07:47:32Z</time>
      </trkpt>
      <trkpt lat="43.22677" lon="5.45444">
        <ele>378.5</ele>
        <time>2013-10-09T07:47:33Z</time>
      </trkpt>
      <trkpt lat="43.22684" lon="5.45444">
        <ele>378.2</ele>
        <time>2013-10-09T07:47:40Z</time>
      </trkpt>
      <trkpt lat="43.22688" lon="5.45443">
        <ele>378</ele>
        <time>2013-10-09T07:47:44Z</time>
      </trkpt>
      <trkpt lat="43.22692" lon="5.45444">
        <ele>378.5</ele>
        <time>2013-10-09T07:47:48Z</time>
      </trkpt>
      <trkpt lat="43.22696" lon="5.45445">
        <ele>378.2</ele>
        <time>2013-10-09T07:47:52Z</time>
      </trkpt>
      <trkpt lat="43.227" lon="5.45446">
        <ele>379.1</ele>
        <time>2013-10-09T07:47:55Z</time>
      </trkpt>
      <trkpt lat="43.22703" lon="5.45449">
        <ele>379.2</ele>
        <time>2013-10-09T07:47:58Z</time>
      </trkpt>
      <trkpt lat="43.22707" lon="5.45451">
        <ele>380.1</ele>
        <time>2013-10-09T07:48:01Z</time>
      </trkpt>
      <trkpt lat="43.2271" lon="5.45454">
        <ele>381.2</ele>
        <time>2013-10-09T07:48:04Z</time>
      </trkpt>
      <trkpt lat="43.22712" lon="5.45459">
        <ele>381.5</ele>
        <time>2013-10-09T07:48:07Z</time>
      </trkpt>
      <trkpt lat="43.22716" lon="5.45461">
        <ele>384</ele>
        <time>2013-10-09T07:48:09Z</time>
      </trkpt>
      <trkpt lat="43.22718" lon="5.45464">
        <ele>385.2</ele>
        <time>2013-10-09T07:48:11Z</time>
      </trkpt>
      <trkpt lat="43.22719" lon="5.45467">
        <ele>386.5</ele>
        <time>2013-10-09T07:48:12Z</time>
      </trkpt>
      <trkpt lat="43.2272" lon="5.4547">
        <ele>387.8</ele>
        <time>2013-10-09T07:48:13Z</time>
      </trkpt>
      <trkpt lat="43.22722" lon="5.45472">
        <ele>389.6</ele>
        <time>2013-10-09T07:48:14Z</time>
      </trkpt>
      <trkpt lat="43.22724" lon="5.45474">
        <ele>392.1</ele>
        <time>2013-10-09T07:48:15Z</time>
      </trkpt>
      <trkpt lat="43.22726" lon="5.45478">
        <ele>394.3</ele>
        <time>2013-10-09T07:48:17Z</time>
      </trkpt>
      <trkpt lat="43.2273" lon="5.45482">
        <ele>397.7</ele>
        <time>2013-10-09T07:48:19Z</time>
      </trkpt>
      <trkpt lat="43.22731" lon="5.45487">
        <ele>398.8</ele>
        <time>2013-10-09T07:48:22Z</time>
      </trkpt>
      <trkpt lat="43.22729" lon="5.4549">
        <ele>396.3</ele>
        <time>2013-10-09T07:48:25Z</time>
      </trkpt>
      <trkpt lat="43.22726" lon="5.45493">
        <ele>394.2</ele>
        <time>2013-10-09T07:48:26Z</time>
      </trkpt>
      <trkpt lat="43.22723" lon="5.45498">
        <ele>392.7</ele>
        <time>2013-10-09T07:48:28Z</time>
      </trkpt>
      <trkpt lat="43.22723" lon="5.45502">
        <ele>391.5</ele>
        <time>2013-10-09T07:48:31Z</time>
      </trkpt>
      <trkpt lat="43.22721" lon="5.45507">
        <ele>390.6</ele>
        <time>2013-10-09T07:48:33Z</time>
      </trkpt>
      <trkpt lat="43.22721" lon="5.45509">
        <ele>390.2</ele>
        <time>2013-10-09T07:48:34Z</time>
      </trkpt>
      <trkpt lat="43.22719" lon="5.45517">
        <ele>388.3</ele>
        <time>2013-10-09T07:48:38Z</time>
      </trkpt>
      <trkpt lat="43.2272" lon="5.45523">
        <ele>387.8</ele>
        <time>2013-10-09T07:48:47Z</time>
      </trkpt>
      <trkpt lat="43.22724" lon="5.45524">
        <ele>387.8</ele>
        <time>2013-10-09T07:48:51Z</time>
      </trkpt>
      <trkpt lat="43.22728" lon="5.45524">
        <ele>387.5</ele>
        <time>2013-10-09T07:48:55Z</time>
      </trkpt>
      <trkpt lat="43.22732" lon="5.45524">
        <ele>386.3</ele>
        <time>2013-10-09T07:48:59Z</time>
      </trkpt>
      <trkpt lat="43.22736" lon="5.45522">
        <ele>386.1</ele>
        <time>2013-10-09T07:49:03Z</time>
      </trkpt>
      <trkpt lat="43.22739" lon="5.4552">
        <ele>386.6</ele>
        <time>2013-10-09T07:49:06Z</time>
      </trkpt>
      <trkpt lat="43.22743" lon="5.45517">
        <ele>386.1</ele>
        <time>2013-10-09T07:49:10Z</time>
      </trkpt>
      <trkpt lat="43.22746" lon="5.45515">
        <ele>386.1</ele>
        <time>2013-10-09T07:49:13Z</time>
      </trkpt>
      <trkpt lat="43.2275" lon="5.45512">
        <ele>387.7</ele>
        <time>2013-10-09T07:49:17Z</time>
      </trkpt>
      <trkpt lat="43.22753" lon="5.45508">
        <ele>388.5</ele>
        <time>2013-10-09T07:49:20Z</time>
      </trkpt>
      <trkpt lat="43.22756" lon="5.45506">
        <ele>389</ele>
        <time>2013-10-09T07:49:23Z</time>
      </trkpt>
      <trkpt lat="43.2276" lon="5.45503">
        <ele>389.2</ele>
        <time>2013-10-09T07:49:26Z</time>
      </trkpt>
      <trkpt lat="43.22763" lon="5.45501">
        <ele>391.3</ele>
        <time>2013-10-09T07:49:30Z</time>
      </trkpt>
      <trkpt lat="43.22766" lon="5.455">
        <ele>388.6</ele>
        <time>2013-10-09T07:49:33Z</time>
      </trkpt>
      <trkpt lat="43.22771" lon="5.45499">
        <ele>388.7</ele>
        <time>2013-10-09T07:49:37Z</time>
      </trkpt>
      <trkpt lat="43.22772" lon="5.45498">
        <ele>388.5</ele>
        <time>2013-10-09T07:49:38Z</time>
      </trkpt>
      <trkpt lat="43.22779" lon="5.45496">
        <ele>388.7</ele>
        <time>2013-10-09T07:49:45Z</time>
      </trkpt>
      <trkpt lat="43.22783" lon="5.45495">
        <ele>389.6</ele>
        <time>2013-10-09T07:49:49Z</time>
      </trkpt>
      <trkpt lat="43.22786" lon="5.45493">
        <ele>390.2</ele>
        <time>2013-10-09T07:49:53Z</time>
      </trkpt>
      <trkpt lat="43.22791" lon="5.45493">
        <ele>390.6</ele>
        <time>2013-10-09T07:49:57Z</time>
      </trkpt>
      <trkpt lat="43.22795" lon="5.45494">
        <ele>390.8</ele>
        <time>2013-10-09T07:50:01Z</time>
      </trkpt>
      <trkpt lat="43.22799" lon="5.45495">
        <ele>391.2</ele>
        <time>2013-10-09T07:50:05Z</time>
      </trkpt>
      <trkpt lat="43.22802" lon="5.45496">
        <ele>391.2</ele>
        <time>2013-10-09T07:50:09Z</time>
      </trkpt>
      <trkpt lat="43.22806" lon="5.45498">
        <ele>391.2</ele>
        <time>2013-10-09T07:50:13Z</time>
      </trkpt>
      <trkpt lat="43.2281" lon="5.455">
        <ele>391.6</ele>
        <time>2013-10-09T07:50:17Z</time>
      </trkpt>
      <trkpt lat="43.22813" lon="5.45504">
        <ele>392.2</ele>
        <time>2013-10-09T07:50:21Z</time>
      </trkpt>
      <trkpt lat="43.22817" lon="5.45506">
        <ele>392.7</ele>
        <time>2013-10-09T07:50:25Z</time>
      </trkpt>
      <trkpt lat="43.22821" lon="5.4551">
        <ele>393</ele>
        <time>2013-10-09T07:50:29Z</time>
      </trkpt>
      <trkpt lat="43.22824" lon="5.45512">
        <ele>393.6</ele>
        <time>2013-10-09T07:50:32Z</time>
      </trkpt>
      <trkpt lat="43.22827" lon="5.45515">
        <ele>394.1</ele>
        <time>2013-10-09T07:50:35Z</time>
      </trkpt>
      <trkpt lat="43.2283" lon="5.45519">
        <ele>394.2</ele>
        <time>2013-10-09T07:50:39Z</time>
      </trkpt>
      <trkpt lat="43.22831" lon="5.4552">
        <ele>394.3</ele>
        <time>2013-10-09T07:50:40Z</time>
      </trkpt>
      <trkpt lat="43.22836" lon="5.45526">
        <ele>394.2</ele>
        <time>2013-10-09T07:50:47Z</time>
      </trkpt>
      <trkpt lat="43.22839" lon="5.4553">
        <ele>394.6</ele>
        <time>2013-10-09T07:50:51Z</time>
      </trkpt>
      <trkpt lat="43.22842" lon="5.45533">
        <ele>394.6</ele>
        <time>2013-10-09T07:50:54Z</time>
      </trkpt>
      <trkpt lat="43.22845" lon="5.45537">
        <ele>394.6</ele>
        <time>2013-10-09T07:50:58Z</time>
      </trkpt>
      <trkpt lat="43.22849" lon="5.4554">
        <ele>394.6</ele>
        <time>2013-10-09T07:51:02Z</time>
      </trkpt>
      <trkpt lat="43.22852" lon="5.45544">
        <ele>394.2</ele>
        <time>2013-10-09T07:51:06Z</time>
      </trkpt>
      <trkpt lat="43.22854" lon="5.45549">
        <ele>394.2</ele>
        <time>2013-10-09T07:51:10Z</time>
      </trkpt>
      <trkpt lat="43.22856" lon="5.45552">
        <ele>394.2</ele>
        <time>2013-10-09T07:51:13Z</time>
      </trkpt>
      <trkpt lat="43.22858" lon="5.45557">
        <ele>395</ele>
        <time>2013-10-09T07:51:16Z</time>
      </trkpt>
      <trkpt lat="43.22859" lon="5.45562">
        <ele>394.5</ele>
        <time>2013-10-09T07:51:20Z</time>
      </trkpt>
      <trkpt lat="43.2286" lon="5.45567">
        <ele>394.5</ele>
        <time>2013-10-09T07:51:23Z</time>
      </trkpt>
      <trkpt lat="43.2286" lon="5.45572">
        <ele>394.2</ele>
        <time>2013-10-09T07:51:27Z</time>
      </trkpt>
      <trkpt lat="43.22862" lon="5.45577">
        <ele>393.8</ele>
        <time>2013-10-09T07:51:31Z</time>
      </trkpt>
      <trkpt lat="43.22862" lon="5.45582">
        <ele>393.8</ele>
        <time>2013-10-09T07:51:34Z</time>
      </trkpt>
      <trkpt lat="43.22864" lon="5.45587">
        <ele>393.7</ele>
        <time>2013-10-09T07:51:38Z</time>
      </trkpt>
      <trkpt lat="43.22865" lon="5.45592">
        <ele>394.6</ele>
        <time>2013-10-09T07:51:41Z</time>
      </trkpt>
      <trkpt lat="43.22866" lon="5.45593">
        <ele>394.5</ele>
        <time>2013-10-09T07:51:42Z</time>
      </trkpt>
      <trkpt lat="43.22869" lon="5.45603">
        <ele>395</ele>
        <time>2013-10-09T07:51:49Z</time>
      </trkpt>
      <trkpt lat="43.22871" lon="5.45607">
        <ele>395.2</ele>
        <time>2013-10-09T07:51:52Z</time>
      </trkpt>
      <trkpt lat="43.22873" lon="5.45612">
        <ele>395.3</ele>
        <time>2013-10-09T07:51:56Z</time>
      </trkpt>
      <trkpt lat="43.22875" lon="5.45616">
        <ele>395.7</ele>
        <time>2013-10-09T07:51:59Z</time>
      </trkpt>
      <trkpt lat="43.22878" lon="5.45621">
        <ele>396</ele>
        <time>2013-10-09T07:52:03Z</time>
      </trkpt>
      <trkpt lat="43.22881" lon="5.45625">
        <ele>395.7</ele>
        <time>2013-10-09T07:52:07Z</time>
      </trkpt>
      <trkpt lat="43.22883" lon="5.4563">
        <ele>395</ele>
        <time>2013-10-09T07:52:11Z</time>
      </trkpt>
      <trkpt lat="43.22884" lon="5.45635">
        <ele>394.3</ele>
        <time>2013-10-09T07:52:15Z</time>
      </trkpt>
      <trkpt lat="43.22885" lon="5.45641">
        <ele>393.6</ele>
        <time>2013-10-09T07:52:19Z</time>
      </trkpt>
      <trkpt lat="43.22885" lon="5.45646">
        <ele>393.6</ele>
        <time>2013-10-09T07:52:22Z</time>
      </trkpt>
      <trkpt lat="43.22885" lon="5.45651">
        <ele>392.8</ele>
        <time>2013-10-09T07:52:26Z</time>
      </trkpt>
      <trkpt lat="43.22885" lon="5.45656">
        <ele>392.8</ele>
        <time>2013-10-09T07:52:29Z</time>
      </trkpt>
      <trkpt lat="43.22885" lon="5.45661">
        <ele>393</ele>
        <time>2013-10-09T07:52:32Z</time>
      </trkpt>
      <trkpt lat="43.22884" lon="5.45666">
        <ele>392.3</ele>
        <time>2013-10-09T07:52:36Z</time>
      </trkpt>
      <trkpt lat="43.22882" lon="5.45672">
        <ele>390.8</ele>
        <time>2013-10-09T07:52:41Z</time>
      </trkpt>
      <trkpt lat="43.22882" lon="5.45677">
        <ele>390</ele>
        <time>2013-10-09T07:52:45Z</time>
      </trkpt>
      <trkpt lat="43.22882" lon="5.45679">
        <ele>390</ele>
        <time>2013-10-09T07:52:46Z</time>
      </trkpt>
      <trkpt lat="43.22882" lon="5.45688">
        <ele>390.6</ele>
        <time>2013-10-09T07:52:51Z</time>
      </trkpt>
      <trkpt lat="43.22883" lon="5.45692">
        <ele>390.7</ele>
        <time>2013-10-09T07:52:54Z</time>
      </trkpt>
      <trkpt lat="43.22884" lon="5.45696">
        <ele>390.6</ele>
        <time>2013-10-09T07:52:57Z</time>
      </trkpt>
      <trkpt lat="43.22886" lon="5.45701">
        <ele>391.3</ele>
        <time>2013-10-09T07:53:00Z</time>
      </trkpt>
      <trkpt lat="43.22887" lon="5.45707">
        <ele>390.5</ele>
        <time>2013-10-09T07:53:04Z</time>
      </trkpt>
      <trkpt lat="43.22888" lon="5.45712">
        <ele>390.7</ele>
        <time>2013-10-09T07:53:07Z</time>
      </trkpt>
      <trkpt lat="43.22887" lon="5.45717">
        <ele>390.7</ele>
        <time>2013-10-09T07:53:10Z</time>
      </trkpt>
      <trkpt lat="43.22886" lon="5.45723">
        <ele>389.8</ele>
        <time>2013-10-09T07:53:14Z</time>
      </trkpt>
      <trkpt lat="43.22887" lon="5.45728">
        <ele>389.5</ele>
        <time>2013-10-09T07:53:18Z</time>
      </trkpt>
      <trkpt lat="43.22889" lon="5.45734">
        <ele>389.2</ele>
        <time>2013-10-09T07:53:22Z</time>
      </trkpt>
      <trkpt lat="43.22891" lon="5.45738">
        <ele>389.5</ele>
        <time>2013-10-09T07:53:25Z</time>
      </trkpt>
      <trkpt lat="43.22893" lon="5.45742">
        <ele>389.7</ele>
        <time>2013-10-09T07:53:28Z</time>
      </trkpt>
      <trkpt lat="43.22895" lon="5.45745">
        <ele>389.6</ele>
        <time>2013-10-09T07:53:31Z</time>
      </trkpt>
      <trkpt lat="43.22898" lon="5.45749">
        <ele>389.5</ele>
        <time>2013-10-09T07:53:34Z</time>
      </trkpt>
      <trkpt lat="43.229" lon="5.45755">
        <ele>389.1</ele>
        <time>2013-10-09T07:53:38Z</time>
      </trkpt>
      <trkpt lat="43.22902" lon="5.45759">
        <ele>388.2</ele>
        <time>2013-10-09T07:53:42Z</time>
      </trkpt>
      <trkpt lat="43.22903" lon="5.45765">
        <ele>387.6</ele>
        <time>2013-10-09T07:53:46Z</time>
      </trkpt>
      <trkpt lat="43.22904" lon="5.45766">
        <ele>387.2</ele>
        <time>2013-10-09T07:53:47Z</time>
      </trkpt>
      <trkpt lat="43.22906" lon="5.45775">
        <ele>386.7</ele>
        <time>2013-10-09T07:53:53Z</time>
      </trkpt>
      <trkpt lat="43.22906" lon="5.45781">
        <ele>386.1</ele>
        <time>2013-10-09T07:53:57Z</time>
      </trkpt>
      <trkpt lat="43.22906" lon="5.45787">
        <ele>385.7</ele>
        <time>2013-10-09T07:54:01Z</time>
      </trkpt>
      <trkpt lat="43.22907" lon="5.45792">
        <ele>385.2</ele>
        <time>2013-10-09T07:54:05Z</time>
      </trkpt>
      <trkpt lat="43.22909" lon="5.45798">
        <ele>385.1</ele>
        <time>2013-10-09T07:54:09Z</time>
      </trkpt>
      <trkpt lat="43.22912" lon="5.45802">
        <ele>385</ele>
        <time>2013-10-09T07:54:13Z</time>
      </trkpt>
      <trkpt lat="43.22915" lon="5.45807">
        <ele>384.8</ele>
        <time>2013-10-09T07:54:17Z</time>
      </trkpt>
      <trkpt lat="43.22918" lon="5.4581">
        <ele>385.2</ele>
        <time>2013-10-09T07:54:20Z</time>
      </trkpt>
      <trkpt lat="43.22921" lon="5.45814">
        <ele>384.5</ele>
        <time>2013-10-09T07:54:24Z</time>
      </trkpt>
      <trkpt lat="43.22925" lon="5.45817">
        <ele>384</ele>
        <time>2013-10-09T07:54:28Z</time>
      </trkpt>
      <trkpt lat="43.22927" lon="5.45821">
        <ele>384.2</ele>
        <time>2013-10-09T07:54:31Z</time>
      </trkpt>
      <trkpt lat="43.2293" lon="5.45824">
        <ele>384.3</ele>
        <time>2013-10-09T07:54:34Z</time>
      </trkpt>
      <trkpt lat="43.22933" lon="5.45829">
        <ele>384.2</ele>
        <time>2013-10-09T07:54:38Z</time>
      </trkpt>
      <trkpt lat="43.22935" lon="5.45834">
        <ele>384</ele>
        <time>2013-10-09T07:54:42Z</time>
      </trkpt>
      <trkpt lat="43.22936" lon="5.45839">
        <ele>383.7</ele>
        <time>2013-10-09T07:54:46Z</time>
      </trkpt>
      <trkpt lat="43.22936" lon="5.45844">
        <ele>383.3</ele>
        <time>2013-10-09T07:54:50Z</time>
      </trkpt>
      <trkpt lat="43.22936" lon="5.45846">
        <ele>383.2</ele>
        <time>2013-10-09T07:54:51Z</time>
      </trkpt>
      <trkpt lat="43.22934" lon="5.45855">
        <ele>382.7</ele>
        <time>2013-10-09T07:54:57Z</time>
      </trkpt>
      <trkpt lat="43.22933" lon="5.45861">
        <ele>382.3</ele>
        <time>2013-10-09T07:55:01Z</time>
      </trkpt>
      <trkpt lat="43.22931" lon="5.45865">
        <ele>382.2</ele>
        <time>2013-10-09T07:55:04Z</time>
      </trkpt>
      <trkpt lat="43.22929" lon="5.4587">
        <ele>381.8</ele>
        <time>2013-10-09T07:55:08Z</time>
      </trkpt>
      <trkpt lat="43.22927" lon="5.45874">
        <ele>381.7</ele>
        <time>2013-10-09T07:55:11Z</time>
      </trkpt>
      <trkpt lat="43.22924" lon="5.45879">
        <ele>381.5</ele>
        <time>2013-10-09T07:55:15Z</time>
      </trkpt>
      <trkpt lat="43.22922" lon="5.45883">
        <ele>381.5</ele>
        <time>2013-10-09T07:55:18Z</time>
      </trkpt>
      <trkpt lat="43.2292" lon="5.45887">
        <ele>381.1</ele>
        <time>2013-10-09T07:55:21Z</time>
      </trkpt>
      <trkpt lat="43.22917" lon="5.4589">
        <ele>381.1</ele>
        <time>2013-10-09T07:55:24Z</time>
      </trkpt>
      <trkpt lat="43.22915" lon="5.45894">
        <ele>381.3</ele>
        <time>2013-10-09T07:55:27Z</time>
      </trkpt>
      <trkpt lat="43.22913" lon="5.45898">
        <ele>381.7</ele>
        <time>2013-10-09T07:55:30Z</time>
      </trkpt>
      <trkpt lat="43.2291" lon="5.45903">
        <ele>382</ele>
        <time>2013-10-09T07:55:34Z</time>
      </trkpt>
      <trkpt lat="43.22908" lon="5.45907">
        <ele>379.6</ele>
        <time>2013-10-09T07:55:38Z</time>
      </trkpt>
      <trkpt lat="43.22907" lon="5.45911">
        <ele>378.8</ele>
        <time>2013-10-09T07:55:41Z</time>
      </trkpt>
      <trkpt lat="43.22905" lon="5.45917">
        <ele>378.2</ele>
        <time>2013-10-09T07:55:45Z</time>
      </trkpt>
      <trkpt lat="43.22904" lon="5.45921">
        <ele>378.2</ele>
        <time>2013-10-09T07:55:48Z</time>
      </trkpt>
      <trkpt lat="43.22903" lon="5.45925">
        <ele>378.1</ele>
        <time>2013-10-09T07:55:51Z</time>
      </trkpt>
      <trkpt lat="43.22902" lon="5.45927">
        <ele>378.1</ele>
        <time>2013-10-09T07:55:52Z</time>
      </trkpt>
      <trkpt lat="43.22902" lon="5.45934">
        <ele>377.8</ele>
        <time>2013-10-09T07:55:57Z</time>
      </trkpt>
      <trkpt lat="43.22903" lon="5.45938">
        <ele>378.6</ele>
        <time>2013-10-09T07:55:59Z</time>
      </trkpt>
      <trkpt lat="43.22904" lon="5.45943">
        <ele>378.2</ele>
        <time>2013-10-09T07:56:02Z</time>
      </trkpt>
      <trkpt lat="43.22906" lon="5.45946">
        <ele>378.2</ele>
        <time>2013-10-09T07:56:05Z</time>
      </trkpt>
      <trkpt lat="43.22909" lon="5.45949">
        <ele>378.5</ele>
        <time>2013-10-09T07:56:08Z</time>
      </trkpt>
      <trkpt lat="43.22913" lon="5.45953">
        <ele>379.2</ele>
        <time>2013-10-09T07:56:11Z</time>
      </trkpt>
      <trkpt lat="43.22916" lon="5.45956">
        <ele>379</ele>
        <time>2013-10-09T07:56:14Z</time>
      </trkpt>
      <trkpt lat="43.2292" lon="5.45958">
        <ele>380</ele>
        <time>2013-10-09T07:56:17Z</time>
      </trkpt>
      <trkpt lat="43.22923" lon="5.45961">
        <ele>380.6</ele>
        <time>2013-10-09T07:56:20Z</time>
      </trkpt>
      <trkpt lat="43.22927" lon="5.45964">
        <ele>380.8</ele>
        <time>2013-10-09T07:56:23Z</time>
      </trkpt>
      <trkpt lat="43.2293" lon="5.45968">
        <ele>381.2</ele>
        <time>2013-10-09T07:56:26Z</time>
      </trkpt>
      <trkpt lat="43.22933" lon="5.45972">
        <ele>382.1</ele>
        <time>2013-10-09T07:56:29Z</time>
      </trkpt>
      <trkpt lat="43.22936" lon="5.45975">
        <ele>382.6</ele>
        <time>2013-10-09T07:56:32Z</time>
      </trkpt>
      <trkpt lat="43.22939" lon="5.45979">
        <ele>382.8</ele>
        <time>2013-10-09T07:56:35Z</time>
      </trkpt>
      <trkpt lat="43.22941" lon="5.45982">
        <ele>382.5</ele>
        <time>2013-10-09T07:56:38Z</time>
      </trkpt>
      <trkpt lat="43.22945" lon="5.45985">
        <ele>382.1</ele>
        <time>2013-10-09T07:56:42Z</time>
      </trkpt>
      <trkpt lat="43.22948" lon="5.45988">
        <ele>382.5</ele>
        <time>2013-10-09T07:56:45Z</time>
      </trkpt>
      <trkpt lat="43.22951" lon="5.45992">
        <ele>382.7</ele>
        <time>2013-10-09T07:56:48Z</time>
      </trkpt>
      <trkpt lat="43.22953" lon="5.45995">
        <ele>382.8</ele>
        <time>2013-10-09T07:56:51Z</time>
      </trkpt>
      <trkpt lat="43.22956" lon="5.45998">
        <ele>383</ele>
        <time>2013-10-09T07:56:54Z</time>
      </trkpt>
      <trkpt lat="43.22957" lon="5.45999">
        <ele>383.1</ele>
        <time>2013-10-09T07:56:55Z</time>
      </trkpt>
      <trkpt lat="43.22963" lon="5.46006">
        <ele>382.1</ele>
        <time>2013-10-09T07:57:02Z</time>
      </trkpt>
      <trkpt lat="43.22965" lon="5.4601">
        <ele>382</ele>
        <time>2013-10-09T07:57:05Z</time>
      </trkpt>
      <trkpt lat="43.22968" lon="5.46013">
        <ele>381.7</ele>
        <time>2013-10-09T07:57:08Z</time>
      </trkpt>
      <trkpt lat="43.22971" lon="5.46017">
        <ele>381.2</ele>
        <time>2013-10-09T07:57:12Z</time>
      </trkpt>
      <trkpt lat="43.22973" lon="5.46021">
        <ele>381.1</ele>
        <time>2013-10-09T07:57:15Z</time>
      </trkpt>
      <trkpt lat="43.22975" lon="5.46026">
        <ele>380.2</ele>
        <time>2013-10-09T07:57:19Z</time>
      </trkpt>
      <trkpt lat="43.22978" lon="5.4603">
        <ele>380.2</ele>
        <time>2013-10-09T07:57:22Z</time>
      </trkpt>
      <trkpt lat="43.22979" lon="5.46035">
        <ele>380.2</ele>
        <time>2013-10-09T07:57:25Z</time>
      </trkpt>
      <trkpt lat="43.22981" lon="5.4604">
        <ele>379.7</ele>
        <time>2013-10-09T07:57:29Z</time>
      </trkpt>
      <trkpt lat="43.22982" lon="5.46045">
        <ele>379.7</ele>
        <time>2013-10-09T07:57:32Z</time>
      </trkpt>
      <trkpt lat="43.22982" lon="5.4605">
        <ele>379.5</ele>
        <time>2013-10-09T07:57:35Z</time>
      </trkpt>
      <trkpt lat="43.22984" lon="5.46056">
        <ele>379.2</ele>
        <time>2013-10-09T07:57:39Z</time>
      </trkpt>
      <trkpt lat="43.22984" lon="5.4606">
        <ele>379.1</ele>
        <time>2013-10-09T07:57:42Z</time>
      </trkpt>
      <trkpt lat="43.22986" lon="5.46064">
        <ele>378.8</ele>
        <time>2013-10-09T07:57:45Z</time>
      </trkpt>
      <trkpt lat="43.22987" lon="5.46069">
        <ele>378.6</ele>
        <time>2013-10-09T07:57:48Z</time>
      </trkpt>
      <trkpt lat="43.22988" lon="5.46073">
        <ele>378.5</ele>
        <time>2013-10-09T07:57:51Z</time>
      </trkpt>
      <trkpt lat="43.22989" lon="5.46079">
        <ele>378.6</ele>
        <time>2013-10-09T07:57:55Z</time>
      </trkpt>
      <trkpt lat="43.2299" lon="5.4608">
        <ele>378.2</ele>
        <time>2013-10-09T07:57:56Z</time>
      </trkpt>
      <trkpt lat="43.22993" lon="5.4609">
        <ele>377.6</ele>
        <time>2013-10-09T07:58:03Z</time>
      </trkpt>
      <trkpt lat="43.22994" lon="5.46095">
        <ele>376.8</ele>
        <time>2013-10-09T07:58:07Z</time>
      </trkpt>
      <trkpt lat="43.22995" lon="5.461">
        <ele>376.2</ele>
        <time>2013-10-09T07:58:11Z</time>
      </trkpt>
      <trkpt lat="43.22997" lon="5.46104">
        <ele>376</ele>
        <time>2013-10-09T07:58:14Z</time>
      </trkpt>
      <trkpt lat="43.22998" lon="5.46109">
        <ele>376.2</ele>
        <time>2013-10-09T07:58:17Z</time>
      </trkpt>
      <trkpt lat="43.22999" lon="5.46115">
        <ele>376.2</ele>
        <time>2013-10-09T07:58:21Z</time>
      </trkpt>
      <trkpt lat="43.23001" lon="5.46119">
        <ele>376</ele>
        <time>2013-10-09T07:58:24Z</time>
      </trkpt>
      <trkpt lat="43.23004" lon="5.46123">
        <ele>375.6</ele>
        <time>2013-10-09T07:58:27Z</time>
      </trkpt>
      <trkpt lat="43.23006" lon="5.46127">
        <ele>375.6</ele>
        <time>2013-10-09T07:58:30Z</time>
      </trkpt>
      <trkpt lat="43.23008" lon="5.46132">
        <ele>375.5</ele>
        <time>2013-10-09T07:58:33Z</time>
      </trkpt>
      <trkpt lat="43.2301" lon="5.46137">
        <ele>375.6</ele>
        <time>2013-10-09T07:58:37Z</time>
      </trkpt>
      <trkpt lat="43.23012" lon="5.46141">
        <ele>375.3</ele>
        <time>2013-10-09T07:58:41Z</time>
      </trkpt>
      <trkpt lat="43.23015" lon="5.46146">
        <ele>375.2</ele>
        <time>2013-10-09T07:58:47Z</time>
      </trkpt>
      <trkpt lat="43.23019" lon="5.46149">
        <ele>374.1</ele>
        <time>2013-10-09T08:01:14Z</time>
      </trkpt>
      <trkpt lat="43.23019" lon="5.46149">
        <ele>374.1</ele>
        <time>2013-10-09T08:01:15Z</time>
      </trkpt>
      <trkpt lat="43.23015" lon="5.46152">
        <ele>377</ele>
        <time>2013-10-09T08:03:59Z</time>
      </trkpt>
      <trkpt lat="43.23015" lon="5.46151">
        <ele>375.7</ele>
        <time>2013-10-09T08:04:36Z</time>
      </trkpt>
      <trkpt lat="43.23014" lon="5.46157">
        <ele>379.7</ele>
        <time>2013-10-09T08:04:58Z</time>
      </trkpt>
      <trkpt lat="43.23018" lon="5.46157">
        <ele>380.7</ele>
        <time>2013-10-09T08:05:09Z</time>
      </trkpt>
      <trkpt lat="43.23018" lon="5.46157">
        <ele>380.7</ele>
        <time>2013-10-09T08:05:10Z</time>
      </trkpt>
      <trkpt lat="43.23018" lon="5.46155">
        <ele>375.8</ele>
        <time>2013-10-09T08:06:01Z</time>
      </trkpt>
      <trkpt lat="43.23016" lon="5.46149">
        <ele>375.6</ele>
        <time>2013-10-09T08:07:42Z</time>
      </trkpt>
      <trkpt lat="43.23016" lon="5.46149">
        <ele>375.2</ele>
        <time>2013-10-09T08:07:43Z</time>
      </trkpt>
      <trkpt lat="43.23017" lon="5.46155">
        <ele>376.2</ele>
        <time>2013-10-09T08:12:08Z</time>
      </trkpt>
      <trkpt lat="43.23022" lon="5.46163">
        <ele>373.2</ele>
        <time>2013-10-09T08:13:00Z</time>
      </trkpt>
      <trkpt lat="43.23023" lon="5.46168">
        <ele>372.7</ele>
        <time>2013-10-09T08:13:05Z</time>
      </trkpt>
      <trkpt lat="43.23024" lon="5.46173">
        <ele>372.3</ele>
        <time>2013-10-09T08:13:09Z</time>
      </trkpt>
      <trkpt lat="43.23024" lon="5.46175">
        <ele>372.3</ele>
        <time>2013-10-09T08:13:10Z</time>
      </trkpt>
      <trkpt lat="43.23025" lon="5.46184">
        <ele>371.7</ele>
        <time>2013-10-09T08:13:17Z</time>
      </trkpt>
      <trkpt lat="43.23025" lon="5.46189">
        <ele>371.2</ele>
        <time>2013-10-09T08:13:21Z</time>
      </trkpt>
      <trkpt lat="43.23025" lon="5.46195">
        <ele>370.8</ele>
        <time>2013-10-09T08:13:25Z</time>
      </trkpt>
      <trkpt lat="43.23026" lon="5.46201">
        <ele>370.2</ele>
        <time>2013-10-09T08:13:29Z</time>
      </trkpt>
      <trkpt lat="43.23026" lon="5.46205">
        <ele>369.7</ele>
        <time>2013-10-09T08:13:32Z</time>
      </trkpt>
      <trkpt lat="43.23026" lon="5.46211">
        <ele>369.7</ele>
        <time>2013-10-09T08:13:36Z</time>
      </trkpt>
      <trkpt lat="43.23027" lon="5.46216">
        <ele>369.1</ele>
        <time>2013-10-09T08:13:55Z</time>
      </trkpt>
      <trkpt lat="43.23027" lon="5.46222">
        <ele>368.2</ele>
        <time>2013-10-09T08:14:02Z</time>
      </trkpt>
      <trkpt lat="43.23026" lon="5.46227">
        <ele>367.6</ele>
        <time>2013-10-09T08:14:09Z</time>
      </trkpt>
      <trkpt lat="43.23026" lon="5.46233">
        <ele>366.7</ele>
        <time>2013-10-09T08:14:15Z</time>
      </trkpt>
      <trkpt lat="43.23026" lon="5.46234">
        <ele>366.6</ele>
        <time>2013-10-09T08:14:16Z</time>
      </trkpt>
      <trkpt lat="43.23026" lon="5.46245">
        <ele>365.3</ele>
        <time>2013-10-09T08:14:26Z</time>
      </trkpt>
      <trkpt lat="43.23026" lon="5.4625">
        <ele>364.7</ele>
        <time>2013-10-09T08:14:31Z</time>
      </trkpt>
      <trkpt lat="43.23026" lon="5.46256">
        <ele>363.8</ele>
        <time>2013-10-09T08:14:36Z</time>
      </trkpt>
      <trkpt lat="43.23026" lon="5.46261">
        <ele>363.2</ele>
        <time>2013-10-09T08:14:46Z</time>
      </trkpt>
      <trkpt lat="43.23026" lon="5.46268">
        <ele>362.5</ele>
        <time>2013-10-09T08:14:54Z</time>
      </trkpt>
      <trkpt lat="43.23026" lon="5.46273">
        <ele>361.7</ele>
        <time>2013-10-09T08:15:00Z</time>
      </trkpt>
      <trkpt lat="43.23026" lon="5.46279">
        <ele>360.8</ele>
        <time>2013-10-09T08:15:05Z</time>
      </trkpt>
      <trkpt lat="43.23025" lon="5.46285">
        <ele>360.1</ele>
        <time>2013-10-09T08:15:10Z</time>
      </trkpt>
      <trkpt lat="43.23025" lon="5.46291">
        <ele>359.2</ele>
        <time>2013-10-09T08:15:15Z</time>
      </trkpt>
      <trkpt lat="43.23024" lon="5.46297">
        <ele>358.3</ele>
        <time>2013-10-09T08:15:20Z</time>
      </trkpt>
      <trkpt lat="43.23023" lon="5.46298">
        <ele>358.2</ele>
        <time>2013-10-09T08:15:21Z</time>
      </trkpt>
      <trkpt lat="43.23021" lon="5.46307">
        <ele>357.2</ele>
        <time>2013-10-09T08:15:29Z</time>
      </trkpt>
      <trkpt lat="43.2302" lon="5.46312">
        <ele>356.6</ele>
        <time>2013-10-09T08:15:33Z</time>
      </trkpt>
      <trkpt lat="43.23018" lon="5.46317">
        <ele>356.1</ele>
        <time>2013-10-09T08:15:37Z</time>
      </trkpt>
      <trkpt lat="43.23016" lon="5.46321">
        <ele>355.7</ele>
        <time>2013-10-09T08:15:41Z</time>
      </trkpt>
      <trkpt lat="43.23015" lon="5.46326">
        <ele>355.1</ele>
        <time>2013-10-09T08:15:45Z</time>
      </trkpt>
      <trkpt lat="43.23013" lon="5.46331">
        <ele>354.6</ele>
        <time>2013-10-09T08:15:49Z</time>
      </trkpt>
      <trkpt lat="43.23011" lon="5.46335">
        <ele>354.1</ele>
        <time>2013-10-09T08:15:53Z</time>
      </trkpt>
      <trkpt lat="43.2301" lon="5.46341">
        <ele>353.5</ele>
        <time>2013-10-09T08:15:57Z</time>
      </trkpt>
      <trkpt lat="43.23009" lon="5.46346">
        <ele>352.8</ele>
        <time>2013-10-09T08:16:01Z</time>
      </trkpt>
      <trkpt lat="43.23007" lon="5.46351">
        <ele>352.2</ele>
        <time>2013-10-09T08:16:05Z</time>
      </trkpt>
      <trkpt lat="43.23005" lon="5.46356">
        <ele>351.7</ele>
        <time>2013-10-09T08:16:09Z</time>
      </trkpt>
      <trkpt lat="43.23003" lon="5.4636">
        <ele>351.1</ele>
        <time>2013-10-09T08:16:13Z</time>
      </trkpt>
      <trkpt lat="43.23001" lon="5.46365">
        <ele>350.6</ele>
        <time>2013-10-09T08:16:17Z</time>
      </trkpt>
      <trkpt lat="43.22998" lon="5.46369">
        <ele>350.3</ele>
        <time>2013-10-09T08:16:21Z</time>
      </trkpt>
      <trkpt lat="43.22997" lon="5.4637">
        <ele>350.2</ele>
        <time>2013-10-09T08:16:22Z</time>
      </trkpt>
      <trkpt lat="43.22992" lon="5.46376">
        <ele>349.3</ele>
        <time>2013-10-09T08:16:28Z</time>
      </trkpt>
      <trkpt lat="43.22989" lon="5.4638">
        <ele>349.1</ele>
        <time>2013-10-09T08:16:32Z</time>
      </trkpt>
      <trkpt lat="43.22986" lon="5.46383">
        <ele>348.7</ele>
        <time>2013-10-09T08:16:36Z</time>
      </trkpt>
      <trkpt lat="43.22983" lon="5.46387">
        <ele>348.3</ele>
        <time>2013-10-09T08:16:40Z</time>
      </trkpt>
      <trkpt lat="43.2298" lon="5.46391">
        <ele>347.8</ele>
        <time>2013-10-09T08:16:44Z</time>
      </trkpt>
      <trkpt lat="43.22977" lon="5.46395">
        <ele>347.7</ele>
        <time>2013-10-09T08:16:48Z</time>
      </trkpt>
      <trkpt lat="43.22974" lon="5.46398">
        <ele>347.2</ele>
        <time>2013-10-09T08:16:52Z</time>
      </trkpt>
      <trkpt lat="43.22971" lon="5.46403">
        <ele>346.5</ele>
        <time>2013-10-09T08:16:57Z</time>
      </trkpt>
      <trkpt lat="43.22969" lon="5.46407">
        <ele>345.8</ele>
        <time>2013-10-09T08:17:01Z</time>
      </trkpt>
      <trkpt lat="43.22966" lon="5.4641">
        <ele>345.1</ele>
        <time>2013-10-09T08:17:05Z</time>
      </trkpt>
      <trkpt lat="43.22963" lon="5.46414">
        <ele>344.2</ele>
        <time>2013-10-09T08:17:09Z</time>
      </trkpt>
      <trkpt lat="43.2296" lon="5.46417">
        <ele>343.7</ele>
        <time>2013-10-09T08:17:13Z</time>
      </trkpt>
      <trkpt lat="43.22956" lon="5.4642">
        <ele>343.2</ele>
        <time>2013-10-09T08:17:17Z</time>
      </trkpt>
      <trkpt lat="43.22952" lon="5.46422">
        <ele>342</ele>
        <time>2013-10-09T08:17:21Z</time>
      </trkpt>
      <trkpt lat="43.22949" lon="5.46424">
        <ele>340.8</ele>
        <time>2013-10-09T08:17:25Z</time>
      </trkpt>
      <trkpt lat="43.22948" lon="5.46425">
        <ele>340.6</ele>
        <time>2013-10-09T08:17:26Z</time>
      </trkpt>
      <trkpt lat="43.22941" lon="5.46429">
        <ele>339.3</ele>
        <time>2013-10-09T08:17:33Z</time>
      </trkpt>
      <trkpt lat="43.22937" lon="5.46431">
        <ele>338.6</ele>
        <time>2013-10-09T08:17:37Z</time>
      </trkpt>
      <trkpt lat="43.22933" lon="5.46434">
        <ele>337.8</ele>
        <time>2013-10-09T08:17:41Z</time>
      </trkpt>
      <trkpt lat="43.2293" lon="5.46436">
        <ele>337.1</ele>
        <time>2013-10-09T08:17:45Z</time>
      </trkpt>
      <trkpt lat="43.22926" lon="5.46439">
        <ele>336.2</ele>
        <time>2013-10-09T08:17:49Z</time>
      </trkpt>
      <trkpt lat="43.22923" lon="5.46442">
        <ele>335.2</ele>
        <time>2013-10-09T08:17:53Z</time>
      </trkpt>
      <trkpt lat="43.2292" lon="5.46446">
        <ele>334.7</ele>
        <time>2013-10-09T08:17:57Z</time>
      </trkpt>
      <trkpt lat="43.22916" lon="5.46449">
        <ele>334</ele>
        <time>2013-10-09T08:18:01Z</time>
      </trkpt>
      <trkpt lat="43.22913" lon="5.46452">
        <ele>333.3</ele>
        <time>2013-10-09T08:18:05Z</time>
      </trkpt>
      <trkpt lat="43.22909" lon="5.46455">
        <ele>332.6</ele>
        <time>2013-10-09T08:18:09Z</time>
      </trkpt>
      <trkpt lat="43.22905" lon="5.46458">
        <ele>331.8</ele>
        <time>2013-10-09T08:18:13Z</time>
      </trkpt>
      <trkpt lat="43.22902" lon="5.46461">
        <ele>331.1</ele>
        <time>2013-10-09T08:18:17Z</time>
      </trkpt>
      <trkpt lat="43.22898" lon="5.46464">
        <ele>330.7</ele>
        <time>2013-10-09T08:18:21Z</time>
      </trkpt>
      <trkpt lat="43.22895" lon="5.46467">
        <ele>330.3</ele>
        <time>2013-10-09T08:18:25Z</time>
      </trkpt>
      <trkpt lat="43.22891" lon="5.46469">
        <ele>329.1</ele>
        <time>2013-10-09T08:18:29Z</time>
      </trkpt>
      <trkpt lat="43.22891" lon="5.4647">
        <ele>328.8</ele>
        <time>2013-10-09T08:18:30Z</time>
      </trkpt>
      <trkpt lat="43.22885" lon="5.46477">
        <ele>328.1</ele>
        <time>2013-10-09T08:18:37Z</time>
      </trkpt>
      <trkpt lat="43.22882" lon="5.4648">
        <ele>327.7</ele>
        <time>2013-10-09T08:18:41Z</time>
      </trkpt>
      <trkpt lat="43.22879" lon="5.46484">
        <ele>326.7</ele>
        <time>2013-10-09T08:18:46Z</time>
      </trkpt>
      <trkpt lat="43.22876" lon="5.46488">
        <ele>325.8</ele>
        <time>2013-10-09T08:18:51Z</time>
      </trkpt>
      <trkpt lat="43.22873" lon="5.46492">
        <ele>325.1</ele>
        <time>2013-10-09T08:18:55Z</time>
      </trkpt>
      <trkpt lat="43.2287" lon="5.46496">
        <ele>324.1</ele>
        <time>2013-10-09T08:19:00Z</time>
      </trkpt>
      <trkpt lat="43.22867" lon="5.46499">
        <ele>323.7</ele>
        <time>2013-10-09T08:19:04Z</time>
      </trkpt>
      <trkpt lat="43.22865" lon="5.46503">
        <ele>322.7</ele>
        <time>2013-10-09T08:19:08Z</time>
      </trkpt>
      <trkpt lat="43.22862" lon="5.46507">
        <ele>321.7</ele>
        <time>2013-10-09T08:19:12Z</time>
      </trkpt>
      <trkpt lat="43.2286" lon="5.46511">
        <ele>321.1</ele>
        <time>2013-10-09T08:19:16Z</time>
      </trkpt>
      <trkpt lat="43.22858" lon="5.46515">
        <ele>320.2</ele>
        <time>2013-10-09T08:19:20Z</time>
      </trkpt>
      <trkpt lat="43.22855" lon="5.46519">
        <ele>319.5</ele>
        <time>2013-10-09T08:19:24Z</time>
      </trkpt>
      <trkpt lat="43.22853" lon="5.46524">
        <ele>318.6</ele>
        <time>2013-10-09T08:19:29Z</time>
      </trkpt>
      <trkpt lat="43.2285" lon="5.46529">
        <ele>317.6</ele>
        <time>2013-10-09T08:19:34Z</time>
      </trkpt>
      <trkpt lat="43.22849" lon="5.4653">
        <ele>317.6</ele>
        <time>2013-10-09T08:19:35Z</time>
      </trkpt>
      <trkpt lat="43.22846" lon="5.46538">
        <ele>316.3</ele>
        <time>2013-10-09T08:19:42Z</time>
      </trkpt>
      <trkpt lat="43.22843" lon="5.46542">
        <ele>315.5</ele>
        <time>2013-10-09T08:19:46Z</time>
      </trkpt>
      <trkpt lat="43.22841" lon="5.46547">
        <ele>314.6</ele>
        <time>2013-10-09T08:19:51Z</time>
      </trkpt>
      <trkpt lat="43.22839" lon="5.46552">
        <ele>313.7</ele>
        <time>2013-10-09T08:19:55Z</time>
      </trkpt>
      <trkpt lat="43.22837" lon="5.46556">
        <ele>312.8</ele>
        <time>2013-10-09T08:19:59Z</time>
      </trkpt>
      <trkpt lat="43.22835" lon="5.46561">
        <ele>312</ele>
        <time>2013-10-09T08:20:03Z</time>
      </trkpt>
      <trkpt lat="43.22833" lon="5.46566">
        <ele>311</ele>
        <time>2013-10-09T08:20:07Z</time>
      </trkpt>
      <trkpt lat="43.2283" lon="5.46571">
        <ele>310</ele>
        <time>2013-10-09T08:20:11Z</time>
      </trkpt>
      <trkpt lat="43.22828" lon="5.46576">
        <ele>308.8</ele>
        <time>2013-10-09T08:20:15Z</time>
      </trkpt>
      <trkpt lat="43.22827" lon="5.46581">
        <ele>308.1</ele>
        <time>2013-10-09T08:20:19Z</time>
      </trkpt>
      <trkpt lat="43.22825" lon="5.46586">
        <ele>307.2</ele>
        <time>2013-10-09T08:20:23Z</time>
      </trkpt>
      <trkpt lat="43.22823" lon="5.46591">
        <ele>306.3</ele>
        <time>2013-10-09T08:20:27Z</time>
      </trkpt>
      <trkpt lat="43.22822" lon="5.46595">
        <ele>305.8</ele>
        <time>2013-10-09T08:20:30Z</time>
      </trkpt>
      <trkpt lat="43.2282" lon="5.46599">
        <ele>305.2</ele>
        <time>2013-10-09T08:20:33Z</time>
      </trkpt>
      <trkpt lat="43.22819" lon="5.46604">
        <ele>304.7</ele>
        <time>2013-10-09T08:20:36Z</time>
      </trkpt>
      <trkpt lat="43.22819" lon="5.46605">
        <ele>304.7</ele>
        <time>2013-10-09T08:20:37Z</time>
      </trkpt>
      <trkpt lat="43.22816" lon="5.46614">
        <ele>304.2</ele>
        <time>2013-10-09T08:20:43Z</time>
      </trkpt>
      <trkpt lat="43.22815" lon="5.46619">
        <ele>304.2</ele>
        <time>2013-10-09T08:20:47Z</time>
      </trkpt>
      <trkpt lat="43.22815" lon="5.46625">
        <ele>304.6</ele>
        <time>2013-10-09T08:20:51Z</time>
      </trkpt>
      <trkpt lat="43.22816" lon="5.46631">
        <ele>304.3</ele>
        <time>2013-10-09T08:20:55Z</time>
      </trkpt>
      <trkpt lat="43.22815" lon="5.46636">
        <ele>304.5</ele>
        <time>2013-10-09T08:21:01Z</time>
      </trkpt>
      <trkpt lat="43.22813" lon="5.46641">
        <ele>306.6</ele>
        <time>2013-10-09T08:21:57Z</time>
      </trkpt>
      <trkpt lat="43.22813" lon="5.46642">
        <ele>306.7</ele>
        <time>2013-10-09T08:21:58Z</time>
      </trkpt>
      <trkpt lat="43.22813" lon="5.46651">
        <ele>305.7</ele>
        <time>2013-10-09T08:22:12Z</time>
      </trkpt>
      <trkpt lat="43.22812" lon="5.46657">
        <ele>305.7</ele>
        <time>2013-10-09T08:22:16Z</time>
      </trkpt>
      <trkpt lat="43.22811" lon="5.46662">
        <ele>305.7</ele>
        <time>2013-10-09T08:22:22Z</time>
      </trkpt>
      <trkpt lat="43.2281" lon="5.46668">
        <ele>304.5</ele>
        <time>2013-10-09T08:22:28Z</time>
      </trkpt>
      <trkpt lat="43.22808" lon="5.46673">
        <ele>303.1</ele>
        <time>2013-10-09T08:22:33Z</time>
      </trkpt>
      <trkpt lat="43.22807" lon="5.46678">
        <ele>302.7</ele>
        <time>2013-10-09T08:22:37Z</time>
      </trkpt>
      <trkpt lat="43.22804" lon="5.46683">
        <ele>301.5</ele>
        <time>2013-10-09T08:22:42Z</time>
      </trkpt>
      <trkpt lat="43.22802" lon="5.46687">
        <ele>300.2</ele>
        <time>2013-10-09T08:22:46Z</time>
      </trkpt>
      <trkpt lat="43.22799" lon="5.46691">
        <ele>299.7</ele>
        <time>2013-10-09T08:22:51Z</time>
      </trkpt>
      <trkpt lat="43.22797" lon="5.46697">
        <ele>299.5</ele>
        <time>2013-10-09T08:22:55Z</time>
      </trkpt>
      <trkpt lat="43.22794" lon="5.467">
        <ele>300.1</ele>
        <time>2013-10-09T08:23:02Z</time>
      </trkpt>
      <trkpt lat="43.22793" lon="5.46701">
        <ele>300.1</ele>
        <time>2013-10-09T08:23:03Z</time>
      </trkpt>
      <trkpt lat="43.22789" lon="5.46709">
        <ele>300.1</ele>
        <time>2013-10-09T08:23:11Z</time>
      </trkpt>
      <trkpt lat="43.22786" lon="5.46714">
        <ele>300</ele>
        <time>2013-10-09T08:23:14Z</time>
      </trkpt>
      <trkpt lat="43.22784" lon="5.46719">
        <ele>300.7</ele>
        <time>2013-10-09T08:23:17Z</time>
      </trkpt>
      <trkpt lat="43.22782" lon="5.46723">
        <ele>301.2</ele>
        <time>2013-10-09T08:23:21Z</time>
      </trkpt>
      <trkpt lat="43.2278" lon="5.46728">
        <ele>300.8</ele>
        <time>2013-10-09T08:23:24Z</time>
      </trkpt>
      <trkpt lat="43.22777" lon="5.46733">
        <ele>302.7</ele>
        <time>2013-10-09T08:23:28Z</time>
      </trkpt>
      <trkpt lat="43.22775" lon="5.46736">
        <ele>304.1</ele>
        <time>2013-10-09T08:23:31Z</time>
      </trkpt>
      <trkpt lat="43.22773" lon="5.4674">
        <ele>304.2</ele>
        <time>2013-10-09T08:23:34Z</time>
      </trkpt>
      <trkpt lat="43.2277" lon="5.46744">
        <ele>308.1</ele>
        <time>2013-10-09T08:23:37Z</time>
      </trkpt>
      <trkpt lat="43.22766" lon="5.46746">
        <ele>312.7</ele>
        <time>2013-10-09T08:23:40Z</time>
      </trkpt>
      <trkpt lat="43.22763" lon="5.4675">
        <ele>314.3</ele>
        <time>2013-10-09T08:23:44Z</time>
      </trkpt>
      <trkpt lat="43.2276" lon="5.46754">
        <ele>316.7</ele>
        <time>2013-10-09T08:23:47Z</time>
      </trkpt>
      <trkpt lat="43.22758" lon="5.46758">
        <ele>318.3</ele>
        <time>2013-10-09T08:23:50Z</time>
      </trkpt>
      <trkpt lat="43.22756" lon="5.46762">
        <ele>317.2</ele>
        <time>2013-10-09T08:23:54Z</time>
      </trkpt>
      <trkpt lat="43.22753" lon="5.46766">
        <ele>316.2</ele>
        <time>2013-10-09T08:23:58Z</time>
      </trkpt>
      <trkpt lat="43.22751" lon="5.46769">
        <ele>315.3</ele>
        <time>2013-10-09T08:24:01Z</time>
      </trkpt>
      <trkpt lat="43.22748" lon="5.46774">
        <ele>315.2</ele>
        <time>2013-10-09T08:24:04Z</time>
      </trkpt>
      <trkpt lat="43.22748" lon="5.46775">
        <ele>315.2</ele>
        <time>2013-10-09T08:24:05Z</time>
      </trkpt>
      <trkpt lat="43.22743" lon="5.46781">
        <ele>314.6</ele>
        <time>2013-10-09T08:24:12Z</time>
      </trkpt>
      <trkpt lat="43.2274" lon="5.46785">
        <ele>314.7</ele>
        <time>2013-10-09T08:24:15Z</time>
      </trkpt>
      <trkpt lat="43.22737" lon="5.46787">
        <ele>314.2</ele>
        <time>2013-10-09T08:24:19Z</time>
      </trkpt>
      <trkpt lat="43.22733" lon="5.4679">
        <ele>313.7</ele>
        <time>2013-10-09T08:24:24Z</time>
      </trkpt>
      <trkpt lat="43.22729" lon="5.46793">
        <ele>313.1</ele>
        <time>2013-10-09T08:24:30Z</time>
      </trkpt>
      <trkpt lat="43.22724" lon="5.46794">
        <ele>312.5</ele>
        <time>2013-10-09T08:24:36Z</time>
      </trkpt>
      <trkpt lat="43.2272" lon="5.46793">
        <ele>312.2</ele>
        <time>2013-10-09T08:24:41Z</time>
      </trkpt>
      <trkpt lat="43.22716" lon="5.46795">
        <ele>309.8</ele>
        <time>2013-10-09T08:25:33Z</time>
      </trkpt>
      <trkpt lat="43.22716" lon="5.46795">
        <ele>310</ele>
        <time>2013-10-09T08:25:34Z</time>
      </trkpt>
      <trkpt lat="43.22716" lon="5.46796">
        <ele>310.5</ele>
        <time>2013-10-09T08:25:48Z</time>
      </trkpt>
      <trkpt lat="43.22719" lon="5.46798">
        <ele>308.6</ele>
        <time>2013-10-09T08:26:04Z</time>
      </trkpt>
      <trkpt lat="43.22715" lon="5.46796">
        <ele>313.2</ele>
        <time>2013-10-09T08:26:29Z</time>
      </trkpt>
      <trkpt lat="43.22711" lon="5.46796">
        <ele>316.5</ele>
        <time>2013-10-09T08:26:47Z</time>
      </trkpt>
      <trkpt lat="43.2271" lon="5.46796">
        <ele>316.8</ele>
        <time>2013-10-09T08:26:48Z</time>
      </trkpt>
      <trkpt lat="43.22719" lon="5.46792">
        <ele>315.7</ele>
        <time>2013-10-09T08:28:47Z</time>
      </trkpt>
      <trkpt lat="43.22719" lon="5.46792">
        <ele>315.6</ele>
        <time>2013-10-09T08:28:48Z</time>
      </trkpt>
      <trkpt lat="43.22713" lon="5.46799">
        <ele>314.7</ele>
        <time>2013-10-09T08:28:56Z</time>
      </trkpt>
      <trkpt lat="43.22715" lon="5.46794">
        <ele>313.7</ele>
        <time>2013-10-09T08:29:05Z</time>
      </trkpt>
      <trkpt lat="43.22711" lon="5.46793">
        <ele>309.3</ele>
        <time>2013-10-09T08:29:45Z</time>
      </trkpt>
      <trkpt lat="43.22707" lon="5.46791">
        <ele>310</ele>
        <time>2013-10-09T08:29:49Z</time>
      </trkpt>
      <trkpt lat="43.22706" lon="5.4679">
        <ele>310.2</ele>
        <time>2013-10-09T08:29:50Z</time>
      </trkpt>
      <trkpt lat="43.22699" lon="5.4679">
        <ele>309.2</ele>
        <time>2013-10-09T08:29:58Z</time>
      </trkpt>
      <trkpt lat="43.22695" lon="5.4679">
        <ele>309.2</ele>
        <time>2013-10-09T08:30:02Z</time>
      </trkpt>
      <trkpt lat="43.22691" lon="5.4679">
        <ele>309.5</ele>
        <time>2013-10-09T08:30:07Z</time>
      </trkpt>
      <trkpt lat="43.22688" lon="5.46787">
        <ele>309.8</ele>
        <time>2013-10-09T08:30:11Z</time>
      </trkpt>
      <trkpt lat="43.22684" lon="5.46785">
        <ele>309.5</ele>
        <time>2013-10-09T08:30:14Z</time>
      </trkpt>
      <trkpt lat="43.22681" lon="5.46785">
        <ele>308.7</ele>
        <time>2013-10-09T08:30:17Z</time>
      </trkpt>
      <trkpt lat="43.22677" lon="5.46783">
        <ele>309.2</ele>
        <time>2013-10-09T08:30:25Z</time>
      </trkpt>
      <trkpt lat="43.22673" lon="5.46781">
        <ele>309.3</ele>
        <time>2013-10-09T08:30:30Z</time>
      </trkpt>
      <trkpt lat="43.22669" lon="5.46781">
        <ele>309.2</ele>
        <time>2013-10-09T08:30:35Z</time>
      </trkpt>
      <trkpt lat="43.22665" lon="5.46778">
        <ele>309.7</ele>
        <time>2013-10-09T08:30:40Z</time>
      </trkpt>
      <trkpt lat="43.22662" lon="5.46776">
        <ele>310.1</ele>
        <time>2013-10-09T08:30:43Z</time>
      </trkpt>
      <trkpt lat="43.22659" lon="5.46772">
        <ele>310.7</ele>
        <time>2013-10-09T08:30:47Z</time>
      </trkpt>
      <trkpt lat="43.22656" lon="5.4677">
        <ele>310.7</ele>
        <time>2013-10-09T08:30:50Z</time>
      </trkpt>
      <trkpt lat="43.22655" lon="5.4677">
        <ele>311</ele>
        <time>2013-10-09T08:30:51Z</time>
      </trkpt>
      <trkpt lat="43.22649" lon="5.46776">
        <ele>310.3</ele>
        <time>2013-10-09T08:30:58Z</time>
      </trkpt>
      <trkpt lat="43.22646" lon="5.46777">
        <ele>310.3</ele>
        <time>2013-10-09T08:31:01Z</time>
      </trkpt>
      <trkpt lat="43.22642" lon="5.46779">
        <ele>309.8</ele>
        <time>2013-10-09T08:31:05Z</time>
      </trkpt>
      <trkpt lat="43.22638" lon="5.4678">
        <ele>309.3</ele>
        <time>2013-10-09T08:31:10Z</time>
      </trkpt>
      <trkpt lat="43.22634" lon="5.46781">
        <ele>309.7</ele>
        <time>2013-10-09T08:31:16Z</time>
      </trkpt>
      <trkpt lat="43.2263" lon="5.46785">
        <ele>310.1</ele>
        <time>2013-10-09T08:31:23Z</time>
      </trkpt>
      <trkpt lat="43.22626" lon="5.46784">
        <ele>310</ele>
        <time>2013-10-09T08:31:29Z</time>
      </trkpt>
      <trkpt lat="43.22623" lon="5.46782">
        <ele>309.8</ele>
        <time>2013-10-09T08:31:33Z</time>
      </trkpt>
      <trkpt lat="43.2262" lon="5.46779">
        <ele>309.7</ele>
        <time>2013-10-09T08:31:36Z</time>
      </trkpt>
      <trkpt lat="43.22616" lon="5.46778">
        <ele>308.7</ele>
        <time>2013-10-09T08:31:41Z</time>
      </trkpt>
      <trkpt lat="43.22613" lon="5.46775">
        <ele>307.8</ele>
        <time>2013-10-09T08:31:46Z</time>
      </trkpt>
      <trkpt lat="43.2261" lon="5.46771">
        <ele>306</ele>
        <time>2013-10-09T08:31:50Z</time>
      </trkpt>
      <trkpt lat="43.22606" lon="5.46767">
        <ele>302.1</ele>
        <time>2013-10-09T08:31:56Z</time>
      </trkpt>
      <trkpt lat="43.22606" lon="5.46766">
        <ele>301.3</ele>
        <time>2013-10-09T08:31:57Z</time>
      </trkpt>
      <trkpt lat="43.22601" lon="5.46758">
        <ele>295.6</ele>
        <time>2013-10-09T08:32:07Z</time>
      </trkpt>
      <trkpt lat="43.22597" lon="5.46756">
        <ele>293.1</ele>
        <time>2013-10-09T08:32:16Z</time>
      </trkpt>
      <trkpt lat="43.22596" lon="5.4675">
        <ele>292.6</ele>
        <time>2013-10-09T08:32:27Z</time>
      </trkpt>
      <trkpt lat="43.22592" lon="5.46748">
        <ele>292.6</ele>
        <time>2013-10-09T08:32:41Z</time>
      </trkpt>
      <trkpt lat="43.22589" lon="5.46745">
        <ele>293.7</ele>
        <time>2013-10-09T08:32:48Z</time>
      </trkpt>
      <trkpt lat="43.22585" lon="5.46743">
        <ele>295.1</ele>
        <time>2013-10-09T08:32:55Z</time>
      </trkpt>
      <trkpt lat="43.22584" lon="5.46737">
        <ele>294.2</ele>
        <time>2013-10-09T08:33:03Z</time>
      </trkpt>
      <trkpt lat="43.22584" lon="5.46736">
        <ele>293.7</ele>
        <time>2013-10-09T08:33:04Z</time>
      </trkpt>
      <trkpt lat="43.22581" lon="5.46727">
        <ele>286.7</ele>
        <time>2013-10-09T08:33:16Z</time>
      </trkpt>
      <trkpt lat="43.22579" lon="5.46722">
        <ele>283</ele>
        <time>2013-10-09T08:33:23Z</time>
      </trkpt>
      <trkpt lat="43.22576" lon="5.46717">
        <ele>279.8</ele>
        <time>2013-10-09T08:33:30Z</time>
      </trkpt>
      <trkpt lat="43.22572" lon="5.46717">
        <ele>285.6</ele>
        <time>2013-10-09T08:33:33Z</time>
      </trkpt>
      <trkpt lat="43.22569" lon="5.46717">
        <ele>294.6</ele>
        <time>2013-10-09T08:33:35Z</time>
      </trkpt>
      <trkpt lat="43.22564" lon="5.46718">
        <ele>305.7</ele>
        <time>2013-10-09T08:33:37Z</time>
      </trkpt>
      <trkpt lat="43.22563" lon="5.46718">
        <ele>310.7</ele>
        <time>2013-10-09T08:33:38Z</time>
      </trkpt>
      <trkpt lat="43.22557" lon="5.46719">
        <ele>325.7</ele>
        <time>2013-10-09T08:33:39Z</time>
      </trkpt>
      <trkpt lat="43.22553" lon="5.46719">
        <ele>333.2</ele>
        <time>2013-10-09T08:33:41Z</time>
      </trkpt>
      <trkpt lat="43.2255" lon="5.46718">
        <ele>336.3</ele>
        <time>2013-10-09T08:33:45Z</time>
      </trkpt>
      <trkpt lat="43.22546" lon="5.46718">
        <ele>338.1</ele>
        <time>2013-10-09T08:33:50Z</time>
      </trkpt>
      <trkpt lat="43.22542" lon="5.46717">
        <ele>339.2</ele>
        <time>2013-10-09T08:33:56Z</time>
      </trkpt>
      <trkpt lat="43.22541" lon="5.46712">
        <ele>337.7</ele>
        <time>2013-10-09T08:34:05Z</time>
      </trkpt>
      <trkpt lat="43.22541" lon="5.46711">
        <ele>336.5</ele>
        <time>2013-10-09T08:34:06Z</time>
      </trkpt>
      <trkpt lat="43.22544" lon="5.46701">
        <ele>339</ele>
        <time>2013-10-09T08:34:31Z</time>
      </trkpt>
      <trkpt lat="43.22545" lon="5.46696">
        <ele>342.1</ele>
        <time>2013-10-09T08:34:47Z</time>
      </trkpt>
      <trkpt lat="43.22548" lon="5.46692">
        <ele>350.5</ele>
        <time>2013-10-09T08:35:01Z</time>
      </trkpt>
      <trkpt lat="43.2255" lon="5.46687">
        <ele>353.8</ele>
        <time>2013-10-09T08:35:05Z</time>
      </trkpt>
      <trkpt lat="43.22552" lon="5.46683">
        <ele>359.1</ele>
        <time>2013-10-09T08:35:11Z</time>
      </trkpt>
      <trkpt lat="43.22552" lon="5.46682">
        <ele>358.5</ele>
        <time>2013-10-09T08:35:12Z</time>
      </trkpt>
      <trkpt lat="43.22551" lon="5.46671">
        <ele>351.7</ele>
        <time>2013-10-09T08:35:21Z</time>
      </trkpt>
      <trkpt lat="43.22547" lon="5.46669">
        <ele>349.1</ele>
        <time>2013-10-09T08:35:26Z</time>
      </trkpt>
      <trkpt lat="43.22544" lon="5.46671">
        <ele>353.7</ele>
        <time>2013-10-09T08:35:31Z</time>
      </trkpt>
      <trkpt lat="43.2254" lon="5.46673">
        <ele>356.7</ele>
        <time>2013-10-09T08:35:39Z</time>
      </trkpt>
      <trkpt lat="43.22537" lon="5.4667">
        <ele>356.7</ele>
        <time>2013-10-09T08:35:48Z</time>
      </trkpt>
      <trkpt lat="43.22539" lon="5.46666">
        <ele>361.8</ele>
        <time>2013-10-09T08:36:00Z</time>
      </trkpt>
      <trkpt lat="43.22536" lon="5.46665">
        <ele>363.1</ele>
        <time>2013-10-09T08:36:09Z</time>
      </trkpt>
      <trkpt lat="43.22533" lon="5.46666">
        <ele>361.8</ele>
        <time>2013-10-09T08:36:11Z</time>
      </trkpt>
      <trkpt lat="43.22529" lon="5.46665">
        <ele>359.6</ele>
        <time>2013-10-09T08:36:15Z</time>
      </trkpt>
      <trkpt lat="43.22528" lon="5.46665">
        <ele>360</ele>
        <time>2013-10-09T08:36:16Z</time>
      </trkpt>
      <trkpt lat="43.22529" lon="5.46654">
        <ele>375.7</ele>
        <time>2013-10-09T08:36:40Z</time>
      </trkpt>
      <trkpt lat="43.22526" lon="5.46651">
        <ele>372.7</ele>
        <time>2013-10-09T08:36:48Z</time>
      </trkpt>
      <trkpt lat="43.22522" lon="5.46649">
        <ele>370.8</ele>
        <time>2013-10-09T08:36:56Z</time>
      </trkpt>
      <trkpt lat="43.22518" lon="5.46649">
        <ele>367.2</ele>
        <time>2013-10-09T08:36:59Z</time>
      </trkpt>
      <trkpt lat="43.22514" lon="5.46646">
        <ele>367.7</ele>
        <time>2013-10-09T08:37:05Z</time>
      </trkpt>
      <trkpt lat="43.2251" lon="5.46644">
        <ele>367</ele>
        <time>2013-10-09T08:37:11Z</time>
      </trkpt>
      <trkpt lat="43.22506" lon="5.46641">
        <ele>364.1</ele>
        <time>2013-10-09T08:37:19Z</time>
      </trkpt>
      <trkpt lat="43.22507" lon="5.4664">
        <ele>364.1</ele>
        <time>2013-10-09T08:37:20Z</time>
      </trkpt>
      <trkpt lat="43.22505" lon="5.46635">
        <ele>360.2</ele>
        <time>2013-10-09T08:37:38Z</time>
      </trkpt>
      <trkpt lat="43.22509" lon="5.46633">
        <ele>365.5</ele>
        <time>2013-10-09T08:37:42Z</time>
      </trkpt>
      <trkpt lat="43.22506" lon="5.4663">
        <ele>366.2</ele>
        <time>2013-10-09T08:37:53Z</time>
      </trkpt>
      <trkpt lat="43.22507" lon="5.46625">
        <ele>372.2</ele>
        <time>2013-10-09T08:38:07Z</time>
      </trkpt>
      <trkpt lat="43.2251" lon="5.46621">
        <ele>373.5</ele>
        <time>2013-10-09T08:38:11Z</time>
      </trkpt>
      <trkpt lat="43.22507" lon="5.4662">
        <ele>372.2</ele>
        <time>2013-10-09T08:38:19Z</time>
      </trkpt>
      <trkpt lat="43.22503" lon="5.46623">
        <ele>371.8</ele>
        <time>2013-10-09T08:38:21Z</time>
      </trkpt>
      <trkpt lat="43.22502" lon="5.46624">
        <ele>371.6</ele>
        <time>2013-10-09T08:38:22Z</time>
      </trkpt>
      <trkpt lat="43.22497" lon="5.46627">
        <ele>370.5</ele>
        <time>2013-10-09T08:38:25Z</time>
      </trkpt>
      <trkpt lat="43.22494" lon="5.46628">
        <ele>368.8</ele>
        <time>2013-10-09T08:38:27Z</time>
      </trkpt>
      <trkpt lat="43.2249" lon="5.46629">
        <ele>367.2</ele>
        <time>2013-10-09T08:38:30Z</time>
      </trkpt>
      <trkpt lat="43.22486" lon="5.4663">
        <ele>366.7</ele>
        <time>2013-10-09T08:38:35Z</time>
      </trkpt>
      <trkpt lat="43.22483" lon="5.46633">
        <ele>371.5</ele>
        <time>2013-10-09T08:39:35Z</time>
      </trkpt>
      <trkpt lat="43.22482" lon="5.46634">
        <ele>370.7</ele>
        <time>2013-10-09T08:39:36Z</time>
      </trkpt>
      <trkpt lat="43.22475" lon="5.46632">
        <ele>370</ele>
        <time>2013-10-09T08:40:25Z</time>
      </trkpt>
      <trkpt lat="43.22473" lon="5.46627">
        <ele>366.1</ele>
        <time>2013-10-09T08:40:35Z</time>
      </trkpt>
      <trkpt lat="43.2247" lon="5.46624">
        <ele>367.1</ele>
        <time>2013-10-09T08:41:11Z</time>
      </trkpt>
      <trkpt lat="43.22469" lon="5.46624">
        <ele>366.7</ele>
        <time>2013-10-09T08:41:12Z</time>
      </trkpt>
      <trkpt lat="43.22475" lon="5.46619">
        <ele>373.1</ele>
        <time>2013-10-09T08:42:12Z</time>
      </trkpt>
      <trkpt lat="43.22475" lon="5.46619">
        <ele>373.5</ele>
        <time>2013-10-09T08:42:13Z</time>
      </trkpt>
      <trkpt lat="43.22474" lon="5.46617">
        <ele>369.3</ele>
        <time>2013-10-09T08:42:27Z</time>
      </trkpt>
      <trkpt lat="43.22478" lon="5.46617">
        <ele>370.7</ele>
        <time>2013-10-09T08:42:32Z</time>
      </trkpt>
      <trkpt lat="43.22474" lon="5.46615">
        <ele>367.7</ele>
        <time>2013-10-09T08:43:10Z</time>
      </trkpt>
      <trkpt lat="43.2247" lon="5.46614">
        <ele>367.2</ele>
        <time>2013-10-09T08:43:20Z</time>
      </trkpt>
      <trkpt lat="43.2247" lon="5.46614">
        <ele>367</ele>
        <time>2013-10-09T08:43:21Z</time>
      </trkpt>
      <trkpt lat="43.22465" lon="5.46605">
        <ele>368.7</ele>
        <time>2013-10-09T08:43:42Z</time>
      </trkpt>
      <trkpt lat="43.22462" lon="5.46601">
        <ele>376.5</ele>
        <time>2013-10-09T08:44:02Z</time>
      </trkpt>
      <trkpt lat="43.22459" lon="5.46596">
        <ele>380.7</ele>
        <time>2013-10-09T08:44:11Z</time>
      </trkpt>
      <trkpt lat="43.22457" lon="5.46591">
        <ele>382.2</ele>
        <time>2013-10-09T08:44:15Z</time>
      </trkpt>
      <trkpt lat="43.22453" lon="5.46589">
        <ele>382.3</ele>
        <time>2013-10-09T08:44:19Z</time>
      </trkpt>
      <trkpt lat="43.2245" lon="5.46589">
        <ele>383.1</ele>
        <time>2013-10-09T08:44:22Z</time>
      </trkpt>
      <trkpt lat="43.22448" lon="5.46589">
        <ele>383.2</ele>
        <time>2013-10-09T08:44:23Z</time>
      </trkpt>
      <trkpt lat="43.22442" lon="5.46586">
        <ele>386.8</ele>
        <time>2013-10-09T08:44:32Z</time>
      </trkpt>
      <trkpt lat="43.22438" lon="5.46584">
        <ele>387.5</ele>
        <time>2013-10-09T08:44:37Z</time>
      </trkpt>
      <trkpt lat="43.22435" lon="5.4658">
        <ele>390.2</ele>
        <time>2013-10-09T08:44:49Z</time>
      </trkpt>
      <trkpt lat="43.22432" lon="5.46576">
        <ele>388.7</ele>
        <time>2013-10-09T08:44:59Z</time>
      </trkpt>
      <trkpt lat="43.22428" lon="5.46574">
        <ele>389.2</ele>
        <time>2013-10-09T08:45:05Z</time>
      </trkpt>
      <trkpt lat="43.22427" lon="5.46568">
        <ele>388.5</ele>
        <time>2013-10-09T08:45:12Z</time>
      </trkpt>
      <trkpt lat="43.22424" lon="5.46563">
        <ele>385.7</ele>
        <time>2013-10-09T08:45:20Z</time>
      </trkpt>
      <trkpt lat="43.22424" lon="5.46557">
        <ele>389.7</ele>
        <time>2013-10-09T08:45:38Z</time>
      </trkpt>
      <trkpt lat="43.22424" lon="5.46557">
        <ele>389.3</ele>
        <time>2013-10-09T08:45:39Z</time>
      </trkpt>
      <trkpt lat="43.22421" lon="5.46547">
        <ele>386.5</ele>
        <time>2013-10-09T08:45:51Z</time>
      </trkpt>
      <trkpt lat="43.22419" lon="5.46542">
        <ele>383.6</ele>
        <time>2013-10-09T08:45:55Z</time>
      </trkpt>
      <trkpt lat="43.22417" lon="5.46537">
        <ele>380.3</ele>
        <time>2013-10-09T08:45:59Z</time>
      </trkpt>
      <trkpt lat="43.22413" lon="5.46534">
        <ele>381.2</ele>
        <time>2013-10-09T08:46:05Z</time>
      </trkpt>
      <trkpt lat="43.22412" lon="5.46528">
        <ele>383.2</ele>
        <time>2013-10-09T08:46:13Z</time>
      </trkpt>
      <trkpt lat="43.22408" lon="5.46526">
        <ele>384.3</ele>
        <time>2013-10-09T08:46:18Z</time>
      </trkpt>
      <trkpt lat="43.22405" lon="5.46522">
        <ele>383.2</ele>
        <time>2013-10-09T08:46:23Z</time>
      </trkpt>
      <trkpt lat="43.22403" lon="5.46517">
        <ele>384</ele>
        <time>2013-10-09T08:46:31Z</time>
      </trkpt>
      <trkpt lat="43.224" lon="5.46513">
        <ele>386.1</ele>
        <time>2013-10-09T08:46:38Z</time>
      </trkpt>
      <trkpt lat="43.22397" lon="5.4651">
        <ele>385.7</ele>
        <time>2013-10-09T08:46:43Z</time>
      </trkpt>
      <trkpt lat="43.22396" lon="5.46509">
        <ele>385.7</ele>
        <time>2013-10-09T08:46:44Z</time>
      </trkpt>
      <trkpt lat="43.22389" lon="5.46505">
        <ele>386.3</ele>
        <time>2013-10-09T08:46:55Z</time>
      </trkpt>
      <trkpt lat="43.22386" lon="5.46502">
        <ele>387.7</ele>
        <time>2013-10-09T08:47:01Z</time>
      </trkpt>
      <trkpt lat="43.22382" lon="5.46499">
        <ele>390.1</ele>
        <time>2013-10-09T08:47:08Z</time>
      </trkpt>
      <trkpt lat="43.22379" lon="5.46497">
        <ele>390.7</ele>
        <time>2013-10-09T08:47:13Z</time>
      </trkpt>
      <trkpt lat="43.22375" lon="5.46495">
        <ele>394.5</ele>
        <time>2013-10-09T08:47:19Z</time>
      </trkpt>
      <trkpt lat="43.22374" lon="5.46489">
        <ele>394.3</ele>
        <time>2013-10-09T08:47:27Z</time>
      </trkpt>
      <trkpt lat="43.22373" lon="5.46484">
        <ele>398.5</ele>
        <time>2013-10-09T08:47:41Z</time>
      </trkpt>
      <trkpt lat="43.2237" lon="5.46479">
        <ele>400</ele>
        <time>2013-10-09T08:47:52Z</time>
      </trkpt>
      <trkpt lat="43.22369" lon="5.46479">
        <ele>399.6</ele>
        <time>2013-10-09T08:47:53Z</time>
      </trkpt>
      <trkpt lat="43.22361" lon="5.4648">
        <ele>400.1</ele>
        <time>2013-10-09T08:48:04Z</time>
      </trkpt>
      <trkpt lat="43.22357" lon="5.4648">
        <ele>400.3</ele>
        <time>2013-10-09T08:48:14Z</time>
      </trkpt>
      <trkpt lat="43.22353" lon="5.46477">
        <ele>401.2</ele>
        <time>2013-10-09T08:48:24Z</time>
      </trkpt>
      <trkpt lat="43.22351" lon="5.46473">
        <ele>402.8</ele>
        <time>2013-10-09T08:48:30Z</time>
      </trkpt>
      <trkpt lat="43.22349" lon="5.46468">
        <ele>401.5</ele>
        <time>2013-10-09T08:48:35Z</time>
      </trkpt>
      <trkpt lat="43.22346" lon="5.46464">
        <ele>402.2</ele>
        <time>2013-10-09T08:48:40Z</time>
      </trkpt>
      <trkpt lat="43.22349" lon="5.46459">
        <ele>414.7</ele>
        <time>2013-10-09T08:49:10Z</time>
      </trkpt>
      <trkpt lat="43.22349" lon="5.46459">
        <ele>414.7</ele>
        <time>2013-10-09T08:49:11Z</time>
      </trkpt>
      <trkpt lat="43.22342" lon="5.46454">
        <ele>410.1</ele>
        <time>2013-10-09T08:49:28Z</time>
      </trkpt>
      <trkpt lat="43.22338" lon="5.46453">
        <ele>409.2</ele>
        <time>2013-10-09T08:49:32Z</time>
      </trkpt>
      <trkpt lat="43.22334" lon="5.46452">
        <ele>411.8</ele>
        <time>2013-10-09T08:49:36Z</time>
      </trkpt>
      <trkpt lat="43.2233" lon="5.46451">
        <ele>415.5</ele>
        <time>2013-10-09T08:49:40Z</time>
      </trkpt>
      <trkpt lat="43.22326" lon="5.46452">
        <ele>420.8</ele>
        <time>2013-10-09T08:49:44Z</time>
      </trkpt>
      <trkpt lat="43.22323" lon="5.46454">
        <ele>424.1</ele>
        <time>2013-10-09T08:49:47Z</time>
      </trkpt>
      <trkpt lat="43.22319" lon="5.46454">
        <ele>428.2</ele>
        <time>2013-10-09T08:49:51Z</time>
      </trkpt>
      <trkpt lat="43.22316" lon="5.4645">
        <ele>427.2</ele>
        <time>2013-10-09T08:49:55Z</time>
      </trkpt>
      <trkpt lat="43.22313" lon="5.46446">
        <ele>424.7</ele>
        <time>2013-10-09T08:50:00Z</time>
      </trkpt>
      <trkpt lat="43.2231" lon="5.46443">
        <ele>424.8</ele>
        <time>2013-10-09T08:50:05Z</time>
      </trkpt>
      <trkpt lat="43.22308" lon="5.46437">
        <ele>423</ele>
        <time>2013-10-09T08:50:10Z</time>
      </trkpt>
      <trkpt lat="43.22306" lon="5.46432">
        <ele>418.1</ele>
        <time>2013-10-09T08:50:16Z</time>
      </trkpt>
      <trkpt lat="43.22305" lon="5.46431">
        <ele>417.2</ele>
        <time>2013-10-09T08:50:17Z</time>
      </trkpt>
      <trkpt lat="43.22299" lon="5.46426">
        <ele>413.3</ele>
        <time>2013-10-09T08:50:26Z</time>
      </trkpt>
      <trkpt lat="43.22296" lon="5.46422">
        <ele>413.2</ele>
        <time>2013-10-09T08:50:33Z</time>
      </trkpt>
      <trkpt lat="43.22293" lon="5.46419">
        <ele>410.3</ele>
        <time>2013-10-09T08:50:40Z</time>
      </trkpt>
      <trkpt lat="43.22289" lon="5.4642">
        <ele>416.5</ele>
        <time>2013-10-09T08:50:47Z</time>
      </trkpt>
      <trkpt lat="43.22285" lon="5.46417">
        <ele>415.7</ele>
        <time>2013-10-09T08:50:55Z</time>
      </trkpt>
      <trkpt lat="43.22282" lon="5.46413">
        <ele>418</ele>
        <time>2013-10-09T08:51:03Z</time>
      </trkpt>
      <trkpt lat="43.22278" lon="5.46412">
        <ele>417.2</ele>
        <time>2013-10-09T08:51:12Z</time>
      </trkpt>
      <trkpt lat="43.22281" lon="5.46407">
        <ele>422.8</ele>
        <time>2013-10-09T08:51:22Z</time>
      </trkpt>
      <trkpt lat="43.22281" lon="5.46407">
        <ele>423</ele>
        <time>2013-10-09T08:51:23Z</time>
      </trkpt>
      <trkpt lat="43.22273" lon="5.46406">
        <ele>424.7</ele>
        <time>2013-10-09T08:51:46Z</time>
      </trkpt>
      <trkpt lat="43.22269" lon="5.46404">
        <ele>424.7</ele>
        <time>2013-10-09T08:52:00Z</time>
      </trkpt>
      <trkpt lat="43.22265" lon="5.46403">
        <ele>429.2</ele>
        <time>2013-10-09T08:52:06Z</time>
      </trkpt>
      <trkpt lat="43.22262" lon="5.46399">
        <ele>431.8</ele>
        <time>2013-10-09T08:52:15Z</time>
      </trkpt>
      <trkpt lat="43.22257" lon="5.46399">
        <ele>435.3</ele>
        <time>2013-10-09T08:52:23Z</time>
      </trkpt>
      <trkpt lat="43.22257" lon="5.46399">
        <ele>435.3</ele>
        <time>2013-10-09T08:52:24Z</time>
      </trkpt>
      <trkpt lat="43.2225" lon="5.46394">
        <ele>442</ele>
        <time>2013-10-09T08:53:33Z</time>
      </trkpt>
      <trkpt lat="43.22249" lon="5.46394">
        <ele>441.5</ele>
        <time>2013-10-09T08:53:34Z</time>
      </trkpt>
      <trkpt lat="43.22245" lon="5.46393">
        <ele>435.8</ele>
        <time>2013-10-09T08:56:17Z</time>
      </trkpt>
      <trkpt lat="43.22239" lon="5.46389">
        <ele>434.7</ele>
        <time>2013-10-09T08:56:40Z</time>
      </trkpt>
      <trkpt lat="43.22235" lon="5.46386">
        <ele>441.7</ele>
        <time>2013-10-09T08:57:00Z</time>
      </trkpt>
      <trkpt lat="43.22232" lon="5.46385">
        <ele>440.6</ele>
        <time>2013-10-09T08:57:07Z</time>
      </trkpt>
      <trkpt lat="43.22228" lon="5.46386">
        <ele>439.1</ele>
        <time>2013-10-09T08:57:11Z</time>
      </trkpt>
      <trkpt lat="43.22224" lon="5.46388">
        <ele>441</ele>
        <time>2013-10-09T08:57:19Z</time>
      </trkpt>
      <trkpt lat="43.22223" lon="5.46388">
        <ele>441</ele>
        <time>2013-10-09T08:57:20Z</time>
      </trkpt>
      <trkpt lat="43.22216" lon="5.46392">
        <ele>449.6</ele>
        <time>2013-10-09T08:57:40Z</time>
      </trkpt>
      <trkpt lat="43.22212" lon="5.46395">
        <ele>452.7</ele>
        <time>2013-10-09T08:57:51Z</time>
      </trkpt>
      <trkpt lat="43.22208" lon="5.46398">
        <ele>462.2</ele>
        <time>2013-10-09T08:57:58Z</time>
      </trkpt>
      <trkpt lat="43.22205" lon="5.46394">
        <ele>461.2</ele>
        <time>2013-10-09T08:58:03Z</time>
      </trkpt>
      <trkpt lat="43.22202" lon="5.4639">
        <ele>456.7</ele>
        <time>2013-10-09T08:58:14Z</time>
      </trkpt>
      <trkpt lat="43.22197" lon="5.46391">
        <ele>454.3</ele>
        <time>2013-10-09T08:58:26Z</time>
      </trkpt>
      <trkpt lat="43.22197" lon="5.46391">
        <ele>454.6</ele>
        <time>2013-10-09T08:58:27Z</time>
      </trkpt>
      <trkpt lat="43.22189" lon="5.46391">
        <ele>455.2</ele>
        <time>2013-10-09T08:58:49Z</time>
      </trkpt>
      <trkpt lat="43.22185" lon="5.46392">
        <ele>456.1</ele>
        <time>2013-10-09T08:58:58Z</time>
      </trkpt>
      <trkpt lat="43.22181" lon="5.46393">
        <ele>455.2</ele>
        <time>2013-10-09T08:59:07Z</time>
      </trkpt>
      <trkpt lat="43.22177" lon="5.46392">
        <ele>456</ele>
        <time>2013-10-09T08:59:20Z</time>
      </trkpt>
      <trkpt lat="43.22173" lon="5.4639">
        <ele>456</ele>
        <time>2013-10-09T08:59:31Z</time>
      </trkpt>
      <trkpt lat="43.22172" lon="5.4639">
        <ele>455.7</ele>
        <time>2013-10-09T08:59:32Z</time>
      </trkpt>
      <trkpt lat="43.22165" lon="5.46389">
        <ele>458.7</ele>
        <time>2013-10-09T08:59:49Z</time>
      </trkpt>
      <trkpt lat="43.22161" lon="5.46389">
        <ele>461.7</ele>
        <time>2013-10-09T09:00:00Z</time>
      </trkpt>
      <trkpt lat="43.22158" lon="5.46394">
        <ele>463.7</ele>
        <time>2013-10-09T09:00:08Z</time>
      </trkpt>
      <trkpt lat="43.22154" lon="5.46393">
        <ele>467.1</ele>
        <time>2013-10-09T09:00:21Z</time>
      </trkpt>
      <trkpt lat="43.22151" lon="5.46389">
        <ele>473.5</ele>
        <time>2013-10-09T09:00:35Z</time>
      </trkpt>
      <trkpt lat="43.22151" lon="5.46389">
        <ele>473.6</ele>
        <time>2013-10-09T09:00:36Z</time>
      </trkpt>
      <trkpt lat="43.22143" lon="5.46392">
        <ele>473</ele>
        <time>2013-10-09T09:00:52Z</time>
      </trkpt>
      <trkpt lat="43.22139" lon="5.46389">
        <ele>476.2</ele>
        <time>2013-10-09T09:01:04Z</time>
      </trkpt>
      <trkpt lat="43.22134" lon="5.4639">
        <ele>475.3</ele>
        <time>2013-10-09T09:01:13Z</time>
      </trkpt>
      <trkpt lat="43.2213" lon="5.46391">
        <ele>476.2</ele>
        <time>2013-10-09T09:01:24Z</time>
      </trkpt>
      <trkpt lat="43.22126" lon="5.4639">
        <ele>477.7</ele>
        <time>2013-10-09T09:01:32Z</time>
      </trkpt>
      <trkpt lat="43.22122" lon="5.46389">
        <ele>481.8</ele>
        <time>2013-10-09T09:01:47Z</time>
      </trkpt>
      <trkpt lat="43.22122" lon="5.4639">
        <ele>482</ele>
        <time>2013-10-09T09:01:48Z</time>
      </trkpt>
      <trkpt lat="43.22114" lon="5.46388">
        <ele>485.2</ele>
        <time>2013-10-09T09:02:07Z</time>
      </trkpt>
      <trkpt lat="43.2211" lon="5.46388">
        <ele>487.1</ele>
        <time>2013-10-09T09:02:18Z</time>
      </trkpt>
      <trkpt lat="43.22106" lon="5.46388">
        <ele>490.7</ele>
        <time>2013-10-09T09:02:29Z</time>
      </trkpt>
      <trkpt lat="43.22102" lon="5.46386">
        <ele>493.7</ele>
        <time>2013-10-09T09:02:40Z</time>
      </trkpt>
      <trkpt lat="43.22097" lon="5.46385">
        <ele>496.5</ele>
        <time>2013-10-09T09:02:55Z</time>
      </trkpt>
      <trkpt lat="43.22097" lon="5.46386">
        <ele>496.5</ele>
        <time>2013-10-09T09:02:56Z</time>
      </trkpt>
      <trkpt lat="43.2209" lon="5.46382">
        <ele>495.3</ele>
        <time>2013-10-09T09:03:13Z</time>
      </trkpt>
      <trkpt lat="43.22086" lon="5.46383">
        <ele>494.1</ele>
        <time>2013-10-09T09:03:21Z</time>
      </trkpt>
      <trkpt lat="43.22081" lon="5.46382">
        <ele>501.3</ele>
        <time>2013-10-09T09:03:49Z</time>
      </trkpt>
      <trkpt lat="43.22077" lon="5.4638">
        <ele>503.3</ele>
        <time>2013-10-09T09:04:01Z</time>
      </trkpt>
      <trkpt lat="43.22077" lon="5.46381">
        <ele>503.3</ele>
        <time>2013-10-09T09:04:02Z</time>
      </trkpt>
      <trkpt lat="43.22071" lon="5.46386">
        <ele>506</ele>
        <time>2013-10-09T09:04:33Z</time>
      </trkpt>
      <trkpt lat="43.22072" lon="5.46392">
        <ele>506.7</ele>
        <time>2013-10-09T09:04:40Z</time>
      </trkpt>
      <trkpt lat="43.22068" lon="5.46395">
        <ele>503.1</ele>
        <time>2013-10-09T09:04:53Z</time>
      </trkpt>
      <trkpt lat="43.22064" lon="5.46398">
        <ele>503.7</ele>
        <time>2013-10-09T09:05:05Z</time>
      </trkpt>
      <trkpt lat="43.22064" lon="5.46397">
        <ele>503.7</ele>
        <time>2013-10-09T09:05:06Z</time>
      </trkpt>
      <trkpt lat="43.2206" lon="5.46401">
        <ele>509.3</ele>
        <time>2013-10-09T09:05:35Z</time>
      </trkpt>
      <trkpt lat="43.2206" lon="5.46407">
        <ele>511.2</ele>
        <time>2013-10-09T09:05:46Z</time>
      </trkpt>
      <trkpt lat="43.22063" lon="5.46411">
        <ele>517</ele>
        <time>2013-10-09T09:05:57Z</time>
      </trkpt>
      <trkpt lat="43.22065" lon="5.46417">
        <ele>519</ele>
        <time>2013-10-09T09:06:04Z</time>
      </trkpt>
      <trkpt lat="43.22061" lon="5.46419">
        <ele>518.4</ele>
        <time>2013-10-09T09:06:16Z</time>
      </trkpt>
      <trkpt lat="43.2206" lon="5.46418">
        <ele>518.2</ele>
        <time>2013-10-09T09:06:17Z</time>
      </trkpt>
      <trkpt lat="43.22053" lon="5.46419">
        <ele>518.7</ele>
        <time>2013-10-09T09:06:36Z</time>
      </trkpt>
      <trkpt lat="43.22051" lon="5.46425">
        <ele>521.7</ele>
        <time>2013-10-09T09:06:57Z</time>
      </trkpt>
      <trkpt lat="43.22049" lon="5.4643">
        <ele>522.4</ele>
        <time>2013-10-09T09:07:08Z</time>
      </trkpt>
      <trkpt lat="43.22048" lon="5.46436">
        <ele>528.7</ele>
        <time>2013-10-09T09:07:26Z</time>
      </trkpt>
      <trkpt lat="43.22048" lon="5.46437">
        <ele>529.5</ele>
        <time>2013-10-09T09:07:27Z</time>
      </trkpt>
      <trkpt lat="43.22047" lon="5.46448">
        <ele>526.5</ele>
        <time>2013-10-09T09:07:48Z</time>
      </trkpt>
      <trkpt lat="43.22047" lon="5.46454">
        <ele>526.5</ele>
        <time>2013-10-09T09:07:54Z</time>
      </trkpt>
      <trkpt lat="43.22043" lon="5.46456">
        <ele>531</ele>
        <time>2013-10-09T09:08:15Z</time>
      </trkpt>
      <trkpt lat="43.22039" lon="5.46458">
        <ele>531.9</ele>
        <time>2013-10-09T09:08:21Z</time>
      </trkpt>
      <trkpt lat="43.22035" lon="5.46461">
        <ele>533.2</ele>
        <time>2013-10-09T09:08:26Z</time>
      </trkpt>
      <trkpt lat="43.22032" lon="5.46464">
        <ele>533.7</ele>
        <time>2013-10-09T09:08:32Z</time>
      </trkpt>
      <trkpt lat="43.22031" lon="5.46464">
        <ele>533.7</ele>
        <time>2013-10-09T09:08:33Z</time>
      </trkpt>
      <trkpt lat="43.22025" lon="5.4646">
        <ele>534.2</ele>
        <time>2013-10-09T09:08:46Z</time>
      </trkpt>
      <trkpt lat="43.2202" lon="5.4646">
        <ele>535.4</ele>
        <time>2013-10-09T09:11:47Z</time>
      </trkpt>
      <trkpt lat="43.2202" lon="5.4646">
        <ele>535.4</ele>
        <time>2013-10-09T09:11:48Z</time>
      </trkpt>
      <trkpt lat="43.22025" lon="5.46463">
        <ele>533</ele>
        <time>2013-10-09T09:14:01Z</time>
      </trkpt>
      <trkpt lat="43.22027" lon="5.46468">
        <ele>533</ele>
        <time>2013-10-09T09:18:41Z</time>
      </trkpt>
      <trkpt lat="43.22022" lon="5.46469">
        <ele>531.7</ele>
        <time>2013-10-09T09:21:02Z</time>
      </trkpt>
      <trkpt lat="43.22016" lon="5.46473">
        <ele>533.2</ele>
        <time>2013-10-09T09:21:18Z</time>
      </trkpt>
      <trkpt lat="43.22013" lon="5.46474">
        <ele>532.2</ele>
        <time>2013-10-09T09:21:21Z</time>
      </trkpt>
      <trkpt lat="43.22009" lon="5.46474">
        <ele>531.7</ele>
        <time>2013-10-09T09:21:25Z</time>
      </trkpt>
      <trkpt lat="43.22006" lon="5.46476">
        <ele>529.4</ele>
        <time>2013-10-09T09:21:29Z</time>
      </trkpt>
      <trkpt lat="43.22002" lon="5.46479">
        <ele>526.9</ele>
        <time>2013-10-09T09:21:34Z</time>
      </trkpt>
      <trkpt lat="43.21998" lon="5.46481">
        <ele>524.7</ele>
        <time>2013-10-09T09:21:39Z</time>
      </trkpt>
      <trkpt lat="43.21994" lon="5.46481">
        <ele>525</ele>
        <time>2013-10-09T09:21:44Z</time>
      </trkpt>
      <trkpt lat="43.2199" lon="5.46482">
        <ele>525</ele>
        <time>2013-10-09T09:21:50Z</time>
      </trkpt>
      <trkpt lat="43.21986" lon="5.46484">
        <ele>524.2</ele>
        <time>2013-10-09T09:21:56Z</time>
      </trkpt>
      <trkpt lat="43.21982" lon="5.46485">
        <ele>524.4</ele>
        <time>2013-10-09T09:22:02Z</time>
      </trkpt>
      <trkpt lat="43.21981" lon="5.46486">
        <ele>524.2</ele>
        <time>2013-10-09T09:22:03Z</time>
      </trkpt>
      <trkpt lat="43.21974" lon="5.46488">
        <ele>523.7</ele>
        <time>2013-10-09T09:22:19Z</time>
      </trkpt>
      <trkpt lat="43.2197" lon="5.46489">
        <ele>521.2</ele>
        <time>2013-10-09T09:22:30Z</time>
      </trkpt>
      <trkpt lat="43.21966" lon="5.46489">
        <ele>520.5</ele>
        <time>2013-10-09T09:22:35Z</time>
      </trkpt>
      <trkpt lat="43.21963" lon="5.46486">
        <ele>519.2</ele>
        <time>2013-10-09T09:22:39Z</time>
      </trkpt>
      <trkpt lat="43.21959" lon="5.46485">
        <ele>519.2</ele>
        <time>2013-10-09T09:22:44Z</time>
      </trkpt>
      <trkpt lat="43.21955" lon="5.46482">
        <ele>518.2</ele>
        <time>2013-10-09T09:22:50Z</time>
      </trkpt>
      <trkpt lat="43.21951" lon="5.46482">
        <ele>519.5</ele>
        <time>2013-10-09T09:22:57Z</time>
      </trkpt>
      <trkpt lat="43.21947" lon="5.46482">
        <ele>519.2</ele>
        <time>2013-10-09T09:23:02Z</time>
      </trkpt>
      <trkpt lat="43.21943" lon="5.46481">
        <ele>518</ele>
        <time>2013-10-09T09:23:06Z</time>
      </trkpt>
      <trkpt lat="43.21942" lon="5.46481">
        <ele>517.5</ele>
        <time>2013-10-09T09:23:07Z</time>
      </trkpt>
      <trkpt lat="43.21935" lon="5.46479">
        <ele>513.2</ele>
        <time>2013-10-09T09:23:14Z</time>
      </trkpt>
      <trkpt lat="43.21931" lon="5.46478">
        <ele>512.2</ele>
        <time>2013-10-09T09:23:20Z</time>
      </trkpt>
      <trkpt lat="43.21927" lon="5.46478">
        <ele>510.5</ele>
        <time>2013-10-09T09:23:25Z</time>
      </trkpt>
      <trkpt lat="43.21923" lon="5.46477">
        <ele>509.6</ele>
        <time>2013-10-09T09:23:30Z</time>
      </trkpt>
      <trkpt lat="43.21918" lon="5.46476">
        <ele>508.5</ele>
        <time>2013-10-09T09:23:36Z</time>
      </trkpt>
      <trkpt lat="43.21914" lon="5.46477">
        <ele>508.2</ele>
        <time>2013-10-09T09:23:40Z</time>
      </trkpt>
      <trkpt lat="43.2191" lon="5.46476">
        <ele>508.7</ele>
        <time>2013-10-09T09:23:44Z</time>
      </trkpt>
      <trkpt lat="43.21906" lon="5.46476">
        <ele>509.5</ele>
        <time>2013-10-09T09:23:49Z</time>
      </trkpt>
      <trkpt lat="43.21902" lon="5.46474">
        <ele>512.7</ele>
        <time>2013-10-09T09:23:57Z</time>
      </trkpt>
      <trkpt lat="43.21898" lon="5.46472">
        <ele>514</ele>
        <time>2013-10-09T09:24:04Z</time>
      </trkpt>
      <trkpt lat="43.21894" lon="5.46473">
        <ele>512.2</ele>
        <time>2013-10-09T09:24:08Z</time>
      </trkpt>
      <trkpt lat="43.21893" lon="5.46472">
        <ele>512.2</ele>
        <time>2013-10-09T09:24:09Z</time>
      </trkpt>
      <trkpt lat="43.21887" lon="5.46469">
        <ele>510.8</ele>
        <time>2013-10-09T09:24:16Z</time>
      </trkpt>
      <trkpt lat="43.21883" lon="5.46467">
        <ele>510.6</ele>
        <time>2013-10-09T09:24:20Z</time>
      </trkpt>
      <trkpt lat="43.21879" lon="5.46466">
        <ele>509.2</ele>
        <time>2013-10-09T09:24:25Z</time>
      </trkpt>
      <trkpt lat="43.21876" lon="5.46466">
        <ele>507.7</ele>
        <time>2013-10-09T09:24:28Z</time>
      </trkpt>
      <trkpt lat="43.21872" lon="5.46465">
        <ele>506.2</ele>
        <time>2013-10-09T09:24:31Z</time>
      </trkpt>
      <trkpt lat="43.21869" lon="5.46465">
        <ele>505.7</ele>
        <time>2013-10-09T09:24:34Z</time>
      </trkpt>
      <trkpt lat="43.21864" lon="5.46464">
        <ele>503.2</ele>
        <time>2013-10-09T09:24:37Z</time>
      </trkpt>
      <trkpt lat="43.21861" lon="5.46463">
        <ele>502.6</ele>
        <time>2013-10-09T09:24:41Z</time>
      </trkpt>
      <trkpt lat="43.21857" lon="5.46463">
        <ele>502.2</ele>
        <time>2013-10-09T09:24:46Z</time>
      </trkpt>
      <trkpt lat="43.21854" lon="5.46462">
        <ele>500.8</ele>
        <time>2013-10-09T09:24:49Z</time>
      </trkpt>
      <trkpt lat="43.2185" lon="5.46461">
        <ele>500.5</ele>
        <time>2013-10-09T09:24:53Z</time>
      </trkpt>
      <trkpt lat="43.21847" lon="5.4646">
        <ele>500</ele>
        <time>2013-10-09T09:24:57Z</time>
      </trkpt>
      <trkpt lat="43.21842" lon="5.4646">
        <ele>498.8</ele>
        <time>2013-10-09T09:25:01Z</time>
      </trkpt>
      <trkpt lat="43.21838" lon="5.46461">
        <ele>498.2</ele>
        <time>2013-10-09T09:25:06Z</time>
      </trkpt>
      <trkpt lat="43.21834" lon="5.46462">
        <ele>497.6</ele>
        <time>2013-10-09T09:25:10Z</time>
      </trkpt>
      <trkpt lat="43.21833" lon="5.46462">
        <ele>497.7</ele>
        <time>2013-10-09T09:25:11Z</time>
      </trkpt>
      <trkpt lat="43.21827" lon="5.4646">
        <ele>498.3</ele>
        <time>2013-10-09T09:25:17Z</time>
      </trkpt>
      <trkpt lat="43.21824" lon="5.4646">
        <ele>498.2</ele>
        <time>2013-10-09T09:25:21Z</time>
      </trkpt>
      <trkpt lat="43.21819" lon="5.46459">
        <ele>497.2</ele>
        <time>2013-10-09T09:25:26Z</time>
      </trkpt>
      <trkpt lat="43.21816" lon="5.46464">
        <ele>496.5</ele>
        <time>2013-10-09T09:25:32Z</time>
      </trkpt>
      <trkpt lat="43.21812" lon="5.46466">
        <ele>496.1</ele>
        <time>2013-10-09T09:25:37Z</time>
      </trkpt>
      <trkpt lat="43.2181" lon="5.46471">
        <ele>497.1</ele>
        <time>2013-10-09T09:25:42Z</time>
      </trkpt>
      <trkpt lat="43.21807" lon="5.46474">
        <ele>497.2</ele>
        <time>2013-10-09T09:25:46Z</time>
      </trkpt>
      <trkpt lat="43.21804" lon="5.46479">
        <ele>497.1</ele>
        <time>2013-10-09T09:25:51Z</time>
      </trkpt>
      <trkpt lat="43.21801" lon="5.46482">
        <ele>497.2</ele>
        <time>2013-10-09T09:25:55Z</time>
      </trkpt>
      <trkpt lat="43.21797" lon="5.46485">
        <ele>497.3</ele>
        <time>2013-10-09T09:25:59Z</time>
      </trkpt>
      <trkpt lat="43.21793" lon="5.46486">
        <ele>497.3</ele>
        <time>2013-10-09T09:26:03Z</time>
      </trkpt>
      <trkpt lat="43.21789" lon="5.46487">
        <ele>497.7</ele>
        <time>2013-10-09T09:26:07Z</time>
      </trkpt>
      <trkpt lat="43.21786" lon="5.46489">
        <ele>497.7</ele>
        <time>2013-10-09T09:26:12Z</time>
      </trkpt>
      <trkpt lat="43.21785" lon="5.46489">
        <ele>497.7</ele>
        <time>2013-10-09T09:26:13Z</time>
      </trkpt>
      <trkpt lat="43.21778" lon="5.46494">
        <ele>497.7</ele>
        <time>2013-10-09T09:26:26Z</time>
      </trkpt>
      <trkpt lat="43.21775" lon="5.46496">
        <ele>496.6</ele>
        <time>2013-10-09T09:26:31Z</time>
      </trkpt>
      <trkpt lat="43.2177" lon="5.46497">
        <ele>494.2</ele>
        <time>2013-10-09T09:26:36Z</time>
      </trkpt>
      <trkpt lat="43.21766" lon="5.46499">
        <ele>492.7</ele>
        <time>2013-10-09T09:26:40Z</time>
      </trkpt>
      <trkpt lat="43.21763" lon="5.46501">
        <ele>491.3</ele>
        <time>2013-10-09T09:26:44Z</time>
      </trkpt>
      <trkpt lat="43.21758" lon="5.46502">
        <ele>489.6</ele>
        <time>2013-10-09T09:26:48Z</time>
      </trkpt>
      <trkpt lat="43.21755" lon="5.46503">
        <ele>488.7</ele>
        <time>2013-10-09T09:26:51Z</time>
      </trkpt>
      <trkpt lat="43.21751" lon="5.46503">
        <ele>488.7</ele>
        <time>2013-10-09T09:26:55Z</time>
      </trkpt>
      <trkpt lat="43.21747" lon="5.46503">
        <ele>487.7</ele>
        <time>2013-10-09T09:26:58Z</time>
      </trkpt>
      <trkpt lat="43.21743" lon="5.46504">
        <ele>488</ele>
        <time>2013-10-09T09:27:03Z</time>
      </trkpt>
      <trkpt lat="43.21739" lon="5.46506">
        <ele>488.3</ele>
        <time>2013-10-09T09:27:07Z</time>
      </trkpt>
      <trkpt lat="43.21736" lon="5.46508">
        <ele>487.2</ele>
        <time>2013-10-09T09:27:10Z</time>
      </trkpt>
      <trkpt lat="43.21732" lon="5.46509">
        <ele>486.5</ele>
        <time>2013-10-09T09:27:13Z</time>
      </trkpt>
      <trkpt lat="43.21731" lon="5.46509">
        <ele>486.2</ele>
        <time>2013-10-09T09:27:14Z</time>
      </trkpt>
      <trkpt lat="43.21725" lon="5.46513">
        <ele>485.2</ele>
        <time>2013-10-09T09:27:20Z</time>
      </trkpt>
      <trkpt lat="43.21721" lon="5.46514">
        <ele>485.3</ele>
        <time>2013-10-09T09:27:24Z</time>
      </trkpt>
      <trkpt lat="43.21717" lon="5.46517">
        <ele>485.5</ele>
        <time>2013-10-09T09:27:30Z</time>
      </trkpt>
      <trkpt lat="43.21714" lon="5.46519">
        <ele>485.5</ele>
        <time>2013-10-09T09:27:35Z</time>
      </trkpt>
      <trkpt lat="43.2171" lon="5.46519">
        <ele>488</ele>
        <time>2013-10-09T09:27:41Z</time>
      </trkpt>
      <trkpt lat="43.21707" lon="5.46514">
        <ele>492.8</ele>
        <time>2013-10-09T09:27:50Z</time>
      </trkpt>
      <trkpt lat="43.21711" lon="5.46511">
        <ele>506.2</ele>
        <time>2013-10-09T09:28:18Z</time>
      </trkpt>
      <trkpt lat="43.21711" lon="5.46511">
        <ele>506.7</ele>
        <time>2013-10-09T09:28:19Z</time>
      </trkpt>
      <trkpt lat="43.21711" lon="5.46517">
        <ele>500.8</ele>
        <time>2013-10-09T09:29:22Z</time>
      </trkpt>
      <trkpt lat="43.21707" lon="5.46519">
        <ele>503.2</ele>
        <time>2013-10-09T09:30:32Z</time>
      </trkpt>
      <trkpt lat="43.21702" lon="5.46527">
        <ele>504.5</ele>
        <time>2013-10-09T09:30:57Z</time>
      </trkpt>
      <trkpt lat="43.21699" lon="5.46529">
        <ele>502.6</ele>
        <time>2013-10-09T09:31:04Z</time>
      </trkpt>
      <trkpt lat="43.21696" lon="5.46533">
        <ele>501</ele>
        <time>2013-10-09T09:31:11Z</time>
      </trkpt>
      <trkpt lat="43.21692" lon="5.46532">
        <ele>500</ele>
        <time>2013-10-09T09:31:18Z</time>
      </trkpt>
      <trkpt lat="43.2169" lon="5.46537">
        <ele>498.2</ele>
        <time>2013-10-09T09:31:29Z</time>
      </trkpt>
      <trkpt lat="43.21686" lon="5.46539">
        <ele>497.5</ele>
        <time>2013-10-09T09:31:43Z</time>
      </trkpt>
      <trkpt lat="43.21685" lon="5.4654">
        <ele>497.2</ele>
        <time>2013-10-09T09:31:44Z</time>
      </trkpt>
      <trkpt lat="43.2168" lon="5.46546">
        <ele>495</ele>
        <time>2013-10-09T09:31:51Z</time>
      </trkpt>
      <trkpt lat="43.21676" lon="5.46547">
        <ele>494.3</ele>
        <time>2013-10-09T09:31:55Z</time>
      </trkpt>
      <trkpt lat="43.21673" lon="5.4655">
        <ele>493.2</ele>
        <time>2013-10-09T09:31:59Z</time>
      </trkpt>
      <trkpt lat="43.21668" lon="5.4655">
        <ele>492.3</ele>
        <time>2013-10-09T09:32:04Z</time>
      </trkpt>
      <trkpt lat="43.21665" lon="5.46553">
        <ele>490.8</ele>
        <time>2013-10-09T09:32:09Z</time>
      </trkpt>
      <trkpt lat="43.21663" lon="5.46558">
        <ele>489.5</ele>
        <time>2013-10-09T09:32:13Z</time>
      </trkpt>
      <trkpt lat="43.2166" lon="5.46561">
        <ele>488.3</ele>
        <time>2013-10-09T09:32:17Z</time>
      </trkpt>
      <trkpt lat="43.21656" lon="5.46561">
        <ele>488</ele>
        <time>2013-10-09T09:32:22Z</time>
      </trkpt>
      <trkpt lat="43.21652" lon="5.46564">
        <ele>487</ele>
        <time>2013-10-09T09:32:26Z</time>
      </trkpt>
      <trkpt lat="43.21648" lon="5.46566">
        <ele>486.2</ele>
        <time>2013-10-09T09:32:30Z</time>
      </trkpt>
      <trkpt lat="43.21645" lon="5.46569">
        <ele>485.5</ele>
        <time>2013-10-09T09:32:35Z</time>
      </trkpt>
      <trkpt lat="43.21642" lon="5.46572">
        <ele>484.7</ele>
        <time>2013-10-09T09:32:39Z</time>
      </trkpt>
      <trkpt lat="43.21638" lon="5.46575">
        <ele>484.6</ele>
        <time>2013-10-09T09:32:43Z</time>
      </trkpt>
      <trkpt lat="43.21634" lon="5.46575">
        <ele>484</ele>
        <time>2013-10-09T09:32:48Z</time>
      </trkpt>
      <trkpt lat="43.21633" lon="5.46575">
        <ele>483.7</ele>
        <time>2013-10-09T09:32:49Z</time>
      </trkpt>
      <trkpt lat="43.21626" lon="5.46576">
        <ele>482.1</ele>
        <time>2013-10-09T09:32:59Z</time>
      </trkpt>
      <trkpt lat="43.21623" lon="5.46578">
        <ele>481.5</ele>
        <time>2013-10-09T09:33:05Z</time>
      </trkpt>
      <trkpt lat="43.21619" lon="5.4658">
        <ele>481.1</ele>
        <time>2013-10-09T09:33:11Z</time>
      </trkpt>
      <trkpt lat="43.21615" lon="5.46582">
        <ele>479.7</ele>
        <time>2013-10-09T09:33:17Z</time>
      </trkpt>
      <trkpt lat="43.21612" lon="5.46583">
        <ele>478.3</ele>
        <time>2013-10-09T09:33:22Z</time>
      </trkpt>
      <trkpt lat="43.21608" lon="5.46587">
        <ele>476.7</ele>
        <time>2013-10-09T09:33:28Z</time>
      </trkpt>
      <trkpt lat="43.21604" lon="5.46589">
        <ele>478.2</ele>
        <time>2013-10-09T09:34:21Z</time>
      </trkpt>
      <trkpt lat="43.21604" lon="5.46589">
        <ele>478.2</ele>
        <time>2013-10-09T09:34:22Z</time>
      </trkpt>
      <trkpt lat="43.21597" lon="5.46591">
        <ele>478.7</ele>
        <time>2013-10-09T09:35:15Z</time>
      </trkpt>
      <trkpt lat="43.21593" lon="5.4659">
        <ele>478.5</ele>
        <time>2013-10-09T09:35:21Z</time>
      </trkpt>
      <trkpt lat="43.21589" lon="5.46588">
        <ele>477.5</ele>
        <time>2013-10-09T09:35:29Z</time>
      </trkpt>
      <trkpt lat="43.21589" lon="5.46588">
        <ele>477.2</ele>
        <time>2013-10-09T09:35:30Z</time>
      </trkpt>
      <trkpt lat="43.21581" lon="5.46586">
        <ele>474.2</ele>
        <time>2013-10-09T09:35:46Z</time>
      </trkpt>
      <trkpt lat="43.21577" lon="5.46587">
        <ele>471.1</ele>
        <time>2013-10-09T09:35:59Z</time>
      </trkpt>
      <trkpt lat="43.21572" lon="5.46587">
        <ele>471.8</ele>
        <time>2013-10-09T09:36:20Z</time>
      </trkpt>
      <trkpt lat="43.21571" lon="5.46582">
        <ele>470.8</ele>
        <time>2013-10-09T09:36:46Z</time>
      </trkpt>
      <trkpt lat="43.21571" lon="5.46581">
        <ele>471.1</ele>
        <time>2013-10-09T09:36:47Z</time>
      </trkpt>
      <trkpt lat="43.21566" lon="5.46573">
        <ele>475.5</ele>
        <time>2013-10-09T09:37:00Z</time>
      </trkpt>
      <trkpt lat="43.21562" lon="5.46571">
        <ele>475.2</ele>
        <time>2013-10-09T09:37:06Z</time>
      </trkpt>
      <trkpt lat="43.21559" lon="5.46573">
        <ele>470</ele>
        <time>2013-10-09T09:37:09Z</time>
      </trkpt>
      <trkpt lat="43.21555" lon="5.46573">
        <ele>466.5</ele>
        <time>2013-10-09T09:37:15Z</time>
      </trkpt>
      <trkpt lat="43.21551" lon="5.46573">
        <ele>462.7</ele>
        <time>2013-10-09T09:37:26Z</time>
      </trkpt>
      <trkpt lat="43.21547" lon="5.46572">
        <ele>461.3</ele>
        <time>2013-10-09T09:37:36Z</time>
      </trkpt>
      <trkpt lat="43.21543" lon="5.46571">
        <ele>461.7</ele>
        <time>2013-10-09T09:38:03Z</time>
      </trkpt>
      <trkpt lat="43.21542" lon="5.46572">
        <ele>461.7</ele>
        <time>2013-10-09T09:38:04Z</time>
      </trkpt>
      <trkpt lat="43.21536" lon="5.46576">
        <ele>459.2</ele>
        <time>2013-10-09T09:38:16Z</time>
      </trkpt>
      <trkpt lat="43.21532" lon="5.46576">
        <ele>458.7</ele>
        <time>2013-10-09T09:38:22Z</time>
      </trkpt>
      <trkpt lat="43.21529" lon="5.46581">
        <ele>457.8</ele>
        <time>2013-10-09T09:38:28Z</time>
      </trkpt>
      <trkpt lat="43.21525" lon="5.4658">
        <ele>457.7</ele>
        <time>2013-10-09T09:38:52Z</time>
      </trkpt>
      <trkpt lat="43.21521" lon="5.46582">
        <ele>457.1</ele>
        <time>2013-10-09T09:38:57Z</time>
      </trkpt>
      <trkpt lat="43.21516" lon="5.46581">
        <ele>456.2</ele>
        <time>2013-10-09T09:39:02Z</time>
      </trkpt>
      <trkpt lat="43.21513" lon="5.4658">
        <ele>455.3</ele>
        <time>2013-10-09T09:39:06Z</time>
      </trkpt>
      <trkpt lat="43.21512" lon="5.46581">
        <ele>455.2</ele>
        <time>2013-10-09T09:39:07Z</time>
      </trkpt>
      <trkpt lat="43.21506" lon="5.46586">
        <ele>453.3</ele>
        <time>2013-10-09T09:39:14Z</time>
      </trkpt>
      <trkpt lat="43.21503" lon="5.46588">
        <ele>452.2</ele>
        <time>2013-10-09T09:39:18Z</time>
      </trkpt>
      <trkpt lat="43.215" lon="5.46592">
        <ele>450.7</ele>
        <time>2013-10-09T09:39:22Z</time>
      </trkpt>
      <trkpt lat="43.21497" lon="5.46596">
        <ele>448.7</ele>
        <time>2013-10-09T09:39:26Z</time>
      </trkpt>
      <trkpt lat="43.21494" lon="5.46598">
        <ele>447.3</ele>
        <time>2013-10-09T09:39:30Z</time>
      </trkpt>
      <trkpt lat="43.2149" lon="5.46602">
        <ele>446.7</ele>
        <time>2013-10-09T09:39:36Z</time>
      </trkpt>
      <trkpt lat="43.21487" lon="5.46605">
        <ele>447</ele>
        <time>2013-10-09T09:39:47Z</time>
      </trkpt>
      <trkpt lat="43.21483" lon="5.46601">
        <ele>448.7</ele>
        <time>2013-10-09T09:39:56Z</time>
      </trkpt>
      <trkpt lat="43.2148" lon="5.46601">
        <ele>444.7</ele>
        <time>2013-10-09T09:40:07Z</time>
      </trkpt>
      <trkpt lat="43.21478" lon="5.46601">
        <ele>445.2</ele>
        <time>2013-10-09T09:40:08Z</time>
      </trkpt>
      <trkpt lat="43.21473" lon="5.46596">
        <ele>448.5</ele>
        <time>2013-10-09T09:40:19Z</time>
      </trkpt>
      <trkpt lat="43.21471" lon="5.46591">
        <ele>448.8</ele>
        <time>2013-10-09T09:40:25Z</time>
      </trkpt>
      <trkpt lat="43.21467" lon="5.4659">
        <ele>445.7</ele>
        <time>2013-10-09T09:42:27Z</time>
      </trkpt>
      <trkpt lat="43.21466" lon="5.4659">
        <ele>445.7</ele>
        <time>2013-10-09T09:42:28Z</time>
      </trkpt>
      <trkpt lat="43.21462" lon="5.466">
        <ele>445.7</ele>
        <time>2013-10-09T09:42:56Z</time>
      </trkpt>
      <trkpt lat="43.21458" lon="5.46602">
        <ele>444.2</ele>
        <time>2013-10-09T09:43:06Z</time>
      </trkpt>
      <trkpt lat="43.21454" lon="5.46602">
        <ele>443.2</ele>
        <time>2013-10-09T09:43:11Z</time>
      </trkpt>
      <trkpt lat="43.2145" lon="5.46602">
        <ele>442.6</ele>
        <time>2013-10-09T09:43:15Z</time>
      </trkpt>
      <trkpt lat="43.21446" lon="5.46604">
        <ele>442.2</ele>
        <time>2013-10-09T09:43:21Z</time>
      </trkpt>
      <trkpt lat="43.21441" lon="5.46605">
        <ele>441.2</ele>
        <time>2013-10-09T09:43:32Z</time>
      </trkpt>
      <trkpt lat="43.21441" lon="5.46605">
        <ele>441.2</ele>
        <time>2013-10-09T09:43:33Z</time>
      </trkpt>
      <trkpt lat="43.21433" lon="5.46606">
        <ele>439.2</ele>
        <time>2013-10-09T09:43:43Z</time>
      </trkpt>
      <trkpt lat="43.2143" lon="5.46606">
        <ele>438.3</ele>
        <time>2013-10-09T09:43:47Z</time>
      </trkpt>
      <trkpt lat="43.21426" lon="5.46606">
        <ele>437.7</ele>
        <time>2013-10-09T09:43:54Z</time>
      </trkpt>
      <trkpt lat="43.21422" lon="5.46606">
        <ele>438.3</ele>
        <time>2013-10-09T09:43:58Z</time>
      </trkpt>
      <trkpt lat="43.21418" lon="5.46608">
        <ele>437.7</ele>
        <time>2013-10-09T09:44:02Z</time>
      </trkpt>
      <trkpt lat="43.21414" lon="5.46607">
        <ele>438.2</ele>
        <time>2013-10-09T09:44:06Z</time>
      </trkpt>
      <trkpt lat="43.2141" lon="5.46606">
        <ele>439.1</ele>
        <time>2013-10-09T09:44:11Z</time>
      </trkpt>
      <trkpt lat="43.21406" lon="5.46606">
        <ele>439.8</ele>
        <time>2013-10-09T09:44:15Z</time>
      </trkpt>
      <trkpt lat="43.21402" lon="5.46606">
        <ele>440.6</ele>
        <time>2013-10-09T09:44:19Z</time>
      </trkpt>
      <trkpt lat="43.21398" lon="5.46608">
        <ele>440.3</ele>
        <time>2013-10-09T09:44:24Z</time>
      </trkpt>
      <trkpt lat="43.21394" lon="5.46609">
        <ele>440.2</ele>
        <time>2013-10-09T09:44:28Z</time>
      </trkpt>
      <trkpt lat="43.2139" lon="5.4661">
        <ele>439.7</ele>
        <time>2013-10-09T09:44:33Z</time>
      </trkpt>
      <trkpt lat="43.21389" lon="5.46611">
        <ele>439.7</ele>
        <time>2013-10-09T09:44:34Z</time>
      </trkpt>
      <trkpt lat="43.21381" lon="5.46614">
        <ele>438.6</ele>
        <time>2013-10-09T09:44:43Z</time>
      </trkpt>
      <trkpt lat="43.21378" lon="5.46615">
        <ele>438.2</ele>
        <time>2013-10-09T09:44:47Z</time>
      </trkpt>
      <trkpt lat="43.21374" lon="5.46618">
        <ele>437.7</ele>
        <time>2013-10-09T09:44:52Z</time>
      </trkpt>
      <trkpt lat="43.2137" lon="5.46617">
        <ele>437.7</ele>
        <time>2013-10-09T09:44:57Z</time>
      </trkpt>
      <trkpt lat="43.21366" lon="5.46616">
        <ele>437.3</ele>
        <time>2013-10-09T09:45:01Z</time>
      </trkpt>
      <trkpt lat="43.21362" lon="5.46615">
        <ele>436.6</ele>
        <time>2013-10-09T09:45:06Z</time>
      </trkpt>
      <trkpt lat="43.21358" lon="5.46615">
        <ele>435.8</ele>
        <time>2013-10-09T09:45:10Z</time>
      </trkpt>
      <trkpt lat="43.21354" lon="5.46614">
        <ele>435.8</ele>
        <time>2013-10-09T09:45:14Z</time>
      </trkpt>
      <trkpt lat="43.21352" lon="5.46609">
        <ele>437.1</ele>
        <time>2013-10-09T09:45:20Z</time>
      </trkpt>
      <trkpt lat="43.21348" lon="5.46607">
        <ele>437.5</ele>
        <time>2013-10-09T09:45:26Z</time>
      </trkpt>
      <trkpt lat="43.21345" lon="5.46604">
        <ele>437.7</ele>
        <time>2013-10-09T09:45:32Z</time>
      </trkpt>
      <trkpt lat="43.21341" lon="5.466">
        <ele>441</ele>
        <time>2013-10-09T09:45:57Z</time>
      </trkpt>
      <trkpt lat="43.21341" lon="5.466">
        <ele>441.1</ele>
        <time>2013-10-09T09:45:58Z</time>
      </trkpt>
      <trkpt lat="43.21333" lon="5.46601">
        <ele>439.7</ele>
        <time>2013-10-09T09:46:41Z</time>
      </trkpt>
      <trkpt lat="43.21329" lon="5.46602">
        <ele>438.8</ele>
        <time>2013-10-09T09:46:49Z</time>
      </trkpt>
      <trkpt lat="43.21325" lon="5.46605">
        <ele>438.5</ele>
        <time>2013-10-09T09:46:55Z</time>
      </trkpt>
      <trkpt lat="43.21321" lon="5.46607">
        <ele>437.7</ele>
        <time>2013-10-09T09:47:02Z</time>
      </trkpt>
      <trkpt lat="43.21321" lon="5.46608">
        <ele>437.6</ele>
        <time>2013-10-09T09:47:03Z</time>
      </trkpt>
      <trkpt lat="43.21314" lon="5.46608">
        <ele>436.2</ele>
        <time>2013-10-09T09:47:15Z</time>
      </trkpt>
      <trkpt lat="43.2131" lon="5.46605">
        <ele>436.3</ele>
        <time>2013-10-09T09:47:20Z</time>
      </trkpt>
      <trkpt lat="43.21306" lon="5.46603">
        <ele>435.6</ele>
        <time>2013-10-09T09:47:26Z</time>
      </trkpt>
      <trkpt lat="43.21302" lon="5.466">
        <ele>434.7</ele>
        <time>2013-10-09T09:47:31Z</time>
      </trkpt>
      <trkpt lat="43.21298" lon="5.46598">
        <ele>436.2</ele>
        <time>2013-10-09T09:47:49Z</time>
      </trkpt>
      <trkpt lat="43.21294" lon="5.46597">
        <ele>435.6</ele>
        <time>2013-10-09T09:48:05Z</time>
      </trkpt>
      <trkpt lat="43.21293" lon="5.46597">
        <ele>435.2</ele>
        <time>2013-10-09T09:48:06Z</time>
      </trkpt>
      <trkpt lat="43.21289" lon="5.46601">
        <ele>428.2</ele>
        <time>2013-10-09T09:48:37Z</time>
      </trkpt>
      <trkpt lat="43.21287" lon="5.46606">
        <ele>428.6</ele>
        <time>2013-10-09T09:48:40Z</time>
      </trkpt>
      <trkpt lat="43.21283" lon="5.46607">
        <ele>429.5</ele>
        <time>2013-10-09T09:48:45Z</time>
      </trkpt>
      <trkpt lat="43.21279" lon="5.46607">
        <ele>429.5</ele>
        <time>2013-10-09T09:48:49Z</time>
      </trkpt>
      <trkpt lat="43.21276" lon="5.46608">
        <ele>429.3</ele>
        <time>2013-10-09T09:48:53Z</time>
      </trkpt>
      <trkpt lat="43.21271" lon="5.46609">
        <ele>428.5</ele>
        <time>2013-10-09T09:48:58Z</time>
      </trkpt>
      <trkpt lat="43.21269" lon="5.46613">
        <ele>427.3</ele>
        <time>2013-10-09T09:49:05Z</time>
      </trkpt>
      <trkpt lat="43.21267" lon="5.46618">
        <ele>426.2</ele>
        <time>2013-10-09T09:49:13Z</time>
      </trkpt>
      <trkpt lat="43.21267" lon="5.46618">
        <ele>426.3</ele>
        <time>2013-10-09T09:49:14Z</time>
      </trkpt>
      <trkpt lat="43.21264" lon="5.4662">
        <ele>424.6</ele>
        <time>2013-10-09T09:52:00Z</time>
      </trkpt>
      <trkpt lat="43.21264" lon="5.4662">
        <ele>424.7</ele>
        <time>2013-10-09T09:52:01Z</time>
      </trkpt>
      <trkpt lat="43.2126" lon="5.46619">
        <ele>419.7</ele>
        <time>2013-10-09T10:05:57Z</time>
      </trkpt>
      <trkpt lat="43.21264" lon="5.46621">
        <ele>428</ele>
        <time>2013-10-09T10:07:46Z</time>
      </trkpt>
      <trkpt lat="43.21269" lon="5.4662">
        <ele>429.3</ele>
        <time>2013-10-09T10:10:23Z</time>
      </trkpt>
      <trkpt lat="43.2126" lon="5.46618">
        <ele>418.6</ele>
        <time>2013-10-09T10:11:53Z</time>
      </trkpt>
      <trkpt lat="43.2126" lon="5.46619">
        <ele>418.2</ele>
        <time>2013-10-09T10:11:54Z</time>
      </trkpt>
      <trkpt lat="43.21268" lon="5.4662">
        <ele>430.2</ele>
        <time>2013-10-09T10:12:49Z</time>
      </trkpt>
      <trkpt lat="43.21273" lon="5.46618">
        <ele>429.1</ele>
        <time>2013-10-09T10:13:35Z</time>
      </trkpt>
      <trkpt lat="43.21273" lon="5.46618">
        <ele>429.2</ele>
        <time>2013-10-09T10:13:36Z</time>
      </trkpt>
      <trkpt lat="43.21265" lon="5.46621">
        <ele>424.7</ele>
        <time>2013-10-09T10:14:26Z</time>
      </trkpt>
      <trkpt lat="43.21269" lon="5.46618">
        <ele>426.8</ele>
        <time>2013-10-09T10:23:28Z</time>
      </trkpt>
      <trkpt lat="43.21269" lon="5.46618">
        <ele>426.7</ele>
        <time>2013-10-09T10:23:29Z</time>
      </trkpt>
      <trkpt lat="43.21273" lon="5.46617">
        <ele>420.2</ele>
        <time>2013-10-09T10:24:57Z</time>
      </trkpt>
    </trkseg>
  </trk>
  <trk>
    <name><![CDATA[Mont Puget_2]]></name>
    <trkseg>
      <trkpt lat="43.21268" lon="5.46614">
        <ele>410.8</ele>
        <time>2013-10-09T10:31:56Z</time>
      </trkpt>
      <trkpt lat="43.21268" lon="5.46614">
        <ele>411.1</ele>
        <time>2013-10-09T10:31:57Z</time>
      </trkpt>
      <trkpt lat="43.21269" lon="5.46621">
        <ele>422.1</ele>
        <time>2013-10-09T10:36:23Z</time>
      </trkpt>
      <trkpt lat="43.21272" lon="5.46616">
        <ele>421.5</ele>
        <time>2013-10-09T10:50:53Z</time>
      </trkpt>
      <trkpt lat="43.21278" lon="5.4661">
        <ele>423</ele>
        <time>2013-10-09T10:51:26Z</time>
      </trkpt>
      <trkpt lat="43.21282" lon="5.46609">
        <ele>422.7</ele>
        <time>2013-10-09T10:51:34Z</time>
      </trkpt>
      <trkpt lat="43.21286" lon="5.46607">
        <ele>424.2</ele>
        <time>2013-10-09T10:53:17Z</time>
      </trkpt>
      <trkpt lat="43.21286" lon="5.46607">
        <ele>424.2</ele>
        <time>2013-10-09T10:53:18Z</time>
      </trkpt>
      <trkpt lat="43.21286" lon="5.46609">
        <ele>425.6</ele>
        <time>2013-10-09T10:55:54Z</time>
      </trkpt>
      <trkpt lat="43.21287" lon="5.46609">
        <ele>425.6</ele>
        <time>2013-10-09T10:55:55Z</time>
      </trkpt>
      <trkpt lat="43.21278" lon="5.46608">
        <ele>425.6</ele>
        <time>2013-10-09T10:56:10Z</time>
      </trkpt>
      <trkpt lat="43.21277" lon="5.46606">
        <ele>425.7</ele>
        <time>2013-10-09T10:56:45Z</time>
      </trkpt>
      <trkpt lat="43.21274" lon="5.46606">
        <ele>426.2</ele>
        <time>2013-10-09T10:56:46Z</time>
      </trkpt>
      <trkpt lat="43.2127" lon="5.46606">
        <ele>426.7</ele>
        <time>2013-10-09T10:56:47Z</time>
      </trkpt>
      <trkpt lat="43.21274" lon="5.46606">
        <ele>425.8</ele>
        <time>2013-10-09T10:57:06Z</time>
      </trkpt>
      <trkpt lat="43.21275" lon="5.46606">
        <ele>425.7</ele>
        <time>2013-10-09T10:57:07Z</time>
      </trkpt>
      <trkpt lat="43.21282" lon="5.46609">
        <ele>427.3</ele>
        <time>2013-10-09T10:57:25Z</time>
      </trkpt>
      <trkpt lat="43.21286" lon="5.46609">
        <ele>427.7</ele>
        <time>2013-10-09T10:59:41Z</time>
      </trkpt>
      <trkpt lat="43.21287" lon="5.46609">
        <ele>427.7</ele>
        <time>2013-10-09T10:59:42Z</time>
      </trkpt>
      <trkpt lat="43.21282" lon="5.46609">
        <ele>426.6</ele>
        <time>2013-10-09T11:01:35Z</time>
      </trkpt>
      <trkpt lat="43.21282" lon="5.4661">
        <ele>425</ele>
        <time>2013-10-09T11:03:05Z</time>
      </trkpt>
      <trkpt lat="43.21283" lon="5.4661">
        <ele>424.7</ele>
        <time>2013-10-09T11:03:06Z</time>
      </trkpt>
      <trkpt lat="43.21282" lon="5.46608">
        <ele>426.2</ele>
        <time>2013-10-09T11:04:12Z</time>
      </trkpt>
      <trkpt lat="43.21282" lon="5.46608">
        <ele>426.3</ele>
        <time>2013-10-09T11:04:13Z</time>
      </trkpt>
      <trkpt lat="43.21282" lon="5.46607">
        <ele>424</ele>
        <time>2013-10-09T11:06:28Z</time>
      </trkpt>
      <trkpt lat="43.21283" lon="5.46607">
        <ele>424</ele>
        <time>2013-10-09T11:06:29Z</time>
      </trkpt>
      <trkpt lat="43.21274" lon="5.46606">
        <ele>423.2</ele>
        <time>2013-10-09T11:07:29Z</time>
      </trkpt>
      <trkpt lat="43.21273" lon="5.46605">
        <ele>422.7</ele>
        <time>2013-10-09T11:07:30Z</time>
      </trkpt>
      <trkpt lat="43.21278" lon="5.46605">
        <ele>422.8</ele>
        <time>2013-10-09T11:10:52Z</time>
      </trkpt>
      <trkpt lat="43.21279" lon="5.46603">
        <ele>424.2</ele>
        <time>2013-10-09T11:12:08Z</time>
      </trkpt>
      <trkpt lat="43.21278" lon="5.46603">
        <ele>424.2</ele>
        <time>2013-10-09T11:12:09Z</time>
      </trkpt>
      <trkpt lat="43.21271" lon="5.46598">
        <ele>431.6</ele>
        <time>2013-10-09T11:13:12Z</time>
      </trkpt>
      <trkpt lat="43.2127" lon="5.46598">
        <ele>431.8</ele>
        <time>2013-10-09T11:13:13Z</time>
      </trkpt>
      <trkpt lat="43.21277" lon="5.46606">
        <ele>433</ele>
        <time>2013-10-09T11:13:46Z</time>
      </trkpt>
      <trkpt lat="43.21281" lon="5.46608">
        <ele>430.3</ele>
        <time>2013-10-09T11:14:01Z</time>
      </trkpt>
      <trkpt lat="43.21285" lon="5.46606">
        <ele>431</ele>
        <time>2013-10-09T11:14:23Z</time>
      </trkpt>
      <trkpt lat="43.21286" lon="5.46606">
        <ele>430.7</ele>
        <time>2013-10-09T11:14:24Z</time>
      </trkpt>
      <trkpt lat="43.21293" lon="5.46606">
        <ele>429.2</ele>
        <time>2013-10-09T11:14:35Z</time>
      </trkpt>
      <trkpt lat="43.21297" lon="5.46605">
        <ele>426</ele>
        <time>2013-10-09T11:14:44Z</time>
      </trkpt>
      <trkpt lat="43.21299" lon="5.46604">
        <ele>426.1</ele>
        <time>2013-10-09T11:14:55Z</time>
      </trkpt>
      <trkpt lat="43.21302" lon="5.46601">
        <ele>427</ele>
        <time>2013-10-09T11:15:00Z</time>
      </trkpt>
      <trkpt lat="43.21306" lon="5.466">
        <ele>427.7</ele>
        <time>2013-10-09T11:15:04Z</time>
      </trkpt>
      <trkpt lat="43.2131" lon="5.46599">
        <ele>427.7</ele>
        <time>2013-10-09T11:15:14Z</time>
      </trkpt>
      <trkpt lat="43.21307" lon="5.46597">
        <ele>428.2</ele>
        <time>2013-10-09T11:15:24Z</time>
      </trkpt>
      <trkpt lat="43.21306" lon="5.46597">
        <ele>428.8</ele>
        <time>2013-10-09T11:15:25Z</time>
      </trkpt>
      <trkpt lat="43.21308" lon="5.46586">
        <ele>423.6</ele>
        <time>2013-10-09T11:16:02Z</time>
      </trkpt>
      <trkpt lat="43.21312" lon="5.46583">
        <ele>422</ele>
        <time>2013-10-09T11:16:24Z</time>
      </trkpt>
      <trkpt lat="43.21316" lon="5.46584">
        <ele>419.1</ele>
        <time>2013-10-09T11:16:32Z</time>
      </trkpt>
      <trkpt lat="43.21317" lon="5.46584">
        <ele>418.7</ele>
        <time>2013-10-09T11:16:33Z</time>
      </trkpt>
      <trkpt lat="43.21323" lon="5.4658">
        <ele>421.6</ele>
        <time>2013-10-09T11:16:44Z</time>
      </trkpt>
      <trkpt lat="43.21328" lon="5.46579">
        <ele>422.5</ele>
        <time>2013-10-09T11:16:48Z</time>
      </trkpt>
      <trkpt lat="43.21331" lon="5.46576">
        <ele>423</ele>
        <time>2013-10-09T11:16:54Z</time>
      </trkpt>
      <trkpt lat="43.21334" lon="5.46572">
        <ele>422.5</ele>
        <time>2013-10-09T11:16:59Z</time>
      </trkpt>
      <trkpt lat="43.21336" lon="5.46568">
        <ele>422.1</ele>
        <time>2013-10-09T11:17:04Z</time>
      </trkpt>
      <trkpt lat="43.21339" lon="5.46564">
        <ele>422.3</ele>
        <time>2013-10-09T11:17:12Z</time>
      </trkpt>
      <trkpt lat="43.21342" lon="5.4656">
        <ele>424.8</ele>
        <time>2013-10-09T11:17:38Z</time>
      </trkpt>
      <trkpt lat="43.21342" lon="5.46559">
        <ele>424.6</ele>
        <time>2013-10-09T11:17:39Z</time>
      </trkpt>
      <trkpt lat="43.21346" lon="5.46551">
        <ele>422.5</ele>
        <time>2013-10-09T11:17:48Z</time>
      </trkpt>
      <trkpt lat="43.21347" lon="5.46546">
        <ele>421.7</ele>
        <time>2013-10-09T11:17:52Z</time>
      </trkpt>
      <trkpt lat="43.21348" lon="5.4654">
        <ele>420.5</ele>
        <time>2013-10-09T11:17:57Z</time>
      </trkpt>
      <trkpt lat="43.21349" lon="5.46535">
        <ele>419.5</ele>
        <time>2013-10-09T11:18:01Z</time>
      </trkpt>
      <trkpt lat="43.21351" lon="5.4653">
        <ele>418.7</ele>
        <time>2013-10-09T11:18:06Z</time>
      </trkpt>
      <trkpt lat="43.21354" lon="5.46526">
        <ele>419</ele>
        <time>2013-10-09T11:18:12Z</time>
      </trkpt>
      <trkpt lat="43.21357" lon="5.46523">
        <ele>420</ele>
        <time>2013-10-09T11:19:19Z</time>
      </trkpt>
      <trkpt lat="43.21358" lon="5.46523">
        <ele>419.7</ele>
        <time>2013-10-09T11:19:20Z</time>
      </trkpt>
      <trkpt lat="43.21364" lon="5.46528">
        <ele>418</ele>
        <time>2013-10-09T11:19:28Z</time>
      </trkpt>
      <trkpt lat="43.21368" lon="5.46531">
        <ele>414.7</ele>
        <time>2013-10-09T11:19:34Z</time>
      </trkpt>
      <trkpt lat="43.21372" lon="5.46528">
        <ele>408.8</ele>
        <time>2013-10-09T11:19:48Z</time>
      </trkpt>
      <trkpt lat="43.21372" lon="5.46522">
        <ele>409.7</ele>
        <time>2013-10-09T11:19:56Z</time>
      </trkpt>
      <trkpt lat="43.21375" lon="5.46518">
        <ele>407.7</ele>
        <time>2013-10-09T11:20:09Z</time>
      </trkpt>
      <trkpt lat="43.21378" lon="5.46515">
        <ele>405.8</ele>
        <time>2013-10-09T11:20:24Z</time>
      </trkpt>
      <trkpt lat="43.2138" lon="5.46515">
        <ele>406.2</ele>
        <time>2013-10-09T11:20:25Z</time>
      </trkpt>
      <trkpt lat="43.21386" lon="5.46517">
        <ele>403.2</ele>
        <time>2013-10-09T11:20:36Z</time>
      </trkpt>
      <trkpt lat="43.2139" lon="5.46518">
        <ele>402.6</ele>
        <time>2013-10-09T11:20:40Z</time>
      </trkpt>
      <trkpt lat="43.21394" lon="5.46517">
        <ele>401.2</ele>
        <time>2013-10-09T11:20:45Z</time>
      </trkpt>
      <trkpt lat="43.21398" lon="5.46516">
        <ele>400.8</ele>
        <time>2013-10-09T11:20:51Z</time>
      </trkpt>
      <trkpt lat="43.21402" lon="5.46514">
        <ele>401.6</ele>
        <time>2013-10-09T11:20:54Z</time>
      </trkpt>
      <trkpt lat="43.21405" lon="5.46515">
        <ele>401.6</ele>
        <time>2013-10-09T11:20:57Z</time>
      </trkpt>
      <trkpt lat="43.21409" lon="5.46515">
        <ele>401</ele>
        <time>2013-10-09T11:21:00Z</time>
      </trkpt>
      <trkpt lat="43.21413" lon="5.46515">
        <ele>400.2</ele>
        <time>2013-10-09T11:21:04Z</time>
      </trkpt>
      <trkpt lat="43.21417" lon="5.46512">
        <ele>400.2</ele>
        <time>2013-10-09T11:21:19Z</time>
      </trkpt>
      <trkpt lat="43.21421" lon="5.46511">
        <ele>399.1</ele>
        <time>2013-10-09T11:21:27Z</time>
      </trkpt>
      <trkpt lat="43.21422" lon="5.46511">
        <ele>398.7</ele>
        <time>2013-10-09T11:21:28Z</time>
      </trkpt>
      <trkpt lat="43.21427" lon="5.46504">
        <ele>393.2</ele>
        <time>2013-10-09T11:22:11Z</time>
      </trkpt>
      <trkpt lat="43.21431" lon="5.46502">
        <ele>390.2</ele>
        <time>2013-10-09T11:22:27Z</time>
      </trkpt>
      <trkpt lat="43.21429" lon="5.46498">
        <ele>388.7</ele>
        <time>2013-10-09T11:22:53Z</time>
      </trkpt>
      <trkpt lat="43.21428" lon="5.46497">
        <ele>388.8</ele>
        <time>2013-10-09T11:22:54Z</time>
      </trkpt>
      <trkpt lat="43.2143" lon="5.46488">
        <ele>383.7</ele>
        <time>2013-10-09T11:23:10Z</time>
      </trkpt>
      <trkpt lat="43.21431" lon="5.46482">
        <ele>383.6</ele>
        <time>2013-10-09T11:23:15Z</time>
      </trkpt>
      <trkpt lat="43.21435" lon="5.46479">
        <ele>384.5</ele>
        <time>2013-10-09T11:23:30Z</time>
      </trkpt>
      <trkpt lat="43.21438" lon="5.46476">
        <ele>384.5</ele>
        <time>2013-10-09T11:23:39Z</time>
      </trkpt>
      <trkpt lat="43.21442" lon="5.46476">
        <ele>385.1</ele>
        <time>2013-10-09T11:23:41Z</time>
      </trkpt>
      <trkpt lat="43.21445" lon="5.46476">
        <ele>384</ele>
        <time>2013-10-09T11:23:46Z</time>
      </trkpt>
      <trkpt lat="43.21448" lon="5.46475">
        <ele>383.3</ele>
        <time>2013-10-09T11:23:50Z</time>
      </trkpt>
      <trkpt lat="43.21452" lon="5.46474">
        <ele>384</ele>
        <time>2013-10-09T11:23:54Z</time>
      </trkpt>
      <trkpt lat="43.21453" lon="5.46474">
        <ele>384.2</ele>
        <time>2013-10-09T11:23:55Z</time>
      </trkpt>
      <trkpt lat="43.21459" lon="5.46468">
        <ele>382.2</ele>
        <time>2013-10-09T11:24:08Z</time>
      </trkpt>
      <trkpt lat="43.21462" lon="5.46465">
        <ele>383.2</ele>
        <time>2013-10-09T11:24:16Z</time>
      </trkpt>
      <trkpt lat="43.21466" lon="5.46462">
        <ele>383.1</ele>
        <time>2013-10-09T11:24:23Z</time>
      </trkpt>
      <trkpt lat="43.21469" lon="5.46457">
        <ele>378.8</ele>
        <time>2013-10-09T11:24:35Z</time>
      </trkpt>
      <trkpt lat="43.21469" lon="5.46452">
        <ele>377.6</ele>
        <time>2013-10-09T11:24:40Z</time>
      </trkpt>
      <trkpt lat="43.2147" lon="5.46446">
        <ele>376.3</ele>
        <time>2013-10-09T11:24:46Z</time>
      </trkpt>
      <trkpt lat="43.21467" lon="5.46443">
        <ele>375.5</ele>
        <time>2013-10-09T11:24:51Z</time>
      </trkpt>
      <trkpt lat="43.21464" lon="5.46438">
        <ele>375</ele>
        <time>2013-10-09T11:24:58Z</time>
      </trkpt>
      <trkpt lat="43.21464" lon="5.46438">
        <ele>374.7</ele>
        <time>2013-10-09T11:24:59Z</time>
      </trkpt>
      <trkpt lat="43.21457" lon="5.46432">
        <ele>375.7</ele>
        <time>2013-10-09T11:25:06Z</time>
      </trkpt>
      <trkpt lat="43.21454" lon="5.46432">
        <ele>378.7</ele>
        <time>2013-10-09T11:25:13Z</time>
      </trkpt>
      <trkpt lat="43.2145" lon="5.46429">
        <ele>379.2</ele>
        <time>2013-10-09T11:25:18Z</time>
      </trkpt>
      <trkpt lat="43.21448" lon="5.46425">
        <ele>376.3</ele>
        <time>2013-10-09T11:25:22Z</time>
      </trkpt>
      <trkpt lat="43.21447" lon="5.46419">
        <ele>373.5</ele>
        <time>2013-10-09T11:25:27Z</time>
      </trkpt>
      <trkpt lat="43.21448" lon="5.46413">
        <ele>369.7</ele>
        <time>2013-10-09T11:25:34Z</time>
      </trkpt>
      <trkpt lat="43.21449" lon="5.46408">
        <ele>367.5</ele>
        <time>2013-10-09T11:25:39Z</time>
      </trkpt>
      <trkpt lat="43.21448" lon="5.46405">
        <ele>368.1</ele>
        <time>2013-10-09T11:25:40Z</time>
      </trkpt>
      <trkpt lat="43.21446" lon="5.464">
        <ele>368.8</ele>
        <time>2013-10-09T11:25:42Z</time>
      </trkpt>
      <trkpt lat="43.21445" lon="5.46395">
        <ele>369.5</ele>
        <time>2013-10-09T11:25:45Z</time>
      </trkpt>
      <trkpt lat="43.21444" lon="5.4639">
        <ele>369.7</ele>
        <time>2013-10-09T11:25:49Z</time>
      </trkpt>
      <trkpt lat="43.21444" lon="5.46384">
        <ele>370</ele>
        <time>2013-10-09T11:25:58Z</time>
      </trkpt>
      <trkpt lat="43.21445" lon="5.46378">
        <ele>369.3</ele>
        <time>2013-10-09T11:26:06Z</time>
      </trkpt>
      <trkpt lat="43.21447" lon="5.46378">
        <ele>369.7</ele>
        <time>2013-10-09T11:26:07Z</time>
      </trkpt>
      <trkpt lat="43.21448" lon="5.46368">
        <ele>368</ele>
        <time>2013-10-09T11:26:15Z</time>
      </trkpt>
      <trkpt lat="43.21449" lon="5.46363">
        <ele>367.2</ele>
        <time>2013-10-09T11:26:19Z</time>
      </trkpt>
      <trkpt lat="43.21451" lon="5.46358">
        <ele>367.6</ele>
        <time>2013-10-09T11:26:23Z</time>
      </trkpt>
      <trkpt lat="43.21452" lon="5.46353">
        <ele>366.7</ele>
        <time>2013-10-09T11:26:27Z</time>
      </trkpt>
      <trkpt lat="43.21454" lon="5.46349">
        <ele>366.2</ele>
        <time>2013-10-09T11:26:31Z</time>
      </trkpt>
      <trkpt lat="43.21456" lon="5.46344">
        <ele>365.6</ele>
        <time>2013-10-09T11:26:35Z</time>
      </trkpt>
      <trkpt lat="43.21459" lon="5.46342">
        <ele>366.7</ele>
        <time>2013-10-09T11:26:37Z</time>
      </trkpt>
      <trkpt lat="43.21462" lon="5.46339">
        <ele>367.5</ele>
        <time>2013-10-09T11:26:40Z</time>
      </trkpt>
      <trkpt lat="43.21465" lon="5.46338">
        <ele>368</ele>
        <time>2013-10-09T11:26:41Z</time>
      </trkpt>
      <trkpt lat="43.21469" lon="5.46336">
        <ele>369</ele>
        <time>2013-10-09T11:26:44Z</time>
      </trkpt>
      <trkpt lat="43.21469" lon="5.4633">
        <ele>369.5</ele>
        <time>2013-10-09T11:26:51Z</time>
      </trkpt>
      <trkpt lat="43.21465" lon="5.46327">
        <ele>368.2</ele>
        <time>2013-10-09T11:26:57Z</time>
      </trkpt>
      <trkpt lat="43.21461" lon="5.46325">
        <ele>366.8</ele>
        <time>2013-10-09T11:27:02Z</time>
      </trkpt>
      <trkpt lat="43.21458" lon="5.46322">
        <ele>366.5</ele>
        <time>2013-10-09T11:27:06Z</time>
      </trkpt>
      <trkpt lat="43.21455" lon="5.46318">
        <ele>366.1</ele>
        <time>2013-10-09T11:27:10Z</time>
      </trkpt>
      <trkpt lat="43.21454" lon="5.46316">
        <ele>366.1</ele>
        <time>2013-10-09T11:27:11Z</time>
      </trkpt>
      <trkpt lat="43.21449" lon="5.46309">
        <ele>364.3</ele>
        <time>2013-10-09T11:27:19Z</time>
      </trkpt>
      <trkpt lat="43.21448" lon="5.46304">
        <ele>361.1</ele>
        <time>2013-10-09T11:27:28Z</time>
      </trkpt>
      <trkpt lat="43.21447" lon="5.46298">
        <ele>359.5</ele>
        <time>2013-10-09T11:27:35Z</time>
      </trkpt>
      <trkpt lat="43.21445" lon="5.46293">
        <ele>360.3</ele>
        <time>2013-10-09T11:27:48Z</time>
      </trkpt>
      <trkpt lat="43.21444" lon="5.46288">
        <ele>359.5</ele>
        <time>2013-10-09T11:28:00Z</time>
      </trkpt>
      <trkpt lat="43.21443" lon="5.46282">
        <ele>360.2</ele>
        <time>2013-10-09T11:28:04Z</time>
      </trkpt>
      <trkpt lat="43.21442" lon="5.46276">
        <ele>358.7</ele>
        <time>2013-10-09T11:28:10Z</time>
      </trkpt>
      <trkpt lat="43.21442" lon="5.46271">
        <ele>357.8</ele>
        <time>2013-10-09T11:28:15Z</time>
      </trkpt>
      <trkpt lat="43.21443" lon="5.4627">
        <ele>357.7</ele>
        <time>2013-10-09T11:28:16Z</time>
      </trkpt>
      <trkpt lat="43.21443" lon="5.4626">
        <ele>356.5</ele>
        <time>2013-10-09T11:28:24Z</time>
      </trkpt>
      <trkpt lat="43.21443" lon="5.46256">
        <ele>355.7</ele>
        <time>2013-10-09T11:28:28Z</time>
      </trkpt>
      <trkpt lat="43.21444" lon="5.4625">
        <ele>355.6</ele>
        <time>2013-10-09T11:28:32Z</time>
      </trkpt>
      <trkpt lat="43.21444" lon="5.46244">
        <ele>355.6</ele>
        <time>2013-10-09T11:28:36Z</time>
      </trkpt>
      <trkpt lat="43.21442" lon="5.46241">
        <ele>356.7</ele>
        <time>2013-10-09T11:28:37Z</time>
      </trkpt>
      <trkpt lat="43.21441" lon="5.46237">
        <ele>357.7</ele>
        <time>2013-10-09T11:28:39Z</time>
      </trkpt>
      <trkpt lat="43.2144" lon="5.46232">
        <ele>358.1</ele>
        <time>2013-10-09T11:28:42Z</time>
      </trkpt>
      <trkpt lat="43.21439" lon="5.46227">
        <ele>358.1</ele>
        <time>2013-10-09T11:28:46Z</time>
      </trkpt>
      <trkpt lat="43.2144" lon="5.46221">
        <ele>358</ele>
        <time>2013-10-09T11:28:52Z</time>
      </trkpt>
      <trkpt lat="43.21444" lon="5.4622">
        <ele>350.3</ele>
        <time>2013-10-09T11:29:18Z</time>
      </trkpt>
      <trkpt lat="43.21444" lon="5.4622">
        <ele>350.2</ele>
        <time>2013-10-09T11:29:19Z</time>
      </trkpt>
      <trkpt lat="43.21439" lon="5.46211">
        <ele>354.1</ele>
        <time>2013-10-09T11:29:38Z</time>
      </trkpt>
      <trkpt lat="43.2144" lon="5.46206">
        <ele>353.6</ele>
        <time>2013-10-09T11:29:43Z</time>
      </trkpt>
      <trkpt lat="43.21443" lon="5.46201">
        <ele>353.6</ele>
        <time>2013-10-09T11:29:47Z</time>
      </trkpt>
      <trkpt lat="43.21444" lon="5.46195">
        <ele>354.1</ele>
        <time>2013-10-09T11:29:52Z</time>
      </trkpt>
      <trkpt lat="43.21447" lon="5.46191">
        <ele>354.6</ele>
        <time>2013-10-09T11:29:58Z</time>
      </trkpt>
      <trkpt lat="43.2145" lon="5.46192">
        <ele>354.5</ele>
        <time>2013-10-09T11:30:01Z</time>
      </trkpt>
      <trkpt lat="43.21453" lon="5.46192">
        <ele>354.7</ele>
        <time>2013-10-09T11:30:04Z</time>
      </trkpt>
      <trkpt lat="43.21456" lon="5.46192">
        <ele>355.1</ele>
        <time>2013-10-09T11:30:06Z</time>
      </trkpt>
      <trkpt lat="43.2146" lon="5.46192">
        <ele>355</ele>
        <time>2013-10-09T11:30:09Z</time>
      </trkpt>
      <trkpt lat="43.21463" lon="5.46189">
        <ele>356.7</ele>
        <time>2013-10-09T11:30:14Z</time>
      </trkpt>
      <trkpt lat="43.21466" lon="5.46185">
        <ele>357.2</ele>
        <time>2013-10-09T11:30:21Z</time>
      </trkpt>
      <trkpt lat="43.21467" lon="5.46184">
        <ele>357.2</ele>
        <time>2013-10-09T11:30:22Z</time>
      </trkpt>
      <trkpt lat="43.21473" lon="5.46181">
        <ele>359.2</ele>
        <time>2013-10-09T11:30:30Z</time>
      </trkpt>
      <trkpt lat="43.21476" lon="5.46181">
        <ele>360.2</ele>
        <time>2013-10-09T11:30:33Z</time>
      </trkpt>
      <trkpt lat="43.2148" lon="5.46178">
        <ele>360.5</ele>
        <time>2013-10-09T11:30:39Z</time>
      </trkpt>
      <trkpt lat="43.21483" lon="5.46175">
        <ele>358.8</ele>
        <time>2013-10-09T11:30:44Z</time>
      </trkpt>
      <trkpt lat="43.21487" lon="5.46174">
        <ele>360.6</ele>
        <time>2013-10-09T11:30:47Z</time>
      </trkpt>
      <trkpt lat="43.21491" lon="5.46173">
        <ele>362</ele>
        <time>2013-10-09T11:30:51Z</time>
      </trkpt>
      <trkpt lat="43.21494" lon="5.4617">
        <ele>361.2</ele>
        <time>2013-10-09T11:30:56Z</time>
      </trkpt>
      <trkpt lat="43.21499" lon="5.46168">
        <ele>360.2</ele>
        <time>2013-10-09T11:31:01Z</time>
      </trkpt>
      <trkpt lat="43.21503" lon="5.46169">
        <ele>359.8</ele>
        <time>2013-10-09T11:31:06Z</time>
      </trkpt>
      <trkpt lat="43.21506" lon="5.46165">
        <ele>359.7</ele>
        <time>2013-10-09T11:31:21Z</time>
      </trkpt>
      <trkpt lat="43.2151" lon="5.46161">
        <ele>364</ele>
        <time>2013-10-09T11:31:32Z</time>
      </trkpt>
      <trkpt lat="43.21512" lon="5.46161">
        <ele>363.5</ele>
        <time>2013-10-09T11:31:33Z</time>
      </trkpt>
      <trkpt lat="43.21517" lon="5.46157">
        <ele>361.5</ele>
        <time>2013-10-09T11:31:39Z</time>
      </trkpt>
      <trkpt lat="43.21515" lon="5.46152">
        <ele>362.1</ele>
        <time>2013-10-09T11:31:41Z</time>
      </trkpt>
      <trkpt lat="43.21515" lon="5.46146">
        <ele>361.2</ele>
        <time>2013-10-09T11:31:45Z</time>
      </trkpt>
      <trkpt lat="43.21515" lon="5.46141">
        <ele>360.6</ele>
        <time>2013-10-09T11:31:49Z</time>
      </trkpt>
      <trkpt lat="43.21516" lon="5.46137">
        <ele>360</ele>
        <time>2013-10-09T11:31:52Z</time>
      </trkpt>
      <trkpt lat="43.21519" lon="5.46135">
        <ele>360.2</ele>
        <time>2013-10-09T11:31:54Z</time>
      </trkpt>
      <trkpt lat="43.21522" lon="5.46131">
        <ele>359.7</ele>
        <time>2013-10-09T11:31:57Z</time>
      </trkpt>
      <trkpt lat="43.21525" lon="5.46128">
        <ele>358.8</ele>
        <time>2013-10-09T11:32:00Z</time>
      </trkpt>
      <trkpt lat="43.21527" lon="5.46124">
        <ele>358.3</ele>
        <time>2013-10-09T11:32:03Z</time>
      </trkpt>
      <trkpt lat="43.21529" lon="5.46119">
        <ele>358.2</ele>
        <time>2013-10-09T11:32:07Z</time>
      </trkpt>
      <trkpt lat="43.21528" lon="5.46114">
        <ele>359.1</ele>
        <time>2013-10-09T11:32:10Z</time>
      </trkpt>
      <trkpt lat="43.21529" lon="5.46108">
        <ele>359.3</ele>
        <time>2013-10-09T11:32:16Z</time>
      </trkpt>
      <trkpt lat="43.2153" lon="5.46103">
        <ele>357.6</ele>
        <time>2013-10-09T11:32:24Z</time>
      </trkpt>
      <trkpt lat="43.21528" lon="5.46098">
        <ele>359</ele>
        <time>2013-10-09T11:32:27Z</time>
      </trkpt>
      <trkpt lat="43.21527" lon="5.46092">
        <ele>360.2</ele>
        <time>2013-10-09T11:32:31Z</time>
      </trkpt>
      <trkpt lat="43.21526" lon="5.46086">
        <ele>360.6</ele>
        <time>2013-10-09T11:32:36Z</time>
      </trkpt>
      <trkpt lat="43.21526" lon="5.46085">
        <ele>360.5</ele>
        <time>2013-10-09T11:32:37Z</time>
      </trkpt>
      <trkpt lat="43.21525" lon="5.46075">
        <ele>360</ele>
        <time>2013-10-09T11:32:45Z</time>
      </trkpt>
      <trkpt lat="43.21526" lon="5.4607">
        <ele>359.3</ele>
        <time>2013-10-09T11:32:50Z</time>
      </trkpt>
      <trkpt lat="43.21529" lon="5.46067">
        <ele>359.7</ele>
        <time>2013-10-09T11:32:53Z</time>
      </trkpt>
      <trkpt lat="43.21531" lon="5.46062">
        <ele>359.3</ele>
        <time>2013-10-09T11:32:59Z</time>
      </trkpt>
      <trkpt lat="43.21532" lon="5.46056">
        <ele>360.3</ele>
        <time>2013-10-09T11:33:05Z</time>
      </trkpt>
      <trkpt lat="43.21533" lon="5.46051">
        <ele>360.7</ele>
        <time>2013-10-09T11:33:19Z</time>
      </trkpt>
      <trkpt lat="43.21537" lon="5.46047">
        <ele>366.3</ele>
        <time>2013-10-09T11:34:35Z</time>
      </trkpt>
      <trkpt lat="43.21538" lon="5.46047">
        <ele>366.5</ele>
        <time>2013-10-09T11:34:36Z</time>
      </trkpt>
      <trkpt lat="43.21545" lon="5.46051">
        <ele>365.2</ele>
        <time>2013-10-09T11:34:46Z</time>
      </trkpt>
      <trkpt lat="43.21549" lon="5.46053">
        <ele>365.6</ele>
        <time>2013-10-09T11:34:53Z</time>
      </trkpt>
      <trkpt lat="43.21553" lon="5.46053">
        <ele>366.3</ele>
        <time>2013-10-09T11:34:59Z</time>
      </trkpt>
      <trkpt lat="43.21557" lon="5.46054">
        <ele>366.6</ele>
        <time>2013-10-09T11:35:03Z</time>
      </trkpt>
      <trkpt lat="43.2156" lon="5.46058">
        <ele>364.8</ele>
        <time>2013-10-09T11:35:08Z</time>
      </trkpt>
      <trkpt lat="43.21564" lon="5.46061">
        <ele>359.2</ele>
        <time>2013-10-09T11:35:18Z</time>
      </trkpt>
      <trkpt lat="43.21568" lon="5.46062">
        <ele>359.5</ele>
        <time>2013-10-09T11:35:37Z</time>
      </trkpt>
      <trkpt lat="43.2157" lon="5.46062">
        <ele>360</ele>
        <time>2013-10-09T11:35:38Z</time>
      </trkpt>
      <trkpt lat="43.21575" lon="5.46064">
        <ele>359.6</ele>
        <time>2013-10-09T11:35:55Z</time>
      </trkpt>
      <trkpt lat="43.2158" lon="5.46065">
        <ele>362.5</ele>
        <time>2013-10-09T11:36:16Z</time>
      </trkpt>
      <trkpt lat="43.21584" lon="5.46066">
        <ele>359.7</ele>
        <time>2013-10-09T11:36:20Z</time>
      </trkpt>
      <trkpt lat="43.21587" lon="5.46067">
        <ele>358.2</ele>
        <time>2013-10-09T11:36:23Z</time>
      </trkpt>
      <trkpt lat="43.21592" lon="5.46068">
        <ele>355.8</ele>
        <time>2013-10-09T11:36:34Z</time>
      </trkpt>
      <trkpt lat="43.21595" lon="5.46066">
        <ele>355.7</ele>
        <time>2013-10-09T11:36:39Z</time>
      </trkpt>
      <trkpt lat="43.21597" lon="5.46066">
        <ele>356.3</ele>
        <time>2013-10-09T11:36:40Z</time>
      </trkpt>
      <trkpt lat="43.21602" lon="5.46063">
        <ele>357.8</ele>
        <time>2013-10-09T11:36:44Z</time>
      </trkpt>
      <trkpt lat="43.21605" lon="5.46058">
        <ele>359.2</ele>
        <time>2013-10-09T11:36:48Z</time>
      </trkpt>
      <trkpt lat="43.21608" lon="5.46053">
        <ele>360.7</ele>
        <time>2013-10-09T11:36:53Z</time>
      </trkpt>
      <trkpt lat="43.21612" lon="5.46051">
        <ele>361.6</ele>
        <time>2013-10-09T11:36:57Z</time>
      </trkpt>
      <trkpt lat="43.21615" lon="5.4605">
        <ele>361.7</ele>
        <time>2013-10-09T11:37:01Z</time>
      </trkpt>
      <trkpt lat="43.21619" lon="5.46051">
        <ele>363</ele>
        <time>2013-10-09T11:37:03Z</time>
      </trkpt>
      <trkpt lat="43.21623" lon="5.4605">
        <ele>364.6</ele>
        <time>2013-10-09T11:37:06Z</time>
      </trkpt>
      <trkpt lat="43.21627" lon="5.4605">
        <ele>365.7</ele>
        <time>2013-10-09T11:37:09Z</time>
      </trkpt>
      <trkpt lat="43.21631" lon="5.46053">
        <ele>364.6</ele>
        <time>2013-10-09T11:37:13Z</time>
      </trkpt>
      <trkpt lat="43.21634" lon="5.46057">
        <ele>361.2</ele>
        <time>2013-10-09T11:37:17Z</time>
      </trkpt>
      <trkpt lat="43.21637" lon="5.46059">
        <ele>360.2</ele>
        <time>2013-10-09T11:37:21Z</time>
      </trkpt>
      <trkpt lat="43.21641" lon="5.4606">
        <ele>360.2</ele>
        <time>2013-10-09T11:37:25Z</time>
      </trkpt>
      <trkpt lat="43.21645" lon="5.46061">
        <ele>359.7</ele>
        <time>2013-10-09T11:37:31Z</time>
      </trkpt>
      <trkpt lat="43.21649" lon="5.46062">
        <ele>360</ele>
        <time>2013-10-09T11:37:35Z</time>
      </trkpt>
      <trkpt lat="43.21653" lon="5.46064">
        <ele>360</ele>
        <time>2013-10-09T11:37:40Z</time>
      </trkpt>
      <trkpt lat="43.21654" lon="5.46065">
        <ele>359.8</ele>
        <time>2013-10-09T11:37:41Z</time>
      </trkpt>
      <trkpt lat="43.2166" lon="5.46067">
        <ele>360.3</ele>
        <time>2013-10-09T11:37:47Z</time>
      </trkpt>
      <trkpt lat="43.21663" lon="5.46063">
        <ele>360.7</ele>
        <time>2013-10-09T11:37:53Z</time>
      </trkpt>
      <trkpt lat="43.21666" lon="5.46059">
        <ele>359.6</ele>
        <time>2013-10-09T11:37:58Z</time>
      </trkpt>
      <trkpt lat="43.21668" lon="5.46055">
        <ele>358.7</ele>
        <time>2013-10-09T11:38:04Z</time>
      </trkpt>
      <trkpt lat="43.21672" lon="5.46052">
        <ele>359.7</ele>
        <time>2013-10-09T11:38:07Z</time>
      </trkpt>
      <trkpt lat="43.21673" lon="5.46051">
        <ele>360.2</ele>
        <time>2013-10-09T11:38:08Z</time>
      </trkpt>
      <trkpt lat="43.21678" lon="5.46051">
        <ele>361.2</ele>
        <time>2013-10-09T11:38:09Z</time>
      </trkpt>
      <trkpt lat="43.21682" lon="5.46051">
        <ele>362.2</ele>
        <time>2013-10-09T11:38:11Z</time>
      </trkpt>
      <trkpt lat="43.21686" lon="5.4605">
        <ele>363.1</ele>
        <time>2013-10-09T11:38:13Z</time>
      </trkpt>
      <trkpt lat="43.2169" lon="5.4605">
        <ele>363.7</ele>
        <time>2013-10-09T11:38:17Z</time>
      </trkpt>
      <trkpt lat="43.21695" lon="5.46049">
        <ele>366.7</ele>
        <time>2013-10-09T11:38:22Z</time>
      </trkpt>
      <trkpt lat="43.21698" lon="5.46045">
        <ele>370.3</ele>
        <time>2013-10-09T11:38:27Z</time>
      </trkpt>
      <trkpt lat="43.21701" lon="5.46042">
        <ele>369.3</ele>
        <time>2013-10-09T11:38:32Z</time>
      </trkpt>
      <trkpt lat="43.21703" lon="5.46037">
        <ele>367.1</ele>
        <time>2013-10-09T11:38:36Z</time>
      </trkpt>
      <trkpt lat="43.21705" lon="5.46032">
        <ele>365.7</ele>
        <time>2013-10-09T11:38:40Z</time>
      </trkpt>
      <trkpt lat="43.21705" lon="5.46027">
        <ele>362.7</ele>
        <time>2013-10-09T11:38:47Z</time>
      </trkpt>
      <trkpt lat="43.21704" lon="5.46026">
        <ele>362.7</ele>
        <time>2013-10-09T11:38:48Z</time>
      </trkpt>
      <trkpt lat="43.21698" lon="5.4602">
        <ele>362.3</ele>
        <time>2013-10-09T11:38:55Z</time>
      </trkpt>
      <trkpt lat="43.21696" lon="5.46015">
        <ele>362.2</ele>
        <time>2013-10-09T11:38:58Z</time>
      </trkpt>
      <trkpt lat="43.21694" lon="5.4601">
        <ele>361.3</ele>
        <time>2013-10-09T11:39:07Z</time>
      </trkpt>
      <trkpt lat="43.21691" lon="5.46006">
        <ele>361.6</ele>
        <time>2013-10-09T11:39:12Z</time>
      </trkpt>
      <trkpt lat="43.21689" lon="5.46002">
        <ele>362.5</ele>
        <time>2013-10-09T11:39:17Z</time>
      </trkpt>
      <trkpt lat="43.21687" lon="5.45997">
        <ele>365.7</ele>
        <time>2013-10-09T11:39:22Z</time>
      </trkpt>
      <trkpt lat="43.21686" lon="5.45991">
        <ele>364.1</ele>
        <time>2013-10-09T11:39:28Z</time>
      </trkpt>
      <trkpt lat="43.21686" lon="5.45985">
        <ele>363.7</ele>
        <time>2013-10-09T11:39:34Z</time>
      </trkpt>
      <trkpt lat="43.21685" lon="5.4598">
        <ele>364.1</ele>
        <time>2013-10-09T11:39:39Z</time>
      </trkpt>
      <trkpt lat="43.21683" lon="5.45974">
        <ele>365.2</ele>
        <time>2013-10-09T11:39:42Z</time>
      </trkpt>
      <trkpt lat="43.21682" lon="5.45969">
        <ele>365.6</ele>
        <time>2013-10-09T11:39:46Z</time>
      </trkpt>
      <trkpt lat="43.21682" lon="5.45963">
        <ele>365.2</ele>
        <time>2013-10-09T11:39:52Z</time>
      </trkpt>
      <trkpt lat="43.21682" lon="5.45962">
        <ele>365.2</ele>
        <time>2013-10-09T11:39:53Z</time>
      </trkpt>
      <trkpt lat="43.21685" lon="5.45952">
        <ele>365.7</ele>
        <time>2013-10-09T11:40:04Z</time>
      </trkpt>
      <trkpt lat="43.21686" lon="5.45947">
        <ele>366.2</ele>
        <time>2013-10-09T11:40:10Z</time>
      </trkpt>
      <trkpt lat="43.21686" lon="5.45942">
        <ele>367.1</ele>
        <time>2013-10-09T11:40:15Z</time>
      </trkpt>
      <trkpt lat="43.21684" lon="5.45937">
        <ele>367.7</ele>
        <time>2013-10-09T11:40:18Z</time>
      </trkpt>
      <trkpt lat="43.21685" lon="5.45931">
        <ele>368.3</ele>
        <time>2013-10-09T11:40:22Z</time>
      </trkpt>
      <trkpt lat="43.21685" lon="5.45926">
        <ele>368.2</ele>
        <time>2013-10-09T11:40:27Z</time>
      </trkpt>
      <trkpt lat="43.21686" lon="5.4592">
        <ele>368.1</ele>
        <time>2013-10-09T11:40:32Z</time>
      </trkpt>
      <trkpt lat="43.21686" lon="5.45914">
        <ele>367.8</ele>
        <time>2013-10-09T11:40:37Z</time>
      </trkpt>
      <trkpt lat="43.21689" lon="5.4591">
        <ele>367.3</ele>
        <time>2013-10-09T11:40:42Z</time>
      </trkpt>
      <trkpt lat="43.2169" lon="5.45905">
        <ele>367.1</ele>
        <time>2013-10-09T11:40:46Z</time>
      </trkpt>
      <trkpt lat="43.2169" lon="5.45899">
        <ele>367.5</ele>
        <time>2013-10-09T11:40:51Z</time>
      </trkpt>
      <trkpt lat="43.21693" lon="5.45895">
        <ele>368.2</ele>
        <time>2013-10-09T11:40:55Z</time>
      </trkpt>
      <trkpt lat="43.21693" lon="5.45894">
        <ele>368.7</ele>
        <time>2013-10-09T11:40:56Z</time>
      </trkpt>
      <trkpt lat="43.217" lon="5.45892">
        <ele>371.5</ele>
        <time>2013-10-09T11:41:03Z</time>
      </trkpt>
      <trkpt lat="43.21704" lon="5.45891">
        <ele>374.1</ele>
        <time>2013-10-09T11:41:08Z</time>
      </trkpt>
      <trkpt lat="43.21708" lon="5.45889">
        <ele>375.2</ele>
        <time>2013-10-09T11:41:12Z</time>
      </trkpt>
      <trkpt lat="43.21712" lon="5.45888">
        <ele>376.7</ele>
        <time>2013-10-09T11:41:17Z</time>
      </trkpt>
      <trkpt lat="43.21717" lon="5.45885">
        <ele>379</ele>
        <time>2013-10-09T11:41:23Z</time>
      </trkpt>
      <trkpt lat="43.2172" lon="5.45886">
        <ele>379.7</ele>
        <time>2013-10-09T11:41:28Z</time>
      </trkpt>
      <trkpt lat="43.21724" lon="5.45887">
        <ele>376.7</ele>
        <time>2013-10-09T11:41:33Z</time>
      </trkpt>
      <trkpt lat="43.21728" lon="5.45888">
        <ele>377.1</ele>
        <time>2013-10-09T11:41:36Z</time>
      </trkpt>
      <trkpt lat="43.21733" lon="5.45888">
        <ele>377.7</ele>
        <time>2013-10-09T11:41:41Z</time>
      </trkpt>
      <trkpt lat="43.21736" lon="5.45886">
        <ele>378.7</ele>
        <time>2013-10-09T11:41:47Z</time>
      </trkpt>
      <trkpt lat="43.2174" lon="5.45882">
        <ele>376.6</ele>
        <time>2013-10-09T11:41:53Z</time>
      </trkpt>
      <trkpt lat="43.21743" lon="5.45879">
        <ele>376</ele>
        <time>2013-10-09T11:41:59Z</time>
      </trkpt>
      <trkpt lat="43.21744" lon="5.45878">
        <ele>376.2</ele>
        <time>2013-10-09T11:42:00Z</time>
      </trkpt>
      <trkpt lat="43.21751" lon="5.45875">
        <ele>376.5</ele>
        <time>2013-10-09T11:42:08Z</time>
      </trkpt>
      <trkpt lat="43.21754" lon="5.45875">
        <ele>376.2</ele>
        <time>2013-10-09T11:42:12Z</time>
      </trkpt>
      <trkpt lat="43.21758" lon="5.45876">
        <ele>375.8</ele>
        <time>2013-10-09T11:42:15Z</time>
      </trkpt>
      <trkpt lat="43.21761" lon="5.45876">
        <ele>376.8</ele>
        <time>2013-10-09T11:42:17Z</time>
      </trkpt>
      <trkpt lat="43.21765" lon="5.45876">
        <ele>378.7</ele>
        <time>2013-10-09T11:42:21Z</time>
      </trkpt>
      <trkpt lat="43.21769" lon="5.45875">
        <ele>379.8</ele>
        <time>2013-10-09T11:42:26Z</time>
      </trkpt>
      <trkpt lat="43.21773" lon="5.45874">
        <ele>381.3</ele>
        <time>2013-10-09T11:42:32Z</time>
      </trkpt>
      <trkpt lat="43.21778" lon="5.45872">
        <ele>382.3</ele>
        <time>2013-10-09T11:42:40Z</time>
      </trkpt>
      <trkpt lat="43.21781" lon="5.4587">
        <ele>385.7</ele>
        <time>2013-10-09T11:42:49Z</time>
      </trkpt>
      <trkpt lat="43.21785" lon="5.45869">
        <ele>387</ele>
        <time>2013-10-09T11:42:53Z</time>
      </trkpt>
      <trkpt lat="43.21789" lon="5.4587">
        <ele>382.5</ele>
        <time>2013-10-09T11:43:06Z</time>
      </trkpt>
      <trkpt lat="43.21789" lon="5.4587">
        <ele>382.2</ele>
        <time>2013-10-09T11:43:07Z</time>
      </trkpt>
      <trkpt lat="43.21793" lon="5.4586">
        <ele>384.7</ele>
        <time>2013-10-09T11:43:50Z</time>
      </trkpt>
      <trkpt lat="43.21793" lon="5.45855">
        <ele>385.5</ele>
        <time>2013-10-09T11:44:02Z</time>
      </trkpt>
      <trkpt lat="43.21793" lon="5.45849">
        <ele>381.7</ele>
        <time>2013-10-09T11:44:10Z</time>
      </trkpt>
      <trkpt lat="43.21794" lon="5.45848">
        <ele>381.8</ele>
        <time>2013-10-09T11:44:11Z</time>
      </trkpt>
      <trkpt lat="43.21793" lon="5.45839">
        <ele>381.7</ele>
        <time>2013-10-09T11:44:22Z</time>
      </trkpt>
      <trkpt lat="43.21791" lon="5.45834">
        <ele>382.7</ele>
        <time>2013-10-09T11:44:26Z</time>
      </trkpt>
      <trkpt lat="43.21789" lon="5.45829">
        <ele>383.6</ele>
        <time>2013-10-09T11:44:30Z</time>
      </trkpt>
      <trkpt lat="43.21788" lon="5.45824">
        <ele>384.8</ele>
        <time>2013-10-09T11:44:36Z</time>
      </trkpt>
      <trkpt lat="43.21789" lon="5.45818">
        <ele>385.7</ele>
        <time>2013-10-09T11:44:45Z</time>
      </trkpt>
      <trkpt lat="43.21788" lon="5.45812">
        <ele>385.1</ele>
        <time>2013-10-09T11:44:53Z</time>
      </trkpt>
      <trkpt lat="43.21789" lon="5.45806">
        <ele>387.1</ele>
        <time>2013-10-09T11:45:12Z</time>
      </trkpt>
      <trkpt lat="43.21788" lon="5.45806">
        <ele>387.5</ele>
        <time>2013-10-09T11:45:13Z</time>
      </trkpt>
      <trkpt lat="43.21795" lon="5.45809">
        <ele>387.7</ele>
        <time>2013-10-09T11:46:29Z</time>
      </trkpt>
      <trkpt lat="43.21796" lon="5.45809">
        <ele>388.2</ele>
        <time>2013-10-09T11:46:30Z</time>
      </trkpt>
      <trkpt lat="43.21804" lon="5.45809">
        <ele>389.2</ele>
        <time>2013-10-09T11:46:44Z</time>
      </trkpt>
      <trkpt lat="43.21808" lon="5.45809">
        <ele>390.3</ele>
        <time>2013-10-09T11:46:55Z</time>
      </trkpt>
      <trkpt lat="43.21812" lon="5.45808">
        <ele>392.2</ele>
        <time>2013-10-09T11:47:24Z</time>
      </trkpt>
      <trkpt lat="43.21816" lon="5.45809">
        <ele>391.2</ele>
        <time>2013-10-09T11:47:33Z</time>
      </trkpt>
      <trkpt lat="43.21817" lon="5.45809">
        <ele>391</ele>
        <time>2013-10-09T11:47:34Z</time>
      </trkpt>
      <trkpt lat="43.21823" lon="5.45805">
        <ele>394.2</ele>
        <time>2013-10-09T11:49:01Z</time>
      </trkpt>
      <trkpt lat="43.21823" lon="5.45805">
        <ele>394.2</ele>
        <time>2013-10-09T11:49:02Z</time>
      </trkpt>
      <trkpt lat="43.21823" lon="5.45794">
        <ele>396.7</ele>
        <time>2013-10-09T11:49:49Z</time>
      </trkpt>
      <trkpt lat="43.21819" lon="5.45791">
        <ele>398.6</ele>
        <time>2013-10-09T11:50:04Z</time>
      </trkpt>
      <trkpt lat="43.21819" lon="5.45791">
        <ele>398.7</ele>
        <time>2013-10-09T11:50:05Z</time>
      </trkpt>
      <trkpt lat="43.21814" lon="5.45784">
        <ele>386.2</ele>
        <time>2013-10-09T11:50:58Z</time>
      </trkpt>
      <trkpt lat="43.21811" lon="5.45782">
        <ele>388.2</ele>
        <time>2013-10-09T11:51:07Z</time>
      </trkpt>
      <trkpt lat="43.2181" lon="5.45782">
        <ele>387.7</ele>
        <time>2013-10-09T11:51:08Z</time>
      </trkpt>
      <trkpt lat="43.21806" lon="5.45791">
        <ele>384.5</ele>
        <time>2013-10-09T11:51:29Z</time>
      </trkpt>
      <trkpt lat="43.21802" lon="5.45788">
        <ele>377.7</ele>
        <time>2013-10-09T11:51:38Z</time>
      </trkpt>
      <trkpt lat="43.21798" lon="5.45786">
        <ele>379</ele>
        <time>2013-10-09T11:52:07Z</time>
      </trkpt>
      <trkpt lat="43.21796" lon="5.45781">
        <ele>379.7</ele>
        <time>2013-10-09T11:52:13Z</time>
      </trkpt>
      <trkpt lat="43.21795" lon="5.45781">
        <ele>379.2</ele>
        <time>2013-10-09T11:52:14Z</time>
      </trkpt>
      <trkpt lat="43.21798" lon="5.45773">
        <ele>393.6</ele>
        <time>2013-10-09T11:52:28Z</time>
      </trkpt>
      <trkpt lat="43.21802" lon="5.45776">
        <ele>402.5</ele>
        <time>2013-10-09T11:52:34Z</time>
      </trkpt>
      <trkpt lat="43.21798" lon="5.45776">
        <ele>391.2</ele>
        <time>2013-10-09T11:52:53Z</time>
      </trkpt>
      <trkpt lat="43.21794" lon="5.45774">
        <ele>388.7</ele>
        <time>2013-10-09T11:52:56Z</time>
      </trkpt>
      <trkpt lat="43.2179" lon="5.45772">
        <ele>382.1</ele>
        <time>2013-10-09T11:53:00Z</time>
      </trkpt>
      <trkpt lat="43.21787" lon="5.45772">
        <ele>377.7</ele>
        <time>2013-10-09T11:53:05Z</time>
      </trkpt>
      <trkpt lat="43.21788" lon="5.45766">
        <ele>385.2</ele>
        <time>2013-10-09T11:53:21Z</time>
      </trkpt>
      <trkpt lat="43.21788" lon="5.45766">
        <ele>385.5</ele>
        <time>2013-10-09T11:53:22Z</time>
      </trkpt>
      <trkpt lat="43.21783" lon="5.45756">
        <ele>382</ele>
        <time>2013-10-09T11:53:46Z</time>
      </trkpt>
      <trkpt lat="43.21785" lon="5.45762">
        <ele>377.2</ele>
        <time>2013-10-09T11:53:56Z</time>
      </trkpt>
      <trkpt lat="43.21788" lon="5.45766">
        <ele>376.2</ele>
        <time>2013-10-09T11:53:59Z</time>
      </trkpt>
      <trkpt lat="43.2179" lon="5.4577">
        <ele>371.2</ele>
        <time>2013-10-09T11:54:03Z</time>
      </trkpt>
      <trkpt lat="43.21786" lon="5.45773">
        <ele>363.2</ele>
        <time>2013-10-09T11:54:14Z</time>
      </trkpt>
      <trkpt lat="43.21782" lon="5.45772">
        <ele>361</ele>
        <time>2013-10-09T11:54:18Z</time>
      </trkpt>
      <trkpt lat="43.21778" lon="5.4577">
        <ele>358.2</ele>
        <time>2013-10-09T11:54:22Z</time>
      </trkpt>
      <trkpt lat="43.21778" lon="5.45769">
        <ele>357.5</ele>
        <time>2013-10-09T11:54:23Z</time>
      </trkpt>
      <trkpt lat="43.21772" lon="5.45764">
        <ele>352.2</ele>
        <time>2013-10-09T11:54:31Z</time>
      </trkpt>
      <trkpt lat="43.21774" lon="5.45769">
        <ele>355.8</ele>
        <time>2013-10-09T11:54:47Z</time>
      </trkpt>
      <trkpt lat="43.21776" lon="5.45775">
        <ele>359.5</ele>
        <time>2013-10-09T11:55:01Z</time>
      </trkpt>
      <trkpt lat="43.21773" lon="5.45771">
        <ele>360.1</ele>
        <time>2013-10-09T11:55:15Z</time>
      </trkpt>
      <trkpt lat="43.2177" lon="5.45767">
        <ele>361.1</ele>
        <time>2013-10-09T11:55:20Z</time>
      </trkpt>
      <trkpt lat="43.21768" lon="5.45762">
        <ele>365.3</ele>
        <time>2013-10-09T11:55:34Z</time>
      </trkpt>
      <trkpt lat="43.21768" lon="5.45761">
        <ele>365.7</ele>
        <time>2013-10-09T11:55:35Z</time>
      </trkpt>
      <trkpt lat="43.21762" lon="5.45757">
        <ele>354.1</ele>
        <time>2013-10-09T11:55:58Z</time>
      </trkpt>
      <trkpt lat="43.21757" lon="5.45757">
        <ele>356.6</ele>
        <time>2013-10-09T11:56:19Z</time>
      </trkpt>
      <trkpt lat="43.21754" lon="5.45761">
        <ele>349.6</ele>
        <time>2013-10-09T11:56:34Z</time>
      </trkpt>
      <trkpt lat="43.2175" lon="5.45763">
        <ele>342.6</ele>
        <time>2013-10-09T11:56:42Z</time>
      </trkpt>
      <trkpt lat="43.21749" lon="5.45763">
        <ele>341.7</ele>
        <time>2013-10-09T11:56:43Z</time>
      </trkpt>
      <trkpt lat="43.21744" lon="5.45771">
        <ele>339.2</ele>
        <time>2013-10-09T11:56:57Z</time>
      </trkpt>
      <trkpt lat="43.2174" lon="5.45769">
        <ele>349.6</ele>
        <time>2013-10-09T11:57:22Z</time>
      </trkpt>
      <trkpt lat="43.21737" lon="5.45766">
        <ele>344.8</ele>
        <time>2013-10-09T11:57:27Z</time>
      </trkpt>
      <trkpt lat="43.21733" lon="5.45764">
        <ele>341</ele>
        <time>2013-10-09T11:57:38Z</time>
      </trkpt>
      <trkpt lat="43.21731" lon="5.45759">
        <ele>344.2</ele>
        <time>2013-10-09T11:57:51Z</time>
      </trkpt>
      <trkpt lat="43.21731" lon="5.45758">
        <ele>346.5</ele>
        <time>2013-10-09T11:57:52Z</time>
      </trkpt>
      <trkpt lat="43.21724" lon="5.45754">
        <ele>343.2</ele>
        <time>2013-10-09T11:58:17Z</time>
      </trkpt>
      <trkpt lat="43.2172" lon="5.45758">
        <ele>335.7</ele>
        <time>2013-10-09T11:58:30Z</time>
      </trkpt>
      <trkpt lat="43.21719" lon="5.45764">
        <ele>335.1</ele>
        <time>2013-10-09T11:58:38Z</time>
      </trkpt>
      <trkpt lat="43.21715" lon="5.45767">
        <ele>331.6</ele>
        <time>2013-10-09T11:58:47Z</time>
      </trkpt>
      <trkpt lat="43.21713" lon="5.45764">
        <ele>328.5</ele>
        <time>2013-10-09T11:58:53Z</time>
      </trkpt>
      <trkpt lat="43.21712" lon="5.45762">
        <ele>327.7</ele>
        <time>2013-10-09T11:58:54Z</time>
      </trkpt>
      <trkpt lat="43.21709" lon="5.45757">
        <ele>330</ele>
        <time>2013-10-09T11:59:01Z</time>
      </trkpt>
      <trkpt lat="43.2171" lon="5.45763">
        <ele>326.7</ele>
        <time>2013-10-09T11:59:17Z</time>
      </trkpt>
      <trkpt lat="43.21707" lon="5.45759">
        <ele>334.5</ele>
        <time>2013-10-09T11:59:43Z</time>
      </trkpt>
      <trkpt lat="43.21709" lon="5.45755">
        <ele>333.2</ele>
        <time>2013-10-09T11:59:59Z</time>
      </trkpt>
      <trkpt lat="43.2171" lon="5.45754">
        <ele>334.1</ele>
        <time>2013-10-09T12:00:00Z</time>
      </trkpt>
      <trkpt lat="43.2171" lon="5.45749">
        <ele>326.7</ele>
        <time>2013-10-09T12:00:24Z</time>
      </trkpt>
      <trkpt lat="43.21707" lon="5.45745">
        <ele>322.7</ele>
        <time>2013-10-09T12:00:31Z</time>
      </trkpt>
      <trkpt lat="43.21712" lon="5.45744">
        <ele>321</ele>
        <time>2013-10-09T12:00:50Z</time>
      </trkpt>
      <trkpt lat="43.21708" lon="5.45741">
        <ele>317.7</ele>
        <time>2013-10-09T12:01:06Z</time>
      </trkpt>
      <trkpt lat="43.21707" lon="5.4574">
        <ele>316.1</ele>
        <time>2013-10-09T12:01:07Z</time>
      </trkpt>
      <trkpt lat="43.21701" lon="5.45735">
        <ele>307</ele>
        <time>2013-10-09T12:01:15Z</time>
      </trkpt>
      <trkpt lat="43.21698" lon="5.45731">
        <ele>303.7</ele>
        <time>2013-10-09T12:01:21Z</time>
      </trkpt>
      <trkpt lat="43.21696" lon="5.45727">
        <ele>306.2</ele>
        <time>2013-10-09T12:01:30Z</time>
      </trkpt>
      <trkpt lat="43.217" lon="5.45724">
        <ele>303.2</ele>
        <time>2013-10-09T12:01:56Z</time>
      </trkpt>
      <trkpt lat="43.21703" lon="5.45729">
        <ele>319.5</ele>
        <time>2013-10-09T12:02:10Z</time>
      </trkpt>
      <trkpt lat="43.21703" lon="5.45729">
        <ele>320.7</ele>
        <time>2013-10-09T12:02:11Z</time>
      </trkpt>
      <trkpt lat="43.21695" lon="5.45726">
        <ele>309.1</ele>
        <time>2013-10-09T12:02:37Z</time>
      </trkpt>
      <trkpt lat="43.21692" lon="5.45723">
        <ele>307.1</ele>
        <time>2013-10-09T12:02:42Z</time>
      </trkpt>
      <trkpt lat="43.2169" lon="5.45718">
        <ele>308.5</ele>
        <time>2013-10-09T12:02:50Z</time>
      </trkpt>
      <trkpt lat="43.21688" lon="5.45713">
        <ele>309</ele>
        <time>2013-10-09T12:02:58Z</time>
      </trkpt>
      <trkpt lat="43.21685" lon="5.45709">
        <ele>307.6</ele>
        <time>2013-10-09T12:03:04Z</time>
      </trkpt>
      <trkpt lat="43.21682" lon="5.45706">
        <ele>305.3</ele>
        <time>2013-10-09T12:03:09Z</time>
      </trkpt>
      <trkpt lat="43.21679" lon="5.45703">
        <ele>304.2</ele>
        <time>2013-10-09T12:03:13Z</time>
      </trkpt>
      <trkpt lat="43.21678" lon="5.45702">
        <ele>303.7</ele>
        <time>2013-10-09T12:03:14Z</time>
      </trkpt>
      <trkpt lat="43.21672" lon="5.45696">
        <ele>302.6</ele>
        <time>2013-10-09T12:03:22Z</time>
      </trkpt>
      <trkpt lat="43.21669" lon="5.45692">
        <ele>302.6</ele>
        <time>2013-10-09T12:03:27Z</time>
      </trkpt>
      <trkpt lat="43.21667" lon="5.45687">
        <ele>302.3</ele>
        <time>2013-10-09T12:03:32Z</time>
      </trkpt>
      <trkpt lat="43.21664" lon="5.45683">
        <ele>300.7</ele>
        <time>2013-10-09T12:03:38Z</time>
      </trkpt>
      <trkpt lat="43.21661" lon="5.45679">
        <ele>299.7</ele>
        <time>2013-10-09T12:03:43Z</time>
      </trkpt>
      <trkpt lat="43.21659" lon="5.45674">
        <ele>299.5</ele>
        <time>2013-10-09T12:03:47Z</time>
      </trkpt>
      <trkpt lat="43.21657" lon="5.45669">
        <ele>299.7</ele>
        <time>2013-10-09T12:03:51Z</time>
      </trkpt>
      <trkpt lat="43.21655" lon="5.45664">
        <ele>300.6</ele>
        <time>2013-10-09T12:03:56Z</time>
      </trkpt>
      <trkpt lat="43.21653" lon="5.45659">
        <ele>302.1</ele>
        <time>2013-10-09T12:04:00Z</time>
      </trkpt>
      <trkpt lat="43.21651" lon="5.45653">
        <ele>301.7</ele>
        <time>2013-10-09T12:04:07Z</time>
      </trkpt>
      <trkpt lat="43.21649" lon="5.45649">
        <ele>301.1</ele>
        <time>2013-10-09T12:04:12Z</time>
      </trkpt>
      <trkpt lat="43.21648" lon="5.45643">
        <ele>299.2</ele>
        <time>2013-10-09T12:04:18Z</time>
      </trkpt>
      <trkpt lat="43.21648" lon="5.45642">
        <ele>299.2</ele>
        <time>2013-10-09T12:04:19Z</time>
      </trkpt>
      <trkpt lat="43.21646" lon="5.45633">
        <ele>297.5</ele>
        <time>2013-10-09T12:04:26Z</time>
      </trkpt>
      <trkpt lat="43.21644" lon="5.45627">
        <ele>296.2</ele>
        <time>2013-10-09T12:04:30Z</time>
      </trkpt>
      <trkpt lat="43.21643" lon="5.45622">
        <ele>294.7</ele>
        <time>2013-10-09T12:04:34Z</time>
      </trkpt>
      <trkpt lat="43.21641" lon="5.45618">
        <ele>293.7</ele>
        <time>2013-10-09T12:04:38Z</time>
      </trkpt>
      <trkpt lat="43.2164" lon="5.45613">
        <ele>293.1</ele>
        <time>2013-10-09T12:04:42Z</time>
      </trkpt>
      <trkpt lat="43.21641" lon="5.45607">
        <ele>293.2</ele>
        <time>2013-10-09T12:04:46Z</time>
      </trkpt>
      <trkpt lat="43.21639" lon="5.45602">
        <ele>291.2</ele>
        <time>2013-10-09T12:04:51Z</time>
      </trkpt>
      <trkpt lat="43.21637" lon="5.45597">
        <ele>289.8</ele>
        <time>2013-10-09T12:04:57Z</time>
      </trkpt>
      <trkpt lat="43.21635" lon="5.45594">
        <ele>289.3</ele>
        <time>2013-10-09T12:05:00Z</time>
      </trkpt>
      <trkpt lat="43.21633" lon="5.45589">
        <ele>288.1</ele>
        <time>2013-10-09T12:05:04Z</time>
      </trkpt>
      <trkpt lat="43.21631" lon="5.45584">
        <ele>286</ele>
        <time>2013-10-09T12:05:09Z</time>
      </trkpt>
      <trkpt lat="43.21633" lon="5.45579">
        <ele>286.2</ele>
        <time>2013-10-09T12:05:13Z</time>
      </trkpt>
      <trkpt lat="43.21632" lon="5.45573">
        <ele>286.7</ele>
        <time>2013-10-09T12:05:18Z</time>
      </trkpt>
      <trkpt lat="43.2163" lon="5.45568">
        <ele>286.8</ele>
        <time>2013-10-09T12:05:22Z</time>
      </trkpt>
      <trkpt lat="43.21629" lon="5.45567">
        <ele>286.8</ele>
        <time>2013-10-09T12:05:23Z</time>
      </trkpt>
      <trkpt lat="43.21629" lon="5.45557">
        <ele>287.2</ele>
        <time>2013-10-09T12:05:32Z</time>
      </trkpt>
      <trkpt lat="43.21628" lon="5.45552">
        <ele>286.1</ele>
        <time>2013-10-09T12:05:38Z</time>
      </trkpt>
      <trkpt lat="43.21626" lon="5.45548">
        <ele>285.6</ele>
        <time>2013-10-09T12:05:41Z</time>
      </trkpt>
      <trkpt lat="43.21625" lon="5.45543">
        <ele>285.7</ele>
        <time>2013-10-09T12:05:44Z</time>
      </trkpt>
      <trkpt lat="43.21623" lon="5.45538">
        <ele>285.3</ele>
        <time>2013-10-09T12:05:48Z</time>
      </trkpt>
      <trkpt lat="43.21622" lon="5.45532">
        <ele>285.1</ele>
        <time>2013-10-09T12:05:52Z</time>
      </trkpt>
      <trkpt lat="43.21621" lon="5.45527">
        <ele>284.8</ele>
        <time>2013-10-09T12:05:55Z</time>
      </trkpt>
      <trkpt lat="43.21619" lon="5.45522">
        <ele>284.7</ele>
        <time>2013-10-09T12:05:58Z</time>
      </trkpt>
      <trkpt lat="43.21618" lon="5.45517">
        <ele>283.7</ele>
        <time>2013-10-09T12:06:02Z</time>
      </trkpt>
      <trkpt lat="43.2162" lon="5.45512">
        <ele>284.8</ele>
        <time>2013-10-09T12:06:05Z</time>
      </trkpt>
      <trkpt lat="43.2162" lon="5.45506">
        <ele>285.8</ele>
        <time>2013-10-09T12:06:08Z</time>
      </trkpt>
      <trkpt lat="43.21618" lon="5.45502">
        <ele>285.1</ele>
        <time>2013-10-09T12:06:12Z</time>
      </trkpt>
      <trkpt lat="43.21616" lon="5.45496">
        <ele>282.8</ele>
        <time>2013-10-09T12:06:18Z</time>
      </trkpt>
      <trkpt lat="43.21615" lon="5.45492">
        <ele>281.3</ele>
        <time>2013-10-09T12:06:26Z</time>
      </trkpt>
      <trkpt lat="43.21614" lon="5.45491">
        <ele>281.2</ele>
        <time>2013-10-09T12:06:27Z</time>
      </trkpt>
      <trkpt lat="43.2161" lon="5.45482">
        <ele>281.6</ele>
        <time>2013-10-09T12:06:38Z</time>
      </trkpt>
      <trkpt lat="43.21608" lon="5.45477">
        <ele>281.1</ele>
        <time>2013-10-09T12:06:43Z</time>
      </trkpt>
      <trkpt lat="43.21606" lon="5.45473">
        <ele>280.7</ele>
        <time>2013-10-09T12:06:48Z</time>
      </trkpt>
      <trkpt lat="43.21602" lon="5.4547">
        <ele>279.2</ele>
        <time>2013-10-09T12:06:52Z</time>
      </trkpt>
      <trkpt lat="43.21598" lon="5.45469">
        <ele>277.5</ele>
        <time>2013-10-09T12:06:57Z</time>
      </trkpt>
      <trkpt lat="43.21595" lon="5.45464">
        <ele>277.2</ele>
        <time>2013-10-09T12:07:02Z</time>
      </trkpt>
      <trkpt lat="43.21592" lon="5.4546">
        <ele>277.7</ele>
        <time>2013-10-09T12:07:07Z</time>
      </trkpt>
      <trkpt lat="43.21589" lon="5.45457">
        <ele>277.3</ele>
        <time>2013-10-09T12:07:12Z</time>
      </trkpt>
      <trkpt lat="43.21586" lon="5.45453">
        <ele>277.3</ele>
        <time>2013-10-09T12:07:17Z</time>
      </trkpt>
      <trkpt lat="43.21583" lon="5.45449">
        <ele>278.3</ele>
        <time>2013-10-09T12:07:22Z</time>
      </trkpt>
      <trkpt lat="43.21579" lon="5.45447">
        <ele>276.7</ele>
        <time>2013-10-09T12:07:27Z</time>
      </trkpt>
      <trkpt lat="43.21579" lon="5.45447">
        <ele>276.2</ele>
        <time>2013-10-09T12:07:28Z</time>
      </trkpt>
      <trkpt lat="43.21572" lon="5.4544">
        <ele>275.2</ele>
        <time>2013-10-09T12:07:41Z</time>
      </trkpt>
      <trkpt lat="43.2157" lon="5.45435">
        <ele>276.2</ele>
        <time>2013-10-09T12:07:46Z</time>
      </trkpt>
      <trkpt lat="43.21571" lon="5.45429">
        <ele>274.5</ele>
        <time>2013-10-09T12:07:51Z</time>
      </trkpt>
      <trkpt lat="43.21571" lon="5.45423">
        <ele>270.5</ele>
        <time>2013-10-09T12:08:01Z</time>
      </trkpt>
      <trkpt lat="43.21571" lon="5.45418">
        <ele>268.2</ele>
        <time>2013-10-09T12:08:09Z</time>
      </trkpt>
      <trkpt lat="43.21573" lon="5.45412">
        <ele>267.7</ele>
        <time>2013-10-09T12:08:14Z</time>
      </trkpt>
      <trkpt lat="43.21573" lon="5.45407">
        <ele>267.2</ele>
        <time>2013-10-09T12:08:18Z</time>
      </trkpt>
      <trkpt lat="43.21573" lon="5.45401">
        <ele>266.2</ele>
        <time>2013-10-09T12:08:22Z</time>
      </trkpt>
      <trkpt lat="43.21574" lon="5.45397">
        <ele>265.8</ele>
        <time>2013-10-09T12:08:26Z</time>
      </trkpt>
      <trkpt lat="43.21575" lon="5.45391">
        <ele>264.6</ele>
        <time>2013-10-09T12:08:30Z</time>
      </trkpt>
      <trkpt lat="43.21575" lon="5.4539">
        <ele>264.1</ele>
        <time>2013-10-09T12:08:31Z</time>
      </trkpt>
      <trkpt lat="43.21575" lon="5.4538">
        <ele>261.5</ele>
        <time>2013-10-09T12:08:39Z</time>
      </trkpt>
      <trkpt lat="43.21575" lon="5.45375">
        <ele>260.2</ele>
        <time>2013-10-09T12:08:44Z</time>
      </trkpt>
      <trkpt lat="43.21575" lon="5.45369">
        <ele>259.2</ele>
        <time>2013-10-09T12:08:49Z</time>
      </trkpt>
      <trkpt lat="43.21576" lon="5.45363">
        <ele>258.2</ele>
        <time>2013-10-09T12:08:55Z</time>
      </trkpt>
      <trkpt lat="43.21576" lon="5.45358">
        <ele>259.8</ele>
        <time>2013-10-09T12:08:59Z</time>
      </trkpt>
      <trkpt lat="43.21576" lon="5.45352">
        <ele>260.7</ele>
        <time>2013-10-09T12:09:03Z</time>
      </trkpt>
      <trkpt lat="43.21578" lon="5.45347">
        <ele>261.2</ele>
        <time>2013-10-09T12:09:10Z</time>
      </trkpt>
      <trkpt lat="43.21579" lon="5.45341">
        <ele>258.7</ele>
        <time>2013-10-09T12:09:17Z</time>
      </trkpt>
      <trkpt lat="43.21581" lon="5.45336">
        <ele>258</ele>
        <time>2013-10-09T12:09:29Z</time>
      </trkpt>
      <trkpt lat="43.21583" lon="5.45331">
        <ele>256.5</ele>
        <time>2013-10-09T12:09:36Z</time>
      </trkpt>
      <trkpt lat="43.21584" lon="5.45331">
        <ele>256.2</ele>
        <time>2013-10-09T12:09:37Z</time>
      </trkpt>
      <trkpt lat="43.21588" lon="5.45322">
        <ele>253.5</ele>
        <time>2013-10-09T12:09:51Z</time>
      </trkpt>
      <trkpt lat="43.21591" lon="5.45318">
        <ele>252</ele>
        <time>2013-10-09T12:10:00Z</time>
      </trkpt>
      <trkpt lat="43.21593" lon="5.45313">
        <ele>250.3</ele>
        <time>2013-10-09T12:10:09Z</time>
      </trkpt>
      <trkpt lat="43.21597" lon="5.4531">
        <ele>250.3</ele>
        <time>2013-10-09T12:10:16Z</time>
      </trkpt>
      <trkpt lat="43.21593" lon="5.45309">
        <ele>246.1</ele>
        <time>2013-10-09T12:10:37Z</time>
      </trkpt>
      <trkpt lat="43.21592" lon="5.4531">
        <ele>246</ele>
        <time>2013-10-09T12:10:38Z</time>
      </trkpt>
      <trkpt lat="43.21585" lon="5.45311">
        <ele>245.5</ele>
        <time>2013-10-09T12:10:49Z</time>
      </trkpt>
      <trkpt lat="43.2158" lon="5.4531">
        <ele>244</ele>
        <time>2013-10-09T12:10:56Z</time>
      </trkpt>
      <trkpt lat="43.21576" lon="5.45309">
        <ele>243.5</ele>
        <time>2013-10-09T12:11:02Z</time>
      </trkpt>
      <trkpt lat="43.21572" lon="5.45308">
        <ele>243.6</ele>
        <time>2013-10-09T12:11:08Z</time>
      </trkpt>
      <trkpt lat="43.21568" lon="5.45308">
        <ele>242.6</ele>
        <time>2013-10-09T12:11:16Z</time>
      </trkpt>
      <trkpt lat="43.21565" lon="5.45312">
        <ele>241.6</ele>
        <time>2013-10-09T12:11:23Z</time>
      </trkpt>
      <trkpt lat="43.21561" lon="5.45313">
        <ele>240.1</ele>
        <time>2013-10-09T12:11:31Z</time>
      </trkpt>
      <trkpt lat="43.21557" lon="5.45315">
        <ele>239.1</ele>
        <time>2013-10-09T12:11:38Z</time>
      </trkpt>
      <trkpt lat="43.21556" lon="5.45315">
        <ele>238.8</ele>
        <time>2013-10-09T12:11:39Z</time>
      </trkpt>
      <trkpt lat="43.2155" lon="5.4531">
        <ele>232.1</ele>
        <time>2013-10-09T12:11:52Z</time>
      </trkpt>
      <trkpt lat="43.21546" lon="5.45308">
        <ele>229.8</ele>
        <time>2013-10-09T12:11:57Z</time>
      </trkpt>
      <trkpt lat="43.21544" lon="5.45303">
        <ele>229.6</ele>
        <time>2013-10-09T12:12:02Z</time>
      </trkpt>
      <trkpt lat="43.21545" lon="5.45297">
        <ele>230.6</ele>
        <time>2013-10-09T12:12:09Z</time>
      </trkpt>
      <trkpt lat="43.21544" lon="5.45291">
        <ele>229.6</ele>
        <time>2013-10-09T12:12:14Z</time>
      </trkpt>
      <trkpt lat="43.21547" lon="5.45287">
        <ele>229.1</ele>
        <time>2013-10-09T12:12:18Z</time>
      </trkpt>
      <trkpt lat="43.2155" lon="5.45283">
        <ele>228.8</ele>
        <time>2013-10-09T12:12:22Z</time>
      </trkpt>
      <trkpt lat="43.21553" lon="5.4528">
        <ele>228.5</ele>
        <time>2013-10-09T12:12:26Z</time>
      </trkpt>
      <trkpt lat="43.21557" lon="5.45277">
        <ele>227.8</ele>
        <time>2013-10-09T12:12:30Z</time>
      </trkpt>
      <trkpt lat="43.21559" lon="5.45274">
        <ele>227</ele>
        <time>2013-10-09T12:12:34Z</time>
      </trkpt>
      <trkpt lat="43.21563" lon="5.45271">
        <ele>226.1</ele>
        <time>2013-10-09T12:12:42Z</time>
      </trkpt>
      <trkpt lat="43.21563" lon="5.45271">
        <ele>226.1</ele>
        <time>2013-10-09T12:12:43Z</time>
      </trkpt>
      <trkpt lat="43.21566" lon="5.45261">
        <ele>222.3</ele>
        <time>2013-10-09T12:12:55Z</time>
      </trkpt>
      <trkpt lat="43.21568" lon="5.45257">
        <ele>221.1</ele>
        <time>2013-10-09T12:12:59Z</time>
      </trkpt>
      <trkpt lat="43.2157" lon="5.45252">
        <ele>219.6</ele>
        <time>2013-10-09T12:13:04Z</time>
      </trkpt>
      <trkpt lat="43.21571" lon="5.45247">
        <ele>218.8</ele>
        <time>2013-10-09T12:13:08Z</time>
      </trkpt>
      <trkpt lat="43.21573" lon="5.45243">
        <ele>218</ele>
        <time>2013-10-09T12:13:12Z</time>
      </trkpt>
      <trkpt lat="43.21575" lon="5.45238">
        <ele>217.3</ele>
        <time>2013-10-09T12:13:17Z</time>
      </trkpt>
      <trkpt lat="43.21578" lon="5.45234">
        <ele>216.5</ele>
        <time>2013-10-09T12:13:22Z</time>
      </trkpt>
      <trkpt lat="43.2158" lon="5.45229">
        <ele>215.6</ele>
        <time>2013-10-09T12:13:27Z</time>
      </trkpt>
      <trkpt lat="43.21582" lon="5.45224">
        <ele>214.6</ele>
        <time>2013-10-09T12:13:32Z</time>
      </trkpt>
      <trkpt lat="43.21585" lon="5.45219">
        <ele>213.8</ele>
        <time>2013-10-09T12:13:37Z</time>
      </trkpt>
      <trkpt lat="43.21586" lon="5.45213">
        <ele>211.8</ele>
        <time>2013-10-09T12:13:44Z</time>
      </trkpt>
      <trkpt lat="43.21586" lon="5.45212">
        <ele>211.6</ele>
        <time>2013-10-09T12:13:45Z</time>
      </trkpt>
      <trkpt lat="43.21591" lon="5.45204">
        <ele>209.6</ele>
        <time>2013-10-09T12:13:56Z</time>
      </trkpt>
      <trkpt lat="43.21594" lon="5.452">
        <ele>208.1</ele>
        <time>2013-10-09T12:14:01Z</time>
      </trkpt>
      <trkpt lat="43.21597" lon="5.452">
        <ele>208.8</ele>
        <time>2013-10-09T12:14:02Z</time>
      </trkpt>
      <trkpt lat="43.21599" lon="5.45201">
        <ele>209.5</ele>
        <time>2013-10-09T12:14:03Z</time>
      </trkpt>
      <trkpt lat="43.21603" lon="5.45203">
        <ele>210.3</ele>
        <time>2013-10-09T12:14:05Z</time>
      </trkpt>
      <trkpt lat="43.21607" lon="5.45205">
        <ele>211</ele>
        <time>2013-10-09T12:14:08Z</time>
      </trkpt>
      <trkpt lat="43.21611" lon="5.45209">
        <ele>211.6</ele>
        <time>2013-10-09T12:14:11Z</time>
      </trkpt>
      <trkpt lat="43.21614" lon="5.45212">
        <ele>211.6</ele>
        <time>2013-10-09T12:14:14Z</time>
      </trkpt>
      <trkpt lat="43.21617" lon="5.45214">
        <ele>212.1</ele>
        <time>2013-10-09T12:14:17Z</time>
      </trkpt>
      <trkpt lat="43.21621" lon="5.45217">
        <ele>212.5</ele>
        <time>2013-10-09T12:14:20Z</time>
      </trkpt>
      <trkpt lat="43.21625" lon="5.45219">
        <ele>212.6</ele>
        <time>2013-10-09T12:14:23Z</time>
      </trkpt>
      <trkpt lat="43.21628" lon="5.45221">
        <ele>212.8</ele>
        <time>2013-10-09T12:14:26Z</time>
      </trkpt>
      <trkpt lat="43.21632" lon="5.45223">
        <ele>212.8</ele>
        <time>2013-10-09T12:14:29Z</time>
      </trkpt>
      <trkpt lat="43.21635" lon="5.45225">
        <ele>212.8</ele>
        <time>2013-10-09T12:14:32Z</time>
      </trkpt>
      <trkpt lat="43.21639" lon="5.45228">
        <ele>212.6</ele>
        <time>2013-10-09T12:14:36Z</time>
      </trkpt>
      <trkpt lat="43.21642" lon="5.45231">
        <ele>212.1</ele>
        <time>2013-10-09T12:14:39Z</time>
      </trkpt>
      <trkpt lat="43.21645" lon="5.45234">
        <ele>212.5</ele>
        <time>2013-10-09T12:14:42Z</time>
      </trkpt>
      <trkpt lat="43.21648" lon="5.45237">
        <ele>212.6</ele>
        <time>2013-10-09T12:14:45Z</time>
      </trkpt>
      <trkpt lat="43.21649" lon="5.45238">
        <ele>212.8</ele>
        <time>2013-10-09T12:14:46Z</time>
      </trkpt>
      <trkpt lat="43.21654" lon="5.45244">
        <ele>213.3</ele>
        <time>2013-10-09T12:14:51Z</time>
      </trkpt>
      <trkpt lat="43.21657" lon="5.45247">
        <ele>213.8</ele>
        <time>2013-10-09T12:14:54Z</time>
      </trkpt>
      <trkpt lat="43.21659" lon="5.45252">
        <ele>213.6</ele>
        <time>2013-10-09T12:14:58Z</time>
      </trkpt>
      <trkpt lat="43.21662" lon="5.45256">
        <ele>213.3</ele>
        <time>2013-10-09T12:15:02Z</time>
      </trkpt>
      <trkpt lat="43.21665" lon="5.45259">
        <ele>213.6</ele>
        <time>2013-10-09T12:15:05Z</time>
      </trkpt>
      <trkpt lat="43.21668" lon="5.45262">
        <ele>213.1</ele>
        <time>2013-10-09T12:15:08Z</time>
      </trkpt>
      <trkpt lat="43.21671" lon="5.45265">
        <ele>214.8</ele>
        <time>2013-10-09T12:15:11Z</time>
      </trkpt>
      <trkpt lat="43.21673" lon="5.45266">
        <ele>215.5</ele>
        <time>2013-10-09T12:15:13Z</time>
      </trkpt>
      <trkpt lat="43.21677" lon="5.45269">
        <ele>216.8</ele>
        <time>2013-10-09T12:15:16Z</time>
      </trkpt>
      <trkpt lat="43.2168" lon="5.45272">
        <ele>217.3</ele>
        <time>2013-10-09T12:15:21Z</time>
      </trkpt>
      <trkpt lat="43.21683" lon="5.45274">
        <ele>216.6</ele>
        <time>2013-10-09T12:15:24Z</time>
      </trkpt>
      <trkpt lat="43.21686" lon="5.45276">
        <ele>217.1</ele>
        <time>2013-10-09T12:15:26Z</time>
      </trkpt>
      <trkpt lat="43.21689" lon="5.45277">
        <ele>216.8</ele>
        <time>2013-10-09T12:15:28Z</time>
      </trkpt>
      <trkpt lat="43.21693" lon="5.45279">
        <ele>216.6</ele>
        <time>2013-10-09T12:15:30Z</time>
      </trkpt>
      <trkpt lat="43.21697" lon="5.45282">
        <ele>217.3</ele>
        <time>2013-10-09T12:15:33Z</time>
      </trkpt>
      <trkpt lat="43.217" lon="5.45285">
        <ele>218.1</ele>
        <time>2013-10-09T12:15:36Z</time>
      </trkpt>
      <trkpt lat="43.21704" lon="5.45287">
        <ele>218.1</ele>
        <time>2013-10-09T12:15:40Z</time>
      </trkpt>
      <trkpt lat="43.21707" lon="5.45286">
        <ele>218.5</ele>
        <time>2013-10-09T12:15:44Z</time>
      </trkpt>
      <trkpt lat="43.21711" lon="5.45284">
        <ele>220</ele>
        <time>2013-10-09T12:15:50Z</time>
      </trkpt>
      <trkpt lat="43.21714" lon="5.45284">
        <ele>220.6</ele>
        <time>2013-10-09T12:15:51Z</time>
      </trkpt>
      <trkpt lat="43.21716" lon="5.45283">
        <ele>221.1</ele>
        <time>2013-10-09T12:15:53Z</time>
      </trkpt>
      <trkpt lat="43.2172" lon="5.45283">
        <ele>222.3</ele>
        <time>2013-10-09T12:15:54Z</time>
      </trkpt>
      <trkpt lat="43.21725" lon="5.45283">
        <ele>222.3</ele>
        <time>2013-10-09T12:15:56Z</time>
      </trkpt>
      <trkpt lat="43.21728" lon="5.45282">
        <ele>222.3</ele>
        <time>2013-10-09T12:15:58Z</time>
      </trkpt>
      <trkpt lat="43.21732" lon="5.45281">
        <ele>221.5</ele>
        <time>2013-10-09T12:16:00Z</time>
      </trkpt>
      <trkpt lat="43.21736" lon="5.45278">
        <ele>219.1</ele>
        <time>2013-10-09T12:16:03Z</time>
      </trkpt>
      <trkpt lat="43.21737" lon="5.45273">
        <ele>216.8</ele>
        <time>2013-10-09T12:16:07Z</time>
      </trkpt>
      <trkpt lat="43.21739" lon="5.45268">
        <ele>216.8</ele>
        <time>2013-10-09T12:16:10Z</time>
      </trkpt>
      <trkpt lat="43.21738" lon="5.45264">
        <ele>215.5</ele>
        <time>2013-10-09T12:16:13Z</time>
      </trkpt>
      <trkpt lat="43.21736" lon="5.4526">
        <ele>214.6</ele>
        <time>2013-10-09T12:16:16Z</time>
      </trkpt>
      <trkpt lat="43.21735" lon="5.45255">
        <ele>214</ele>
        <time>2013-10-09T12:16:19Z</time>
      </trkpt>
      <trkpt lat="43.21733" lon="5.45251">
        <ele>212.8</ele>
        <time>2013-10-09T12:16:22Z</time>
      </trkpt>
      <trkpt lat="43.21732" lon="5.45247">
        <ele>212.3</ele>
        <time>2013-10-09T12:16:25Z</time>
      </trkpt>
      <trkpt lat="43.2173" lon="5.45242">
        <ele>212</ele>
        <time>2013-10-09T12:16:28Z</time>
      </trkpt>
      <trkpt lat="43.21728" lon="5.45237">
        <ele>211.8</ele>
        <time>2013-10-09T12:16:31Z</time>
      </trkpt>
      <trkpt lat="43.21728" lon="5.45232">
        <ele>212.1</ele>
        <time>2013-10-09T12:16:34Z</time>
      </trkpt>
      <trkpt lat="43.21728" lon="5.45227">
        <ele>213.3</ele>
        <time>2013-10-09T12:16:37Z</time>
      </trkpt>
      <trkpt lat="43.21727" lon="5.45222">
        <ele>212.8</ele>
        <time>2013-10-09T12:16:40Z</time>
      </trkpt>
      <trkpt lat="43.21726" lon="5.45217">
        <ele>212.3</ele>
        <time>2013-10-09T12:16:43Z</time>
      </trkpt>
      <trkpt lat="43.21726" lon="5.45212">
        <ele>212.6</ele>
        <time>2013-10-09T12:16:46Z</time>
      </trkpt>
      <trkpt lat="43.21725" lon="5.45207">
        <ele>211.3</ele>
        <time>2013-10-09T12:16:49Z</time>
      </trkpt>
      <trkpt lat="43.21724" lon="5.45202">
        <ele>211.3</ele>
        <time>2013-10-09T12:16:52Z</time>
      </trkpt>
      <trkpt lat="43.21724" lon="5.452">
        <ele>211.3</ele>
        <time>2013-10-09T12:16:53Z</time>
      </trkpt>
      <trkpt lat="43.21722" lon="5.45192">
        <ele>211.8</ele>
        <time>2013-10-09T12:16:57Z</time>
      </trkpt>
      <trkpt lat="43.21721" lon="5.45187">
        <ele>211.6</ele>
        <time>2013-10-09T12:17:00Z</time>
      </trkpt>
      <trkpt lat="43.21721" lon="5.45182">
        <ele>210.6</ele>
        <time>2013-10-09T12:17:03Z</time>
      </trkpt>
      <trkpt lat="43.2172" lon="5.45178">
        <ele>209.3</ele>
        <time>2013-10-09T12:17:06Z</time>
      </trkpt>
      <trkpt lat="43.21719" lon="5.45172">
        <ele>208.6</ele>
        <time>2013-10-09T12:17:09Z</time>
      </trkpt>
      <trkpt lat="43.21719" lon="5.45168">
        <ele>208.3</ele>
        <time>2013-10-09T12:17:12Z</time>
      </trkpt>
      <trkpt lat="43.21719" lon="5.45162">
        <ele>208.6</ele>
        <time>2013-10-09T12:17:15Z</time>
      </trkpt>
      <trkpt lat="43.21718" lon="5.45157">
        <ele>208</ele>
        <time>2013-10-09T12:17:18Z</time>
      </trkpt>
      <trkpt lat="43.21719" lon="5.45151">
        <ele>208.1</ele>
        <time>2013-10-09T12:17:21Z</time>
      </trkpt>
      <trkpt lat="43.21719" lon="5.45146">
        <ele>208.1</ele>
        <time>2013-10-09T12:17:24Z</time>
      </trkpt>
      <trkpt lat="43.2172" lon="5.45141">
        <ele>207.6</ele>
        <time>2013-10-09T12:17:27Z</time>
      </trkpt>
      <trkpt lat="43.2172" lon="5.45135">
        <ele>206.6</ele>
        <time>2013-10-09T12:17:31Z</time>
      </trkpt>
      <trkpt lat="43.2172" lon="5.45131">
        <ele>205.6</ele>
        <time>2013-10-09T12:17:34Z</time>
      </trkpt>
      <trkpt lat="43.2172" lon="5.45125">
        <ele>206.5</ele>
        <time>2013-10-09T12:17:37Z</time>
      </trkpt>
      <trkpt lat="43.21721" lon="5.45119">
        <ele>207.1</ele>
        <time>2013-10-09T12:17:40Z</time>
      </trkpt>
      <trkpt lat="43.2172" lon="5.45116">
        <ele>206.6</ele>
        <time>2013-10-09T12:17:42Z</time>
      </trkpt>
      <trkpt lat="43.21718" lon="5.45111">
        <ele>207.3</ele>
        <time>2013-10-09T12:17:44Z</time>
      </trkpt>
      <trkpt lat="43.21716" lon="5.45107">
        <ele>206.8</ele>
        <time>2013-10-09T12:17:47Z</time>
      </trkpt>
      <trkpt lat="43.21715" lon="5.45101">
        <ele>207.3</ele>
        <time>2013-10-09T12:17:50Z</time>
      </trkpt>
      <trkpt lat="43.21714" lon="5.45097">
        <ele>207.5</ele>
        <time>2013-10-09T12:17:53Z</time>
      </trkpt>
      <trkpt lat="43.21713" lon="5.45095">
        <ele>207.6</ele>
        <time>2013-10-09T12:17:54Z</time>
      </trkpt>
      <trkpt lat="43.2171" lon="5.45087">
        <ele>207.8</ele>
        <time>2013-10-09T12:18:00Z</time>
      </trkpt>
      <trkpt lat="43.21708" lon="5.45083">
        <ele>207.6</ele>
        <time>2013-10-09T12:18:03Z</time>
      </trkpt>
      <trkpt lat="43.21705" lon="5.45079">
        <ele>207.1</ele>
        <time>2013-10-09T12:18:06Z</time>
      </trkpt>
      <trkpt lat="43.21703" lon="5.45075">
        <ele>206.6</ele>
        <time>2013-10-09T12:18:09Z</time>
      </trkpt>
      <trkpt lat="43.21701" lon="5.4507">
        <ele>206.8</ele>
        <time>2013-10-09T12:18:12Z</time>
      </trkpt>
      <trkpt lat="43.21699" lon="5.45066">
        <ele>206.8</ele>
        <time>2013-10-09T12:18:15Z</time>
      </trkpt>
      <trkpt lat="43.21697" lon="5.45062">
        <ele>207</ele>
        <time>2013-10-09T12:18:18Z</time>
      </trkpt>
      <trkpt lat="43.21695" lon="5.45058">
        <ele>206.6</ele>
        <time>2013-10-09T12:18:21Z</time>
      </trkpt>
      <trkpt lat="43.21693" lon="5.45054">
        <ele>206.3</ele>
        <time>2013-10-09T12:18:24Z</time>
      </trkpt>
      <trkpt lat="43.21691" lon="5.45052">
        <ele>206</ele>
        <time>2013-10-09T12:18:26Z</time>
      </trkpt>
      <trkpt lat="43.21689" lon="5.45048">
        <ele>207</ele>
        <time>2013-10-09T12:18:28Z</time>
      </trkpt>
      <trkpt lat="43.21686" lon="5.45045">
        <ele>207.6</ele>
        <time>2013-10-09T12:18:31Z</time>
      </trkpt>
      <trkpt lat="43.21683" lon="5.45042">
        <ele>207.6</ele>
        <time>2013-10-09T12:18:34Z</time>
      </trkpt>
      <trkpt lat="43.21679" lon="5.45039">
        <ele>207.3</ele>
        <time>2013-10-09T12:18:38Z</time>
      </trkpt>
      <trkpt lat="43.21676" lon="5.45035">
        <ele>207.3</ele>
        <time>2013-10-09T12:18:41Z</time>
      </trkpt>
      <trkpt lat="43.21675" lon="5.4503">
        <ele>206.6</ele>
        <time>2013-10-09T12:18:45Z</time>
      </trkpt>
      <trkpt lat="43.21675" lon="5.45024">
        <ele>205.3</ele>
        <time>2013-10-09T12:18:49Z</time>
      </trkpt>
      <trkpt lat="43.21676" lon="5.45019">
        <ele>204.1</ele>
        <time>2013-10-09T12:18:53Z</time>
      </trkpt>
      <trkpt lat="43.21677" lon="5.45014">
        <ele>202.8</ele>
        <time>2013-10-09T12:18:57Z</time>
      </trkpt>
      <trkpt lat="43.21677" lon="5.45012">
        <ele>202.6</ele>
        <time>2013-10-09T12:18:58Z</time>
      </trkpt>
      <trkpt lat="43.2168" lon="5.45003">
        <ele>201.3</ele>
        <time>2013-10-09T12:19:05Z</time>
      </trkpt>
      <trkpt lat="43.21681" lon="5.44998">
        <ele>201.3</ele>
        <time>2013-10-09T12:19:09Z</time>
      </trkpt>
      <trkpt lat="43.21681" lon="5.44992">
        <ele>203.3</ele>
        <time>2013-10-09T12:19:13Z</time>
      </trkpt>
      <trkpt lat="43.21683" lon="5.44988">
        <ele>204.1</ele>
        <time>2013-10-09T12:19:17Z</time>
      </trkpt>
      <trkpt lat="43.21685" lon="5.44983">
        <ele>204.1</ele>
        <time>2013-10-09T12:19:21Z</time>
      </trkpt>
      <trkpt lat="43.21687" lon="5.44979">
        <ele>204.1</ele>
        <time>2013-10-09T12:19:24Z</time>
      </trkpt>
      <trkpt lat="43.21688" lon="5.44974">
        <ele>204.3</ele>
        <time>2013-10-09T12:19:27Z</time>
      </trkpt>
      <trkpt lat="43.21691" lon="5.4497">
        <ele>204.3</ele>
        <time>2013-10-09T12:19:30Z</time>
      </trkpt>
      <trkpt lat="43.21693" lon="5.44966">
        <ele>204.5</ele>
        <time>2013-10-09T12:19:33Z</time>
      </trkpt>
      <trkpt lat="43.21695" lon="5.44962">
        <ele>204.8</ele>
        <time>2013-10-09T12:19:36Z</time>
      </trkpt>
      <trkpt lat="43.21698" lon="5.44957">
        <ele>204.8</ele>
        <time>2013-10-09T12:19:39Z</time>
      </trkpt>
      <trkpt lat="43.21701" lon="5.44954">
        <ele>205</ele>
        <time>2013-10-09T12:19:42Z</time>
      </trkpt>
      <trkpt lat="43.21704" lon="5.44951">
        <ele>205.1</ele>
        <time>2013-10-09T12:19:45Z</time>
      </trkpt>
      <trkpt lat="43.21707" lon="5.44948">
        <ele>205.3</ele>
        <time>2013-10-09T12:19:48Z</time>
      </trkpt>
      <trkpt lat="43.21711" lon="5.44944">
        <ele>205.3</ele>
        <time>2013-10-09T12:19:51Z</time>
      </trkpt>
      <trkpt lat="43.21714" lon="5.44942">
        <ele>205.6</ele>
        <time>2013-10-09T12:19:54Z</time>
      </trkpt>
      <trkpt lat="43.21718" lon="5.44939">
        <ele>205.3</ele>
        <time>2013-10-09T12:19:58Z</time>
      </trkpt>
      <trkpt lat="43.21719" lon="5.44938">
        <ele>205.1</ele>
        <time>2013-10-09T12:19:59Z</time>
      </trkpt>
      <trkpt lat="43.21725" lon="5.44934">
        <ele>205</ele>
        <time>2013-10-09T12:20:05Z</time>
      </trkpt>
      <trkpt lat="43.21729" lon="5.44932">
        <ele>204.6</ele>
        <time>2013-10-09T12:20:09Z</time>
      </trkpt>
      <trkpt lat="43.21732" lon="5.4493">
        <ele>204.6</ele>
        <time>2013-10-09T12:20:12Z</time>
      </trkpt>
      <trkpt lat="43.21736" lon="5.44927">
        <ele>204.5</ele>
        <time>2013-10-09T12:20:16Z</time>
      </trkpt>
      <trkpt lat="43.21739" lon="5.44923">
        <ele>204.5</ele>
        <time>2013-10-09T12:20:20Z</time>
      </trkpt>
      <trkpt lat="43.21742" lon="5.4492">
        <ele>204.3</ele>
        <time>2013-10-09T12:20:23Z</time>
      </trkpt>
      <trkpt lat="43.21744" lon="5.44917">
        <ele>204.1</ele>
        <time>2013-10-09T12:20:26Z</time>
      </trkpt>
      <trkpt lat="43.21747" lon="5.44915">
        <ele>204.1</ele>
        <time>2013-10-09T12:20:29Z</time>
      </trkpt>
      <trkpt lat="43.21751" lon="5.44912">
        <ele>203.8</ele>
        <time>2013-10-09T12:20:33Z</time>
      </trkpt>
      <trkpt lat="43.21754" lon="5.44912">
        <ele>203.6</ele>
        <time>2013-10-09T12:20:36Z</time>
      </trkpt>
      <trkpt lat="43.21758" lon="5.44912">
        <ele>203.8</ele>
        <time>2013-10-09T12:20:39Z</time>
      </trkpt>
      <trkpt lat="43.21762" lon="5.44912">
        <ele>204.1</ele>
        <time>2013-10-09T12:20:42Z</time>
      </trkpt>
      <trkpt lat="43.21765" lon="5.44911">
        <ele>204.3</ele>
        <time>2013-10-09T12:20:45Z</time>
      </trkpt>
      <trkpt lat="43.2177" lon="5.44911">
        <ele>204.8</ele>
        <time>2013-10-09T12:20:48Z</time>
      </trkpt>
      <trkpt lat="43.21774" lon="5.44912">
        <ele>204.6</ele>
        <time>2013-10-09T12:20:52Z</time>
      </trkpt>
      <trkpt lat="43.21778" lon="5.44912">
        <ele>205</ele>
        <time>2013-10-09T12:20:55Z</time>
      </trkpt>
      <trkpt lat="43.21782" lon="5.44911">
        <ele>204.6</ele>
        <time>2013-10-09T12:20:59Z</time>
      </trkpt>
      <trkpt lat="43.21783" lon="5.44911">
        <ele>204.6</ele>
        <time>2013-10-09T12:21:00Z</time>
      </trkpt>
      <trkpt lat="43.2179" lon="5.44912">
        <ele>204.8</ele>
        <time>2013-10-09T12:21:07Z</time>
      </trkpt>
      <trkpt lat="43.21795" lon="5.44912">
        <ele>204.3</ele>
        <time>2013-10-09T12:21:12Z</time>
      </trkpt>
      <trkpt lat="43.21798" lon="5.44912">
        <ele>204.3</ele>
        <time>2013-10-09T12:21:15Z</time>
      </trkpt>
      <trkpt lat="43.21802" lon="5.44908">
        <ele>204.1</ele>
        <time>2013-10-09T12:21:19Z</time>
      </trkpt>
      <trkpt lat="43.21804" lon="5.44905">
        <ele>204.5</ele>
        <time>2013-10-09T12:21:22Z</time>
      </trkpt>
      <trkpt lat="43.21806" lon="5.449">
        <ele>204.1</ele>
        <time>2013-10-09T12:21:26Z</time>
      </trkpt>
      <trkpt lat="43.21805" lon="5.44894">
        <ele>201.8</ele>
        <time>2013-10-09T12:21:31Z</time>
      </trkpt>
      <trkpt lat="43.21805" lon="5.44888">
        <ele>200.8</ele>
        <time>2013-10-09T12:21:35Z</time>
      </trkpt>
      <trkpt lat="43.21807" lon="5.44883">
        <ele>200.1</ele>
        <time>2013-10-09T12:21:39Z</time>
      </trkpt>
      <trkpt lat="43.21809" lon="5.44877">
        <ele>199.5</ele>
        <time>2013-10-09T12:21:43Z</time>
      </trkpt>
      <trkpt lat="43.2181" lon="5.44874">
        <ele>200.1</ele>
        <time>2013-10-09T12:21:45Z</time>
      </trkpt>
      <trkpt lat="43.21812" lon="5.44868">
        <ele>201.3</ele>
        <time>2013-10-09T12:21:48Z</time>
      </trkpt>
      <trkpt lat="43.21814" lon="5.44864">
        <ele>202.3</ele>
        <time>2013-10-09T12:21:51Z</time>
      </trkpt>
      <trkpt lat="43.21817" lon="5.44861">
        <ele>202.8</ele>
        <time>2013-10-09T12:21:54Z</time>
      </trkpt>
      <trkpt lat="43.21821" lon="5.44858">
        <ele>203.3</ele>
        <time>2013-10-09T12:21:58Z</time>
      </trkpt>
      <trkpt lat="43.21824" lon="5.44855">
        <ele>203.3</ele>
        <time>2013-10-09T12:22:02Z</time>
      </trkpt>
      <trkpt lat="43.21826" lon="5.44855">
        <ele>203.3</ele>
        <time>2013-10-09T12:22:03Z</time>
      </trkpt>
      <trkpt lat="43.21832" lon="5.44854">
        <ele>203.5</ele>
        <time>2013-10-09T12:22:09Z</time>
      </trkpt>
      <trkpt lat="43.21836" lon="5.44854">
        <ele>204.1</ele>
        <time>2013-10-09T12:22:12Z</time>
      </trkpt>
      <trkpt lat="43.21841" lon="5.44855">
        <ele>204.8</ele>
        <time>2013-10-09T12:22:15Z</time>
      </trkpt>
      <trkpt lat="43.21844" lon="5.44855">
        <ele>205.1</ele>
        <time>2013-10-09T12:22:18Z</time>
      </trkpt>
      <trkpt lat="43.21848" lon="5.44855">
        <ele>206.1</ele>
        <time>2013-10-09T12:22:21Z</time>
      </trkpt>
      <trkpt lat="43.21852" lon="5.44855">
        <ele>206.8</ele>
        <time>2013-10-09T12:22:24Z</time>
      </trkpt>
      <trkpt lat="43.21856" lon="5.44855">
        <ele>207.6</ele>
        <time>2013-10-09T12:22:27Z</time>
      </trkpt>
      <trkpt lat="43.2186" lon="5.44855">
        <ele>208.1</ele>
        <time>2013-10-09T12:22:31Z</time>
      </trkpt>
      <trkpt lat="43.21864" lon="5.44855">
        <ele>208.8</ele>
        <time>2013-10-09T12:22:35Z</time>
      </trkpt>
      <trkpt lat="43.21868" lon="5.44854">
        <ele>209.6</ele>
        <time>2013-10-09T12:22:39Z</time>
      </trkpt>
      <trkpt lat="43.21872" lon="5.44851">
        <ele>210.3</ele>
        <time>2013-10-09T12:22:46Z</time>
      </trkpt>
      <trkpt lat="43.21876" lon="5.44851">
        <ele>209.3</ele>
        <time>2013-10-09T12:23:46Z</time>
      </trkpt>
      <trkpt lat="43.21876" lon="5.4485">
        <ele>209.3</ele>
        <time>2013-10-09T12:23:47Z</time>
      </trkpt>
      <trkpt lat="43.21876" lon="5.44854">
        <ele>208.6</ele>
        <time>2013-10-09T12:24:15Z</time>
      </trkpt>
      <trkpt lat="43.21876" lon="5.44849">
        <ele>212.3</ele>
        <time>2013-10-09T12:24:29Z</time>
      </trkpt>
      <trkpt lat="43.21877" lon="5.44845">
        <ele>211.1</ele>
        <time>2013-10-09T12:24:32Z</time>
      </trkpt>
      <trkpt lat="43.21878" lon="5.44839">
        <ele>211.3</ele>
        <time>2013-10-09T12:24:35Z</time>
      </trkpt>
      <trkpt lat="43.21879" lon="5.44834">
        <ele>209.8</ele>
        <time>2013-10-09T12:24:38Z</time>
      </trkpt>
      <trkpt lat="43.2188" lon="5.44829">
        <ele>209.1</ele>
        <time>2013-10-09T12:24:41Z</time>
      </trkpt>
      <trkpt lat="43.2188" lon="5.44825">
        <ele>208.3</ele>
        <time>2013-10-09T12:24:44Z</time>
      </trkpt>
      <trkpt lat="43.2188" lon="5.4482">
        <ele>210.5</ele>
        <time>2013-10-09T12:24:46Z</time>
      </trkpt>
      <trkpt lat="43.2188" lon="5.44815">
        <ele>211.8</ele>
        <time>2013-10-09T12:24:49Z</time>
      </trkpt>
      <trkpt lat="43.2188" lon="5.44813">
        <ele>211.8</ele>
        <time>2013-10-09T12:24:50Z</time>
      </trkpt>
      <trkpt lat="43.21876" lon="5.44804">
        <ele>209.8</ele>
        <time>2013-10-09T12:24:57Z</time>
      </trkpt>
      <trkpt lat="43.21876" lon="5.44799">
        <ele>210.3</ele>
        <time>2013-10-09T12:25:00Z</time>
      </trkpt>
      <trkpt lat="43.21876" lon="5.44794">
        <ele>208.8</ele>
        <time>2013-10-09T12:25:04Z</time>
      </trkpt>
      <trkpt lat="43.21877" lon="5.4479">
        <ele>208</ele>
        <time>2013-10-09T12:25:07Z</time>
      </trkpt>
      <trkpt lat="43.21877" lon="5.44786">
        <ele>209.3</ele>
        <time>2013-10-09T12:25:09Z</time>
      </trkpt>
      <trkpt lat="43.21879" lon="5.4478">
        <ele>210.3</ele>
        <time>2013-10-09T12:25:12Z</time>
      </trkpt>
      <trkpt lat="43.2188" lon="5.44776">
        <ele>210.1</ele>
        <time>2013-10-09T12:25:15Z</time>
      </trkpt>
      <trkpt lat="43.21881" lon="5.44771">
        <ele>209.6</ele>
        <time>2013-10-09T12:25:18Z</time>
      </trkpt>
      <trkpt lat="43.21882" lon="5.44766">
        <ele>209.3</ele>
        <time>2013-10-09T12:25:21Z</time>
      </trkpt>
      <trkpt lat="43.21884" lon="5.44761">
        <ele>208.6</ele>
        <time>2013-10-09T12:25:25Z</time>
      </trkpt>
      <trkpt lat="43.21885" lon="5.44756">
        <ele>207.5</ele>
        <time>2013-10-09T12:25:29Z</time>
      </trkpt>
      <trkpt lat="43.21886" lon="5.44751">
        <ele>206</ele>
        <time>2013-10-09T12:25:34Z</time>
      </trkpt>
      <trkpt lat="43.21885" lon="5.44745">
        <ele>204.8</ele>
        <time>2013-10-09T12:25:40Z</time>
      </trkpt>
      <trkpt lat="43.21884" lon="5.4474">
        <ele>203.8</ele>
        <time>2013-10-09T12:25:45Z</time>
      </trkpt>
      <trkpt lat="43.21883" lon="5.44734">
        <ele>202.8</ele>
        <time>2013-10-09T12:25:50Z</time>
      </trkpt>
      <trkpt lat="43.21883" lon="5.44733">
        <ele>202.6</ele>
        <time>2013-10-09T12:25:51Z</time>
      </trkpt>
      <trkpt lat="43.21885" lon="5.44723">
        <ele>209.6</ele>
        <time>2013-10-09T12:26:28Z</time>
      </trkpt>
      <trkpt lat="43.21882" lon="5.44718">
        <ele>214</ele>
        <time>2013-10-09T12:27:32Z</time>
      </trkpt>
      <trkpt lat="43.21882" lon="5.44717">
        <ele>214.1</ele>
        <time>2013-10-09T12:27:33Z</time>
      </trkpt>
      <trkpt lat="43.21876" lon="5.4471">
        <ele>213.6</ele>
        <time>2013-10-09T12:30:06Z</time>
      </trkpt>
      <trkpt lat="43.21876" lon="5.44709">
        <ele>213.3</ele>
        <time>2013-10-09T12:30:07Z</time>
      </trkpt>
      <trkpt lat="43.21876" lon="5.44699">
        <ele>211.5</ele>
        <time>2013-10-09T12:30:19Z</time>
      </trkpt>
      <trkpt lat="43.21876" lon="5.44694">
        <ele>213</ele>
        <time>2013-10-09T12:30:23Z</time>
      </trkpt>
      <trkpt lat="43.21877" lon="5.44689">
        <ele>213.8</ele>
        <time>2013-10-09T12:30:27Z</time>
      </trkpt>
      <trkpt lat="43.21879" lon="5.44684">
        <ele>214.3</ele>
        <time>2013-10-09T12:30:31Z</time>
      </trkpt>
      <trkpt lat="43.2188" lon="5.44679">
        <ele>212.8</ele>
        <time>2013-10-09T12:30:36Z</time>
      </trkpt>
      <trkpt lat="43.21881" lon="5.44674">
        <ele>211.8</ele>
        <time>2013-10-09T12:30:41Z</time>
      </trkpt>
      <trkpt lat="43.21882" lon="5.44668">
        <ele>211.1</ele>
        <time>2013-10-09T12:30:46Z</time>
      </trkpt>
      <trkpt lat="43.21883" lon="5.44663">
        <ele>210.3</ele>
        <time>2013-10-09T12:30:51Z</time>
      </trkpt>
      <trkpt lat="43.21886" lon="5.44659">
        <ele>207.5</ele>
        <time>2013-10-09T12:30:57Z</time>
      </trkpt>
      <trkpt lat="43.21887" lon="5.44655">
        <ele>205.3</ele>
        <time>2013-10-09T12:31:02Z</time>
      </trkpt>
      <trkpt lat="43.21888" lon="5.4465">
        <ele>206.3</ele>
        <time>2013-10-09T12:31:05Z</time>
      </trkpt>
      <trkpt lat="43.2189" lon="5.44645">
        <ele>206.5</ele>
        <time>2013-10-09T12:31:09Z</time>
      </trkpt>
      <trkpt lat="43.2189" lon="5.44644">
        <ele>206.1</ele>
        <time>2013-10-09T12:31:10Z</time>
      </trkpt>
      <trkpt lat="43.21891" lon="5.44636">
        <ele>204.5</ele>
        <time>2013-10-09T12:31:17Z</time>
      </trkpt>
      <trkpt lat="43.21892" lon="5.44631">
        <ele>204.8</ele>
        <time>2013-10-09T12:31:20Z</time>
      </trkpt>
      <trkpt lat="43.21893" lon="5.44626">
        <ele>206</ele>
        <time>2013-10-09T12:31:23Z</time>
      </trkpt>
      <trkpt lat="43.21894" lon="5.4462">
        <ele>206.5</ele>
        <time>2013-10-09T12:31:27Z</time>
      </trkpt>
      <trkpt lat="43.21896" lon="5.44616">
        <ele>205.6</ele>
        <time>2013-10-09T12:31:31Z</time>
      </trkpt>
      <trkpt lat="43.21899" lon="5.44612">
        <ele>205</ele>
        <time>2013-10-09T12:31:35Z</time>
      </trkpt>
      <trkpt lat="43.21901" lon="5.44609">
        <ele>204.6</ele>
        <time>2013-10-09T12:31:38Z</time>
      </trkpt>
      <trkpt lat="43.21903" lon="5.44604">
        <ele>203.8</ele>
        <time>2013-10-09T12:31:43Z</time>
      </trkpt>
      <trkpt lat="43.21906" lon="5.44599">
        <ele>204</ele>
        <time>2013-10-09T12:31:47Z</time>
      </trkpt>
      <trkpt lat="43.21907" lon="5.44594">
        <ele>204.3</ele>
        <time>2013-10-09T12:31:50Z</time>
      </trkpt>
      <trkpt lat="43.2191" lon="5.44591">
        <ele>203</ele>
        <time>2013-10-09T12:31:54Z</time>
      </trkpt>
      <trkpt lat="43.21913" lon="5.44587">
        <ele>203.1</ele>
        <time>2013-10-09T12:31:57Z</time>
      </trkpt>
      <trkpt lat="43.21915" lon="5.44583">
        <ele>203</ele>
        <time>2013-10-09T12:32:00Z</time>
      </trkpt>
      <trkpt lat="43.21916" lon="5.4458">
        <ele>203.6</ele>
        <time>2013-10-09T12:32:02Z</time>
      </trkpt>
      <trkpt lat="43.21919" lon="5.44579">
        <ele>204.1</ele>
        <time>2013-10-09T12:32:03Z</time>
      </trkpt>
      <trkpt lat="43.2192" lon="5.44574">
        <ele>205.3</ele>
        <time>2013-10-09T12:32:06Z</time>
      </trkpt>
      <trkpt lat="43.21922" lon="5.44569">
        <ele>206.1</ele>
        <time>2013-10-09T12:32:10Z</time>
      </trkpt>
      <trkpt lat="43.21922" lon="5.44568">
        <ele>205.6</ele>
        <time>2013-10-09T12:32:11Z</time>
      </trkpt>
      <trkpt lat="43.21926" lon="5.44559">
        <ele>205.1</ele>
        <time>2013-10-09T12:32:18Z</time>
      </trkpt>
      <trkpt lat="43.21928" lon="5.44554">
        <ele>204.1</ele>
        <time>2013-10-09T12:32:22Z</time>
      </trkpt>
      <trkpt lat="43.21928" lon="5.44548">
        <ele>203.3</ele>
        <time>2013-10-09T12:32:26Z</time>
      </trkpt>
      <trkpt lat="43.21927" lon="5.44543">
        <ele>200.5</ele>
        <time>2013-10-09T12:32:31Z</time>
      </trkpt>
      <trkpt lat="43.21927" lon="5.44538">
        <ele>197.3</ele>
        <time>2013-10-09T12:32:36Z</time>
      </trkpt>
      <trkpt lat="43.21926" lon="5.44534">
        <ele>198.6</ele>
        <time>2013-10-09T12:32:38Z</time>
      </trkpt>
      <trkpt lat="43.21924" lon="5.4453">
        <ele>198.1</ele>
        <time>2013-10-09T12:32:41Z</time>
      </trkpt>
      <trkpt lat="43.21923" lon="5.44524">
        <ele>194.6</ele>
        <time>2013-10-09T12:32:46Z</time>
      </trkpt>
      <trkpt lat="43.21922" lon="5.44518">
        <ele>195.1</ele>
        <time>2013-10-09T12:32:50Z</time>
      </trkpt>
      <trkpt lat="43.21921" lon="5.44513">
        <ele>194.6</ele>
        <time>2013-10-09T12:32:53Z</time>
      </trkpt>
      <trkpt lat="43.21921" lon="5.44508">
        <ele>196.3</ele>
        <time>2013-10-09T12:32:55Z</time>
      </trkpt>
      <trkpt lat="43.21922" lon="5.44503">
        <ele>195.3</ele>
        <time>2013-10-09T12:32:59Z</time>
      </trkpt>
      <trkpt lat="43.21922" lon="5.44498">
        <ele>193.1</ele>
        <time>2013-10-09T12:33:03Z</time>
      </trkpt>
      <trkpt lat="43.21923" lon="5.44493">
        <ele>190.5</ele>
        <time>2013-10-09T12:33:07Z</time>
      </trkpt>
      <trkpt lat="43.21924" lon="5.44489">
        <ele>191</ele>
        <time>2013-10-09T12:33:09Z</time>
      </trkpt>
      <trkpt lat="43.21924" lon="5.44483">
        <ele>192.5</ele>
        <time>2013-10-09T12:33:11Z</time>
      </trkpt>
      <trkpt lat="43.21923" lon="5.44481">
        <ele>193</ele>
        <time>2013-10-09T12:33:12Z</time>
      </trkpt>
      <trkpt lat="43.21924" lon="5.44473">
        <ele>194.5</ele>
        <time>2013-10-09T12:33:17Z</time>
      </trkpt>
      <trkpt lat="43.21926" lon="5.44468">
        <ele>192.6</ele>
        <time>2013-10-09T12:33:21Z</time>
      </trkpt>
      <trkpt lat="43.21928" lon="5.44463">
        <ele>190.1</ele>
        <time>2013-10-09T12:33:26Z</time>
      </trkpt>
      <trkpt lat="43.21929" lon="5.4446">
        <ele>190.5</ele>
        <time>2013-10-09T12:33:28Z</time>
      </trkpt>
      <trkpt lat="43.2193" lon="5.44455">
        <ele>192.1</ele>
        <time>2013-10-09T12:33:30Z</time>
      </trkpt>
      <trkpt lat="43.21931" lon="5.44451">
        <ele>193</ele>
        <time>2013-10-09T12:33:32Z</time>
      </trkpt>
      <trkpt lat="43.21932" lon="5.44447">
        <ele>195</ele>
        <time>2013-10-09T12:33:34Z</time>
      </trkpt>
      <trkpt lat="43.21933" lon="5.44441">
        <ele>196.1</ele>
        <time>2013-10-09T12:33:37Z</time>
      </trkpt>
      <trkpt lat="43.21935" lon="5.44435">
        <ele>195.8</ele>
        <time>2013-10-09T12:33:41Z</time>
      </trkpt>
      <trkpt lat="43.21936" lon="5.4443">
        <ele>195.6</ele>
        <time>2013-10-09T12:33:44Z</time>
      </trkpt>
      <trkpt lat="43.21938" lon="5.44425">
        <ele>195.3</ele>
        <time>2013-10-09T12:33:48Z</time>
      </trkpt>
      <trkpt lat="43.2194" lon="5.4442">
        <ele>194</ele>
        <time>2013-10-09T12:33:52Z</time>
      </trkpt>
      <trkpt lat="43.21943" lon="5.44415">
        <ele>193.1</ele>
        <time>2013-10-09T12:33:56Z</time>
      </trkpt>
      <trkpt lat="43.21945" lon="5.44411">
        <ele>193.3</ele>
        <time>2013-10-09T12:33:59Z</time>
      </trkpt>
      <trkpt lat="43.21948" lon="5.44408">
        <ele>192.8</ele>
        <time>2013-10-09T12:34:02Z</time>
      </trkpt>
      <trkpt lat="43.21951" lon="5.44404">
        <ele>192.6</ele>
        <time>2013-10-09T12:34:05Z</time>
      </trkpt>
      <trkpt lat="43.21953" lon="5.444">
        <ele>192.1</ele>
        <time>2013-10-09T12:34:09Z</time>
      </trkpt>
      <trkpt lat="43.21956" lon="5.44396">
        <ele>191.6</ele>
        <time>2013-10-09T12:34:12Z</time>
      </trkpt>
      <trkpt lat="43.21957" lon="5.44395">
        <ele>191.5</ele>
        <time>2013-10-09T12:34:13Z</time>
      </trkpt>
      <trkpt lat="43.21963" lon="5.44389">
        <ele>190.1</ele>
        <time>2013-10-09T12:34:18Z</time>
      </trkpt>
      <trkpt lat="43.21965" lon="5.44384">
        <ele>189.3</ele>
        <time>2013-10-09T12:34:22Z</time>
      </trkpt>
      <trkpt lat="43.21967" lon="5.44379">
        <ele>189.8</ele>
        <time>2013-10-09T12:34:26Z</time>
      </trkpt>
      <trkpt lat="43.21968" lon="5.44374">
        <ele>190.3</ele>
        <time>2013-10-09T12:34:29Z</time>
      </trkpt>
      <trkpt lat="43.2197" lon="5.44369">
        <ele>191.1</ele>
        <time>2013-10-09T12:34:33Z</time>
      </trkpt>
      <trkpt lat="43.21973" lon="5.44365">
        <ele>190.6</ele>
        <time>2013-10-09T12:34:36Z</time>
      </trkpt>
      <trkpt lat="43.21975" lon="5.44361">
        <ele>190.3</ele>
        <time>2013-10-09T12:34:39Z</time>
      </trkpt>
      <trkpt lat="43.21977" lon="5.44358">
        <ele>189.3</ele>
        <time>2013-10-09T12:34:42Z</time>
      </trkpt>
      <trkpt lat="43.2198" lon="5.44354">
        <ele>188.1</ele>
        <time>2013-10-09T12:34:45Z</time>
      </trkpt>
      <trkpt lat="43.21981" lon="5.44349">
        <ele>189.1</ele>
        <time>2013-10-09T12:34:48Z</time>
      </trkpt>
      <trkpt lat="43.21983" lon="5.44345">
        <ele>189.1</ele>
        <time>2013-10-09T12:34:51Z</time>
      </trkpt>
      <trkpt lat="43.21986" lon="5.44343">
        <ele>188.3</ele>
        <time>2013-10-09T12:34:53Z</time>
      </trkpt>
      <trkpt lat="43.21989" lon="5.4434">
        <ele>187.6</ele>
        <time>2013-10-09T12:34:56Z</time>
      </trkpt>
      <trkpt lat="43.21992" lon="5.44338">
        <ele>187.8</ele>
        <time>2013-10-09T12:34:58Z</time>
      </trkpt>
      <trkpt lat="43.21994" lon="5.44333">
        <ele>188.6</ele>
        <time>2013-10-09T12:35:01Z</time>
      </trkpt>
      <trkpt lat="43.21995" lon="5.44327">
        <ele>189.6</ele>
        <time>2013-10-09T12:35:04Z</time>
      </trkpt>
      <trkpt lat="43.21997" lon="5.44323">
        <ele>190.1</ele>
        <time>2013-10-09T12:35:07Z</time>
      </trkpt>
      <trkpt lat="43.22" lon="5.44319">
        <ele>190.3</ele>
        <time>2013-10-09T12:35:10Z</time>
      </trkpt>
      <trkpt lat="43.22002" lon="5.44314">
        <ele>190.1</ele>
        <time>2013-10-09T12:35:14Z</time>
      </trkpt>
      <trkpt lat="43.22003" lon="5.44314">
        <ele>190.1</ele>
        <time>2013-10-09T12:35:15Z</time>
      </trkpt>
      <trkpt lat="43.22006" lon="5.44305">
        <ele>189.5</ele>
        <time>2013-10-09T12:35:23Z</time>
      </trkpt>
      <trkpt lat="43.22008" lon="5.443">
        <ele>188.8</ele>
        <time>2013-10-09T12:35:27Z</time>
      </trkpt>
      <trkpt lat="43.22009" lon="5.44295">
        <ele>188</ele>
        <time>2013-10-09T12:35:31Z</time>
      </trkpt>
      <trkpt lat="43.2201" lon="5.4429">
        <ele>188.1</ele>
        <time>2013-10-09T12:35:34Z</time>
      </trkpt>
      <trkpt lat="43.22012" lon="5.44285">
        <ele>188.6</ele>
        <time>2013-10-09T12:35:38Z</time>
      </trkpt>
      <trkpt lat="43.22015" lon="5.44281">
        <ele>189</ele>
        <time>2013-10-09T12:35:41Z</time>
      </trkpt>
      <trkpt lat="43.22019" lon="5.44278">
        <ele>189.1</ele>
        <time>2013-10-09T12:35:44Z</time>
      </trkpt>
      <trkpt lat="43.2202" lon="5.44273">
        <ele>188.8</ele>
        <time>2013-10-09T12:35:47Z</time>
      </trkpt>
      <trkpt lat="43.22021" lon="5.44268">
        <ele>187.8</ele>
        <time>2013-10-09T12:35:51Z</time>
      </trkpt>
      <trkpt lat="43.22022" lon="5.44263">
        <ele>188.1</ele>
        <time>2013-10-09T12:35:54Z</time>
      </trkpt>
      <trkpt lat="43.22024" lon="5.44261">
        <ele>188.3</ele>
        <time>2013-10-09T12:35:56Z</time>
      </trkpt>
      <trkpt lat="43.22028" lon="5.44258">
        <ele>188.1</ele>
        <time>2013-10-09T12:35:59Z</time>
      </trkpt>
      <trkpt lat="43.2203" lon="5.44255">
        <ele>188.5</ele>
        <time>2013-10-09T12:36:01Z</time>
      </trkpt>
      <trkpt lat="43.22033" lon="5.44252">
        <ele>189</ele>
        <time>2013-10-09T12:36:03Z</time>
      </trkpt>
      <trkpt lat="43.22034" lon="5.44249">
        <ele>189.6</ele>
        <time>2013-10-09T12:36:05Z</time>
      </trkpt>
      <trkpt lat="43.22036" lon="5.44244">
        <ele>190.3</ele>
        <time>2013-10-09T12:36:08Z</time>
      </trkpt>
      <trkpt lat="43.22037" lon="5.44238">
        <ele>191.3</ele>
        <time>2013-10-09T12:36:11Z</time>
      </trkpt>
      <trkpt lat="43.22038" lon="5.44233">
        <ele>191.8</ele>
        <time>2013-10-09T12:36:14Z</time>
      </trkpt>
      <trkpt lat="43.22039" lon="5.44228">
        <ele>191.6</ele>
        <time>2013-10-09T12:36:18Z</time>
      </trkpt>
      <trkpt lat="43.22041" lon="5.44226">
        <ele>191.8</ele>
        <time>2013-10-09T12:36:19Z</time>
      </trkpt>
      <trkpt lat="43.22043" lon="5.44218">
        <ele>188.1</ele>
        <time>2013-10-09T12:36:26Z</time>
      </trkpt>
      <trkpt lat="43.22045" lon="5.44212">
        <ele>186.3</ele>
        <time>2013-10-09T12:36:31Z</time>
      </trkpt>
      <trkpt lat="43.22046" lon="5.44208">
        <ele>186.6</ele>
        <time>2013-10-09T12:36:34Z</time>
      </trkpt>
      <trkpt lat="43.22046" lon="5.44204">
        <ele>187</ele>
        <time>2013-10-09T12:36:36Z</time>
      </trkpt>
      <trkpt lat="43.22047" lon="5.44199">
        <ele>186.3</ele>
        <time>2013-10-09T12:36:39Z</time>
      </trkpt>
      <trkpt lat="43.22048" lon="5.44193">
        <ele>186.1</ele>
        <time>2013-10-09T12:36:42Z</time>
      </trkpt>
      <trkpt lat="43.22049" lon="5.44188">
        <ele>185.1</ele>
        <time>2013-10-09T12:36:45Z</time>
      </trkpt>
      <trkpt lat="43.22051" lon="5.44184">
        <ele>181.6</ele>
        <time>2013-10-09T12:36:50Z</time>
      </trkpt>
      <trkpt lat="43.22054" lon="5.44181">
        <ele>180</ele>
        <time>2013-10-09T12:36:53Z</time>
      </trkpt>
      <trkpt lat="43.22057" lon="5.44177">
        <ele>177.3</ele>
        <time>2013-10-09T12:36:57Z</time>
      </trkpt>
      <trkpt lat="43.22057" lon="5.44172">
        <ele>176.8</ele>
        <time>2013-10-09T12:37:00Z</time>
      </trkpt>
      <trkpt lat="43.22058" lon="5.44167">
        <ele>177</ele>
        <time>2013-10-09T12:37:03Z</time>
      </trkpt>
      <trkpt lat="43.22059" lon="5.44162">
        <ele>175.6</ele>
        <time>2013-10-09T12:37:07Z</time>
      </trkpt>
      <trkpt lat="43.22061" lon="5.44157">
        <ele>175</ele>
        <time>2013-10-09T12:37:10Z</time>
      </trkpt>
      <trkpt lat="43.22063" lon="5.44153">
        <ele>173.3</ele>
        <time>2013-10-09T12:37:13Z</time>
      </trkpt>
      <trkpt lat="43.22064" lon="5.44148">
        <ele>174</ele>
        <time>2013-10-09T12:37:15Z</time>
      </trkpt>
      <trkpt lat="43.22066" lon="5.44144">
        <ele>172.6</ele>
        <time>2013-10-09T12:37:18Z</time>
      </trkpt>
      <trkpt lat="43.22067" lon="5.44139">
        <ele>174.5</ele>
        <time>2013-10-09T12:37:20Z</time>
      </trkpt>
      <trkpt lat="43.22067" lon="5.44136">
        <ele>175.3</ele>
        <time>2013-10-09T12:37:21Z</time>
      </trkpt>
      <trkpt lat="43.2207" lon="5.44129">
        <ele>176.6</ele>
        <time>2013-10-09T12:37:25Z</time>
      </trkpt>
      <trkpt lat="43.22071" lon="5.44124">
        <ele>178</ele>
        <time>2013-10-09T12:37:28Z</time>
      </trkpt>
      <trkpt lat="43.22073" lon="5.44119">
        <ele>178.6</ele>
        <time>2013-10-09T12:37:31Z</time>
      </trkpt>
      <trkpt lat="43.22075" lon="5.44114">
        <ele>179.1</ele>
        <time>2013-10-09T12:37:34Z</time>
      </trkpt>
      <trkpt lat="43.22077" lon="5.4411">
        <ele>179</ele>
        <time>2013-10-09T12:37:37Z</time>
      </trkpt>
      <trkpt lat="43.22079" lon="5.44106">
        <ele>178.8</ele>
        <time>2013-10-09T12:37:40Z</time>
      </trkpt>
      <trkpt lat="43.22081" lon="5.44102">
        <ele>178.8</ele>
        <time>2013-10-09T12:37:43Z</time>
      </trkpt>
      <trkpt lat="43.22083" lon="5.44098">
        <ele>178.8</ele>
        <time>2013-10-09T12:37:46Z</time>
      </trkpt>
      <trkpt lat="43.22086" lon="5.44095">
        <ele>178.8</ele>
        <time>2013-10-09T12:37:49Z</time>
      </trkpt>
      <trkpt lat="43.22088" lon="5.44091">
        <ele>178.1</ele>
        <time>2013-10-09T12:37:53Z</time>
      </trkpt>
      <trkpt lat="43.22091" lon="5.44088">
        <ele>177.8</ele>
        <time>2013-10-09T12:37:56Z</time>
      </trkpt>
      <trkpt lat="43.22095" lon="5.44084">
        <ele>177.3</ele>
        <time>2013-10-09T12:38:00Z</time>
      </trkpt>
      <trkpt lat="43.22099" lon="5.44081">
        <ele>177.5</ele>
        <time>2013-10-09T12:38:03Z</time>
      </trkpt>
      <trkpt lat="43.22101" lon="5.44077">
        <ele>176.8</ele>
        <time>2013-10-09T12:38:07Z</time>
      </trkpt>
      <trkpt lat="43.22103" lon="5.44074">
        <ele>176</ele>
        <time>2013-10-09T12:38:11Z</time>
      </trkpt>
      <trkpt lat="43.22106" lon="5.4407">
        <ele>175.1</ele>
        <time>2013-10-09T12:38:15Z</time>
      </trkpt>
      <trkpt lat="43.22109" lon="5.44067">
        <ele>174.3</ele>
        <time>2013-10-09T12:38:19Z</time>
      </trkpt>
      <trkpt lat="43.22112" lon="5.44064">
        <ele>173.8</ele>
        <time>2013-10-09T12:38:23Z</time>
      </trkpt>
      <trkpt lat="43.22113" lon="5.44063">
        <ele>173.8</ele>
        <time>2013-10-09T12:38:24Z</time>
      </trkpt>
      <trkpt lat="43.22119" lon="5.4406">
        <ele>175.6</ele>
        <time>2013-10-09T12:38:27Z</time>
      </trkpt>
      <trkpt lat="43.22123" lon="5.44057">
        <ele>175</ele>
        <time>2013-10-09T12:38:31Z</time>
      </trkpt>
      <trkpt lat="43.22126" lon="5.44053">
        <ele>174.1</ele>
        <time>2013-10-09T12:38:35Z</time>
      </trkpt>
      <trkpt lat="43.22129" lon="5.4405">
        <ele>173.8</ele>
        <time>2013-10-09T12:38:38Z</time>
      </trkpt>
      <trkpt lat="43.22132" lon="5.44047">
        <ele>174.5</ele>
        <time>2013-10-09T12:38:40Z</time>
      </trkpt>
      <trkpt lat="43.22136" lon="5.44044">
        <ele>174.6</ele>
        <time>2013-10-09T12:38:43Z</time>
      </trkpt>
      <trkpt lat="43.22139" lon="5.44041">
        <ele>174.1</ele>
        <time>2013-10-09T12:38:46Z</time>
      </trkpt>
      <trkpt lat="43.22142" lon="5.44038">
        <ele>174.1</ele>
        <time>2013-10-09T12:38:49Z</time>
      </trkpt>
      <trkpt lat="43.22144" lon="5.44035">
        <ele>174.6</ele>
        <time>2013-10-09T12:38:52Z</time>
      </trkpt>
      <trkpt lat="43.22148" lon="5.44032">
        <ele>174</ele>
        <time>2013-10-09T12:38:56Z</time>
      </trkpt>
      <trkpt lat="43.22152" lon="5.4403">
        <ele>173.6</ele>
        <time>2013-10-09T12:38:59Z</time>
      </trkpt>
      <trkpt lat="43.22156" lon="5.44027">
        <ele>172.8</ele>
        <time>2013-10-09T12:39:03Z</time>
      </trkpt>
      <trkpt lat="43.22159" lon="5.44022">
        <ele>171.6</ele>
        <time>2013-10-09T12:39:08Z</time>
      </trkpt>
      <trkpt lat="43.22163" lon="5.4402">
        <ele>171.5</ele>
        <time>2013-10-09T12:39:12Z</time>
      </trkpt>
      <trkpt lat="43.22167" lon="5.44017">
        <ele>170.8</ele>
        <time>2013-10-09T12:39:17Z</time>
      </trkpt>
      <trkpt lat="43.22169" lon="5.44015">
        <ele>170</ele>
        <time>2013-10-09T12:39:20Z</time>
      </trkpt>
      <trkpt lat="43.22173" lon="5.44014">
        <ele>169.8</ele>
        <time>2013-10-09T12:39:23Z</time>
      </trkpt>
      <trkpt lat="43.22176" lon="5.44011">
        <ele>166.6</ele>
        <time>2013-10-09T12:39:30Z</time>
      </trkpt>
      <trkpt lat="43.22177" lon="5.4401">
        <ele>166.1</ele>
        <time>2013-10-09T12:39:31Z</time>
      </trkpt>
      <trkpt lat="43.22182" lon="5.4401">
        <ele>166.8</ele>
        <time>2013-10-09T12:39:33Z</time>
      </trkpt>
      <trkpt lat="43.22186" lon="5.44009">
        <ele>167.5</ele>
        <time>2013-10-09T12:39:34Z</time>
      </trkpt>
      <trkpt lat="43.22188" lon="5.44009">
        <ele>168.3</ele>
        <time>2013-10-09T12:39:35Z</time>
      </trkpt>
      <trkpt lat="43.22191" lon="5.44008">
        <ele>169.1</ele>
        <time>2013-10-09T12:39:36Z</time>
      </trkpt>
      <trkpt lat="43.22193" lon="5.44008">
        <ele>169.6</ele>
        <time>2013-10-09T12:39:37Z</time>
      </trkpt>
      <trkpt lat="43.22195" lon="5.44008">
        <ele>170.1</ele>
        <time>2013-10-09T12:39:38Z</time>
      </trkpt>
      <trkpt lat="43.22199" lon="5.44007">
        <ele>170.8</ele>
        <time>2013-10-09T12:39:40Z</time>
      </trkpt>
      <trkpt lat="43.22203" lon="5.44007">
        <ele>171</ele>
        <time>2013-10-09T12:39:42Z</time>
      </trkpt>
      <trkpt lat="43.22206" lon="5.44006">
        <ele>171.5</ele>
        <time>2013-10-09T12:39:44Z</time>
      </trkpt>
      <trkpt lat="43.2221" lon="5.44005">
        <ele>172.3</ele>
        <time>2013-10-09T12:39:46Z</time>
      </trkpt>
      <trkpt lat="43.22213" lon="5.44005">
        <ele>172.6</ele>
        <time>2013-10-09T12:39:48Z</time>
      </trkpt>
      <trkpt lat="43.22215" lon="5.44005">
        <ele>172.8</ele>
        <time>2013-10-09T12:39:49Z</time>
      </trkpt>
      <trkpt lat="43.22219" lon="5.44004">
        <ele>173.5</ele>
        <time>2013-10-09T12:39:51Z</time>
      </trkpt>
      <trkpt lat="43.22223" lon="5.44003">
        <ele>173.6</ele>
        <time>2013-10-09T12:39:54Z</time>
      </trkpt>
      <trkpt lat="43.22226" lon="5.44001">
        <ele>173.3</ele>
        <time>2013-10-09T12:39:58Z</time>
      </trkpt>
      <trkpt lat="43.22231" lon="5.43999">
        <ele>172.8</ele>
        <time>2013-10-09T12:40:02Z</time>
      </trkpt>
      <trkpt lat="43.22235" lon="5.43998">
        <ele>173.3</ele>
        <time>2013-10-09T12:40:05Z</time>
      </trkpt>
      <trkpt lat="43.22239" lon="5.43997">
        <ele>174.1</ele>
        <time>2013-10-09T12:40:08Z</time>
      </trkpt>
      <trkpt lat="43.22243" lon="5.43995">
        <ele>174</ele>
        <time>2013-10-09T12:40:13Z</time>
      </trkpt>
      <trkpt lat="43.22247" lon="5.43994">
        <ele>174.1</ele>
        <time>2013-10-09T12:40:16Z</time>
      </trkpt>
      <trkpt lat="43.22251" lon="5.43993">
        <ele>174</ele>
        <time>2013-10-09T12:40:19Z</time>
      </trkpt>
      <trkpt lat="43.22255" lon="5.43992">
        <ele>174.8</ele>
        <time>2013-10-09T12:40:22Z</time>
      </trkpt>
      <trkpt lat="43.22258" lon="5.4399">
        <ele>175</ele>
        <time>2013-10-09T12:40:25Z</time>
      </trkpt>
      <trkpt lat="43.22262" lon="5.43988">
        <ele>175.1</ele>
        <time>2013-10-09T12:40:28Z</time>
      </trkpt>
      <trkpt lat="43.22266" lon="5.43987">
        <ele>175.3</ele>
        <time>2013-10-09T12:40:31Z</time>
      </trkpt>
      <trkpt lat="43.22267" lon="5.43986">
        <ele>175.1</ele>
        <time>2013-10-09T12:40:32Z</time>
      </trkpt>
      <trkpt lat="43.22273" lon="5.43982">
        <ele>174.3</ele>
        <time>2013-10-09T12:40:39Z</time>
      </trkpt>
      <trkpt lat="43.22276" lon="5.43978">
        <ele>174.1</ele>
        <time>2013-10-09T12:40:43Z</time>
      </trkpt>
      <trkpt lat="43.22279" lon="5.43974">
        <ele>172</ele>
        <time>2013-10-09T12:40:48Z</time>
      </trkpt>
      <trkpt lat="43.22281" lon="5.43971">
        <ele>170.3</ele>
        <time>2013-10-09T12:40:51Z</time>
      </trkpt>
      <trkpt lat="43.22284" lon="5.43969">
        <ele>171</ele>
        <time>2013-10-09T12:40:53Z</time>
      </trkpt>
      <trkpt lat="43.22285" lon="5.43964">
        <ele>165.6</ele>
        <time>2013-10-09T12:40:59Z</time>
      </trkpt>
      <trkpt lat="43.22287" lon="5.43959">
        <ele>163.3</ele>
        <time>2013-10-09T12:41:04Z</time>
      </trkpt>
      <trkpt lat="43.2229" lon="5.43958">
        <ele>164</ele>
        <time>2013-10-09T12:41:05Z</time>
      </trkpt>
      <trkpt lat="43.22293" lon="5.43955">
        <ele>164.1</ele>
        <time>2013-10-09T12:41:09Z</time>
      </trkpt>
      <trkpt lat="43.22297" lon="5.43953">
        <ele>163.8</ele>
        <time>2013-10-09T12:41:12Z</time>
      </trkpt>
      <trkpt lat="43.22298" lon="5.43951">
        <ele>163.1</ele>
        <time>2013-10-09T12:41:14Z</time>
      </trkpt>
      <trkpt lat="43.22302" lon="5.4395">
        <ele>164.5</ele>
        <time>2013-10-09T12:41:16Z</time>
      </trkpt>
      <trkpt lat="43.22304" lon="5.43946">
        <ele>164</ele>
        <time>2013-10-09T12:41:19Z</time>
      </trkpt>
      <trkpt lat="43.22306" lon="5.43946">
        <ele>164.8</ele>
        <time>2013-10-09T12:41:20Z</time>
      </trkpt>
      <trkpt lat="43.22309" lon="5.43945">
        <ele>165.1</ele>
        <time>2013-10-09T12:41:21Z</time>
      </trkpt>
      <trkpt lat="43.22311" lon="5.43944">
        <ele>166</ele>
        <time>2013-10-09T12:41:22Z</time>
      </trkpt>
      <trkpt lat="43.22314" lon="5.43942">
        <ele>166.6</ele>
        <time>2013-10-09T12:41:23Z</time>
      </trkpt>
      <trkpt lat="43.22316" lon="5.43941">
        <ele>167.3</ele>
        <time>2013-10-09T12:41:24Z</time>
      </trkpt>
      <trkpt lat="43.2232" lon="5.43939">
        <ele>167.3</ele>
        <time>2013-10-09T12:41:26Z</time>
      </trkpt>
      <trkpt lat="43.22322" lon="5.43937">
        <ele>167.8</ele>
        <time>2013-10-09T12:41:28Z</time>
      </trkpt>
      <trkpt lat="43.22325" lon="5.43934">
        <ele>168.3</ele>
        <time>2013-10-09T12:41:30Z</time>
      </trkpt>
      <trkpt lat="43.22329" lon="5.43932">
        <ele>169.6</ele>
        <time>2013-10-09T12:41:32Z</time>
      </trkpt>
      <trkpt lat="43.22331" lon="5.43931">
        <ele>169.8</ele>
        <time>2013-10-09T12:41:33Z</time>
      </trkpt>
      <trkpt lat="43.22336" lon="5.43928">
        <ele>171.8</ele>
        <time>2013-10-09T12:41:36Z</time>
      </trkpt>
      <trkpt lat="43.22338" lon="5.43924">
        <ele>171.6</ele>
        <time>2013-10-09T12:41:39Z</time>
      </trkpt>
      <trkpt lat="43.22341" lon="5.43922">
        <ele>172.6</ele>
        <time>2013-10-09T12:41:41Z</time>
      </trkpt>
      <trkpt lat="43.22344" lon="5.43919">
        <ele>173.1</ele>
        <time>2013-10-09T12:41:44Z</time>
      </trkpt>
      <trkpt lat="43.22347" lon="5.43915">
        <ele>172.8</ele>
        <time>2013-10-09T12:41:47Z</time>
      </trkpt>
      <trkpt lat="43.2235" lon="5.43912">
        <ele>172.6</ele>
        <time>2013-10-09T12:41:50Z</time>
      </trkpt>
      <trkpt lat="43.22352" lon="5.43908">
        <ele>172.3</ele>
        <time>2013-10-09T12:41:53Z</time>
      </trkpt>
      <trkpt lat="43.22355" lon="5.43904">
        <ele>171.1</ele>
        <time>2013-10-09T12:41:57Z</time>
      </trkpt>
      <trkpt lat="43.22357" lon="5.43899">
        <ele>170.3</ele>
        <time>2013-10-09T12:42:01Z</time>
      </trkpt>
      <trkpt lat="43.22359" lon="5.43894">
        <ele>171</ele>
        <time>2013-10-09T12:42:05Z</time>
      </trkpt>
      <trkpt lat="43.22362" lon="5.43891">
        <ele>171.5</ele>
        <time>2013-10-09T12:42:08Z</time>
      </trkpt>
      <trkpt lat="43.22365" lon="5.43887">
        <ele>171.1</ele>
        <time>2013-10-09T12:42:12Z</time>
      </trkpt>
      <trkpt lat="43.22368" lon="5.43884">
        <ele>170.1</ele>
        <time>2013-10-09T12:42:16Z</time>
      </trkpt>
      <trkpt lat="43.22371" lon="5.43881">
        <ele>169.1</ele>
        <time>2013-10-09T12:42:20Z</time>
      </trkpt>
      <trkpt lat="43.22373" lon="5.43878">
        <ele>168.8</ele>
        <time>2013-10-09T12:42:23Z</time>
      </trkpt>
      <trkpt lat="43.22376" lon="5.43874">
        <ele>168.3</ele>
        <time>2013-10-09T12:42:27Z</time>
      </trkpt>
      <trkpt lat="43.2238" lon="5.43872">
        <ele>168.3</ele>
        <time>2013-10-09T12:42:30Z</time>
      </trkpt>
      <trkpt lat="43.22384" lon="5.43869">
        <ele>168.3</ele>
        <time>2013-10-09T12:42:34Z</time>
      </trkpt>
      <trkpt lat="43.22385" lon="5.43869">
        <ele>168.1</ele>
        <time>2013-10-09T12:42:35Z</time>
      </trkpt>
      <trkpt lat="43.22391" lon="5.43864">
        <ele>168</ele>
        <time>2013-10-09T12:42:41Z</time>
      </trkpt>
      <trkpt lat="43.22395" lon="5.43862">
        <ele>168.3</ele>
        <time>2013-10-09T12:42:44Z</time>
      </trkpt>
      <trkpt lat="43.22399" lon="5.4386">
        <ele>167.8</ele>
        <time>2013-10-09T12:42:47Z</time>
      </trkpt>
      <trkpt lat="43.22402" lon="5.43858">
        <ele>167.6</ele>
        <time>2013-10-09T12:42:51Z</time>
      </trkpt>
      <trkpt lat="43.22406" lon="5.43855">
        <ele>167.1</ele>
        <time>2013-10-09T12:42:55Z</time>
      </trkpt>
      <trkpt lat="43.2241" lon="5.43853">
        <ele>167.5</ele>
        <time>2013-10-09T12:42:58Z</time>
      </trkpt>
      <trkpt lat="43.22414" lon="5.43852">
        <ele>167.6</ele>
        <time>2013-10-09T12:43:01Z</time>
      </trkpt>
      <trkpt lat="43.22418" lon="5.4385">
        <ele>168</ele>
        <time>2013-10-09T12:43:06Z</time>
      </trkpt>
      <trkpt lat="43.22421" lon="5.43847">
        <ele>168</ele>
        <time>2013-10-09T12:43:10Z</time>
      </trkpt>
      <trkpt lat="43.22424" lon="5.43845">
        <ele>166.8</ele>
        <time>2013-10-09T12:43:14Z</time>
      </trkpt>
      <trkpt lat="43.22427" lon="5.43842">
        <ele>166.5</ele>
        <time>2013-10-09T12:43:17Z</time>
      </trkpt>
      <trkpt lat="43.2243" lon="5.43839">
        <ele>165.3</ele>
        <time>2013-10-09T12:43:21Z</time>
      </trkpt>
      <trkpt lat="43.22433" lon="5.43834">
        <ele>165.3</ele>
        <time>2013-10-09T12:43:26Z</time>
      </trkpt>
      <trkpt lat="43.22436" lon="5.43831">
        <ele>165.6</ele>
        <time>2013-10-09T12:43:30Z</time>
      </trkpt>
      <trkpt lat="43.2244" lon="5.4383">
        <ele>167</ele>
        <time>2013-10-09T12:43:31Z</time>
      </trkpt>
      <trkpt lat="43.22444" lon="5.43828">
        <ele>166.8</ele>
        <time>2013-10-09T12:43:34Z</time>
      </trkpt>
      <trkpt lat="43.22446" lon="5.43824">
        <ele>166.1</ele>
        <time>2013-10-09T12:43:38Z</time>
      </trkpt>
      <trkpt lat="43.22448" lon="5.43823">
        <ele>167.1</ele>
        <time>2013-10-09T12:43:39Z</time>
      </trkpt>
      <trkpt lat="43.22453" lon="5.4382">
        <ele>167.6</ele>
        <time>2013-10-09T12:43:44Z</time>
      </trkpt>
      <trkpt lat="43.22456" lon="5.43818">
        <ele>169</ele>
        <time>2013-10-09T12:43:47Z</time>
      </trkpt>
      <trkpt lat="43.2246" lon="5.43818">
        <ele>170.6</ele>
        <time>2013-10-09T12:43:50Z</time>
      </trkpt>
      <trkpt lat="43.22463" lon="5.43817">
        <ele>170.6</ele>
        <time>2013-10-09T12:43:53Z</time>
      </trkpt>
      <trkpt lat="43.22467" lon="5.43817">
        <ele>171.1</ele>
        <time>2013-10-09T12:43:56Z</time>
      </trkpt>
      <trkpt lat="43.22471" lon="5.43818">
        <ele>170</ele>
        <time>2013-10-09T12:44:00Z</time>
      </trkpt>
      <trkpt lat="43.22475" lon="5.43817">
        <ele>168.5</ele>
        <time>2013-10-09T12:44:04Z</time>
      </trkpt>
      <trkpt lat="43.22478" lon="5.43817">
        <ele>167.8</ele>
        <time>2013-10-09T12:44:07Z</time>
      </trkpt>
      <trkpt lat="43.22483" lon="5.43816">
        <ele>167.6</ele>
        <time>2013-10-09T12:44:10Z</time>
      </trkpt>
      <trkpt lat="43.22487" lon="5.43816">
        <ele>167</ele>
        <time>2013-10-09T12:44:15Z</time>
      </trkpt>
      <trkpt lat="43.2249" lon="5.43816">
        <ele>167</ele>
        <time>2013-10-09T12:44:18Z</time>
      </trkpt>
      <trkpt lat="43.22494" lon="5.43816">
        <ele>167.1</ele>
        <time>2013-10-09T12:44:21Z</time>
      </trkpt>
      <trkpt lat="43.22498" lon="5.43816">
        <ele>166.8</ele>
        <time>2013-10-09T12:44:24Z</time>
      </trkpt>
      <trkpt lat="43.22502" lon="5.43817">
        <ele>167</ele>
        <time>2013-10-09T12:44:27Z</time>
      </trkpt>
      <trkpt lat="43.22506" lon="5.43817">
        <ele>167.1</ele>
        <time>2013-10-09T12:44:30Z</time>
      </trkpt>
      <trkpt lat="43.2251" lon="5.43817">
        <ele>166.8</ele>
        <time>2013-10-09T12:44:33Z</time>
      </trkpt>
      <trkpt lat="43.22514" lon="5.43818">
        <ele>166.1</ele>
        <time>2013-10-09T12:44:37Z</time>
      </trkpt>
      <trkpt lat="43.22517" lon="5.43817">
        <ele>165.3</ele>
        <time>2013-10-09T12:44:41Z</time>
      </trkpt>
      <trkpt lat="43.22519" lon="5.43817">
        <ele>165.3</ele>
        <time>2013-10-09T12:44:42Z</time>
      </trkpt>
      <trkpt lat="43.22524" lon="5.43816">
        <ele>164.8</ele>
        <time>2013-10-09T12:44:47Z</time>
      </trkpt>
      <trkpt lat="43.22528" lon="5.43815">
        <ele>164</ele>
        <time>2013-10-09T12:44:51Z</time>
      </trkpt>
      <trkpt lat="43.22532" lon="5.43814">
        <ele>163.6</ele>
        <time>2013-10-09T12:44:54Z</time>
      </trkpt>
      <trkpt lat="43.22536" lon="5.43814">
        <ele>164.1</ele>
        <time>2013-10-09T12:44:57Z</time>
      </trkpt>
      <trkpt lat="43.2254" lon="5.43813">
        <ele>164.1</ele>
        <time>2013-10-09T12:45:00Z</time>
      </trkpt>
      <trkpt lat="43.22544" lon="5.43813">
        <ele>164.1</ele>
        <time>2013-10-09T12:45:03Z</time>
      </trkpt>
      <trkpt lat="43.22548" lon="5.43812">
        <ele>164.3</ele>
        <time>2013-10-09T12:45:06Z</time>
      </trkpt>
      <trkpt lat="43.22551" lon="5.43812">
        <ele>163.3</ele>
        <time>2013-10-09T12:45:10Z</time>
      </trkpt>
      <trkpt lat="43.22554" lon="5.43812">
        <ele>163.1</ele>
        <time>2013-10-09T12:45:12Z</time>
      </trkpt>
      <trkpt lat="43.22557" lon="5.43812">
        <ele>163.6</ele>
        <time>2013-10-09T12:45:14Z</time>
      </trkpt>
      <trkpt lat="43.22561" lon="5.43811">
        <ele>163.6</ele>
        <time>2013-10-09T12:45:17Z</time>
      </trkpt>
      <trkpt lat="43.22566" lon="5.43811">
        <ele>164.8</ele>
        <time>2013-10-09T12:45:19Z</time>
      </trkpt>
      <trkpt lat="43.22569" lon="5.43811">
        <ele>164.8</ele>
        <time>2013-10-09T12:45:22Z</time>
      </trkpt>
      <trkpt lat="43.22574" lon="5.43811">
        <ele>164.6</ele>
        <time>2013-10-09T12:45:27Z</time>
      </trkpt>
      <trkpt lat="43.22578" lon="5.4381">
        <ele>165</ele>
        <time>2013-10-09T12:45:30Z</time>
      </trkpt>
      <trkpt lat="43.22581" lon="5.4381">
        <ele>165.1</ele>
        <time>2013-10-09T12:45:34Z</time>
      </trkpt>
      <trkpt lat="43.22585" lon="5.4381">
        <ele>165.5</ele>
        <time>2013-10-09T12:45:37Z</time>
      </trkpt>
      <trkpt lat="43.22589" lon="5.4381">
        <ele>165.5</ele>
        <time>2013-10-09T12:45:42Z</time>
      </trkpt>
      <trkpt lat="43.22591" lon="5.4381">
        <ele>165.6</ele>
        <time>2013-10-09T12:45:43Z</time>
      </trkpt>
      <trkpt lat="43.22597" lon="5.43809">
        <ele>166.6</ele>
        <time>2013-10-09T12:45:47Z</time>
      </trkpt>
      <trkpt lat="43.226" lon="5.43808">
        <ele>167.3</ele>
        <time>2013-10-09T12:45:49Z</time>
      </trkpt>
      <trkpt lat="43.22604" lon="5.43807">
        <ele>167.6</ele>
        <time>2013-10-09T12:45:52Z</time>
      </trkpt>
      <trkpt lat="43.22608" lon="5.43806">
        <ele>167.6</ele>
        <time>2013-10-09T12:45:55Z</time>
      </trkpt>
      <trkpt lat="43.22613" lon="5.43806">
        <ele>167.8</ele>
        <time>2013-10-09T12:45:58Z</time>
      </trkpt>
      <trkpt lat="43.22617" lon="5.43804">
        <ele>167.8</ele>
        <time>2013-10-09T12:46:01Z</time>
      </trkpt>
      <trkpt lat="43.2262" lon="5.43802">
        <ele>167.5</ele>
        <time>2013-10-09T12:46:04Z</time>
      </trkpt>
      <trkpt lat="43.22624" lon="5.43801">
        <ele>167.3</ele>
        <time>2013-10-09T12:46:07Z</time>
      </trkpt>
      <trkpt lat="43.22628" lon="5.43798">
        <ele>165.6</ele>
        <time>2013-10-09T12:46:11Z</time>
      </trkpt>
      <trkpt lat="43.22632" lon="5.43796">
        <ele>164.5</ele>
        <time>2013-10-09T12:46:15Z</time>
      </trkpt>
      <trkpt lat="43.22635" lon="5.43793">
        <ele>163.3</ele>
        <time>2013-10-09T12:46:19Z</time>
      </trkpt>
      <trkpt lat="43.22639" lon="5.4379">
        <ele>163</ele>
        <time>2013-10-09T12:46:23Z</time>
      </trkpt>
      <trkpt lat="43.22643" lon="5.43788">
        <ele>162.5</ele>
        <time>2013-10-09T12:46:27Z</time>
      </trkpt>
      <trkpt lat="43.22646" lon="5.43786">
        <ele>162</ele>
        <time>2013-10-09T12:46:30Z</time>
      </trkpt>
      <trkpt lat="43.2265" lon="5.43784">
        <ele>161.5</ele>
        <time>2013-10-09T12:46:33Z</time>
      </trkpt>
      <trkpt lat="43.22653" lon="5.43782">
        <ele>161.1</ele>
        <time>2013-10-09T12:46:36Z</time>
      </trkpt>
      <trkpt lat="43.22657" lon="5.43778">
        <ele>160.6</ele>
        <time>2013-10-09T12:46:40Z</time>
      </trkpt>
      <trkpt lat="43.2266" lon="5.43775">
        <ele>160.1</ele>
        <time>2013-10-09T12:46:44Z</time>
      </trkpt>
      <trkpt lat="43.22661" lon="5.43775">
        <ele>160</ele>
        <time>2013-10-09T12:46:45Z</time>
      </trkpt>
      <trkpt lat="43.22667" lon="5.4377">
        <ele>159.8</ele>
        <time>2013-10-09T12:46:50Z</time>
      </trkpt>
      <trkpt lat="43.2267" lon="5.43767">
        <ele>159.3</ele>
        <time>2013-10-09T12:46:53Z</time>
      </trkpt>
      <trkpt lat="43.22673" lon="5.43765">
        <ele>159</ele>
        <time>2013-10-09T12:46:56Z</time>
      </trkpt>
      <trkpt lat="43.22676" lon="5.43763">
        <ele>158.6</ele>
        <time>2013-10-09T12:46:59Z</time>
      </trkpt>
      <trkpt lat="43.22679" lon="5.4376">
        <ele>158.6</ele>
        <time>2013-10-09T12:47:02Z</time>
      </trkpt>
      <trkpt lat="43.22682" lon="5.43758">
        <ele>158.6</ele>
        <time>2013-10-09T12:47:05Z</time>
      </trkpt>
      <trkpt lat="43.22685" lon="5.43755">
        <ele>158.6</ele>
        <time>2013-10-09T12:47:08Z</time>
      </trkpt>
      <trkpt lat="43.22688" lon="5.43753">
        <ele>158.6</ele>
        <time>2013-10-09T12:47:11Z</time>
      </trkpt>
      <trkpt lat="43.22692" lon="5.4375">
        <ele>158.6</ele>
        <time>2013-10-09T12:47:15Z</time>
      </trkpt>
      <trkpt lat="43.22695" lon="5.43748">
        <ele>158.6</ele>
        <time>2013-10-09T12:47:18Z</time>
      </trkpt>
      <trkpt lat="43.22699" lon="5.43745">
        <ele>158</ele>
        <time>2013-10-09T12:47:22Z</time>
      </trkpt>
      <trkpt lat="43.22702" lon="5.43742">
        <ele>157.3</ele>
        <time>2013-10-09T12:47:26Z</time>
      </trkpt>
      <trkpt lat="43.22706" lon="5.43739">
        <ele>157</ele>
        <time>2013-10-09T12:47:30Z</time>
      </trkpt>
      <trkpt lat="43.2271" lon="5.43737">
        <ele>157.1</ele>
        <time>2013-10-09T12:47:33Z</time>
      </trkpt>
      <trkpt lat="43.22714" lon="5.43735">
        <ele>156.8</ele>
        <time>2013-10-09T12:47:37Z</time>
      </trkpt>
      <trkpt lat="43.22718" lon="5.43733">
        <ele>156.6</ele>
        <time>2013-10-09T12:47:41Z</time>
      </trkpt>
      <trkpt lat="43.2272" lon="5.43732">
        <ele>156.6</ele>
        <time>2013-10-09T12:47:43Z</time>
      </trkpt>
      <trkpt lat="43.22723" lon="5.43731">
        <ele>156.6</ele>
        <time>2013-10-09T12:47:45Z</time>
      </trkpt>
      <trkpt lat="43.22725" lon="5.4373">
        <ele>156.5</ele>
        <time>2013-10-09T12:47:46Z</time>
      </trkpt>
      <trkpt lat="43.2273" lon="5.43729">
        <ele>156.8</ele>
        <time>2013-10-09T12:47:49Z</time>
      </trkpt>
      <trkpt lat="43.22733" lon="5.43727">
        <ele>157.1</ele>
        <time>2013-10-09T12:47:51Z</time>
      </trkpt>
      <trkpt lat="43.22737" lon="5.43726">
        <ele>157.1</ele>
        <time>2013-10-09T12:47:53Z</time>
      </trkpt>
      <trkpt lat="43.22741" lon="5.43726">
        <ele>157.5</ele>
        <time>2013-10-09T12:47:56Z</time>
      </trkpt>
      <trkpt lat="43.22745" lon="5.43725">
        <ele>157.6</ele>
        <time>2013-10-09T12:47:59Z</time>
      </trkpt>
      <trkpt lat="43.22749" lon="5.43723">
        <ele>157.8</ele>
        <time>2013-10-09T12:48:02Z</time>
      </trkpt>
      <trkpt lat="43.22753" lon="5.43723">
        <ele>158</ele>
        <time>2013-10-09T12:48:05Z</time>
      </trkpt>
      <trkpt lat="43.22756" lon="5.43723">
        <ele>158.1</ele>
        <time>2013-10-09T12:48:08Z</time>
      </trkpt>
      <trkpt lat="43.2276" lon="5.43722">
        <ele>157.8</ele>
        <time>2013-10-09T12:48:11Z</time>
      </trkpt>
      <trkpt lat="43.22763" lon="5.43721">
        <ele>157.5</ele>
        <time>2013-10-09T12:48:14Z</time>
      </trkpt>
      <trkpt lat="43.22767" lon="5.43721">
        <ele>157.1</ele>
        <time>2013-10-09T12:48:17Z</time>
      </trkpt>
      <trkpt lat="43.22771" lon="5.4372">
        <ele>156</ele>
        <time>2013-10-09T12:48:21Z</time>
      </trkpt>
      <trkpt lat="43.22775" lon="5.43721">
        <ele>155.1</ele>
        <time>2013-10-09T12:48:24Z</time>
      </trkpt>
      <trkpt lat="43.22778" lon="5.43721">
        <ele>154.8</ele>
        <time>2013-10-09T12:48:27Z</time>
      </trkpt>
      <trkpt lat="43.22782" lon="5.43721">
        <ele>154.3</ele>
        <time>2013-10-09T12:48:30Z</time>
      </trkpt>
      <trkpt lat="43.22786" lon="5.43722">
        <ele>153.6</ele>
        <time>2013-10-09T12:48:34Z</time>
      </trkpt>
      <trkpt lat="43.2279" lon="5.43723">
        <ele>153</ele>
        <time>2013-10-09T12:48:37Z</time>
      </trkpt>
      <trkpt lat="43.22793" lon="5.43724">
        <ele>152.6</ele>
        <time>2013-10-09T12:48:40Z</time>
      </trkpt>
      <trkpt lat="43.22797" lon="5.43725">
        <ele>152.5</ele>
        <time>2013-10-09T12:48:44Z</time>
      </trkpt>
      <trkpt lat="43.22801" lon="5.43725">
        <ele>152.5</ele>
        <time>2013-10-09T12:48:48Z</time>
      </trkpt>
      <trkpt lat="43.22802" lon="5.43725">
        <ele>152.3</ele>
        <time>2013-10-09T12:48:49Z</time>
      </trkpt>
      <trkpt lat="43.2281" lon="5.43723">
        <ele>151.6</ele>
        <time>2013-10-09T12:48:56Z</time>
      </trkpt>
      <trkpt lat="43.22813" lon="5.43723">
        <ele>151.5</ele>
        <time>2013-10-09T12:48:59Z</time>
      </trkpt>
      <trkpt lat="43.22817" lon="5.43722">
        <ele>150.5</ele>
        <time>2013-10-09T12:49:03Z</time>
      </trkpt>
      <trkpt lat="43.22821" lon="5.43721">
        <ele>150.3</ele>
        <time>2013-10-09T12:49:06Z</time>
      </trkpt>
      <trkpt lat="43.22825" lon="5.4372">
        <ele>150.6</ele>
        <time>2013-10-09T12:49:09Z</time>
      </trkpt>
      <trkpt lat="43.22829" lon="5.4372">
        <ele>150.5</ele>
        <time>2013-10-09T12:49:12Z</time>
      </trkpt>
      <trkpt lat="43.22833" lon="5.4372">
        <ele>150.6</ele>
        <time>2013-10-09T12:49:15Z</time>
      </trkpt>
      <trkpt lat="43.22837" lon="5.4372">
        <ele>150.6</ele>
        <time>2013-10-09T12:49:18Z</time>
      </trkpt>
      <trkpt lat="43.2284" lon="5.43719">
        <ele>150.1</ele>
        <time>2013-10-09T12:49:21Z</time>
      </trkpt>
      <trkpt lat="43.22844" lon="5.43719">
        <ele>149.8</ele>
        <time>2013-10-09T12:49:24Z</time>
      </trkpt>
      <trkpt lat="43.22848" lon="5.43718">
        <ele>149.8</ele>
        <time>2013-10-09T12:49:27Z</time>
      </trkpt>
      <trkpt lat="43.22852" lon="5.43719">
        <ele>150.3</ele>
        <time>2013-10-09T12:49:30Z</time>
      </trkpt>
      <trkpt lat="43.22856" lon="5.43719">
        <ele>150.8</ele>
        <time>2013-10-09T12:49:33Z</time>
      </trkpt>
      <trkpt lat="43.22861" lon="5.43718">
        <ele>150.6</ele>
        <time>2013-10-09T12:49:37Z</time>
      </trkpt>
      <trkpt lat="43.22865" lon="5.43718">
        <ele>149.3</ele>
        <time>2013-10-09T12:49:41Z</time>
      </trkpt>
      <trkpt lat="43.22869" lon="5.43718">
        <ele>149.3</ele>
        <time>2013-10-09T12:49:44Z</time>
      </trkpt>
      <trkpt lat="43.22872" lon="5.43717">
        <ele>148.6</ele>
        <time>2013-10-09T12:49:47Z</time>
      </trkpt>
      <trkpt lat="43.22876" lon="5.43717">
        <ele>148.1</ele>
        <time>2013-10-09T12:49:50Z</time>
      </trkpt>
      <trkpt lat="43.22877" lon="5.43716">
        <ele>148.1</ele>
        <time>2013-10-09T12:49:51Z</time>
      </trkpt>
      <trkpt lat="43.22883" lon="5.43717">
        <ele>148.1</ele>
        <time>2013-10-09T12:49:56Z</time>
      </trkpt>
      <trkpt lat="43.22887" lon="5.43717">
        <ele>148.8</ele>
        <time>2013-10-09T12:49:59Z</time>
      </trkpt>
      <trkpt lat="43.22891" lon="5.43717">
        <ele>148.8</ele>
        <time>2013-10-09T12:50:02Z</time>
      </trkpt>
      <trkpt lat="43.22895" lon="5.43717">
        <ele>148.6</ele>
        <time>2013-10-09T12:50:05Z</time>
      </trkpt>
      <trkpt lat="43.22899" lon="5.43717">
        <ele>148.8</ele>
        <time>2013-10-09T12:50:08Z</time>
      </trkpt>
      <trkpt lat="43.22903" lon="5.43715">
        <ele>148.6</ele>
        <time>2013-10-09T12:50:11Z</time>
      </trkpt>
      <trkpt lat="43.22906" lon="5.43714">
        <ele>148.1</ele>
        <time>2013-10-09T12:50:14Z</time>
      </trkpt>
      <trkpt lat="43.2291" lon="5.43714">
        <ele>147.6</ele>
        <time>2013-10-09T12:50:17Z</time>
      </trkpt>
      <trkpt lat="43.22913" lon="5.43713">
        <ele>147.3</ele>
        <time>2013-10-09T12:50:20Z</time>
      </trkpt>
      <trkpt lat="43.22918" lon="5.43713">
        <ele>147.5</ele>
        <time>2013-10-09T12:50:24Z</time>
      </trkpt>
      <trkpt lat="43.22921" lon="5.43713">
        <ele>147.5</ele>
        <time>2013-10-09T12:50:27Z</time>
      </trkpt>
      <trkpt lat="43.22925" lon="5.43712">
        <ele>146.8</ele>
        <time>2013-10-09T12:50:31Z</time>
      </trkpt>
      <trkpt lat="43.22929" lon="5.43711">
        <ele>145.8</ele>
        <time>2013-10-09T12:50:35Z</time>
      </trkpt>
      <trkpt lat="43.22933" lon="5.4371">
        <ele>145.6</ele>
        <time>2013-10-09T12:50:38Z</time>
      </trkpt>
      <trkpt lat="43.22937" lon="5.43709">
        <ele>145.3</ele>
        <time>2013-10-09T12:50:42Z</time>
      </trkpt>
      <trkpt lat="43.22941" lon="5.43708">
        <ele>145.1</ele>
        <time>2013-10-09T12:50:46Z</time>
      </trkpt>
      <trkpt lat="43.22945" lon="5.43708">
        <ele>145.1</ele>
        <time>2013-10-09T12:50:49Z</time>
      </trkpt>
      <trkpt lat="43.22949" lon="5.43708">
        <ele>144</ele>
        <time>2013-10-09T12:50:53Z</time>
      </trkpt>
      <trkpt lat="43.2295" lon="5.43708">
        <ele>143.8</ele>
        <time>2013-10-09T12:50:54Z</time>
      </trkpt>
      <trkpt lat="43.22957" lon="5.43707">
        <ele>143.3</ele>
        <time>2013-10-09T12:51:00Z</time>
      </trkpt>
      <trkpt lat="43.22961" lon="5.43707">
        <ele>143.3</ele>
        <time>2013-10-09T12:51:05Z</time>
      </trkpt>
      <trkpt lat="43.22965" lon="5.43705">
        <ele>143.6</ele>
        <time>2013-10-09T12:51:10Z</time>
      </trkpt>
      <trkpt lat="43.22968" lon="5.43705">
        <ele>143.8</ele>
        <time>2013-10-09T12:51:13Z</time>
      </trkpt>
      <trkpt lat="43.22972" lon="5.43704">
        <ele>144.1</ele>
        <time>2013-10-09T12:51:16Z</time>
      </trkpt>
      <trkpt lat="43.22976" lon="5.43704">
        <ele>143.5</ele>
        <time>2013-10-09T12:51:20Z</time>
      </trkpt>
      <trkpt lat="43.2298" lon="5.43702">
        <ele>143.3</ele>
        <time>2013-10-09T12:51:24Z</time>
      </trkpt>
      <trkpt lat="43.22984" lon="5.437">
        <ele>143.3</ele>
        <time>2013-10-09T12:51:29Z</time>
      </trkpt>
      <trkpt lat="43.22988" lon="5.43698">
        <ele>143.5</ele>
        <time>2013-10-09T12:51:33Z</time>
      </trkpt>
      <trkpt lat="43.22992" lon="5.43696">
        <ele>143.8</ele>
        <time>2013-10-09T12:51:37Z</time>
      </trkpt>
      <trkpt lat="43.22995" lon="5.43695">
        <ele>143.8</ele>
        <time>2013-10-09T12:51:40Z</time>
      </trkpt>
      <trkpt lat="43.22999" lon="5.43693">
        <ele>143.8</ele>
        <time>2013-10-09T12:51:43Z</time>
      </trkpt>
      <trkpt lat="43.23002" lon="5.43692">
        <ele>144.1</ele>
        <time>2013-10-09T12:51:46Z</time>
      </trkpt>
      <trkpt lat="43.23007" lon="5.43692">
        <ele>143.6</ele>
        <time>2013-10-09T12:51:50Z</time>
      </trkpt>
      <trkpt lat="43.2301" lon="5.43691">
        <ele>143.3</ele>
        <time>2013-10-09T12:51:53Z</time>
      </trkpt>
      <trkpt lat="43.23014" lon="5.4369">
        <ele>142.8</ele>
        <time>2013-10-09T12:51:57Z</time>
      </trkpt>
      <trkpt lat="43.23015" lon="5.4369">
        <ele>142.5</ele>
        <time>2013-10-09T12:51:58Z</time>
      </trkpt>
      <trkpt lat="43.23022" lon="5.43689">
        <ele>142</ele>
        <time>2013-10-09T12:52:05Z</time>
      </trkpt>
      <trkpt lat="43.23026" lon="5.43688">
        <ele>141.5</ele>
        <time>2013-10-09T12:52:09Z</time>
      </trkpt>
      <trkpt lat="43.2303" lon="5.43685">
        <ele>140.6</ele>
        <time>2013-10-09T12:52:14Z</time>
      </trkpt>
      <trkpt lat="43.23033" lon="5.43682">
        <ele>139.8</ele>
        <time>2013-10-09T12:52:18Z</time>
      </trkpt>
      <trkpt lat="43.23036" lon="5.43678">
        <ele>139</ele>
        <time>2013-10-09T12:52:22Z</time>
      </trkpt>
      <trkpt lat="43.23039" lon="5.43674">
        <ele>138.6</ele>
        <time>2013-10-09T12:52:26Z</time>
      </trkpt>
      <trkpt lat="43.2304" lon="5.43669">
        <ele>137.3</ele>
        <time>2013-10-09T12:52:30Z</time>
      </trkpt>
      <trkpt lat="43.23042" lon="5.43664">
        <ele>136.3</ele>
        <time>2013-10-09T12:52:34Z</time>
      </trkpt>
      <trkpt lat="43.23043" lon="5.43659">
        <ele>135.1</ele>
        <time>2013-10-09T12:52:38Z</time>
      </trkpt>
      <trkpt lat="43.23043" lon="5.43653">
        <ele>133.8</ele>
        <time>2013-10-09T12:52:43Z</time>
      </trkpt>
      <trkpt lat="43.23044" lon="5.43648">
        <ele>133</ele>
        <time>2013-10-09T12:52:47Z</time>
      </trkpt>
      <trkpt lat="43.23047" lon="5.43644">
        <ele>132.5</ele>
        <time>2013-10-09T12:52:51Z</time>
      </trkpt>
      <trkpt lat="43.23051" lon="5.43643">
        <ele>132.6</ele>
        <time>2013-10-09T12:52:54Z</time>
      </trkpt>
      <trkpt lat="43.23055" lon="5.43641">
        <ele>133.3</ele>
        <time>2013-10-09T12:52:57Z</time>
      </trkpt>
      <trkpt lat="43.23059" lon="5.43641">
        <ele>134.6</ele>
        <time>2013-10-09T12:53:00Z</time>
      </trkpt>
      <trkpt lat="43.2306" lon="5.43641">
        <ele>134.6</ele>
        <time>2013-10-09T12:53:01Z</time>
      </trkpt>
    </trkseg>
  </trk>
</gpx>